<?xml version="1.0" encoding="UTF-8" standalone="no" ?>
<gpx xmlns="http://www.topografix.com/GPX/1/1" xmlns:xsi="http://www.w3.org/2001/XMLSchema-instance" xsi:schemaLocation="http://www.topografix.com/GPX/1/1 http://www.topografix.com/GPX/1/1/gpx.xsd" version="1.1" creator="VisuGPX - https://www.visugpx.com">
  <metadata>
    <name>Raquettes au saleve</name>
    <desc><![CDATA[sortie raquettes 50 cm de neige]]></desc>
  </metadata>
  <trk>
    <name><![CDATA[Untitled]]></name>
    <trkseg>
      <trkpt lat="46.06724" lon="6.08722">
        <ele>876.40002441406</ele>
        <time>2012-12-10T08:56:07.000Z</time>
      </trkpt>
      <trkpt lat="46.06723" lon="6.08722">
        <ele>876.40002441406</ele>
        <time>2012-12-10T08:56:17.000Z</time>
      </trkpt>
      <trkpt lat="46.06726" lon="6.08722">
        <ele>876.40002441406</ele>
        <time>2012-12-10T08:56:24.000Z</time>
      </trkpt>
      <trkpt lat="46.06731" lon="6.08731">
        <ele>876.40002441406</ele>
        <time>2012-12-10T08:56:33.000Z</time>
      </trkpt>
      <trkpt lat="46.06737" lon="6.08742">
        <ele>878.40002441406</ele>
        <time>2012-12-10T08:56:43.000Z</time>
      </trkpt>
      <trkpt lat="46.06741" lon="6.08748">
        <ele>878.40002441406</ele>
        <time>2012-12-10T08:56:49.000Z</time>
      </trkpt>
      <trkpt lat="46.06742" lon="6.08749">
        <ele>879.40002441406</ele>
        <time>2012-12-10T08:56:50.000Z</time>
      </trkpt>
      <trkpt lat="46.06744" lon="6.08752">
        <ele>879.40002441406</ele>
        <time>2012-12-10T08:56:54.000Z</time>
      </trkpt>
      <trkpt lat="46.06745" lon="6.08752">
        <ele>879.40002441406</ele>
        <time>2012-12-10T08:56:55.000Z</time>
      </trkpt>
      <trkpt lat="46.06747" lon="6.08756">
        <ele>879.40002441406</ele>
        <time>2012-12-10T08:56:59.000Z</time>
      </trkpt>
      <trkpt lat="46.06749" lon="6.08758">
        <ele>879.40002441406</ele>
        <time>2012-12-10T08:57:01.000Z</time>
      </trkpt>
      <trkpt lat="46.06754" lon="6.08766">
        <ele>879.40002441406</ele>
        <time>2012-12-10T08:57:09.000Z</time>
      </trkpt>
      <trkpt lat="46.06755" lon="6.08768">
        <ele>880.40002441406</ele>
        <time>2012-12-10T08:57:11.000Z</time>
      </trkpt>
      <trkpt lat="46.06757" lon="6.08771">
        <ele>880.40002441406</ele>
        <time>2012-12-10T08:57:15.000Z</time>
      </trkpt>
      <trkpt lat="46.06758" lon="6.08773">
        <ele>880.40002441406</ele>
        <time>2012-12-10T08:57:21.000Z</time>
      </trkpt>
      <trkpt lat="46.06758" lon="6.08773">
        <ele>880.40002441406</ele>
        <time>2012-12-10T08:57:29.000Z</time>
      </trkpt>
      <trkpt lat="46.06757" lon="6.08773">
        <ele>880.40002441406</ele>
        <time>2012-12-10T08:57:43.000Z</time>
      </trkpt>
      <trkpt lat="46.06757" lon="6.08773">
        <ele>880.40002441406</ele>
        <time>2012-12-10T08:57:57.000Z</time>
      </trkpt>
      <trkpt lat="46.06757" lon="6.08773">
        <ele>880.40002441406</ele>
        <time>2012-12-10T08:58:13.000Z</time>
      </trkpt>
      <trkpt lat="46.06757" lon="6.08773">
        <ele>880.40002441406</ele>
        <time>2012-12-10T08:58:23.000Z</time>
      </trkpt>
      <trkpt lat="46.06759" lon="6.08773">
        <ele>880.40002441406</ele>
        <time>2012-12-10T08:58:29.000Z</time>
      </trkpt>
      <trkpt lat="46.06763" lon="6.0878">
        <ele>880.40002441406</ele>
        <time>2012-12-10T08:58:36.000Z</time>
      </trkpt>
      <trkpt lat="46.06767" lon="6.08789">
        <ele>880.40002441406</ele>
        <time>2012-12-10T08:58:44.000Z</time>
      </trkpt>
      <trkpt lat="46.06769" lon="6.08791">
        <ele>880.40002441406</ele>
        <time>2012-12-10T08:58:46.000Z</time>
      </trkpt>
      <trkpt lat="46.0677" lon="6.08793">
        <ele>881.40002441406</ele>
        <time>2012-12-10T08:58:48.000Z</time>
      </trkpt>
      <trkpt lat="46.06771" lon="6.08796">
        <ele>881.40002441406</ele>
        <time>2012-12-10T08:58:50.000Z</time>
      </trkpt>
      <trkpt lat="46.06776" lon="6.08802">
        <ele>882.59997558594</ele>
        <time>2012-12-10T08:58:57.000Z</time>
      </trkpt>
      <trkpt lat="46.06781" lon="6.0881">
        <ele>882.59997558594</ele>
        <time>2012-12-10T08:59:04.000Z</time>
      </trkpt>
      <trkpt lat="46.06785" lon="6.08816">
        <ele>882.59997558594</ele>
        <time>2012-12-10T08:59:10.000Z</time>
      </trkpt>
      <trkpt lat="46.06789" lon="6.08822">
        <ele>882.59997558594</ele>
        <time>2012-12-10T08:59:16.000Z</time>
      </trkpt>
      <trkpt lat="46.06794" lon="6.0883">
        <ele>882.59997558594</ele>
        <time>2012-12-10T08:59:23.000Z</time>
      </trkpt>
      <trkpt lat="46.06799" lon="6.08838">
        <ele>882.59997558594</ele>
        <time>2012-12-10T08:59:31.000Z</time>
      </trkpt>
      <trkpt lat="46.06803" lon="6.08844">
        <ele>884</ele>
        <time>2012-12-10T08:59:37.000Z</time>
      </trkpt>
      <trkpt lat="46.06804" lon="6.08845">
        <ele>884</ele>
        <time>2012-12-10T08:59:38.000Z</time>
      </trkpt>
      <trkpt lat="46.06808" lon="6.08851">
        <ele>884</ele>
        <time>2012-12-10T08:59:44.000Z</time>
      </trkpt>
      <trkpt lat="46.06813" lon="6.0886">
        <ele>884</ele>
        <time>2012-12-10T08:59:52.000Z</time>
      </trkpt>
      <trkpt lat="46.06816" lon="6.08866">
        <ele>885</ele>
        <time>2012-12-10T08:59:57.000Z</time>
      </trkpt>
      <trkpt lat="46.06817" lon="6.08867">
        <ele>885</ele>
        <time>2012-12-10T08:59:59.000Z</time>
      </trkpt>
      <trkpt lat="46.06819" lon="6.08871">
        <ele>885</ele>
        <time>2012-12-10T09:00:02.000Z</time>
      </trkpt>
      <trkpt lat="46.06822" lon="6.08876">
        <ele>885</ele>
        <time>2012-12-10T09:00:07.000Z</time>
      </trkpt>
      <trkpt lat="46.06826" lon="6.08882">
        <ele>885</ele>
        <time>2012-12-10T09:00:13.000Z</time>
      </trkpt>
      <trkpt lat="46.06829" lon="6.08887">
        <ele>885</ele>
        <time>2012-12-10T09:00:21.000Z</time>
      </trkpt>
      <trkpt lat="46.06829" lon="6.08888">
        <ele>886</ele>
        <time>2012-12-10T09:00:25.000Z</time>
      </trkpt>
      <trkpt lat="46.06829" lon="6.08888">
        <ele>886</ele>
        <time>2012-12-10T09:00:30.000Z</time>
      </trkpt>
      <trkpt lat="46.06829" lon="6.08888">
        <ele>886</ele>
        <time>2012-12-10T09:00:37.000Z</time>
      </trkpt>
      <trkpt lat="46.06829" lon="6.08888">
        <ele>886</ele>
        <time>2012-12-10T09:00:54.000Z</time>
      </trkpt>
      <trkpt lat="46.06829" lon="6.08888">
        <ele>886</ele>
        <time>2012-12-10T09:01:05.000Z</time>
      </trkpt>
      <trkpt lat="46.06828" lon="6.08888">
        <ele>886</ele>
        <time>2012-12-10T09:01:12.000Z</time>
      </trkpt>
      <trkpt lat="46.06831" lon="6.08889">
        <ele>886</ele>
        <time>2012-12-10T09:01:19.000Z</time>
      </trkpt>
      <trkpt lat="46.06835" lon="6.08896">
        <ele>886</ele>
        <time>2012-12-10T09:01:25.000Z</time>
      </trkpt>
      <trkpt lat="46.06836" lon="6.08899">
        <ele>886</ele>
        <time>2012-12-10T09:01:28.000Z</time>
      </trkpt>
      <trkpt lat="46.06838" lon="6.08902">
        <ele>886</ele>
        <time>2012-12-10T09:01:31.000Z</time>
      </trkpt>
      <trkpt lat="46.06842" lon="6.08907">
        <ele>886</ele>
        <time>2012-12-10T09:01:37.000Z</time>
      </trkpt>
      <trkpt lat="46.06843" lon="6.08909">
        <ele>886</ele>
        <time>2012-12-10T09:01:39.000Z</time>
      </trkpt>
      <trkpt lat="46.06845" lon="6.08911">
        <ele>887.20001220703</ele>
        <time>2012-12-10T09:01:41.000Z</time>
      </trkpt>
      <trkpt lat="46.06849" lon="6.08918">
        <ele>887.20001220703</ele>
        <time>2012-12-10T09:01:46.000Z</time>
      </trkpt>
      <trkpt lat="46.06854" lon="6.08926">
        <ele>887.20001220703</ele>
        <time>2012-12-10T09:01:53.000Z</time>
      </trkpt>
      <trkpt lat="46.06859" lon="6.08934">
        <ele>887.20001220703</ele>
        <time>2012-12-10T09:02:00.000Z</time>
      </trkpt>
      <trkpt lat="46.06864" lon="6.08942">
        <ele>887.20001220703</ele>
        <time>2012-12-10T09:02:07.000Z</time>
      </trkpt>
      <trkpt lat="46.06868" lon="6.0895">
        <ele>887.20001220703</ele>
        <time>2012-12-10T09:02:14.000Z</time>
      </trkpt>
      <trkpt lat="46.06872" lon="6.08956">
        <ele>887.20001220703</ele>
        <time>2012-12-10T09:02:20.000Z</time>
      </trkpt>
      <trkpt lat="46.06878" lon="6.08964">
        <ele>887.20001220703</ele>
        <time>2012-12-10T09:02:28.000Z</time>
      </trkpt>
      <trkpt lat="46.06881" lon="6.08971">
        <ele>887.20001220703</ele>
        <time>2012-12-10T09:02:34.000Z</time>
      </trkpt>
      <trkpt lat="46.06884" lon="6.08978">
        <ele>887.20001220703</ele>
        <time>2012-12-10T09:02:40.000Z</time>
      </trkpt>
      <trkpt lat="46.06888" lon="6.08987">
        <ele>887.20001220703</ele>
        <time>2012-12-10T09:02:47.000Z</time>
      </trkpt>
      <trkpt lat="46.06893" lon="6.08997">
        <ele>887.20001220703</ele>
        <time>2012-12-10T09:02:55.000Z</time>
      </trkpt>
      <trkpt lat="46.06897" lon="6.09005">
        <ele>887.20001220703</ele>
        <time>2012-12-10T09:03:01.000Z</time>
      </trkpt>
      <trkpt lat="46.06901" lon="6.09012">
        <ele>887.20001220703</ele>
        <time>2012-12-10T09:03:07.000Z</time>
      </trkpt>
      <trkpt lat="46.06904" lon="6.09019">
        <ele>887.20001220703</ele>
        <time>2012-12-10T09:03:13.000Z</time>
      </trkpt>
      <trkpt lat="46.06909" lon="6.09028">
        <ele>887.20001220703</ele>
        <time>2012-12-10T09:03:20.000Z</time>
      </trkpt>
      <trkpt lat="46.06912" lon="6.09034">
        <ele>889.20001220703</ele>
        <time>2012-12-10T09:03:25.000Z</time>
      </trkpt>
      <trkpt lat="46.06914" lon="6.09038">
        <ele>889.20001220703</ele>
        <time>2012-12-10T09:03:28.000Z</time>
      </trkpt>
      <trkpt lat="46.06918" lon="6.09047">
        <ele>889.20001220703</ele>
        <time>2012-12-10T09:03:35.000Z</time>
      </trkpt>
      <trkpt lat="46.06922" lon="6.09054">
        <ele>889.20001220703</ele>
        <time>2012-12-10T09:03:41.000Z</time>
      </trkpt>
      <trkpt lat="46.06927" lon="6.09066">
        <ele>889.20001220703</ele>
        <time>2012-12-10T09:03:50.000Z</time>
      </trkpt>
      <trkpt lat="46.06931" lon="6.09075">
        <ele>889.20001220703</ele>
        <time>2012-12-10T09:03:57.000Z</time>
      </trkpt>
      <trkpt lat="46.06933" lon="6.09079">
        <ele>890.40002441406</ele>
        <time>2012-12-10T09:04:00.000Z</time>
      </trkpt>
      <trkpt lat="46.06934" lon="6.09083">
        <ele>890.40002441406</ele>
        <time>2012-12-10T09:04:04.000Z</time>
      </trkpt>
      <trkpt lat="46.06935" lon="6.09087">
        <ele>890.40002441406</ele>
        <time>2012-12-10T09:04:09.000Z</time>
      </trkpt>
      <trkpt lat="46.06934" lon="6.09087">
        <ele>890.40002441406</ele>
        <time>2012-12-10T09:04:10.000Z</time>
      </trkpt>
      <trkpt lat="46.06934" lon="6.09088">
        <ele>890.40002441406</ele>
        <time>2012-12-10T09:04:16.000Z</time>
      </trkpt>
      <trkpt lat="46.06934" lon="6.09088">
        <ele>890.40002441406</ele>
        <time>2012-12-10T09:04:29.000Z</time>
      </trkpt>
      <trkpt lat="46.06933" lon="6.09088">
        <ele>890.40002441406</ele>
        <time>2012-12-10T09:04:42.000Z</time>
      </trkpt>
      <trkpt lat="46.06933" lon="6.09088">
        <ele>890.40002441406</ele>
        <time>2012-12-10T09:04:53.000Z</time>
      </trkpt>
      <trkpt lat="46.06933" lon="6.09089">
        <ele>890.40002441406</ele>
        <time>2012-12-10T09:05:06.000Z</time>
      </trkpt>
      <trkpt lat="46.06935" lon="6.09099">
        <ele>890.40002441406</ele>
        <time>2012-12-10T09:05:13.000Z</time>
      </trkpt>
      <trkpt lat="46.06935" lon="6.0911">
        <ele>890.40002441406</ele>
        <time>2012-12-10T09:05:20.000Z</time>
      </trkpt>
      <trkpt lat="46.06934" lon="6.09112">
        <ele>890.40002441406</ele>
        <time>2012-12-10T09:05:21.000Z</time>
      </trkpt>
      <trkpt lat="46.06934" lon="6.0912">
        <ele>890.40002441406</ele>
        <time>2012-12-10T09:05:26.000Z</time>
      </trkpt>
      <trkpt lat="46.06932" lon="6.0913">
        <ele>890.40002441406</ele>
        <time>2012-12-10T09:05:33.000Z</time>
      </trkpt>
      <trkpt lat="46.0693" lon="6.09141">
        <ele>890.40002441406</ele>
        <time>2012-12-10T09:05:40.000Z</time>
      </trkpt>
      <trkpt lat="46.06928" lon="6.09152">
        <ele>890.40002441406</ele>
        <time>2012-12-10T09:05:47.000Z</time>
      </trkpt>
      <trkpt lat="46.06926" lon="6.09162">
        <ele>890.40002441406</ele>
        <time>2012-12-10T09:05:54.000Z</time>
      </trkpt>
      <trkpt lat="46.06925" lon="6.09171">
        <ele>890.40002441406</ele>
        <time>2012-12-10T09:06:00.000Z</time>
      </trkpt>
      <trkpt lat="46.06922" lon="6.09181">
        <ele>890.40002441406</ele>
        <time>2012-12-10T09:06:07.000Z</time>
      </trkpt>
      <trkpt lat="46.0692" lon="6.09192">
        <ele>890.40002441406</ele>
        <time>2012-12-10T09:06:14.000Z</time>
      </trkpt>
      <trkpt lat="46.06919" lon="6.09196">
        <ele>890.40002441406</ele>
        <time>2012-12-10T09:06:19.000Z</time>
      </trkpt>
      <trkpt lat="46.06919" lon="6.09197">
        <ele>890.40002441406</ele>
        <time>2012-12-10T09:06:32.000Z</time>
      </trkpt>
      <trkpt lat="46.06919" lon="6.09197">
        <ele>887.20001220703</ele>
        <time>2012-12-10T09:06:39.000Z</time>
      </trkpt>
      <trkpt lat="46.06918" lon="6.09198">
        <ele>887.20001220703</ele>
        <time>2012-12-10T09:06:42.000Z</time>
      </trkpt>
      <trkpt lat="46.06918" lon="6.09198">
        <ele>887.20001220703</ele>
        <time>2012-12-10T09:06:51.000Z</time>
      </trkpt>
      <trkpt lat="46.06918" lon="6.09198">
        <ele>887.20001220703</ele>
        <time>2012-12-10T09:06:59.000Z</time>
      </trkpt>
      <trkpt lat="46.06918" lon="6.09199">
        <ele>887.20001220703</ele>
        <time>2012-12-10T09:07:07.000Z</time>
      </trkpt>
      <trkpt lat="46.06919" lon="6.09199">
        <ele>887.20001220703</ele>
        <time>2012-12-10T09:07:14.000Z</time>
      </trkpt>
      <trkpt lat="46.06918" lon="6.09199">
        <ele>887.20001220703</ele>
        <time>2012-12-10T09:07:20.000Z</time>
      </trkpt>
      <trkpt lat="46.06918" lon="6.09202">
        <ele>887.20001220703</ele>
        <time>2012-12-10T09:07:30.000Z</time>
      </trkpt>
      <trkpt lat="46.06915" lon="6.09214">
        <ele>887.20001220703</ele>
        <time>2012-12-10T09:07:38.000Z</time>
      </trkpt>
      <trkpt lat="46.06913" lon="6.09223">
        <ele>887.20001220703</ele>
        <time>2012-12-10T09:07:44.000Z</time>
      </trkpt>
      <trkpt lat="46.0691" lon="6.09231">
        <ele>887.20001220703</ele>
        <time>2012-12-10T09:07:49.000Z</time>
      </trkpt>
      <trkpt lat="46.06907" lon="6.0924">
        <ele>887.20001220703</ele>
        <time>2012-12-10T09:07:56.000Z</time>
      </trkpt>
      <trkpt lat="46.06904" lon="6.09248">
        <ele>887.20001220703</ele>
        <time>2012-12-10T09:08:02.000Z</time>
      </trkpt>
      <trkpt lat="46.06902" lon="6.09257">
        <ele>887.20001220703</ele>
        <time>2012-12-10T09:08:08.000Z</time>
      </trkpt>
      <trkpt lat="46.06899" lon="6.09265">
        <ele>887.20001220703</ele>
        <time>2012-12-10T09:08:14.000Z</time>
      </trkpt>
      <trkpt lat="46.06895" lon="6.09274">
        <ele>887.20001220703</ele>
        <time>2012-12-10T09:08:20.000Z</time>
      </trkpt>
      <trkpt lat="46.06892" lon="6.0928">
        <ele>887.20001220703</ele>
        <time>2012-12-10T09:08:24.000Z</time>
      </trkpt>
      <trkpt lat="46.06889" lon="6.09288">
        <ele>887.20001220703</ele>
        <time>2012-12-10T09:08:30.000Z</time>
      </trkpt>
      <trkpt lat="46.06888" lon="6.0929">
        <ele>887.20001220703</ele>
        <time>2012-12-10T09:08:31.000Z</time>
      </trkpt>
      <trkpt lat="46.06885" lon="6.09295">
        <ele>887.20001220703</ele>
        <time>2012-12-10T09:08:35.000Z</time>
      </trkpt>
      <trkpt lat="46.06885" lon="6.09296">
        <ele>887.20001220703</ele>
        <time>2012-12-10T09:08:36.000Z</time>
      </trkpt>
      <trkpt lat="46.06882" lon="6.09302">
        <ele>887.20001220703</ele>
        <time>2012-12-10T09:08:41.000Z</time>
      </trkpt>
      <trkpt lat="46.06877" lon="6.09308">
        <ele>887.20001220703</ele>
        <time>2012-12-10T09:08:47.000Z</time>
      </trkpt>
      <trkpt lat="46.06871" lon="6.09312">
        <ele>887.20001220703</ele>
        <time>2012-12-10T09:08:53.000Z</time>
      </trkpt>
      <trkpt lat="46.06867" lon="6.09316">
        <ele>887.20001220703</ele>
        <time>2012-12-10T09:08:58.000Z</time>
      </trkpt>
      <trkpt lat="46.06861" lon="6.09319">
        <ele>887.20001220703</ele>
        <time>2012-12-10T09:09:04.000Z</time>
      </trkpt>
      <trkpt lat="46.06856" lon="6.09322">
        <ele>887.20001220703</ele>
        <time>2012-12-10T09:09:10.000Z</time>
      </trkpt>
      <trkpt lat="46.06851" lon="6.09325">
        <ele>887.20001220703</ele>
        <time>2012-12-10T09:09:16.000Z</time>
      </trkpt>
      <trkpt lat="46.06847" lon="6.09328">
        <ele>887.20001220703</ele>
        <time>2012-12-10T09:09:21.000Z</time>
      </trkpt>
      <trkpt lat="46.06843" lon="6.09331">
        <ele>887.20001220703</ele>
        <time>2012-12-10T09:09:26.000Z</time>
      </trkpt>
      <trkpt lat="46.0684" lon="6.09333">
        <ele>887.20001220703</ele>
        <time>2012-12-10T09:09:31.000Z</time>
      </trkpt>
      <trkpt lat="46.06835" lon="6.09336">
        <ele>887.20001220703</ele>
        <time>2012-12-10T09:09:37.000Z</time>
      </trkpt>
      <trkpt lat="46.0683" lon="6.09339">
        <ele>887.20001220703</ele>
        <time>2012-12-10T09:09:44.000Z</time>
      </trkpt>
      <trkpt lat="46.06827" lon="6.09341">
        <ele>887.20001220703</ele>
        <time>2012-12-10T09:09:47.000Z</time>
      </trkpt>
      <trkpt lat="46.06826" lon="6.09342">
        <ele>887.20001220703</ele>
        <time>2012-12-10T09:09:49.000Z</time>
      </trkpt>
      <trkpt lat="46.06821" lon="6.09346">
        <ele>890.20001220703</ele>
        <time>2012-12-10T09:09:57.000Z</time>
      </trkpt>
      <trkpt lat="46.06817" lon="6.09348">
        <ele>890.20001220703</ele>
        <time>2012-12-10T09:10:04.000Z</time>
      </trkpt>
      <trkpt lat="46.06814" lon="6.0935">
        <ele>891.40002441406</ele>
        <time>2012-12-10T09:10:08.000Z</time>
      </trkpt>
      <trkpt lat="46.06812" lon="6.09351">
        <ele>891.40002441406</ele>
        <time>2012-12-10T09:10:11.000Z</time>
      </trkpt>
      <trkpt lat="46.0681" lon="6.09352">
        <ele>892.40002441406</ele>
        <time>2012-12-10T09:10:14.000Z</time>
      </trkpt>
      <trkpt lat="46.06808" lon="6.09353">
        <ele>892.40002441406</ele>
        <time>2012-12-10T09:10:17.000Z</time>
      </trkpt>
      <trkpt lat="46.06806" lon="6.09354">
        <ele>892.40002441406</ele>
        <time>2012-12-10T09:10:23.000Z</time>
      </trkpt>
      <trkpt lat="46.06802" lon="6.09355">
        <ele>892.40002441406</ele>
        <time>2012-12-10T09:10:29.000Z</time>
      </trkpt>
      <trkpt lat="46.06798" lon="6.09358">
        <ele>892.40002441406</ele>
        <time>2012-12-10T09:10:35.000Z</time>
      </trkpt>
      <trkpt lat="46.06794" lon="6.0936">
        <ele>893.40002441406</ele>
        <time>2012-12-10T09:10:39.000Z</time>
      </trkpt>
      <trkpt lat="46.06792" lon="6.0936">
        <ele>893.40002441406</ele>
        <time>2012-12-10T09:10:42.000Z</time>
      </trkpt>
      <trkpt lat="46.06788" lon="6.09362">
        <ele>893.40002441406</ele>
        <time>2012-12-10T09:10:48.000Z</time>
      </trkpt>
      <trkpt lat="46.06785" lon="6.09363">
        <ele>894.40002441406</ele>
        <time>2012-12-10T09:10:52.000Z</time>
      </trkpt>
      <trkpt lat="46.06784" lon="6.09363">
        <ele>894.40002441406</ele>
        <time>2012-12-10T09:10:54.000Z</time>
      </trkpt>
      <trkpt lat="46.0678" lon="6.09365">
        <ele>894.40002441406</ele>
        <time>2012-12-10T09:10:59.000Z</time>
      </trkpt>
      <trkpt lat="46.06777" lon="6.09366">
        <ele>894.40002441406</ele>
        <time>2012-12-10T09:11:04.000Z</time>
      </trkpt>
      <trkpt lat="46.06776" lon="6.09367">
        <ele>895.59997558594</ele>
        <time>2012-12-10T09:11:06.000Z</time>
      </trkpt>
      <trkpt lat="46.06774" lon="6.09368">
        <ele>895.59997558594</ele>
        <time>2012-12-10T09:11:09.000Z</time>
      </trkpt>
      <trkpt lat="46.06771" lon="6.09369">
        <ele>895.59997558594</ele>
        <time>2012-12-10T09:11:14.000Z</time>
      </trkpt>
      <trkpt lat="46.0677" lon="6.0937">
        <ele>896.59997558594</ele>
        <time>2012-12-10T09:11:15.000Z</time>
      </trkpt>
      <trkpt lat="46.06767" lon="6.09372">
        <ele>896.59997558594</ele>
        <time>2012-12-10T09:11:20.000Z</time>
      </trkpt>
      <trkpt lat="46.06763" lon="6.09375">
        <ele>898</ele>
        <time>2012-12-10T09:11:26.000Z</time>
      </trkpt>
      <trkpt lat="46.06759" lon="6.09377">
        <ele>898</ele>
        <time>2012-12-10T09:11:32.000Z</time>
      </trkpt>
      <trkpt lat="46.06759" lon="6.09377">
        <ele>899.20001220703</ele>
        <time>2012-12-10T09:11:33.000Z</time>
      </trkpt>
      <trkpt lat="46.06756" lon="6.09379">
        <ele>899.20001220703</ele>
        <time>2012-12-10T09:11:38.000Z</time>
      </trkpt>
      <trkpt lat="46.06754" lon="6.0938">
        <ele>899.20001220703</ele>
        <time>2012-12-10T09:11:41.000Z</time>
      </trkpt>
      <trkpt lat="46.06752" lon="6.09381">
        <ele>900.20001220703</ele>
        <time>2012-12-10T09:11:44.000Z</time>
      </trkpt>
      <trkpt lat="46.06749" lon="6.09383">
        <ele>900.20001220703</ele>
        <time>2012-12-10T09:11:49.000Z</time>
      </trkpt>
      <trkpt lat="46.06745" lon="6.09385">
        <ele>901.40002441406</ele>
        <time>2012-12-10T09:11:55.000Z</time>
      </trkpt>
      <trkpt lat="46.06741" lon="6.09387">
        <ele>901.40002441406</ele>
        <time>2012-12-10T09:12:01.000Z</time>
      </trkpt>
      <trkpt lat="46.06739" lon="6.09388">
        <ele>902.40002441406</ele>
        <time>2012-12-10T09:12:05.000Z</time>
      </trkpt>
      <trkpt lat="46.06737" lon="6.09389">
        <ele>902.40002441406</ele>
        <time>2012-12-10T09:12:07.000Z</time>
      </trkpt>
      <trkpt lat="46.06735" lon="6.09391">
        <ele>902.40002441406</ele>
        <time>2012-12-10T09:12:12.000Z</time>
      </trkpt>
      <trkpt lat="46.06734" lon="6.09392">
        <ele>903.40002441406</ele>
        <time>2012-12-10T09:12:14.000Z</time>
      </trkpt>
      <trkpt lat="46.06732" lon="6.09393">
        <ele>903.40002441406</ele>
        <time>2012-12-10T09:12:18.000Z</time>
      </trkpt>
      <trkpt lat="46.06728" lon="6.09395">
        <ele>904.40002441406</ele>
        <time>2012-12-10T09:12:23.000Z</time>
      </trkpt>
      <trkpt lat="46.06726" lon="6.09396">
        <ele>904.40002441406</ele>
        <time>2012-12-10T09:12:28.000Z</time>
      </trkpt>
      <trkpt lat="46.06723" lon="6.09397">
        <ele>905.40002441406</ele>
        <time>2012-12-10T09:12:32.000Z</time>
      </trkpt>
      <trkpt lat="46.06722" lon="6.09396">
        <ele>905.40002441406</ele>
        <time>2012-12-10T09:12:35.000Z</time>
      </trkpt>
      <trkpt lat="46.06719" lon="6.09397">
        <ele>905.40002441406</ele>
        <time>2012-12-10T09:12:41.000Z</time>
      </trkpt>
      <trkpt lat="46.06718" lon="6.09398">
        <ele>906.40002441406</ele>
        <time>2012-12-10T09:12:43.000Z</time>
      </trkpt>
      <trkpt lat="46.06715" lon="6.09399">
        <ele>906.40002441406</ele>
        <time>2012-12-10T09:12:48.000Z</time>
      </trkpt>
      <trkpt lat="46.06712" lon="6.094">
        <ele>906.40002441406</ele>
        <time>2012-12-10T09:12:53.000Z</time>
      </trkpt>
      <trkpt lat="46.06712" lon="6.09401">
        <ele>907.40002441406</ele>
        <time>2012-12-10T09:12:55.000Z</time>
      </trkpt>
      <trkpt lat="46.06709" lon="6.09401">
        <ele>907.40002441406</ele>
        <time>2012-12-10T09:12:59.000Z</time>
      </trkpt>
      <trkpt lat="46.06705" lon="6.09402">
        <ele>908.40002441406</ele>
        <time>2012-12-10T09:13:06.000Z</time>
      </trkpt>
      <trkpt lat="46.06701" lon="6.09403">
        <ele>908.40002441406</ele>
        <time>2012-12-10T09:13:13.000Z</time>
      </trkpt>
      <trkpt lat="46.067" lon="6.09403">
        <ele>909.59997558594</ele>
        <time>2012-12-10T09:13:15.000Z</time>
      </trkpt>
      <trkpt lat="46.06698" lon="6.09405">
        <ele>909.59997558594</ele>
        <time>2012-12-10T09:13:19.000Z</time>
      </trkpt>
      <trkpt lat="46.06697" lon="6.09405">
        <ele>910.59997558594</ele>
        <time>2012-12-10T09:13:21.000Z</time>
      </trkpt>
      <trkpt lat="46.06694" lon="6.09408">
        <ele>910.59997558594</ele>
        <time>2012-12-10T09:13:26.000Z</time>
      </trkpt>
      <trkpt lat="46.06693" lon="6.09409">
        <ele>912</ele>
        <time>2012-12-10T09:13:28.000Z</time>
      </trkpt>
      <trkpt lat="46.06691" lon="6.0941">
        <ele>912</ele>
        <time>2012-12-10T09:13:32.000Z</time>
      </trkpt>
      <trkpt lat="46.06688" lon="6.09409">
        <ele>913</ele>
        <time>2012-12-10T09:13:36.000Z</time>
      </trkpt>
      <trkpt lat="46.06686" lon="6.09408">
        <ele>913</ele>
        <time>2012-12-10T09:13:38.000Z</time>
      </trkpt>
      <trkpt lat="46.06683" lon="6.09407">
        <ele>914</ele>
        <time>2012-12-10T09:13:45.000Z</time>
      </trkpt>
      <trkpt lat="46.06679" lon="6.09405">
        <ele>914</ele>
        <time>2012-12-10T09:13:51.000Z</time>
      </trkpt>
      <trkpt lat="46.06678" lon="6.09404">
        <ele>915</ele>
        <time>2012-12-10T09:13:52.000Z</time>
      </trkpt>
      <trkpt lat="46.06675" lon="6.09401">
        <ele>915</ele>
        <time>2012-12-10T09:13:57.000Z</time>
      </trkpt>
      <trkpt lat="46.06674" lon="6.09398">
        <ele>915</ele>
        <time>2012-12-10T09:14:03.000Z</time>
      </trkpt>
      <trkpt lat="46.0667" lon="6.09398">
        <ele>915</ele>
        <time>2012-12-10T09:14:08.000Z</time>
      </trkpt>
      <trkpt lat="46.06664" lon="6.09396">
        <ele>915</ele>
        <time>2012-12-10T09:14:14.000Z</time>
      </trkpt>
      <trkpt lat="46.0666" lon="6.09393">
        <ele>915</ele>
        <time>2012-12-10T09:14:19.000Z</time>
      </trkpt>
      <trkpt lat="46.06657" lon="6.09392">
        <ele>916.20001220703</ele>
        <time>2012-12-10T09:14:22.000Z</time>
      </trkpt>
      <trkpt lat="46.06654" lon="6.09389">
        <ele>916.20001220703</ele>
        <time>2012-12-10T09:14:26.000Z</time>
      </trkpt>
      <trkpt lat="46.06648" lon="6.09386">
        <ele>916.20001220703</ele>
        <time>2012-12-10T09:14:32.000Z</time>
      </trkpt>
      <trkpt lat="46.06645" lon="6.09384">
        <ele>917.20001220703</ele>
        <time>2012-12-10T09:14:36.000Z</time>
      </trkpt>
      <trkpt lat="46.06643" lon="6.09382">
        <ele>917.20001220703</ele>
        <time>2012-12-10T09:14:38.000Z</time>
      </trkpt>
      <trkpt lat="46.06639" lon="6.09379">
        <ele>918.20001220703</ele>
        <time>2012-12-10T09:14:45.000Z</time>
      </trkpt>
      <trkpt lat="46.06635" lon="6.0938">
        <ele>918.20001220703</ele>
        <time>2012-12-10T09:14:50.000Z</time>
      </trkpt>
      <trkpt lat="46.06632" lon="6.0938">
        <ele>919.20001220703</ele>
        <time>2012-12-10T09:14:57.000Z</time>
      </trkpt>
      <trkpt lat="46.06632" lon="6.09384">
        <ele>919.20001220703</ele>
        <time>2012-12-10T09:15:01.000Z</time>
      </trkpt>
      <trkpt lat="46.06632" lon="6.09388">
        <ele>919.20001220703</ele>
        <time>2012-12-10T09:15:05.000Z</time>
      </trkpt>
      <trkpt lat="46.06632" lon="6.09392">
        <ele>919.20001220703</ele>
        <time>2012-12-10T09:15:10.000Z</time>
      </trkpt>
      <trkpt lat="46.06632" lon="6.09393">
        <ele>920.20001220703</ele>
        <time>2012-12-10T09:15:11.000Z</time>
      </trkpt>
      <trkpt lat="46.06632" lon="6.09397">
        <ele>920.20001220703</ele>
        <time>2012-12-10T09:15:16.000Z</time>
      </trkpt>
      <trkpt lat="46.06634" lon="6.09403">
        <ele>921.40002441406</ele>
        <time>2012-12-10T09:15:21.000Z</time>
      </trkpt>
      <trkpt lat="46.06635" lon="6.09405">
        <ele>921.40002441406</ele>
        <time>2012-12-10T09:15:23.000Z</time>
      </trkpt>
      <trkpt lat="46.06636" lon="6.09409">
        <ele>921.40002441406</ele>
        <time>2012-12-10T09:15:27.000Z</time>
      </trkpt>
      <trkpt lat="46.06637" lon="6.0941">
        <ele>921.40002441406</ele>
        <time>2012-12-10T09:15:28.000Z</time>
      </trkpt>
      <trkpt lat="46.06637" lon="6.09412">
        <ele>922.40002441406</ele>
        <time>2012-12-10T09:15:30.000Z</time>
      </trkpt>
      <trkpt lat="46.06638" lon="6.09415">
        <ele>922.40002441406</ele>
        <time>2012-12-10T09:15:33.000Z</time>
      </trkpt>
      <trkpt lat="46.06639" lon="6.09416">
        <ele>923.40002441406</ele>
        <time>2012-12-10T09:15:34.000Z</time>
      </trkpt>
      <trkpt lat="46.0664" lon="6.0942">
        <ele>924.40002441406</ele>
        <time>2012-12-10T09:15:41.000Z</time>
      </trkpt>
      <trkpt lat="46.06643" lon="6.09427">
        <ele>924.40002441406</ele>
        <time>2012-12-10T09:15:48.000Z</time>
      </trkpt>
      <trkpt lat="46.06645" lon="6.09431">
        <ele>925.40002441406</ele>
        <time>2012-12-10T09:15:52.000Z</time>
      </trkpt>
      <trkpt lat="46.06648" lon="6.09433">
        <ele>925.40002441406</ele>
        <time>2012-12-10T09:15:55.000Z</time>
      </trkpt>
      <trkpt lat="46.06648" lon="6.09435">
        <ele>925.40002441406</ele>
        <time>2012-12-10T09:15:56.000Z</time>
      </trkpt>
      <trkpt lat="46.06649" lon="6.09436">
        <ele>926.40002441406</ele>
        <time>2012-12-10T09:15:57.000Z</time>
      </trkpt>
      <trkpt lat="46.06651" lon="6.09439">
        <ele>926.40002441406</ele>
        <time>2012-12-10T09:16:00.000Z</time>
      </trkpt>
      <trkpt lat="46.06653" lon="6.09442">
        <ele>926.40002441406</ele>
        <time>2012-12-10T09:16:03.000Z</time>
      </trkpt>
      <trkpt lat="46.06654" lon="6.09444">
        <ele>926.40002441406</ele>
        <time>2012-12-10T09:16:05.000Z</time>
      </trkpt>
      <trkpt lat="46.06655" lon="6.09446">
        <ele>926.40002441406</ele>
        <time>2012-12-10T09:16:06.000Z</time>
      </trkpt>
      <trkpt lat="46.06655" lon="6.09447">
        <ele>927.59997558594</ele>
        <time>2012-12-10T09:16:07.000Z</time>
      </trkpt>
      <trkpt lat="46.06657" lon="6.0945">
        <ele>927.59997558594</ele>
        <time>2012-12-10T09:16:10.000Z</time>
      </trkpt>
      <trkpt lat="46.06657" lon="6.09452">
        <ele>927.59997558594</ele>
        <time>2012-12-10T09:16:12.000Z</time>
      </trkpt>
      <trkpt lat="46.06659" lon="6.09456">
        <ele>928.59997558594</ele>
        <time>2012-12-10T09:16:15.000Z</time>
      </trkpt>
      <trkpt lat="46.06661" lon="6.09461">
        <ele>928.59997558594</ele>
        <time>2012-12-10T09:16:19.000Z</time>
      </trkpt>
      <trkpt lat="46.06662" lon="6.09462">
        <ele>929.59997558594</ele>
        <time>2012-12-10T09:16:21.000Z</time>
      </trkpt>
      <trkpt lat="46.06663" lon="6.09466">
        <ele>929.59997558594</ele>
        <time>2012-12-10T09:16:25.000Z</time>
      </trkpt>
      <trkpt lat="46.06664" lon="6.09471">
        <ele>930.59997558594</ele>
        <time>2012-12-10T09:16:30.000Z</time>
      </trkpt>
      <trkpt lat="46.06665" lon="6.09476">
        <ele>930.59997558594</ele>
        <time>2012-12-10T09:16:35.000Z</time>
      </trkpt>
      <trkpt lat="46.06666" lon="6.09477">
        <ele>931.59997558594</ele>
        <time>2012-12-10T09:16:36.000Z</time>
      </trkpt>
      <trkpt lat="46.06668" lon="6.09482">
        <ele>931.59997558594</ele>
        <time>2012-12-10T09:16:42.000Z</time>
      </trkpt>
      <trkpt lat="46.06671" lon="6.09486">
        <ele>931.59997558594</ele>
        <time>2012-12-10T09:16:46.000Z</time>
      </trkpt>
      <trkpt lat="46.06671" lon="6.09487">
        <ele>933</ele>
        <time>2012-12-10T09:16:47.000Z</time>
      </trkpt>
      <trkpt lat="46.06674" lon="6.09493">
        <ele>933</ele>
        <time>2012-12-10T09:16:54.000Z</time>
      </trkpt>
      <trkpt lat="46.06676" lon="6.09498">
        <ele>933</ele>
        <time>2012-12-10T09:16:58.000Z</time>
      </trkpt>
      <trkpt lat="46.06677" lon="6.095">
        <ele>934</ele>
        <time>2012-12-10T09:17:00.000Z</time>
      </trkpt>
      <trkpt lat="46.06679" lon="6.09503">
        <ele>934</ele>
        <time>2012-12-10T09:17:03.000Z</time>
      </trkpt>
      <trkpt lat="46.06679" lon="6.09504">
        <ele>934</ele>
        <time>2012-12-10T09:17:04.000Z</time>
      </trkpt>
      <trkpt lat="46.06681" lon="6.09507">
        <ele>935.20001220703</ele>
        <time>2012-12-10T09:17:08.000Z</time>
      </trkpt>
      <trkpt lat="46.06681" lon="6.09508">
        <ele>935.20001220703</ele>
        <time>2012-12-10T09:17:09.000Z</time>
      </trkpt>
      <trkpt lat="46.06683" lon="6.09513">
        <ele>935.20001220703</ele>
        <time>2012-12-10T09:17:14.000Z</time>
      </trkpt>
      <trkpt lat="46.06683" lon="6.09514">
        <ele>936.20001220703</ele>
        <time>2012-12-10T09:17:15.000Z</time>
      </trkpt>
      <trkpt lat="46.06685" lon="6.09518">
        <ele>936.20001220703</ele>
        <time>2012-12-10T09:17:19.000Z</time>
      </trkpt>
      <trkpt lat="46.06687" lon="6.09522">
        <ele>936.20001220703</ele>
        <time>2012-12-10T09:17:24.000Z</time>
      </trkpt>
      <trkpt lat="46.06688" lon="6.09526">
        <ele>937.20001220703</ele>
        <time>2012-12-10T09:17:28.000Z</time>
      </trkpt>
      <trkpt lat="46.06688" lon="6.09527">
        <ele>937.20001220703</ele>
        <time>2012-12-10T09:17:29.000Z</time>
      </trkpt>
      <trkpt lat="46.0669" lon="6.09532">
        <ele>937.20001220703</ele>
        <time>2012-12-10T09:17:35.000Z</time>
      </trkpt>
      <trkpt lat="46.0669" lon="6.09533">
        <ele>938.20001220703</ele>
        <time>2012-12-10T09:17:36.000Z</time>
      </trkpt>
      <trkpt lat="46.06692" lon="6.09537">
        <ele>938.20001220703</ele>
        <time>2012-12-10T09:17:41.000Z</time>
      </trkpt>
      <trkpt lat="46.06694" lon="6.09544">
        <ele>938.20001220703</ele>
        <time>2012-12-10T09:17:47.000Z</time>
      </trkpt>
      <trkpt lat="46.06695" lon="6.09545">
        <ele>939.20001220703</ele>
        <time>2012-12-10T09:17:49.000Z</time>
      </trkpt>
      <trkpt lat="46.06696" lon="6.09549">
        <ele>939.20001220703</ele>
        <time>2012-12-10T09:17:54.000Z</time>
      </trkpt>
      <trkpt lat="46.06696" lon="6.09551">
        <ele>940.40002441406</ele>
        <time>2012-12-10T09:17:57.000Z</time>
      </trkpt>
      <trkpt lat="46.06697" lon="6.09554">
        <ele>940.40002441406</ele>
        <time>2012-12-10T09:18:01.000Z</time>
      </trkpt>
      <trkpt lat="46.06697" lon="6.09558">
        <ele>940.40002441406</ele>
        <time>2012-12-10T09:18:06.000Z</time>
      </trkpt>
      <trkpt lat="46.06697" lon="6.0956">
        <ele>941.40002441406</ele>
        <time>2012-12-10T09:18:09.000Z</time>
      </trkpt>
      <trkpt lat="46.06698" lon="6.09561">
        <ele>941.40002441406</ele>
        <time>2012-12-10T09:18:11.000Z</time>
      </trkpt>
      <trkpt lat="46.06698" lon="6.09564">
        <ele>941.40002441406</ele>
        <time>2012-12-10T09:18:19.000Z</time>
      </trkpt>
      <trkpt lat="46.06699" lon="6.09565">
        <ele>941.40002441406</ele>
        <time>2012-12-10T09:18:29.000Z</time>
      </trkpt>
      <trkpt lat="46.067" lon="6.09566">
        <ele>941.40002441406</ele>
        <time>2012-12-10T09:18:36.000Z</time>
      </trkpt>
      <trkpt lat="46.067" lon="6.09566">
        <ele>941.40002441406</ele>
        <time>2012-12-10T09:18:53.000Z</time>
      </trkpt>
      <trkpt lat="46.06702" lon="6.09568">
        <ele>941.40002441406</ele>
        <time>2012-12-10T09:19:00.000Z</time>
      </trkpt>
      <trkpt lat="46.06701" lon="6.09568">
        <ele>941.40002441406</ele>
        <time>2012-12-10T09:19:06.000Z</time>
      </trkpt>
      <trkpt lat="46.06703" lon="6.09571">
        <ele>941.40002441406</ele>
        <time>2012-12-10T09:19:13.000Z</time>
      </trkpt>
      <trkpt lat="46.06705" lon="6.09576">
        <ele>942.40002441406</ele>
        <time>2012-12-10T09:19:19.000Z</time>
      </trkpt>
      <trkpt lat="46.06705" lon="6.09576">
        <ele>942.40002441406</ele>
        <time>2012-12-10T09:19:20.000Z</time>
      </trkpt>
      <trkpt lat="46.06706" lon="6.09579">
        <ele>942.40002441406</ele>
        <time>2012-12-10T09:19:26.000Z</time>
      </trkpt>
      <trkpt lat="46.06706" lon="6.09584">
        <ele>943.40002441406</ele>
        <time>2012-12-10T09:19:31.000Z</time>
      </trkpt>
      <trkpt lat="46.06706" lon="6.09585">
        <ele>943.40002441406</ele>
        <time>2012-12-10T09:19:32.000Z</time>
      </trkpt>
      <trkpt lat="46.06706" lon="6.0959">
        <ele>944.40002441406</ele>
        <time>2012-12-10T09:19:38.000Z</time>
      </trkpt>
      <trkpt lat="46.06706" lon="6.09591">
        <ele>944.40002441406</ele>
        <time>2012-12-10T09:19:39.000Z</time>
      </trkpt>
      <trkpt lat="46.06707" lon="6.09599">
        <ele>944.40002441406</ele>
        <time>2012-12-10T09:19:46.000Z</time>
      </trkpt>
      <trkpt lat="46.06707" lon="6.09604">
        <ele>945.59997558594</ele>
        <time>2012-12-10T09:19:52.000Z</time>
      </trkpt>
      <trkpt lat="46.06707" lon="6.09608">
        <ele>945.59997558594</ele>
        <time>2012-12-10T09:19:58.000Z</time>
      </trkpt>
      <trkpt lat="46.06707" lon="6.09613">
        <ele>945.59997558594</ele>
        <time>2012-12-10T09:20:03.000Z</time>
      </trkpt>
      <trkpt lat="46.06708" lon="6.09615">
        <ele>946.59997558594</ele>
        <time>2012-12-10T09:20:06.000Z</time>
      </trkpt>
      <trkpt lat="46.06708" lon="6.09616">
        <ele>946.59997558594</ele>
        <time>2012-12-10T09:20:07.000Z</time>
      </trkpt>
      <trkpt lat="46.06708" lon="6.09621">
        <ele>946.59997558594</ele>
        <time>2012-12-10T09:20:14.000Z</time>
      </trkpt>
      <trkpt lat="46.06708" lon="6.09624">
        <ele>947.59997558594</ele>
        <time>2012-12-10T09:20:18.000Z</time>
      </trkpt>
      <trkpt lat="46.06708" lon="6.09625">
        <ele>947.59997558594</ele>
        <time>2012-12-10T09:20:20.000Z</time>
      </trkpt>
      <trkpt lat="46.06708" lon="6.0963">
        <ele>947.59997558594</ele>
        <time>2012-12-10T09:20:26.000Z</time>
      </trkpt>
      <trkpt lat="46.06707" lon="6.09633">
        <ele>948.59997558594</ele>
        <time>2012-12-10T09:20:30.000Z</time>
      </trkpt>
      <trkpt lat="46.06707" lon="6.09634">
        <ele>948.59997558594</ele>
        <time>2012-12-10T09:20:31.000Z</time>
      </trkpt>
      <trkpt lat="46.06706" lon="6.0964">
        <ele>948.59997558594</ele>
        <time>2012-12-10T09:20:38.000Z</time>
      </trkpt>
      <trkpt lat="46.06706" lon="6.09644">
        <ele>950</ele>
        <time>2012-12-10T09:20:43.000Z</time>
      </trkpt>
      <trkpt lat="46.06705" lon="6.09651">
        <ele>950</ele>
        <time>2012-12-10T09:20:50.000Z</time>
      </trkpt>
      <trkpt lat="46.06704" lon="6.09653">
        <ele>951</ele>
        <time>2012-12-10T09:20:52.000Z</time>
      </trkpt>
      <trkpt lat="46.06704" lon="6.09656">
        <ele>951</ele>
        <time>2012-12-10T09:20:55.000Z</time>
      </trkpt>
      <trkpt lat="46.06704" lon="6.09658">
        <ele>952</ele>
        <time>2012-12-10T09:20:57.000Z</time>
      </trkpt>
      <trkpt lat="46.06703" lon="6.09661">
        <ele>952</ele>
        <time>2012-12-10T09:21:00.000Z</time>
      </trkpt>
      <trkpt lat="46.06703" lon="6.09665">
        <ele>953</ele>
        <time>2012-12-10T09:21:05.000Z</time>
      </trkpt>
      <trkpt lat="46.06703" lon="6.09666">
        <ele>953</ele>
        <time>2012-12-10T09:21:06.000Z</time>
      </trkpt>
      <trkpt lat="46.06703" lon="6.09669">
        <ele>953</ele>
        <time>2012-12-10T09:21:13.000Z</time>
      </trkpt>
      <trkpt lat="46.06704" lon="6.09673">
        <ele>954</ele>
        <time>2012-12-10T09:21:17.000Z</time>
      </trkpt>
      <trkpt lat="46.06705" lon="6.09676">
        <ele>954</ele>
        <time>2012-12-10T09:21:20.000Z</time>
      </trkpt>
      <trkpt lat="46.06706" lon="6.09678">
        <ele>955</ele>
        <time>2012-12-10T09:21:24.000Z</time>
      </trkpt>
      <trkpt lat="46.06706" lon="6.09679">
        <ele>955</ele>
        <time>2012-12-10T09:21:26.000Z</time>
      </trkpt>
      <trkpt lat="46.06706" lon="6.09681">
        <ele>956.20001220703</ele>
        <time>2012-12-10T09:21:29.000Z</time>
      </trkpt>
      <trkpt lat="46.06706" lon="6.09683">
        <ele>956.20001220703</ele>
        <time>2012-12-10T09:21:31.000Z</time>
      </trkpt>
      <trkpt lat="46.06706" lon="6.09684">
        <ele>957.20001220703</ele>
        <time>2012-12-10T09:21:33.000Z</time>
      </trkpt>
      <trkpt lat="46.06706" lon="6.09686">
        <ele>957.20001220703</ele>
        <time>2012-12-10T09:21:37.000Z</time>
      </trkpt>
      <trkpt lat="46.06707" lon="6.09689">
        <ele>958.20001220703</ele>
        <time>2012-12-10T09:21:40.000Z</time>
      </trkpt>
      <trkpt lat="46.06707" lon="6.0969">
        <ele>958.20001220703</ele>
        <time>2012-12-10T09:21:43.000Z</time>
      </trkpt>
      <trkpt lat="46.06707" lon="6.09692">
        <ele>959.40002441406</ele>
        <time>2012-12-10T09:21:45.000Z</time>
      </trkpt>
      <trkpt lat="46.06708" lon="6.09694">
        <ele>959.40002441406</ele>
        <time>2012-12-10T09:21:48.000Z</time>
      </trkpt>
      <trkpt lat="46.06708" lon="6.09696">
        <ele>960.40002441406</ele>
        <time>2012-12-10T09:21:51.000Z</time>
      </trkpt>
      <trkpt lat="46.06708" lon="6.09698">
        <ele>960.40002441406</ele>
        <time>2012-12-10T09:21:54.000Z</time>
      </trkpt>
      <trkpt lat="46.06708" lon="6.097">
        <ele>961.40002441406</ele>
        <time>2012-12-10T09:21:56.000Z</time>
      </trkpt>
      <trkpt lat="46.06708" lon="6.09701">
        <ele>961.40002441406</ele>
        <time>2012-12-10T09:21:58.000Z</time>
      </trkpt>
      <trkpt lat="46.06708" lon="6.09705">
        <ele>962.59997558594</ele>
        <time>2012-12-10T09:22:04.000Z</time>
      </trkpt>
      <trkpt lat="46.06708" lon="6.09712">
        <ele>962.59997558594</ele>
        <time>2012-12-10T09:22:11.000Z</time>
      </trkpt>
      <trkpt lat="46.06708" lon="6.09715">
        <ele>963.59997558594</ele>
        <time>2012-12-10T09:22:14.000Z</time>
      </trkpt>
      <trkpt lat="46.06708" lon="6.09717">
        <ele>963.59997558594</ele>
        <time>2012-12-10T09:22:16.000Z</time>
      </trkpt>
      <trkpt lat="46.06708" lon="6.09718">
        <ele>964.59997558594</ele>
        <time>2012-12-10T09:22:17.000Z</time>
      </trkpt>
      <trkpt lat="46.06708" lon="6.09721">
        <ele>964.59997558594</ele>
        <time>2012-12-10T09:22:21.000Z</time>
      </trkpt>
      <trkpt lat="46.06708" lon="6.09722">
        <ele>965.59997558594</ele>
        <time>2012-12-10T09:22:22.000Z</time>
      </trkpt>
      <trkpt lat="46.06707" lon="6.09725">
        <ele>965.59997558594</ele>
        <time>2012-12-10T09:22:27.000Z</time>
      </trkpt>
      <trkpt lat="46.06706" lon="6.09727">
        <ele>967</ele>
        <time>2012-12-10T09:22:30.000Z</time>
      </trkpt>
      <trkpt lat="46.06706" lon="6.09729">
        <ele>967</ele>
        <time>2012-12-10T09:22:33.000Z</time>
      </trkpt>
      <trkpt lat="46.06706" lon="6.0973">
        <ele>968.20001220703</ele>
        <time>2012-12-10T09:22:34.000Z</time>
      </trkpt>
      <trkpt lat="46.06704" lon="6.09733">
        <ele>968.20001220703</ele>
        <time>2012-12-10T09:22:39.000Z</time>
      </trkpt>
      <trkpt lat="46.06704" lon="6.09733">
        <ele>969.20001220703</ele>
        <time>2012-12-10T09:22:40.000Z</time>
      </trkpt>
      <trkpt lat="46.06703" lon="6.09735">
        <ele>969.20001220703</ele>
        <time>2012-12-10T09:22:44.000Z</time>
      </trkpt>
      <trkpt lat="46.06702" lon="6.09736">
        <ele>970.20001220703</ele>
        <time>2012-12-10T09:22:45.000Z</time>
      </trkpt>
      <trkpt lat="46.06701" lon="6.09738">
        <ele>970.20001220703</ele>
        <time>2012-12-10T09:22:49.000Z</time>
      </trkpt>
      <trkpt lat="46.06701" lon="6.09739">
        <ele>971.40002441406</ele>
        <time>2012-12-10T09:22:51.000Z</time>
      </trkpt>
      <trkpt lat="46.067" lon="6.0974">
        <ele>971.40002441406</ele>
        <time>2012-12-10T09:22:54.000Z</time>
      </trkpt>
      <trkpt lat="46.06699" lon="6.09743">
        <ele>972.40002441406</ele>
        <time>2012-12-10T09:22:59.000Z</time>
      </trkpt>
      <trkpt lat="46.06698" lon="6.09746">
        <ele>972.40002441406</ele>
        <time>2012-12-10T09:23:04.000Z</time>
      </trkpt>
      <trkpt lat="46.06698" lon="6.09748">
        <ele>973.40002441406</ele>
        <time>2012-12-10T09:23:07.000Z</time>
      </trkpt>
      <trkpt lat="46.06698" lon="6.0975">
        <ele>973.40002441406</ele>
        <time>2012-12-10T09:23:10.000Z</time>
      </trkpt>
      <trkpt lat="46.06697" lon="6.09751">
        <ele>974.40002441406</ele>
        <time>2012-12-10T09:23:13.000Z</time>
      </trkpt>
      <trkpt lat="46.06697" lon="6.09753">
        <ele>975.40002441406</ele>
        <time>2012-12-10T09:23:16.000Z</time>
      </trkpt>
      <trkpt lat="46.06695" lon="6.09756">
        <ele>975.40002441406</ele>
        <time>2012-12-10T09:23:22.000Z</time>
      </trkpt>
      <trkpt lat="46.06695" lon="6.09756">
        <ele>976.40002441406</ele>
        <time>2012-12-10T09:23:23.000Z</time>
      </trkpt>
      <trkpt lat="46.06694" lon="6.09757">
        <ele>976.40002441406</ele>
        <time>2012-12-10T09:23:26.000Z</time>
      </trkpt>
      <trkpt lat="46.06694" lon="6.0976">
        <ele>977.40002441406</ele>
        <time>2012-12-10T09:23:30.000Z</time>
      </trkpt>
      <trkpt lat="46.06694" lon="6.0976">
        <ele>977.40002441406</ele>
        <time>2012-12-10T09:23:31.000Z</time>
      </trkpt>
      <trkpt lat="46.06693" lon="6.09763">
        <ele>977.40002441406</ele>
        <time>2012-12-10T09:23:35.000Z</time>
      </trkpt>
      <trkpt lat="46.06693" lon="6.09764">
        <ele>978.59997558594</ele>
        <time>2012-12-10T09:23:36.000Z</time>
      </trkpt>
      <trkpt lat="46.06693" lon="6.09768">
        <ele>979.59997558594</ele>
        <time>2012-12-10T09:23:40.000Z</time>
      </trkpt>
      <trkpt lat="46.06693" lon="6.09769">
        <ele>979.59997558594</ele>
        <time>2012-12-10T09:23:41.000Z</time>
      </trkpt>
      <trkpt lat="46.06693" lon="6.09773">
        <ele>980.59997558594</ele>
        <time>2012-12-10T09:23:47.000Z</time>
      </trkpt>
      <trkpt lat="46.06692" lon="6.09777">
        <ele>980.59997558594</ele>
        <time>2012-12-10T09:23:53.000Z</time>
      </trkpt>
      <trkpt lat="46.06692" lon="6.09777">
        <ele>982</ele>
        <time>2012-12-10T09:23:54.000Z</time>
      </trkpt>
      <trkpt lat="46.06693" lon="6.09781">
        <ele>982</ele>
        <time>2012-12-10T09:23:58.000Z</time>
      </trkpt>
      <trkpt lat="46.06693" lon="6.09781">
        <ele>983</ele>
        <time>2012-12-10T09:23:59.000Z</time>
      </trkpt>
      <trkpt lat="46.06693" lon="6.09784">
        <ele>983</ele>
        <time>2012-12-10T09:24:03.000Z</time>
      </trkpt>
      <trkpt lat="46.06693" lon="6.09786">
        <ele>984</ele>
        <time>2012-12-10T09:24:05.000Z</time>
      </trkpt>
      <trkpt lat="46.06694" lon="6.09791">
        <ele>985</ele>
        <time>2012-12-10T09:24:10.000Z</time>
      </trkpt>
      <trkpt lat="46.06694" lon="6.09792">
        <ele>985</ele>
        <time>2012-12-10T09:24:11.000Z</time>
      </trkpt>
      <trkpt lat="46.06694" lon="6.09795">
        <ele>986</ele>
        <time>2012-12-10T09:24:16.000Z</time>
      </trkpt>
      <trkpt lat="46.06694" lon="6.09796">
        <ele>986</ele>
        <time>2012-12-10T09:24:17.000Z</time>
      </trkpt>
      <trkpt lat="46.06694" lon="6.09798">
        <ele>987.20001220703</ele>
        <time>2012-12-10T09:24:21.000Z</time>
      </trkpt>
      <trkpt lat="46.06694" lon="6.09801">
        <ele>987.20001220703</ele>
        <time>2012-12-10T09:24:23.000Z</time>
      </trkpt>
      <trkpt lat="46.06694" lon="6.09806">
        <ele>987.20001220703</ele>
        <time>2012-12-10T09:24:29.000Z</time>
      </trkpt>
      <trkpt lat="46.06694" lon="6.09807">
        <ele>988.20001220703</ele>
        <time>2012-12-10T09:24:30.000Z</time>
      </trkpt>
      <trkpt lat="46.06695" lon="6.09812">
        <ele>988.20001220703</ele>
        <time>2012-12-10T09:24:35.000Z</time>
      </trkpt>
      <trkpt lat="46.06695" lon="6.09812">
        <ele>989.20001220703</ele>
        <time>2012-12-10T09:24:36.000Z</time>
      </trkpt>
      <trkpt lat="46.06695" lon="6.09815">
        <ele>989.20001220703</ele>
        <time>2012-12-10T09:24:40.000Z</time>
      </trkpt>
      <trkpt lat="46.06695" lon="6.09815">
        <ele>989.20001220703</ele>
        <time>2012-12-10T09:24:41.000Z</time>
      </trkpt>
      <trkpt lat="46.06695" lon="6.09817">
        <ele>990.40002441406</ele>
        <time>2012-12-10T09:24:42.000Z</time>
      </trkpt>
      <trkpt lat="46.06695" lon="6.0982">
        <ele>990.40002441406</ele>
        <time>2012-12-10T09:24:46.000Z</time>
      </trkpt>
      <trkpt lat="46.06696" lon="6.09822">
        <ele>991.40002441406</ele>
        <time>2012-12-10T09:24:48.000Z</time>
      </trkpt>
      <trkpt lat="46.06696" lon="6.09823">
        <ele>991.40002441406</ele>
        <time>2012-12-10T09:24:50.000Z</time>
      </trkpt>
      <trkpt lat="46.06696" lon="6.09826">
        <ele>992.40002441406</ele>
        <time>2012-12-10T09:24:54.000Z</time>
      </trkpt>
      <trkpt lat="46.06697" lon="6.09829">
        <ele>992.40002441406</ele>
        <time>2012-12-10T09:24:57.000Z</time>
      </trkpt>
      <trkpt lat="46.06698" lon="6.09831">
        <ele>993.40002441406</ele>
        <time>2012-12-10T09:25:01.000Z</time>
      </trkpt>
      <trkpt lat="46.06698" lon="6.09833">
        <ele>993.40002441406</ele>
        <time>2012-12-10T09:25:02.000Z</time>
      </trkpt>
      <trkpt lat="46.06699" lon="6.09837">
        <ele>993.40002441406</ele>
        <time>2012-12-10T09:25:08.000Z</time>
      </trkpt>
      <trkpt lat="46.06699" lon="6.09838">
        <ele>994.40002441406</ele>
        <time>2012-12-10T09:25:09.000Z</time>
      </trkpt>
      <trkpt lat="46.06699" lon="6.09842">
        <ele>994.40002441406</ele>
        <time>2012-12-10T09:25:15.000Z</time>
      </trkpt>
      <trkpt lat="46.06699" lon="6.09843">
        <ele>995.40002441406</ele>
        <time>2012-12-10T09:25:16.000Z</time>
      </trkpt>
      <trkpt lat="46.06698" lon="6.09845">
        <ele>996.40002441406</ele>
        <time>2012-12-10T09:25:20.000Z</time>
      </trkpt>
      <trkpt lat="46.06698" lon="6.0985">
        <ele>996.40002441406</ele>
        <time>2012-12-10T09:25:26.000Z</time>
      </trkpt>
      <trkpt lat="46.06697" lon="6.09851">
        <ele>997.59997558594</ele>
        <time>2012-12-10T09:25:28.000Z</time>
      </trkpt>
      <trkpt lat="46.06697" lon="6.09853">
        <ele>999</ele>
        <time>2012-12-10T09:25:31.000Z</time>
      </trkpt>
      <trkpt lat="46.06696" lon="6.09857">
        <ele>1000</ele>
        <time>2012-12-10T09:25:37.000Z</time>
      </trkpt>
      <trkpt lat="46.06696" lon="6.09858">
        <ele>1000</ele>
        <time>2012-12-10T09:25:38.000Z</time>
      </trkpt>
      <trkpt lat="46.06695" lon="6.09859">
        <ele>1000</ele>
        <time>2012-12-10T09:25:41.000Z</time>
      </trkpt>
      <trkpt lat="46.06696" lon="6.09858">
        <ele>1000</ele>
        <time>2012-12-10T09:25:47.000Z</time>
      </trkpt>
      <trkpt lat="46.06698" lon="6.09863">
        <ele>1000</ele>
        <time>2012-12-10T09:25:58.000Z</time>
      </trkpt>
      <trkpt lat="46.06697" lon="6.09863">
        <ele>1000</ele>
        <time>2012-12-10T09:26:02.000Z</time>
      </trkpt>
      <trkpt lat="46.06697" lon="6.09863">
        <ele>1000</ele>
        <time>2012-12-10T09:26:13.000Z</time>
      </trkpt>
      <trkpt lat="46.067" lon="6.09869">
        <ele>1000</ele>
        <time>2012-12-10T09:26:23.000Z</time>
      </trkpt>
      <trkpt lat="46.06692" lon="6.09868">
        <ele>1001</ele>
        <time>2012-12-10T09:26:25.000Z</time>
      </trkpt>
      <trkpt lat="46.06697" lon="6.09872">
        <ele>1001</ele>
        <time>2012-12-10T09:26:30.000Z</time>
      </trkpt>
      <trkpt lat="46.06697" lon="6.09873">
        <ele>1002</ele>
        <time>2012-12-10T09:26:31.000Z</time>
      </trkpt>
      <trkpt lat="46.06697" lon="6.09875">
        <ele>1002</ele>
        <time>2012-12-10T09:26:36.000Z</time>
      </trkpt>
      <trkpt lat="46.06697" lon="6.09876">
        <ele>1003</ele>
        <time>2012-12-10T09:26:38.000Z</time>
      </trkpt>
      <trkpt lat="46.06698" lon="6.09878">
        <ele>1003</ele>
        <time>2012-12-10T09:26:41.000Z</time>
      </trkpt>
      <trkpt lat="46.06698" lon="6.09879">
        <ele>1004.200012207</ele>
        <time>2012-12-10T09:26:44.000Z</time>
      </trkpt>
      <trkpt lat="46.06697" lon="6.09882">
        <ele>1004.200012207</ele>
        <time>2012-12-10T09:26:48.000Z</time>
      </trkpt>
      <trkpt lat="46.06697" lon="6.09885">
        <ele>1005.200012207</ele>
        <time>2012-12-10T09:26:52.000Z</time>
      </trkpt>
      <trkpt lat="46.06697" lon="6.09886">
        <ele>1005.200012207</ele>
        <time>2012-12-10T09:26:53.000Z</time>
      </trkpt>
      <trkpt lat="46.06698" lon="6.09891">
        <ele>1006.200012207</ele>
        <time>2012-12-10T09:26:59.000Z</time>
      </trkpt>
      <trkpt lat="46.06698" lon="6.09892">
        <ele>1006.200012207</ele>
        <time>2012-12-10T09:27:00.000Z</time>
      </trkpt>
      <trkpt lat="46.06698" lon="6.09894">
        <ele>1007.200012207</ele>
        <time>2012-12-10T09:27:03.000Z</time>
      </trkpt>
      <trkpt lat="46.06699" lon="6.09897">
        <ele>1007.200012207</ele>
        <time>2012-12-10T09:27:06.000Z</time>
      </trkpt>
      <trkpt lat="46.06699" lon="6.09899">
        <ele>1008.200012207</ele>
        <time>2012-12-10T09:27:08.000Z</time>
      </trkpt>
      <trkpt lat="46.06699" lon="6.09903">
        <ele>1008.200012207</ele>
        <time>2012-12-10T09:27:13.000Z</time>
      </trkpt>
      <trkpt lat="46.06699" lon="6.09905">
        <ele>1009.4000244141</ele>
        <time>2012-12-10T09:27:15.000Z</time>
      </trkpt>
      <trkpt lat="46.06699" lon="6.09907">
        <ele>1009.4000244141</ele>
        <time>2012-12-10T09:27:19.000Z</time>
      </trkpt>
      <trkpt lat="46.06699" lon="6.09908">
        <ele>1010.4000244141</ele>
        <time>2012-12-10T09:27:20.000Z</time>
      </trkpt>
      <trkpt lat="46.067" lon="6.09912">
        <ele>1010.4000244141</ele>
        <time>2012-12-10T09:27:25.000Z</time>
      </trkpt>
      <trkpt lat="46.067" lon="6.09912">
        <ele>1011.4000244141</ele>
        <time>2012-12-10T09:27:26.000Z</time>
      </trkpt>
      <trkpt lat="46.067" lon="6.09916">
        <ele>1012.5999755859</ele>
        <time>2012-12-10T09:27:31.000Z</time>
      </trkpt>
      <trkpt lat="46.06701" lon="6.0992">
        <ele>1012.5999755859</ele>
        <time>2012-12-10T09:27:37.000Z</time>
      </trkpt>
      <trkpt lat="46.06701" lon="6.09923">
        <ele>1013.5999755859</ele>
        <time>2012-12-10T09:27:41.000Z</time>
      </trkpt>
      <trkpt lat="46.06701" lon="6.09927">
        <ele>1014.5999755859</ele>
        <time>2012-12-10T09:27:45.000Z</time>
      </trkpt>
      <trkpt lat="46.06701" lon="6.09927">
        <ele>1014.5999755859</ele>
        <time>2012-12-10T09:27:46.000Z</time>
      </trkpt>
      <trkpt lat="46.06702" lon="6.09931">
        <ele>1014.5999755859</ele>
        <time>2012-12-10T09:27:51.000Z</time>
      </trkpt>
      <trkpt lat="46.06702" lon="6.09932">
        <ele>1016</ele>
        <time>2012-12-10T09:27:52.000Z</time>
      </trkpt>
      <trkpt lat="46.06703" lon="6.09936">
        <ele>1016</ele>
        <time>2012-12-10T09:27:57.000Z</time>
      </trkpt>
      <trkpt lat="46.06703" lon="6.09936">
        <ele>1017</ele>
        <time>2012-12-10T09:27:58.000Z</time>
      </trkpt>
      <trkpt lat="46.06704" lon="6.09939">
        <ele>1017</ele>
        <time>2012-12-10T09:28:02.000Z</time>
      </trkpt>
      <trkpt lat="46.06703" lon="6.09939">
        <ele>1018</ele>
        <time>2012-12-10T09:28:04.000Z</time>
      </trkpt>
      <trkpt lat="46.06706" lon="6.09944">
        <ele>1018</ele>
        <time>2012-12-10T09:28:10.000Z</time>
      </trkpt>
      <trkpt lat="46.06706" lon="6.09944">
        <ele>1019</ele>
        <time>2012-12-10T09:28:11.000Z</time>
      </trkpt>
      <trkpt lat="46.06707" lon="6.09947">
        <ele>1020</ele>
        <time>2012-12-10T09:28:16.000Z</time>
      </trkpt>
      <trkpt lat="46.06707" lon="6.09951">
        <ele>1020</ele>
        <time>2012-12-10T09:28:22.000Z</time>
      </trkpt>
      <trkpt lat="46.06707" lon="6.09952">
        <ele>1021.200012207</ele>
        <time>2012-12-10T09:28:23.000Z</time>
      </trkpt>
      <trkpt lat="46.06707" lon="6.09955">
        <ele>1021.200012207</ele>
        <time>2012-12-10T09:28:27.000Z</time>
      </trkpt>
      <trkpt lat="46.06706" lon="6.09955">
        <ele>1022.200012207</ele>
        <time>2012-12-10T09:28:28.000Z</time>
      </trkpt>
      <trkpt lat="46.06706" lon="6.09958">
        <ele>1022.200012207</ele>
        <time>2012-12-10T09:28:31.000Z</time>
      </trkpt>
      <trkpt lat="46.06707" lon="6.09959">
        <ele>1023.200012207</ele>
        <time>2012-12-10T09:28:32.000Z</time>
      </trkpt>
      <trkpt lat="46.06707" lon="6.0996">
        <ele>1023.200012207</ele>
        <time>2012-12-10T09:28:34.000Z</time>
      </trkpt>
      <trkpt lat="46.06706" lon="6.09964">
        <ele>1024.4000244141</ele>
        <time>2012-12-10T09:28:38.000Z</time>
      </trkpt>
      <trkpt lat="46.06707" lon="6.09966">
        <ele>1024.4000244141</ele>
        <time>2012-12-10T09:28:41.000Z</time>
      </trkpt>
      <trkpt lat="46.06707" lon="6.09967">
        <ele>1025.4000244141</ele>
        <time>2012-12-10T09:28:43.000Z</time>
      </trkpt>
      <trkpt lat="46.06708" lon="6.0997">
        <ele>1025.4000244141</ele>
        <time>2012-12-10T09:28:47.000Z</time>
      </trkpt>
      <trkpt lat="46.06708" lon="6.0997">
        <ele>1026.4000244141</ele>
        <time>2012-12-10T09:28:48.000Z</time>
      </trkpt>
      <trkpt lat="46.06709" lon="6.09973">
        <ele>1026.4000244141</ele>
        <time>2012-12-10T09:28:53.000Z</time>
      </trkpt>
      <trkpt lat="46.0671" lon="6.09977">
        <ele>1027.4000244141</ele>
        <time>2012-12-10T09:28:58.000Z</time>
      </trkpt>
      <trkpt lat="46.06711" lon="6.09978">
        <ele>1027.4000244141</ele>
        <time>2012-12-10T09:28:59.000Z</time>
      </trkpt>
      <trkpt lat="46.06712" lon="6.09982">
        <ele>1028.8000488281</ele>
        <time>2012-12-10T09:29:04.000Z</time>
      </trkpt>
      <trkpt lat="46.06713" lon="6.09987">
        <ele>1028.8000488281</ele>
        <time>2012-12-10T09:29:11.000Z</time>
      </trkpt>
      <trkpt lat="46.06713" lon="6.09989">
        <ele>1028.8000488281</ele>
        <time>2012-12-10T09:29:16.000Z</time>
      </trkpt>
      <trkpt lat="46.06714" lon="6.09993">
        <ele>1028.8000488281</ele>
        <time>2012-12-10T09:29:22.000Z</time>
      </trkpt>
      <trkpt lat="46.06713" lon="6.09995">
        <ele>1029.8000488281</ele>
        <time>2012-12-10T09:29:25.000Z</time>
      </trkpt>
      <trkpt lat="46.06714" lon="6.09995">
        <ele>1030.8000488281</ele>
        <time>2012-12-10T09:29:27.000Z</time>
      </trkpt>
      <trkpt lat="46.06713" lon="6.09997">
        <ele>1030.8000488281</ele>
        <time>2012-12-10T09:29:29.000Z</time>
      </trkpt>
      <trkpt lat="46.06713" lon="6.09999">
        <ele>1032</ele>
        <time>2012-12-10T09:29:33.000Z</time>
      </trkpt>
      <trkpt lat="46.06714" lon="6.10002">
        <ele>1032</ele>
        <time>2012-12-10T09:29:37.000Z</time>
      </trkpt>
      <trkpt lat="46.06714" lon="6.10003">
        <ele>1033</ele>
        <time>2012-12-10T09:29:38.000Z</time>
      </trkpt>
      <trkpt lat="46.06715" lon="6.10005">
        <ele>1033</ele>
        <time>2012-12-10T09:29:43.000Z</time>
      </trkpt>
      <trkpt lat="46.06716" lon="6.10006">
        <ele>1034</ele>
        <time>2012-12-10T09:29:46.000Z</time>
      </trkpt>
      <trkpt lat="46.06716" lon="6.10008">
        <ele>1034</ele>
        <time>2012-12-10T09:29:48.000Z</time>
      </trkpt>
      <trkpt lat="46.06718" lon="6.10012">
        <ele>1035.4000244141</ele>
        <time>2012-12-10T09:29:53.000Z</time>
      </trkpt>
      <trkpt lat="46.06718" lon="6.10013">
        <ele>1035.4000244141</ele>
        <time>2012-12-10T09:29:56.000Z</time>
      </trkpt>
      <trkpt lat="46.06719" lon="6.10017">
        <ele>1036.4000244141</ele>
        <time>2012-12-10T09:30:00.000Z</time>
      </trkpt>
      <trkpt lat="46.06719" lon="6.10018">
        <ele>1036.4000244141</ele>
        <time>2012-12-10T09:30:01.000Z</time>
      </trkpt>
      <trkpt lat="46.0672" lon="6.10023">
        <ele>1037.4000244141</ele>
        <time>2012-12-10T09:30:07.000Z</time>
      </trkpt>
      <trkpt lat="46.06722" lon="6.10027">
        <ele>1037.4000244141</ele>
        <time>2012-12-10T09:30:13.000Z</time>
      </trkpt>
      <trkpt lat="46.06722" lon="6.10029">
        <ele>1038.4000244141</ele>
        <time>2012-12-10T09:30:15.000Z</time>
      </trkpt>
      <trkpt lat="46.06723" lon="6.10031">
        <ele>1038.4000244141</ele>
        <time>2012-12-10T09:30:18.000Z</time>
      </trkpt>
      <trkpt lat="46.06724" lon="6.10036">
        <ele>1039.8000488281</ele>
        <time>2012-12-10T09:30:23.000Z</time>
      </trkpt>
      <trkpt lat="46.06726" lon="6.10041">
        <ele>1039.8000488281</ele>
        <time>2012-12-10T09:30:29.000Z</time>
      </trkpt>
      <trkpt lat="46.06728" lon="6.10047">
        <ele>1039.8000488281</ele>
        <time>2012-12-10T09:30:35.000Z</time>
      </trkpt>
      <trkpt lat="46.06729" lon="6.10052">
        <ele>1039.8000488281</ele>
        <time>2012-12-10T09:30:41.000Z</time>
      </trkpt>
      <trkpt lat="46.06732" lon="6.10058">
        <ele>1039.8000488281</ele>
        <time>2012-12-10T09:30:46.000Z</time>
      </trkpt>
      <trkpt lat="46.06734" lon="6.10064">
        <ele>1039.8000488281</ele>
        <time>2012-12-10T09:30:52.000Z</time>
      </trkpt>
      <trkpt lat="46.06736" lon="6.10067">
        <ele>1039.8000488281</ele>
        <time>2012-12-10T09:30:55.000Z</time>
      </trkpt>
      <trkpt lat="46.06737" lon="6.10069">
        <ele>1039.8000488281</ele>
        <time>2012-12-10T09:30:57.000Z</time>
      </trkpt>
      <trkpt lat="46.06738" lon="6.10073">
        <ele>1040.8000488281</ele>
        <time>2012-12-10T09:31:01.000Z</time>
      </trkpt>
      <trkpt lat="46.06739" lon="6.10074">
        <ele>1040.8000488281</ele>
        <time>2012-12-10T09:31:03.000Z</time>
      </trkpt>
      <trkpt lat="46.06741" lon="6.10079">
        <ele>1040.8000488281</ele>
        <time>2012-12-10T09:31:10.000Z</time>
      </trkpt>
      <trkpt lat="46.06744" lon="6.10084">
        <ele>1040.8000488281</ele>
        <time>2012-12-10T09:31:16.000Z</time>
      </trkpt>
      <trkpt lat="46.06745" lon="6.10086">
        <ele>1041.8000488281</ele>
        <time>2012-12-10T09:31:18.000Z</time>
      </trkpt>
      <trkpt lat="46.06745" lon="6.10088">
        <ele>1041.8000488281</ele>
        <time>2012-12-10T09:31:21.000Z</time>
      </trkpt>
      <trkpt lat="46.06747" lon="6.10092">
        <ele>1042.8000488281</ele>
        <time>2012-12-10T09:31:26.000Z</time>
      </trkpt>
      <trkpt lat="46.06748" lon="6.10093">
        <ele>1042.8000488281</ele>
        <time>2012-12-10T09:31:27.000Z</time>
      </trkpt>
      <trkpt lat="46.06748" lon="6.10095">
        <ele>1042.8000488281</ele>
        <time>2012-12-10T09:31:31.000Z</time>
      </trkpt>
      <trkpt lat="46.06748" lon="6.10098">
        <ele>1044</ele>
        <time>2012-12-10T09:31:33.000Z</time>
      </trkpt>
      <trkpt lat="46.06748" lon="6.101">
        <ele>1044</ele>
        <time>2012-12-10T09:31:35.000Z</time>
      </trkpt>
      <trkpt lat="46.06749" lon="6.10105">
        <ele>1044</ele>
        <time>2012-12-10T09:31:40.000Z</time>
      </trkpt>
      <trkpt lat="46.06749" lon="6.10107">
        <ele>1045</ele>
        <time>2012-12-10T09:31:41.000Z</time>
      </trkpt>
      <trkpt lat="46.0675" lon="6.10111">
        <ele>1045</ele>
        <time>2012-12-10T09:31:45.000Z</time>
      </trkpt>
      <trkpt lat="46.0675" lon="6.10113">
        <ele>1046</ele>
        <time>2012-12-10T09:31:47.000Z</time>
      </trkpt>
      <trkpt lat="46.06751" lon="6.10116">
        <ele>1046</ele>
        <time>2012-12-10T09:31:50.000Z</time>
      </trkpt>
      <trkpt lat="46.06752" lon="6.1012">
        <ele>1046</ele>
        <time>2012-12-10T09:31:55.000Z</time>
      </trkpt>
      <trkpt lat="46.06752" lon="6.10121">
        <ele>1047</ele>
        <time>2012-12-10T09:31:57.000Z</time>
      </trkpt>
      <trkpt lat="46.06754" lon="6.10124">
        <ele>1047</ele>
        <time>2012-12-10T09:32:00.000Z</time>
      </trkpt>
      <trkpt lat="46.06755" lon="6.10128">
        <ele>1047</ele>
        <time>2012-12-10T09:32:05.000Z</time>
      </trkpt>
      <trkpt lat="46.06758" lon="6.10133">
        <ele>1047</ele>
        <time>2012-12-10T09:32:11.000Z</time>
      </trkpt>
      <trkpt lat="46.0676" lon="6.10136">
        <ele>1048</ele>
        <time>2012-12-10T09:32:14.000Z</time>
      </trkpt>
      <trkpt lat="46.0676" lon="6.10138">
        <ele>1048</ele>
        <time>2012-12-10T09:32:15.000Z</time>
      </trkpt>
      <trkpt lat="46.06761" lon="6.10139">
        <ele>1048</ele>
        <time>2012-12-10T09:32:17.000Z</time>
      </trkpt>
      <trkpt lat="46.06763" lon="6.10142">
        <ele>1048</ele>
        <time>2012-12-10T09:32:20.000Z</time>
      </trkpt>
      <trkpt lat="46.06765" lon="6.10148">
        <ele>1048</ele>
        <time>2012-12-10T09:32:27.000Z</time>
      </trkpt>
      <trkpt lat="46.06768" lon="6.10153">
        <ele>1049.4000244141</ele>
        <time>2012-12-10T09:32:32.000Z</time>
      </trkpt>
      <trkpt lat="46.06768" lon="6.10154">
        <ele>1049.4000244141</ele>
        <time>2012-12-10T09:32:33.000Z</time>
      </trkpt>
      <trkpt lat="46.06769" lon="6.10154">
        <ele>1049.4000244141</ele>
        <time>2012-12-10T09:32:34.000Z</time>
      </trkpt>
      <trkpt lat="46.06771" lon="6.10156">
        <ele>1049.4000244141</ele>
        <time>2012-12-10T09:32:37.000Z</time>
      </trkpt>
      <trkpt lat="46.06772" lon="6.10158">
        <ele>1049.4000244141</ele>
        <time>2012-12-10T09:32:40.000Z</time>
      </trkpt>
      <trkpt lat="46.06776" lon="6.10162">
        <ele>1049.4000244141</ele>
        <time>2012-12-10T09:32:45.000Z</time>
      </trkpt>
      <trkpt lat="46.06777" lon="6.10165">
        <ele>1050.4000244141</ele>
        <time>2012-12-10T09:32:49.000Z</time>
      </trkpt>
      <trkpt lat="46.06778" lon="6.10166">
        <ele>1050.4000244141</ele>
        <time>2012-12-10T09:32:50.000Z</time>
      </trkpt>
      <trkpt lat="46.0678" lon="6.10169">
        <ele>1050.4000244141</ele>
        <time>2012-12-10T09:32:55.000Z</time>
      </trkpt>
      <trkpt lat="46.06781" lon="6.10173">
        <ele>1051.4000244141</ele>
        <time>2012-12-10T09:33:01.000Z</time>
      </trkpt>
      <trkpt lat="46.06782" lon="6.10177">
        <ele>1051.4000244141</ele>
        <time>2012-12-10T09:33:06.000Z</time>
      </trkpt>
      <trkpt lat="46.06782" lon="6.10179">
        <ele>1052.4000244141</ele>
        <time>2012-12-10T09:33:08.000Z</time>
      </trkpt>
      <trkpt lat="46.06783" lon="6.10182">
        <ele>1052.4000244141</ele>
        <time>2012-12-10T09:33:11.000Z</time>
      </trkpt>
      <trkpt lat="46.06786" lon="6.10188">
        <ele>1052.4000244141</ele>
        <time>2012-12-10T09:33:18.000Z</time>
      </trkpt>
      <trkpt lat="46.06789" lon="6.10193">
        <ele>1052.4000244141</ele>
        <time>2012-12-10T09:33:24.000Z</time>
      </trkpt>
      <trkpt lat="46.06791" lon="6.10199">
        <ele>1052.4000244141</ele>
        <time>2012-12-10T09:33:30.000Z</time>
      </trkpt>
      <trkpt lat="46.06792" lon="6.10201">
        <ele>1053.4000244141</ele>
        <time>2012-12-10T09:33:32.000Z</time>
      </trkpt>
      <trkpt lat="46.06793" lon="6.10201">
        <ele>1053.4000244141</ele>
        <time>2012-12-10T09:33:33.000Z</time>
      </trkpt>
      <trkpt lat="46.06794" lon="6.10203">
        <ele>1053.4000244141</ele>
        <time>2012-12-10T09:33:36.000Z</time>
      </trkpt>
      <trkpt lat="46.06796" lon="6.10208">
        <ele>1053.4000244141</ele>
        <time>2012-12-10T09:33:42.000Z</time>
      </trkpt>
      <trkpt lat="46.06799" lon="6.1021">
        <ele>1054.4000244141</ele>
        <time>2012-12-10T09:33:46.000Z</time>
      </trkpt>
      <trkpt lat="46.06799" lon="6.10211">
        <ele>1054.4000244141</ele>
        <time>2012-12-10T09:33:48.000Z</time>
      </trkpt>
      <trkpt lat="46.06801" lon="6.10216">
        <ele>1054.4000244141</ele>
        <time>2012-12-10T09:33:54.000Z</time>
      </trkpt>
      <trkpt lat="46.06802" lon="6.10218">
        <ele>1054.4000244141</ele>
        <time>2012-12-10T09:34:00.000Z</time>
      </trkpt>
      <trkpt lat="46.06805" lon="6.10223">
        <ele>1054.4000244141</ele>
        <time>2012-12-10T09:34:08.000Z</time>
      </trkpt>
      <trkpt lat="46.06808" lon="6.10229">
        <ele>1054.4000244141</ele>
        <time>2012-12-10T09:34:13.000Z</time>
      </trkpt>
      <trkpt lat="46.06809" lon="6.10231">
        <ele>1054.4000244141</ele>
        <time>2012-12-10T09:34:18.000Z</time>
      </trkpt>
      <trkpt lat="46.0681" lon="6.10232">
        <ele>1054.4000244141</ele>
        <time>2012-12-10T09:34:26.000Z</time>
      </trkpt>
      <trkpt lat="46.06811" lon="6.10232">
        <ele>1054.4000244141</ele>
        <time>2012-12-10T09:34:37.000Z</time>
      </trkpt>
      <trkpt lat="46.06813" lon="6.10235">
        <ele>1054.4000244141</ele>
        <time>2012-12-10T09:34:45.000Z</time>
      </trkpt>
      <trkpt lat="46.06813" lon="6.10235">
        <ele>1054.4000244141</ele>
        <time>2012-12-10T09:34:47.000Z</time>
      </trkpt>
      <trkpt lat="46.06813" lon="6.10237">
        <ele>1055.4000244141</ele>
        <time>2012-12-10T09:34:54.000Z</time>
      </trkpt>
      <trkpt lat="46.06814" lon="6.10238">
        <ele>1055.4000244141</ele>
        <time>2012-12-10T09:34:55.000Z</time>
      </trkpt>
      <trkpt lat="46.06816" lon="6.10243">
        <ele>1055.4000244141</ele>
        <time>2012-12-10T09:35:03.000Z</time>
      </trkpt>
      <trkpt lat="46.06819" lon="6.10248">
        <ele>1055.4000244141</ele>
        <time>2012-12-10T09:35:10.000Z</time>
      </trkpt>
      <trkpt lat="46.06821" lon="6.1025">
        <ele>1056.4000244141</ele>
        <time>2012-12-10T09:35:13.000Z</time>
      </trkpt>
      <trkpt lat="46.06821" lon="6.10251">
        <ele>1056.4000244141</ele>
        <time>2012-12-10T09:35:15.000Z</time>
      </trkpt>
      <trkpt lat="46.06822" lon="6.10254">
        <ele>1056.4000244141</ele>
        <time>2012-12-10T09:35:20.000Z</time>
      </trkpt>
      <trkpt lat="46.06824" lon="6.10258">
        <ele>1056.4000244141</ele>
        <time>2012-12-10T09:35:28.000Z</time>
      </trkpt>
      <trkpt lat="46.06824" lon="6.10259">
        <ele>1057.4000244141</ele>
        <time>2012-12-10T09:35:29.000Z</time>
      </trkpt>
      <trkpt lat="46.06826" lon="6.10263">
        <ele>1057.4000244141</ele>
        <time>2012-12-10T09:35:34.000Z</time>
      </trkpt>
      <trkpt lat="46.06828" lon="6.10267">
        <ele>1057.4000244141</ele>
        <time>2012-12-10T09:35:39.000Z</time>
      </trkpt>
      <trkpt lat="46.06829" lon="6.10268">
        <ele>1058.4000244141</ele>
        <time>2012-12-10T09:35:41.000Z</time>
      </trkpt>
      <trkpt lat="46.0683" lon="6.10269">
        <ele>1058.4000244141</ele>
        <time>2012-12-10T09:35:46.000Z</time>
      </trkpt>
      <trkpt lat="46.06833" lon="6.10276">
        <ele>1058.4000244141</ele>
        <time>2012-12-10T09:35:53.000Z</time>
      </trkpt>
      <trkpt lat="46.06836" lon="6.1028">
        <ele>1058.4000244141</ele>
        <time>2012-12-10T09:35:59.000Z</time>
      </trkpt>
      <trkpt lat="46.06836" lon="6.10281">
        <ele>1059.8000488281</ele>
        <time>2012-12-10T09:36:00.000Z</time>
      </trkpt>
      <trkpt lat="46.06838" lon="6.10287">
        <ele>1059.8000488281</ele>
        <time>2012-12-10T09:36:07.000Z</time>
      </trkpt>
      <trkpt lat="46.06841" lon="6.10292">
        <ele>1059.8000488281</ele>
        <time>2012-12-10T09:36:13.000Z</time>
      </trkpt>
      <trkpt lat="46.06845" lon="6.10296">
        <ele>1059.8000488281</ele>
        <time>2012-12-10T09:36:17.000Z</time>
      </trkpt>
      <trkpt lat="46.06845" lon="6.10296">
        <ele>1059.8000488281</ele>
        <time>2012-12-10T09:36:18.000Z</time>
      </trkpt>
      <trkpt lat="46.06848" lon="6.10301">
        <ele>1060.8000488281</ele>
        <time>2012-12-10T09:36:23.000Z</time>
      </trkpt>
      <trkpt lat="46.06848" lon="6.10302">
        <ele>1060.8000488281</ele>
        <time>2012-12-10T09:36:24.000Z</time>
      </trkpt>
      <trkpt lat="46.06852" lon="6.10308">
        <ele>1060.8000488281</ele>
        <time>2012-12-10T09:36:31.000Z</time>
      </trkpt>
      <trkpt lat="46.06852" lon="6.10309">
        <ele>1060.8000488281</ele>
        <time>2012-12-10T09:36:32.000Z</time>
      </trkpt>
      <trkpt lat="46.06854" lon="6.10312">
        <ele>1061.8000488281</ele>
        <time>2012-12-10T09:36:35.000Z</time>
      </trkpt>
      <trkpt lat="46.06855" lon="6.10314">
        <ele>1061.8000488281</ele>
        <time>2012-12-10T09:36:38.000Z</time>
      </trkpt>
      <trkpt lat="46.06858" lon="6.10319">
        <ele>1061.8000488281</ele>
        <time>2012-12-10T09:36:44.000Z</time>
      </trkpt>
      <trkpt lat="46.06859" lon="6.10326">
        <ele>1061.8000488281</ele>
        <time>2012-12-10T09:36:49.000Z</time>
      </trkpt>
      <trkpt lat="46.0686" lon="6.1033">
        <ele>1062.8000488281</ele>
        <time>2012-12-10T09:36:53.000Z</time>
      </trkpt>
      <trkpt lat="46.06861" lon="6.10332">
        <ele>1062.8000488281</ele>
        <time>2012-12-10T09:36:55.000Z</time>
      </trkpt>
      <trkpt lat="46.06863" lon="6.10337">
        <ele>1062.8000488281</ele>
        <time>2012-12-10T09:37:00.000Z</time>
      </trkpt>
      <trkpt lat="46.06864" lon="6.10341">
        <ele>1062.8000488281</ele>
        <time>2012-12-10T09:37:03.000Z</time>
      </trkpt>
      <trkpt lat="46.06865" lon="6.10343">
        <ele>1062.8000488281</ele>
        <time>2012-12-10T09:37:05.000Z</time>
      </trkpt>
      <trkpt lat="46.06866" lon="6.10347">
        <ele>1064</ele>
        <time>2012-12-10T09:37:08.000Z</time>
      </trkpt>
      <trkpt lat="46.06867" lon="6.1035">
        <ele>1064</ele>
        <time>2012-12-10T09:37:11.000Z</time>
      </trkpt>
      <trkpt lat="46.06868" lon="6.10354">
        <ele>1064</ele>
        <time>2012-12-10T09:37:15.000Z</time>
      </trkpt>
      <trkpt lat="46.06869" lon="6.10356">
        <ele>1064</ele>
        <time>2012-12-10T09:37:17.000Z</time>
      </trkpt>
      <trkpt lat="46.06872" lon="6.10362">
        <ele>1064</ele>
        <time>2012-12-10T09:37:23.000Z</time>
      </trkpt>
      <trkpt lat="46.06873" lon="6.10363">
        <ele>1065</ele>
        <time>2012-12-10T09:37:25.000Z</time>
      </trkpt>
      <trkpt lat="46.06873" lon="6.10365">
        <ele>1065</ele>
        <time>2012-12-10T09:37:28.000Z</time>
      </trkpt>
      <trkpt lat="46.06877" lon="6.10371">
        <ele>1065</ele>
        <time>2012-12-10T09:37:35.000Z</time>
      </trkpt>
      <trkpt lat="46.06877" lon="6.10371">
        <ele>1066</ele>
        <time>2012-12-10T09:37:36.000Z</time>
      </trkpt>
      <trkpt lat="46.06879" lon="6.10376">
        <ele>1066</ele>
        <time>2012-12-10T09:37:41.000Z</time>
      </trkpt>
      <trkpt lat="46.0688" lon="6.1038">
        <ele>1067</ele>
        <time>2012-12-10T09:37:46.000Z</time>
      </trkpt>
      <trkpt lat="46.06881" lon="6.10381">
        <ele>1067</ele>
        <time>2012-12-10T09:37:47.000Z</time>
      </trkpt>
      <trkpt lat="46.06883" lon="6.10384">
        <ele>1067</ele>
        <time>2012-12-10T09:37:53.000Z</time>
      </trkpt>
      <trkpt lat="46.06884" lon="6.10386">
        <ele>1068</ele>
        <time>2012-12-10T09:37:55.000Z</time>
      </trkpt>
      <trkpt lat="46.06885" lon="6.10388">
        <ele>1068</ele>
        <time>2012-12-10T09:37:58.000Z</time>
      </trkpt>
      <trkpt lat="46.06885" lon="6.10393">
        <ele>1068</ele>
        <time>2012-12-10T09:38:04.000Z</time>
      </trkpt>
      <trkpt lat="46.06886" lon="6.10395">
        <ele>1068</ele>
        <time>2012-12-10T09:38:09.000Z</time>
      </trkpt>
      <trkpt lat="46.06886" lon="6.10395">
        <ele>1068</ele>
        <time>2012-12-10T09:38:16.000Z</time>
      </trkpt>
      <trkpt lat="46.06889" lon="6.10398">
        <ele>1068</ele>
        <time>2012-12-10T09:38:27.000Z</time>
      </trkpt>
      <trkpt lat="46.06892" lon="6.104">
        <ele>1068</ele>
        <time>2012-12-10T09:38:34.000Z</time>
      </trkpt>
      <trkpt lat="46.06893" lon="6.10404">
        <ele>1068</ele>
        <time>2012-12-10T09:38:40.000Z</time>
      </trkpt>
      <trkpt lat="46.06893" lon="6.10405">
        <ele>1069.4000244141</ele>
        <time>2012-12-10T09:38:41.000Z</time>
      </trkpt>
      <trkpt lat="46.06895" lon="6.10407">
        <ele>1069.4000244141</ele>
        <time>2012-12-10T09:38:45.000Z</time>
      </trkpt>
      <trkpt lat="46.06897" lon="6.10413">
        <ele>1069.4000244141</ele>
        <time>2012-12-10T09:38:51.000Z</time>
      </trkpt>
      <trkpt lat="46.06898" lon="6.10415">
        <ele>1070.4000244141</ele>
        <time>2012-12-10T09:38:54.000Z</time>
      </trkpt>
      <trkpt lat="46.06899" lon="6.10418">
        <ele>1070.4000244141</ele>
        <time>2012-12-10T09:38:57.000Z</time>
      </trkpt>
      <trkpt lat="46.06899" lon="6.10422">
        <ele>1071.4000244141</ele>
        <time>2012-12-10T09:39:01.000Z</time>
      </trkpt>
      <trkpt lat="46.069" lon="6.10423">
        <ele>1071.4000244141</ele>
        <time>2012-12-10T09:39:02.000Z</time>
      </trkpt>
      <trkpt lat="46.069" lon="6.10425">
        <ele>1071.4000244141</ele>
        <time>2012-12-10T09:39:07.000Z</time>
      </trkpt>
      <trkpt lat="46.06901" lon="6.10427">
        <ele>1071.4000244141</ele>
        <time>2012-12-10T09:39:15.000Z</time>
      </trkpt>
      <trkpt lat="46.06901" lon="6.10427">
        <ele>1071.4000244141</ele>
        <time>2012-12-10T09:39:22.000Z</time>
      </trkpt>
      <trkpt lat="46.06903" lon="6.10428">
        <ele>1071.4000244141</ele>
        <time>2012-12-10T09:39:27.000Z</time>
      </trkpt>
      <trkpt lat="46.06904" lon="6.10432">
        <ele>1072.4000244141</ele>
        <time>2012-12-10T09:39:35.000Z</time>
      </trkpt>
      <trkpt lat="46.06904" lon="6.10433">
        <ele>1072.4000244141</ele>
        <time>2012-12-10T09:39:36.000Z</time>
      </trkpt>
      <trkpt lat="46.06904" lon="6.10438">
        <ele>1072.4000244141</ele>
        <time>2012-12-10T09:39:41.000Z</time>
      </trkpt>
      <trkpt lat="46.06904" lon="6.10442">
        <ele>1073.4000244141</ele>
        <time>2012-12-10T09:39:46.000Z</time>
      </trkpt>
      <trkpt lat="46.06905" lon="6.10442">
        <ele>1073.4000244141</ele>
        <time>2012-12-10T09:39:47.000Z</time>
      </trkpt>
      <trkpt lat="46.06906" lon="6.10448">
        <ele>1073.4000244141</ele>
        <time>2012-12-10T09:39:53.000Z</time>
      </trkpt>
      <trkpt lat="46.06906" lon="6.10452">
        <ele>1074.4000244141</ele>
        <time>2012-12-10T09:39:58.000Z</time>
      </trkpt>
      <trkpt lat="46.06908" lon="6.10454">
        <ele>1074.4000244141</ele>
        <time>2012-12-10T09:40:02.000Z</time>
      </trkpt>
      <trkpt lat="46.06909" lon="6.1046">
        <ele>1074.4000244141</ele>
        <time>2012-12-10T09:40:08.000Z</time>
      </trkpt>
      <trkpt lat="46.06909" lon="6.10461">
        <ele>1075.4000244141</ele>
        <time>2012-12-10T09:40:09.000Z</time>
      </trkpt>
      <trkpt lat="46.0691" lon="6.10466">
        <ele>1075.4000244141</ele>
        <time>2012-12-10T09:40:13.000Z</time>
      </trkpt>
      <trkpt lat="46.06912" lon="6.1047">
        <ele>1076.4000244141</ele>
        <time>2012-12-10T09:40:18.000Z</time>
      </trkpt>
      <trkpt lat="46.06913" lon="6.10471">
        <ele>1076.4000244141</ele>
        <time>2012-12-10T09:40:19.000Z</time>
      </trkpt>
      <trkpt lat="46.06914" lon="6.10476">
        <ele>1076.4000244141</ele>
        <time>2012-12-10T09:40:25.000Z</time>
      </trkpt>
      <trkpt lat="46.06913" lon="6.10479">
        <ele>1077.4000244141</ele>
        <time>2012-12-10T09:40:29.000Z</time>
      </trkpt>
      <trkpt lat="46.06914" lon="6.10481">
        <ele>1077.4000244141</ele>
        <time>2012-12-10T09:40:30.000Z</time>
      </trkpt>
      <trkpt lat="46.06916" lon="6.10485">
        <ele>1077.4000244141</ele>
        <time>2012-12-10T09:40:35.000Z</time>
      </trkpt>
      <trkpt lat="46.06917" lon="6.10487">
        <ele>1078.4000244141</ele>
        <time>2012-12-10T09:40:37.000Z</time>
      </trkpt>
      <trkpt lat="46.06919" lon="6.1049">
        <ele>1078.4000244141</ele>
        <time>2012-12-10T09:40:40.000Z</time>
      </trkpt>
      <trkpt lat="46.06922" lon="6.10494">
        <ele>1079.4000244141</ele>
        <time>2012-12-10T09:40:44.000Z</time>
      </trkpt>
      <trkpt lat="46.06922" lon="6.10495">
        <ele>1079.4000244141</ele>
        <time>2012-12-10T09:40:45.000Z</time>
      </trkpt>
      <trkpt lat="46.06924" lon="6.10496">
        <ele>1079.4000244141</ele>
        <time>2012-12-10T09:40:47.000Z</time>
      </trkpt>
      <trkpt lat="46.06925" lon="6.10498">
        <ele>1079.4000244141</ele>
        <time>2012-12-10T09:40:50.000Z</time>
      </trkpt>
      <trkpt lat="46.06926" lon="6.10501">
        <ele>1079.4000244141</ele>
        <time>2012-12-10T09:40:52.000Z</time>
      </trkpt>
      <trkpt lat="46.0693" lon="6.10505">
        <ele>1079.4000244141</ele>
        <time>2012-12-10T09:40:57.000Z</time>
      </trkpt>
      <trkpt lat="46.0693" lon="6.10506">
        <ele>1079.4000244141</ele>
        <time>2012-12-10T09:40:58.000Z</time>
      </trkpt>
      <trkpt lat="46.06931" lon="6.10507">
        <ele>1080.8000488281</ele>
        <time>2012-12-10T09:40:59.000Z</time>
      </trkpt>
      <trkpt lat="46.06933" lon="6.10511">
        <ele>1080.8000488281</ele>
        <time>2012-12-10T09:41:04.000Z</time>
      </trkpt>
      <trkpt lat="46.06936" lon="6.10516">
        <ele>1080.8000488281</ele>
        <time>2012-12-10T09:41:09.000Z</time>
      </trkpt>
      <trkpt lat="46.06939" lon="6.10518">
        <ele>1080.8000488281</ele>
        <time>2012-12-10T09:41:13.000Z</time>
      </trkpt>
      <trkpt lat="46.06939" lon="6.1052">
        <ele>1080.8000488281</ele>
        <time>2012-12-10T09:41:14.000Z</time>
      </trkpt>
      <trkpt lat="46.06944" lon="6.10528">
        <ele>1080.8000488281</ele>
        <time>2012-12-10T09:41:22.000Z</time>
      </trkpt>
      <trkpt lat="46.06946" lon="6.10532">
        <ele>1080.8000488281</ele>
        <time>2012-12-10T09:41:25.000Z</time>
      </trkpt>
      <trkpt lat="46.06947" lon="6.10533">
        <ele>1080.8000488281</ele>
        <time>2012-12-10T09:41:26.000Z</time>
      </trkpt>
      <trkpt lat="46.06948" lon="6.10535">
        <ele>1081.8000488281</ele>
        <time>2012-12-10T09:41:28.000Z</time>
      </trkpt>
      <trkpt lat="46.0695" lon="6.1054">
        <ele>1081.8000488281</ele>
        <time>2012-12-10T09:41:33.000Z</time>
      </trkpt>
      <trkpt lat="46.06952" lon="6.10546">
        <ele>1081.8000488281</ele>
        <time>2012-12-10T09:41:41.000Z</time>
      </trkpt>
      <trkpt lat="46.06957" lon="6.10552">
        <ele>1081.8000488281</ele>
        <time>2012-12-10T09:41:48.000Z</time>
      </trkpt>
      <trkpt lat="46.06958" lon="6.10555">
        <ele>1082.8000488281</ele>
        <time>2012-12-10T09:41:51.000Z</time>
      </trkpt>
      <trkpt lat="46.06959" lon="6.10558">
        <ele>1082.8000488281</ele>
        <time>2012-12-10T09:41:54.000Z</time>
      </trkpt>
      <trkpt lat="46.06959" lon="6.1056">
        <ele>1082.8000488281</ele>
        <time>2012-12-10T09:41:56.000Z</time>
      </trkpt>
      <trkpt lat="46.06961" lon="6.10563">
        <ele>1082.8000488281</ele>
        <time>2012-12-10T09:41:59.000Z</time>
      </trkpt>
      <trkpt lat="46.06961" lon="6.10565">
        <ele>1083.8000488281</ele>
        <time>2012-12-10T09:42:01.000Z</time>
      </trkpt>
      <trkpt lat="46.06962" lon="6.10566">
        <ele>1083.8000488281</ele>
        <time>2012-12-10T09:42:02.000Z</time>
      </trkpt>
      <trkpt lat="46.06963" lon="6.10569">
        <ele>1083.8000488281</ele>
        <time>2012-12-10T09:42:05.000Z</time>
      </trkpt>
      <trkpt lat="46.06963" lon="6.1057">
        <ele>1083.8000488281</ele>
        <time>2012-12-10T09:42:06.000Z</time>
      </trkpt>
      <trkpt lat="46.06966" lon="6.10574">
        <ele>1083.8000488281</ele>
        <time>2012-12-10T09:42:10.000Z</time>
      </trkpt>
      <trkpt lat="46.06966" lon="6.10575">
        <ele>1083.8000488281</ele>
        <time>2012-12-10T09:42:11.000Z</time>
      </trkpt>
      <trkpt lat="46.06968" lon="6.10578">
        <ele>1084.8000488281</ele>
        <time>2012-12-10T09:42:15.000Z</time>
      </trkpt>
      <trkpt lat="46.06971" lon="6.10585">
        <ele>1084.8000488281</ele>
        <time>2012-12-10T09:42:21.000Z</time>
      </trkpt>
      <trkpt lat="46.06973" lon="6.1059">
        <ele>1084.8000488281</ele>
        <time>2012-12-10T09:42:24.000Z</time>
      </trkpt>
      <trkpt lat="46.06974" lon="6.10593">
        <ele>1084.8000488281</ele>
        <time>2012-12-10T09:42:26.000Z</time>
      </trkpt>
      <trkpt lat="46.06975" lon="6.10594">
        <ele>1085.8000488281</ele>
        <time>2012-12-10T09:42:27.000Z</time>
      </trkpt>
      <trkpt lat="46.06976" lon="6.10597">
        <ele>1085.8000488281</ele>
        <time>2012-12-10T09:42:32.000Z</time>
      </trkpt>
      <trkpt lat="46.06979" lon="6.10602">
        <ele>1085.8000488281</ele>
        <time>2012-12-10T09:42:37.000Z</time>
      </trkpt>
      <trkpt lat="46.06979" lon="6.10603">
        <ele>1087</ele>
        <time>2012-12-10T09:42:38.000Z</time>
      </trkpt>
      <trkpt lat="46.06981" lon="6.10606">
        <ele>1087</ele>
        <time>2012-12-10T09:42:43.000Z</time>
      </trkpt>
      <trkpt lat="46.06983" lon="6.10611">
        <ele>1087</ele>
        <time>2012-12-10T09:42:49.000Z</time>
      </trkpt>
      <trkpt lat="46.06983" lon="6.10612">
        <ele>1088</ele>
        <time>2012-12-10T09:42:51.000Z</time>
      </trkpt>
      <trkpt lat="46.06984" lon="6.10615">
        <ele>1088</ele>
        <time>2012-12-10T09:42:55.000Z</time>
      </trkpt>
      <trkpt lat="46.06986" lon="6.1062">
        <ele>1088</ele>
        <time>2012-12-10T09:43:01.000Z</time>
      </trkpt>
      <trkpt lat="46.06987" lon="6.10624">
        <ele>1088</ele>
        <time>2012-12-10T09:43:06.000Z</time>
      </trkpt>
      <trkpt lat="46.06989" lon="6.10628">
        <ele>1088</ele>
        <time>2012-12-10T09:43:12.000Z</time>
      </trkpt>
      <trkpt lat="46.06991" lon="6.10631">
        <ele>1089</ele>
        <time>2012-12-10T09:43:17.000Z</time>
      </trkpt>
      <trkpt lat="46.06991" lon="6.1063">
        <ele>1089</ele>
        <time>2012-12-10T09:43:18.000Z</time>
      </trkpt>
      <trkpt lat="46.06994" lon="6.10634">
        <ele>1089</ele>
        <time>2012-12-10T09:43:26.000Z</time>
      </trkpt>
      <trkpt lat="46.06995" lon="6.10639">
        <ele>1089</ele>
        <time>2012-12-10T09:43:33.000Z</time>
      </trkpt>
      <trkpt lat="46.06997" lon="6.10643">
        <ele>1089</ele>
        <time>2012-12-10T09:43:38.000Z</time>
      </trkpt>
      <trkpt lat="46.07" lon="6.10646">
        <ele>1089</ele>
        <time>2012-12-10T09:43:43.000Z</time>
      </trkpt>
      <trkpt lat="46.07001" lon="6.10648">
        <ele>1090</ele>
        <time>2012-12-10T09:43:46.000Z</time>
      </trkpt>
      <trkpt lat="46.07003" lon="6.10649">
        <ele>1090</ele>
        <time>2012-12-10T09:43:48.000Z</time>
      </trkpt>
      <trkpt lat="46.07007" lon="6.10652">
        <ele>1090</ele>
        <time>2012-12-10T09:43:54.000Z</time>
      </trkpt>
      <trkpt lat="46.07008" lon="6.10652">
        <ele>1090</ele>
        <time>2012-12-10T09:44:02.000Z</time>
      </trkpt>
      <trkpt lat="46.07012" lon="6.10654">
        <ele>1090</ele>
        <time>2012-12-10T09:44:11.000Z</time>
      </trkpt>
      <trkpt lat="46.07014" lon="6.10655">
        <ele>1091</ele>
        <time>2012-12-10T09:44:15.000Z</time>
      </trkpt>
      <trkpt lat="46.07014" lon="6.10656">
        <ele>1091</ele>
        <time>2012-12-10T09:44:17.000Z</time>
      </trkpt>
      <trkpt lat="46.07017" lon="6.10657">
        <ele>1092</ele>
        <time>2012-12-10T09:44:21.000Z</time>
      </trkpt>
      <trkpt lat="46.07019" lon="6.10659">
        <ele>1092</ele>
        <time>2012-12-10T09:44:23.000Z</time>
      </trkpt>
      <trkpt lat="46.07023" lon="6.10662">
        <ele>1092</ele>
        <time>2012-12-10T09:44:29.000Z</time>
      </trkpt>
      <trkpt lat="46.07025" lon="6.10665">
        <ele>1092</ele>
        <time>2012-12-10T09:44:32.000Z</time>
      </trkpt>
      <trkpt lat="46.07027" lon="6.10668">
        <ele>1093</ele>
        <time>2012-12-10T09:44:35.000Z</time>
      </trkpt>
      <trkpt lat="46.07027" lon="6.10669">
        <ele>1093</ele>
        <time>2012-12-10T09:44:36.000Z</time>
      </trkpt>
      <trkpt lat="46.07031" lon="6.10675">
        <ele>1093</ele>
        <time>2012-12-10T09:44:42.000Z</time>
      </trkpt>
      <trkpt lat="46.07032" lon="6.10676">
        <ele>1093</ele>
        <time>2012-12-10T09:44:43.000Z</time>
      </trkpt>
      <trkpt lat="46.07032" lon="6.10676">
        <ele>1094</ele>
        <time>2012-12-10T09:44:44.000Z</time>
      </trkpt>
      <trkpt lat="46.07033" lon="6.10679">
        <ele>1094</ele>
        <time>2012-12-10T09:44:47.000Z</time>
      </trkpt>
      <trkpt lat="46.07034" lon="6.1068">
        <ele>1094</ele>
        <time>2012-12-10T09:44:48.000Z</time>
      </trkpt>
      <trkpt lat="46.07036" lon="6.10685">
        <ele>1094</ele>
        <time>2012-12-10T09:44:53.000Z</time>
      </trkpt>
      <trkpt lat="46.07038" lon="6.10686">
        <ele>1095</ele>
        <time>2012-12-10T09:44:55.000Z</time>
      </trkpt>
      <trkpt lat="46.0704" lon="6.10689">
        <ele>1095</ele>
        <time>2012-12-10T09:44:59.000Z</time>
      </trkpt>
      <trkpt lat="46.07043" lon="6.10693">
        <ele>1096.4000244141</ele>
        <time>2012-12-10T09:45:07.000Z</time>
      </trkpt>
      <trkpt lat="46.07047" lon="6.10698">
        <ele>1096.4000244141</ele>
        <time>2012-12-10T09:45:12.000Z</time>
      </trkpt>
      <trkpt lat="46.07049" lon="6.10701">
        <ele>1096.4000244141</ele>
        <time>2012-12-10T09:45:17.000Z</time>
      </trkpt>
      <trkpt lat="46.07051" lon="6.10706">
        <ele>1096.4000244141</ele>
        <time>2012-12-10T09:45:23.000Z</time>
      </trkpt>
      <trkpt lat="46.07051" lon="6.10707">
        <ele>1097.4000244141</ele>
        <time>2012-12-10T09:45:25.000Z</time>
      </trkpt>
      <trkpt lat="46.07053" lon="6.10711">
        <ele>1097.4000244141</ele>
        <time>2012-12-10T09:45:29.000Z</time>
      </trkpt>
      <trkpt lat="46.07056" lon="6.10717">
        <ele>1097.4000244141</ele>
        <time>2012-12-10T09:45:35.000Z</time>
      </trkpt>
      <trkpt lat="46.07057" lon="6.10718">
        <ele>1098.4000244141</ele>
        <time>2012-12-10T09:45:36.000Z</time>
      </trkpt>
      <trkpt lat="46.07058" lon="6.10719">
        <ele>1098.4000244141</ele>
        <time>2012-12-10T09:45:38.000Z</time>
      </trkpt>
      <trkpt lat="46.07059" lon="6.1072">
        <ele>1098.4000244141</ele>
        <time>2012-12-10T09:45:40.000Z</time>
      </trkpt>
      <trkpt lat="46.07062" lon="6.10726">
        <ele>1098.4000244141</ele>
        <time>2012-12-10T09:45:46.000Z</time>
      </trkpt>
      <trkpt lat="46.07066" lon="6.10732">
        <ele>1098.4000244141</ele>
        <time>2012-12-10T09:45:53.000Z</time>
      </trkpt>
      <trkpt lat="46.07067" lon="6.10734">
        <ele>1099.4000244141</ele>
        <time>2012-12-10T09:45:55.000Z</time>
      </trkpt>
      <trkpt lat="46.07068" lon="6.10736">
        <ele>1099.4000244141</ele>
        <time>2012-12-10T09:45:57.000Z</time>
      </trkpt>
      <trkpt lat="46.07071" lon="6.1074">
        <ele>1099.4000244141</ele>
        <time>2012-12-10T09:46:02.000Z</time>
      </trkpt>
      <trkpt lat="46.07073" lon="6.10746">
        <ele>1099.4000244141</ele>
        <time>2012-12-10T09:46:08.000Z</time>
      </trkpt>
      <trkpt lat="46.07074" lon="6.10749">
        <ele>1099.4000244141</ele>
        <time>2012-12-10T09:46:14.000Z</time>
      </trkpt>
      <trkpt lat="46.07074" lon="6.10749">
        <ele>1100.4000244141</ele>
        <time>2012-12-10T09:46:15.000Z</time>
      </trkpt>
      <trkpt lat="46.07076" lon="6.10751">
        <ele>1100.4000244141</ele>
        <time>2012-12-10T09:46:19.000Z</time>
      </trkpt>
      <trkpt lat="46.07077" lon="6.10752">
        <ele>1100.4000244141</ele>
        <time>2012-12-10T09:46:27.000Z</time>
      </trkpt>
      <trkpt lat="46.0708" lon="6.10753">
        <ele>1100.4000244141</ele>
        <time>2012-12-10T09:46:39.000Z</time>
      </trkpt>
      <trkpt lat="46.07081" lon="6.10753">
        <ele>1100.4000244141</ele>
        <time>2012-12-10T09:46:48.000Z</time>
      </trkpt>
      <trkpt lat="46.07081" lon="6.10755">
        <ele>1100.4000244141</ele>
        <time>2012-12-10T09:46:57.000Z</time>
      </trkpt>
      <trkpt lat="46.07083" lon="6.10756">
        <ele>1100.4000244141</ele>
        <time>2012-12-10T09:47:07.000Z</time>
      </trkpt>
      <trkpt lat="46.07084" lon="6.10756">
        <ele>1100.4000244141</ele>
        <time>2012-12-10T09:47:17.000Z</time>
      </trkpt>
      <trkpt lat="46.07086" lon="6.10756">
        <ele>1100.4000244141</ele>
        <time>2012-12-10T09:47:27.000Z</time>
      </trkpt>
      <trkpt lat="46.07086" lon="6.10758">
        <ele>1101.4000244141</ele>
        <time>2012-12-10T09:47:34.000Z</time>
      </trkpt>
      <trkpt lat="46.07086" lon="6.10759">
        <ele>1101.4000244141</ele>
        <time>2012-12-10T09:47:36.000Z</time>
      </trkpt>
      <trkpt lat="46.07087" lon="6.10761">
        <ele>1101.4000244141</ele>
        <time>2012-12-10T09:47:42.000Z</time>
      </trkpt>
      <trkpt lat="46.07088" lon="6.10767">
        <ele>1101.4000244141</ele>
        <time>2012-12-10T09:47:48.000Z</time>
      </trkpt>
      <trkpt lat="46.07088" lon="6.1077">
        <ele>1102.4000244141</ele>
        <time>2012-12-10T09:47:50.000Z</time>
      </trkpt>
      <trkpt lat="46.07089" lon="6.10772">
        <ele>1102.4000244141</ele>
        <time>2012-12-10T09:47:53.000Z</time>
      </trkpt>
      <trkpt lat="46.07091" lon="6.10777">
        <ele>1102.4000244141</ele>
        <time>2012-12-10T09:47:58.000Z</time>
      </trkpt>
      <trkpt lat="46.07091" lon="6.10779">
        <ele>1102.4000244141</ele>
        <time>2012-12-10T09:48:04.000Z</time>
      </trkpt>
      <trkpt lat="46.07092" lon="6.10785">
        <ele>1102.4000244141</ele>
        <time>2012-12-10T09:48:11.000Z</time>
      </trkpt>
      <trkpt lat="46.07092" lon="6.10787">
        <ele>1103.8000488281</ele>
        <time>2012-12-10T09:48:13.000Z</time>
      </trkpt>
      <trkpt lat="46.07093" lon="6.10791">
        <ele>1103.8000488281</ele>
        <time>2012-12-10T09:48:17.000Z</time>
      </trkpt>
      <trkpt lat="46.07094" lon="6.10794">
        <ele>1103.8000488281</ele>
        <time>2012-12-10T09:48:22.000Z</time>
      </trkpt>
      <trkpt lat="46.07095" lon="6.10797">
        <ele>1104.8000488281</ele>
        <time>2012-12-10T09:48:25.000Z</time>
      </trkpt>
      <trkpt lat="46.07096" lon="6.10799">
        <ele>1104.8000488281</ele>
        <time>2012-12-10T09:48:28.000Z</time>
      </trkpt>
      <trkpt lat="46.07098" lon="6.10803">
        <ele>1104.8000488281</ele>
        <time>2012-12-10T09:48:33.000Z</time>
      </trkpt>
      <trkpt lat="46.07101" lon="6.1081">
        <ele>1104.8000488281</ele>
        <time>2012-12-10T09:48:40.000Z</time>
      </trkpt>
      <trkpt lat="46.07102" lon="6.10812">
        <ele>1105.8000488281</ele>
        <time>2012-12-10T09:48:41.000Z</time>
      </trkpt>
      <trkpt lat="46.07102" lon="6.10815">
        <ele>1105.8000488281</ele>
        <time>2012-12-10T09:48:44.000Z</time>
      </trkpt>
      <trkpt lat="46.07102" lon="6.10816">
        <ele>1105.8000488281</ele>
        <time>2012-12-10T09:48:45.000Z</time>
      </trkpt>
      <trkpt lat="46.07103" lon="6.10823">
        <ele>1105.8000488281</ele>
        <time>2012-12-10T09:48:50.000Z</time>
      </trkpt>
      <trkpt lat="46.07104" lon="6.10826">
        <ele>1105.8000488281</ele>
        <time>2012-12-10T09:48:54.000Z</time>
      </trkpt>
      <trkpt lat="46.07105" lon="6.10828">
        <ele>1105.8000488281</ele>
        <time>2012-12-10T09:48:56.000Z</time>
      </trkpt>
      <trkpt lat="46.07106" lon="6.10832">
        <ele>1105.8000488281</ele>
        <time>2012-12-10T09:48:59.000Z</time>
      </trkpt>
      <trkpt lat="46.07106" lon="6.10832">
        <ele>1107</ele>
        <time>2012-12-10T09:49:00.000Z</time>
      </trkpt>
      <trkpt lat="46.07108" lon="6.10836">
        <ele>1107</ele>
        <time>2012-12-10T09:49:04.000Z</time>
      </trkpt>
      <trkpt lat="46.07108" lon="6.10837">
        <ele>1107</ele>
        <time>2012-12-10T09:49:05.000Z</time>
      </trkpt>
      <trkpt lat="46.0711" lon="6.10844">
        <ele>1107</ele>
        <time>2012-12-10T09:49:11.000Z</time>
      </trkpt>
      <trkpt lat="46.07111" lon="6.10846">
        <ele>1107</ele>
        <time>2012-12-10T09:49:14.000Z</time>
      </trkpt>
      <trkpt lat="46.0711" lon="6.10848">
        <ele>1108</ele>
        <time>2012-12-10T09:49:15.000Z</time>
      </trkpt>
      <trkpt lat="46.0711" lon="6.1085">
        <ele>1108</ele>
        <time>2012-12-10T09:49:17.000Z</time>
      </trkpt>
      <trkpt lat="46.0711" lon="6.10858">
        <ele>1108</ele>
        <time>2012-12-10T09:49:23.000Z</time>
      </trkpt>
      <trkpt lat="46.07111" lon="6.10859">
        <ele>1109</ele>
        <time>2012-12-10T09:49:24.000Z</time>
      </trkpt>
      <trkpt lat="46.07112" lon="6.10864">
        <ele>1109</ele>
        <time>2012-12-10T09:49:28.000Z</time>
      </trkpt>
      <trkpt lat="46.07112" lon="6.10867">
        <ele>1109</ele>
        <time>2012-12-10T09:49:30.000Z</time>
      </trkpt>
      <trkpt lat="46.07112" lon="6.10869">
        <ele>1109</ele>
        <time>2012-12-10T09:49:32.000Z</time>
      </trkpt>
      <trkpt lat="46.07112" lon="6.10873">
        <ele>1109</ele>
        <time>2012-12-10T09:49:35.000Z</time>
      </trkpt>
      <trkpt lat="46.07112" lon="6.10877">
        <ele>1110</ele>
        <time>2012-12-10T09:49:38.000Z</time>
      </trkpt>
      <trkpt lat="46.07113" lon="6.10881">
        <ele>1110</ele>
        <time>2012-12-10T09:49:41.000Z</time>
      </trkpt>
      <trkpt lat="46.07114" lon="6.10889">
        <ele>1110</ele>
        <time>2012-12-10T09:49:47.000Z</time>
      </trkpt>
      <trkpt lat="46.07114" lon="6.10895">
        <ele>1110</ele>
        <time>2012-12-10T09:49:52.000Z</time>
      </trkpt>
      <trkpt lat="46.07113" lon="6.10896">
        <ele>1110</ele>
        <time>2012-12-10T09:49:53.000Z</time>
      </trkpt>
      <trkpt lat="46.07113" lon="6.10902">
        <ele>1111</ele>
        <time>2012-12-10T09:49:58.000Z</time>
      </trkpt>
      <trkpt lat="46.07113" lon="6.10903">
        <ele>1111</ele>
        <time>2012-12-10T09:49:59.000Z</time>
      </trkpt>
      <trkpt lat="46.07113" lon="6.10904">
        <ele>1111</ele>
        <time>2012-12-10T09:50:00.000Z</time>
      </trkpt>
      <trkpt lat="46.07113" lon="6.10907">
        <ele>1111</ele>
        <time>2012-12-10T09:50:02.000Z</time>
      </trkpt>
      <trkpt lat="46.07113" lon="6.10909">
        <ele>1111</ele>
        <time>2012-12-10T09:50:05.000Z</time>
      </trkpt>
      <trkpt lat="46.07115" lon="6.10916">
        <ele>1111</ele>
        <time>2012-12-10T09:50:11.000Z</time>
      </trkpt>
      <trkpt lat="46.07115" lon="6.10918">
        <ele>1111</ele>
        <time>2012-12-10T09:50:13.000Z</time>
      </trkpt>
      <trkpt lat="46.07116" lon="6.10921">
        <ele>1111</ele>
        <time>2012-12-10T09:50:16.000Z</time>
      </trkpt>
      <trkpt lat="46.07117" lon="6.10924">
        <ele>1111</ele>
        <time>2012-12-10T09:50:19.000Z</time>
      </trkpt>
      <trkpt lat="46.07117" lon="6.10925">
        <ele>1112</ele>
        <time>2012-12-10T09:50:21.000Z</time>
      </trkpt>
      <trkpt lat="46.07119" lon="6.10929">
        <ele>1112</ele>
        <time>2012-12-10T09:50:26.000Z</time>
      </trkpt>
      <trkpt lat="46.07121" lon="6.10932">
        <ele>1112</ele>
        <time>2012-12-10T09:50:30.000Z</time>
      </trkpt>
      <trkpt lat="46.07123" lon="6.10934">
        <ele>1112</ele>
        <time>2012-12-10T09:50:36.000Z</time>
      </trkpt>
      <trkpt lat="46.07123" lon="6.10936">
        <ele>1113</ele>
        <time>2012-12-10T09:50:38.000Z</time>
      </trkpt>
      <trkpt lat="46.07125" lon="6.10939">
        <ele>1113</ele>
        <time>2012-12-10T09:50:42.000Z</time>
      </trkpt>
      <trkpt lat="46.07127" lon="6.10943">
        <ele>1114</ele>
        <time>2012-12-10T09:50:46.000Z</time>
      </trkpt>
      <trkpt lat="46.07127" lon="6.10945">
        <ele>1114</ele>
        <time>2012-12-10T09:50:49.000Z</time>
      </trkpt>
      <trkpt lat="46.07128" lon="6.10947">
        <ele>1115.4000244141</ele>
        <time>2012-12-10T09:50:52.000Z</time>
      </trkpt>
      <trkpt lat="46.0713" lon="6.10949">
        <ele>1115.4000244141</ele>
        <time>2012-12-10T09:50:55.000Z</time>
      </trkpt>
      <trkpt lat="46.0713" lon="6.10953">
        <ele>1115.4000244141</ele>
        <time>2012-12-10T09:51:00.000Z</time>
      </trkpt>
      <trkpt lat="46.07132" lon="6.10957">
        <ele>1115.4000244141</ele>
        <time>2012-12-10T09:51:04.000Z</time>
      </trkpt>
      <trkpt lat="46.07132" lon="6.10958">
        <ele>1116.4000244141</ele>
        <time>2012-12-10T09:51:05.000Z</time>
      </trkpt>
      <trkpt lat="46.07133" lon="6.10963">
        <ele>1116.4000244141</ele>
        <time>2012-12-10T09:51:11.000Z</time>
      </trkpt>
      <trkpt lat="46.07134" lon="6.10966">
        <ele>1117.4000244141</ele>
        <time>2012-12-10T09:51:13.000Z</time>
      </trkpt>
      <trkpt lat="46.07135" lon="6.10969">
        <ele>1117.4000244141</ele>
        <time>2012-12-10T09:51:16.000Z</time>
      </trkpt>
      <trkpt lat="46.07136" lon="6.10972">
        <ele>1118.4000244141</ele>
        <time>2012-12-10T09:51:20.000Z</time>
      </trkpt>
      <trkpt lat="46.07137" lon="6.10976">
        <ele>1118.4000244141</ele>
        <time>2012-12-10T09:51:23.000Z</time>
      </trkpt>
      <trkpt lat="46.07139" lon="6.10982">
        <ele>1118.4000244141</ele>
        <time>2012-12-10T09:51:28.000Z</time>
      </trkpt>
      <trkpt lat="46.07141" lon="6.10984">
        <ele>1118.4000244141</ele>
        <time>2012-12-10T09:51:30.000Z</time>
      </trkpt>
      <trkpt lat="46.07142" lon="6.10985">
        <ele>1119.4000244141</ele>
        <time>2012-12-10T09:51:31.000Z</time>
      </trkpt>
      <trkpt lat="46.07142" lon="6.10988">
        <ele>1119.4000244141</ele>
        <time>2012-12-10T09:51:34.000Z</time>
      </trkpt>
      <trkpt lat="46.07143" lon="6.1099">
        <ele>1119.4000244141</ele>
        <time>2012-12-10T09:51:36.000Z</time>
      </trkpt>
      <trkpt lat="46.07144" lon="6.10991">
        <ele>1119.4000244141</ele>
        <time>2012-12-10T09:51:38.000Z</time>
      </trkpt>
      <trkpt lat="46.07144" lon="6.10992">
        <ele>1119.4000244141</ele>
        <time>2012-12-10T09:51:39.000Z</time>
      </trkpt>
      <trkpt lat="46.07144" lon="6.10993">
        <ele>1120.4000244141</ele>
        <time>2012-12-10T09:51:41.000Z</time>
      </trkpt>
      <trkpt lat="46.07145" lon="6.10995">
        <ele>1120.4000244141</ele>
        <time>2012-12-10T09:51:44.000Z</time>
      </trkpt>
      <trkpt lat="46.07147" lon="6.10999">
        <ele>1120.4000244141</ele>
        <time>2012-12-10T09:51:48.000Z</time>
      </trkpt>
      <trkpt lat="46.07147" lon="6.11">
        <ele>1121.4000244141</ele>
        <time>2012-12-10T09:51:50.000Z</time>
      </trkpt>
      <trkpt lat="46.07147" lon="6.11001">
        <ele>1121.4000244141</ele>
        <time>2012-12-10T09:51:53.000Z</time>
      </trkpt>
      <trkpt lat="46.07149" lon="6.11005">
        <ele>1122.8000488281</ele>
        <time>2012-12-10T09:51:57.000Z</time>
      </trkpt>
      <trkpt lat="46.07149" lon="6.11006">
        <ele>1122.8000488281</ele>
        <time>2012-12-10T09:51:58.000Z</time>
      </trkpt>
      <trkpt lat="46.0715" lon="6.11009">
        <ele>1122.8000488281</ele>
        <time>2012-12-10T09:52:03.000Z</time>
      </trkpt>
      <trkpt lat="46.07151" lon="6.1101">
        <ele>1123.8000488281</ele>
        <time>2012-12-10T09:52:04.000Z</time>
      </trkpt>
      <trkpt lat="46.07153" lon="6.11014">
        <ele>1125</ele>
        <time>2012-12-10T09:52:10.000Z</time>
      </trkpt>
      <trkpt lat="46.07154" lon="6.1102">
        <ele>1126</ele>
        <time>2012-12-10T09:52:17.000Z</time>
      </trkpt>
      <trkpt lat="46.07155" lon="6.11025">
        <ele>1126</ele>
        <time>2012-12-10T09:52:24.000Z</time>
      </trkpt>
      <trkpt lat="46.07155" lon="6.11027">
        <ele>1127</ele>
        <time>2012-12-10T09:52:26.000Z</time>
      </trkpt>
      <trkpt lat="46.07156" lon="6.1103">
        <ele>1127</ele>
        <time>2012-12-10T09:52:29.000Z</time>
      </trkpt>
      <trkpt lat="46.07156" lon="6.11033">
        <ele>1128</ele>
        <time>2012-12-10T09:52:31.000Z</time>
      </trkpt>
      <trkpt lat="46.07157" lon="6.11036">
        <ele>1128</ele>
        <time>2012-12-10T09:52:35.000Z</time>
      </trkpt>
      <trkpt lat="46.07159" lon="6.1104">
        <ele>1128</ele>
        <time>2012-12-10T09:52:40.000Z</time>
      </trkpt>
      <trkpt lat="46.07159" lon="6.11042">
        <ele>1129</ele>
        <time>2012-12-10T09:52:41.000Z</time>
      </trkpt>
      <trkpt lat="46.0716" lon="6.11045">
        <ele>1129</ele>
        <time>2012-12-10T09:52:45.000Z</time>
      </trkpt>
      <trkpt lat="46.07161" lon="6.11045">
        <ele>1130</ele>
        <time>2012-12-10T09:52:46.000Z</time>
      </trkpt>
      <trkpt lat="46.07164" lon="6.11048">
        <ele>1130</ele>
        <time>2012-12-10T09:52:50.000Z</time>
      </trkpt>
      <trkpt lat="46.07165" lon="6.11049">
        <ele>1131.4000244141</ele>
        <time>2012-12-10T09:52:51.000Z</time>
      </trkpt>
      <trkpt lat="46.07165" lon="6.11052">
        <ele>1131.4000244141</ele>
        <time>2012-12-10T09:52:55.000Z</time>
      </trkpt>
      <trkpt lat="46.07167" lon="6.11056">
        <ele>1131.4000244141</ele>
        <time>2012-12-10T09:53:00.000Z</time>
      </trkpt>
      <trkpt lat="46.07168" lon="6.1106">
        <ele>1132.4000244141</ele>
        <time>2012-12-10T09:53:04.000Z</time>
      </trkpt>
      <trkpt lat="46.07169" lon="6.11061">
        <ele>1132.4000244141</ele>
        <time>2012-12-10T09:53:05.000Z</time>
      </trkpt>
      <trkpt lat="46.0717" lon="6.11067">
        <ele>1133.4000244141</ele>
        <time>2012-12-10T09:53:12.000Z</time>
      </trkpt>
      <trkpt lat="46.07172" lon="6.11071">
        <ele>1133.4000244141</ele>
        <time>2012-12-10T09:53:17.000Z</time>
      </trkpt>
      <trkpt lat="46.07174" lon="6.11074">
        <ele>1134.4000244141</ele>
        <time>2012-12-10T09:53:21.000Z</time>
      </trkpt>
      <trkpt lat="46.07174" lon="6.11075">
        <ele>1134.4000244141</ele>
        <time>2012-12-10T09:53:23.000Z</time>
      </trkpt>
      <trkpt lat="46.07174" lon="6.11079">
        <ele>1135.8000488281</ele>
        <time>2012-12-10T09:53:29.000Z</time>
      </trkpt>
      <trkpt lat="46.07175" lon="6.11081">
        <ele>1135.8000488281</ele>
        <time>2012-12-10T09:53:36.000Z</time>
      </trkpt>
      <trkpt lat="46.07177" lon="6.11084">
        <ele>1135.8000488281</ele>
        <time>2012-12-10T09:53:40.000Z</time>
      </trkpt>
      <trkpt lat="46.07177" lon="6.11085">
        <ele>1136.8000488281</ele>
        <time>2012-12-10T09:53:42.000Z</time>
      </trkpt>
      <trkpt lat="46.07179" lon="6.11088">
        <ele>1136.8000488281</ele>
        <time>2012-12-10T09:53:46.000Z</time>
      </trkpt>
      <trkpt lat="46.0718" lon="6.11092">
        <ele>1137.8000488281</ele>
        <time>2012-12-10T09:53:51.000Z</time>
      </trkpt>
      <trkpt lat="46.0718" lon="6.11093">
        <ele>1137.8000488281</ele>
        <time>2012-12-10T09:53:52.000Z</time>
      </trkpt>
      <trkpt lat="46.07181" lon="6.11098">
        <ele>1138.8000488281</ele>
        <time>2012-12-10T09:53:57.000Z</time>
      </trkpt>
      <trkpt lat="46.07181" lon="6.11098">
        <ele>1138.8000488281</ele>
        <time>2012-12-10T09:53:58.000Z</time>
      </trkpt>
      <trkpt lat="46.07182" lon="6.11101">
        <ele>1140</ele>
        <time>2012-12-10T09:54:03.000Z</time>
      </trkpt>
      <trkpt lat="46.07182" lon="6.11102">
        <ele>1140</ele>
        <time>2012-12-10T09:54:04.000Z</time>
      </trkpt>
      <trkpt lat="46.07183" lon="6.11107">
        <ele>1140</ele>
        <time>2012-12-10T09:54:10.000Z</time>
      </trkpt>
      <trkpt lat="46.07183" lon="6.11107">
        <ele>1141</ele>
        <time>2012-12-10T09:54:11.000Z</time>
      </trkpt>
      <trkpt lat="46.07184" lon="6.11111">
        <ele>1141</ele>
        <time>2012-12-10T09:54:15.000Z</time>
      </trkpt>
      <trkpt lat="46.07185" lon="6.11116">
        <ele>1142</ele>
        <time>2012-12-10T09:54:20.000Z</time>
      </trkpt>
      <trkpt lat="46.07186" lon="6.11122">
        <ele>1142</ele>
        <time>2012-12-10T09:54:26.000Z</time>
      </trkpt>
      <trkpt lat="46.07187" lon="6.11123">
        <ele>1142</ele>
        <time>2012-12-10T09:54:31.000Z</time>
      </trkpt>
      <trkpt lat="46.07188" lon="6.11124">
        <ele>1142</ele>
        <time>2012-12-10T09:54:41.000Z</time>
      </trkpt>
      <trkpt lat="46.07191" lon="6.11126">
        <ele>1142</ele>
        <time>2012-12-10T09:54:49.000Z</time>
      </trkpt>
      <trkpt lat="46.07192" lon="6.11127">
        <ele>1143</ele>
        <time>2012-12-10T09:54:53.000Z</time>
      </trkpt>
      <trkpt lat="46.07192" lon="6.11128">
        <ele>1143</ele>
        <time>2012-12-10T09:54:54.000Z</time>
      </trkpt>
      <trkpt lat="46.07194" lon="6.11132">
        <ele>1143</ele>
        <time>2012-12-10T09:55:01.000Z</time>
      </trkpt>
      <trkpt lat="46.07196" lon="6.11134">
        <ele>1143</ele>
        <time>2012-12-10T09:55:07.000Z</time>
      </trkpt>
      <trkpt lat="46.07196" lon="6.11136">
        <ele>1144</ele>
        <time>2012-12-10T09:55:09.000Z</time>
      </trkpt>
      <trkpt lat="46.07198" lon="6.11137">
        <ele>1144</ele>
        <time>2012-12-10T09:55:12.000Z</time>
      </trkpt>
      <trkpt lat="46.07202" lon="6.11139">
        <ele>1144</ele>
        <time>2012-12-10T09:55:18.000Z</time>
      </trkpt>
      <trkpt lat="46.07202" lon="6.1114">
        <ele>1145</ele>
        <time>2012-12-10T09:55:20.000Z</time>
      </trkpt>
      <trkpt lat="46.07203" lon="6.11142">
        <ele>1145</ele>
        <time>2012-12-10T09:55:23.000Z</time>
      </trkpt>
      <trkpt lat="46.07204" lon="6.11144">
        <ele>1146</ele>
        <time>2012-12-10T09:55:25.000Z</time>
      </trkpt>
      <trkpt lat="46.07205" lon="6.11145">
        <ele>1146</ele>
        <time>2012-12-10T09:55:28.000Z</time>
      </trkpt>
      <trkpt lat="46.07209" lon="6.11147">
        <ele>1146</ele>
        <time>2012-12-10T09:55:33.000Z</time>
      </trkpt>
      <trkpt lat="46.0721" lon="6.11148">
        <ele>1147</ele>
        <time>2012-12-10T09:55:35.000Z</time>
      </trkpt>
      <trkpt lat="46.07212" lon="6.11149">
        <ele>1147</ele>
        <time>2012-12-10T09:55:38.000Z</time>
      </trkpt>
      <trkpt lat="46.07213" lon="6.11148">
        <ele>1148.4000244141</ele>
        <time>2012-12-10T09:55:41.000Z</time>
      </trkpt>
      <trkpt lat="46.07214" lon="6.11149">
        <ele>1148.4000244141</ele>
        <time>2012-12-10T09:55:44.000Z</time>
      </trkpt>
      <trkpt lat="46.07215" lon="6.11151">
        <ele>1149.4000244141</ele>
        <time>2012-12-10T09:55:49.000Z</time>
      </trkpt>
      <trkpt lat="46.0722" lon="6.11156">
        <ele>1149.4000244141</ele>
        <time>2012-12-10T09:55:56.000Z</time>
      </trkpt>
      <trkpt lat="46.07221" lon="6.11157">
        <ele>1150.4000244141</ele>
        <time>2012-12-10T09:55:58.000Z</time>
      </trkpt>
      <trkpt lat="46.07224" lon="6.11159">
        <ele>1150.4000244141</ele>
        <time>2012-12-10T09:56:03.000Z</time>
      </trkpt>
      <trkpt lat="46.07226" lon="6.1116">
        <ele>1150.4000244141</ele>
        <time>2012-12-10T09:56:05.000Z</time>
      </trkpt>
      <trkpt lat="46.07229" lon="6.11162">
        <ele>1150.4000244141</ele>
        <time>2012-12-10T09:56:09.000Z</time>
      </trkpt>
      <trkpt lat="46.07232" lon="6.11164">
        <ele>1150.4000244141</ele>
        <time>2012-12-10T09:56:14.000Z</time>
      </trkpt>
      <trkpt lat="46.07233" lon="6.11166">
        <ele>1151.4000244141</ele>
        <time>2012-12-10T09:56:17.000Z</time>
      </trkpt>
      <trkpt lat="46.07235" lon="6.11166">
        <ele>1151.4000244141</ele>
        <time>2012-12-10T09:56:21.000Z</time>
      </trkpt>
      <trkpt lat="46.07239" lon="6.1117">
        <ele>1151.4000244141</ele>
        <time>2012-12-10T09:56:28.000Z</time>
      </trkpt>
      <trkpt lat="46.07243" lon="6.11174">
        <ele>1151.4000244141</ele>
        <time>2012-12-10T09:56:34.000Z</time>
      </trkpt>
      <trkpt lat="46.07247" lon="6.11176">
        <ele>1151.4000244141</ele>
        <time>2012-12-10T09:56:40.000Z</time>
      </trkpt>
      <trkpt lat="46.07249" lon="6.11178">
        <ele>1151.4000244141</ele>
        <time>2012-12-10T09:56:44.000Z</time>
      </trkpt>
      <trkpt lat="46.0725" lon="6.11179">
        <ele>1152.4000244141</ele>
        <time>2012-12-10T09:56:45.000Z</time>
      </trkpt>
      <trkpt lat="46.07255" lon="6.11182">
        <ele>1152.4000244141</ele>
        <time>2012-12-10T09:56:51.000Z</time>
      </trkpt>
      <trkpt lat="46.07257" lon="6.11186">
        <ele>1152.4000244141</ele>
        <time>2012-12-10T09:56:56.000Z</time>
      </trkpt>
      <trkpt lat="46.07257" lon="6.11186">
        <ele>1153.4000244141</ele>
        <time>2012-12-10T09:56:57.000Z</time>
      </trkpt>
      <trkpt lat="46.07259" lon="6.11189">
        <ele>1153.4000244141</ele>
        <time>2012-12-10T09:57:01.000Z</time>
      </trkpt>
      <trkpt lat="46.07261" lon="6.11191">
        <ele>1153.4000244141</ele>
        <time>2012-12-10T09:57:07.000Z</time>
      </trkpt>
      <trkpt lat="46.07264" lon="6.11194">
        <ele>1153.4000244141</ele>
        <time>2012-12-10T09:57:13.000Z</time>
      </trkpt>
      <trkpt lat="46.07264" lon="6.11194">
        <ele>1154.4000244141</ele>
        <time>2012-12-10T09:57:14.000Z</time>
      </trkpt>
      <trkpt lat="46.07267" lon="6.11196">
        <ele>1154.4000244141</ele>
        <time>2012-12-10T09:57:18.000Z</time>
      </trkpt>
      <trkpt lat="46.07269" lon="6.11198">
        <ele>1154.4000244141</ele>
        <time>2012-12-10T09:57:22.000Z</time>
      </trkpt>
      <trkpt lat="46.0727" lon="6.11199">
        <ele>1154.4000244141</ele>
        <time>2012-12-10T09:57:27.000Z</time>
      </trkpt>
      <trkpt lat="46.07272" lon="6.11199">
        <ele>1154.4000244141</ele>
        <time>2012-12-10T09:57:34.000Z</time>
      </trkpt>
      <trkpt lat="46.07276" lon="6.11202">
        <ele>1155.4000244141</ele>
        <time>2012-12-10T09:57:38.000Z</time>
      </trkpt>
      <trkpt lat="46.07276" lon="6.11203">
        <ele>1155.4000244141</ele>
        <time>2012-12-10T09:57:40.000Z</time>
      </trkpt>
      <trkpt lat="46.07279" lon="6.11207">
        <ele>1155.4000244141</ele>
        <time>2012-12-10T09:57:44.000Z</time>
      </trkpt>
      <trkpt lat="46.07282" lon="6.1121">
        <ele>1155.4000244141</ele>
        <time>2012-12-10T09:57:48.000Z</time>
      </trkpt>
      <trkpt lat="46.07282" lon="6.11211">
        <ele>1155.4000244141</ele>
        <time>2012-12-10T09:57:49.000Z</time>
      </trkpt>
      <trkpt lat="46.07283" lon="6.11213">
        <ele>1156.4000244141</ele>
        <time>2012-12-10T09:57:51.000Z</time>
      </trkpt>
      <trkpt lat="46.07285" lon="6.11215">
        <ele>1156.4000244141</ele>
        <time>2012-12-10T09:57:54.000Z</time>
      </trkpt>
      <trkpt lat="46.07285" lon="6.11216">
        <ele>1156.4000244141</ele>
        <time>2012-12-10T09:57:55.000Z</time>
      </trkpt>
      <trkpt lat="46.07289" lon="6.11222">
        <ele>1156.4000244141</ele>
        <time>2012-12-10T09:58:01.000Z</time>
      </trkpt>
      <trkpt lat="46.0729" lon="6.11225">
        <ele>1157.4000244141</ele>
        <time>2012-12-10T09:58:04.000Z</time>
      </trkpt>
      <trkpt lat="46.0729" lon="6.11226">
        <ele>1157.4000244141</ele>
        <time>2012-12-10T09:58:06.000Z</time>
      </trkpt>
      <trkpt lat="46.07291" lon="6.11227">
        <ele>1157.4000244141</ele>
        <time>2012-12-10T09:58:07.000Z</time>
      </trkpt>
      <trkpt lat="46.07293" lon="6.11232">
        <ele>1157.4000244141</ele>
        <time>2012-12-10T09:58:12.000Z</time>
      </trkpt>
      <trkpt lat="46.07293" lon="6.11233">
        <ele>1158.4000244141</ele>
        <time>2012-12-10T09:58:14.000Z</time>
      </trkpt>
      <trkpt lat="46.07295" lon="6.11236">
        <ele>1158.4000244141</ele>
        <time>2012-12-10T09:58:18.000Z</time>
      </trkpt>
      <trkpt lat="46.07296" lon="6.1124">
        <ele>1158.4000244141</ele>
        <time>2012-12-10T09:58:23.000Z</time>
      </trkpt>
      <trkpt lat="46.07298" lon="6.11243">
        <ele>1159.8000488281</ele>
        <time>2012-12-10T09:58:28.000Z</time>
      </trkpt>
      <trkpt lat="46.07299" lon="6.11244">
        <ele>1159.8000488281</ele>
        <time>2012-12-10T09:58:30.000Z</time>
      </trkpt>
      <trkpt lat="46.07301" lon="6.11249">
        <ele>1159.8000488281</ele>
        <time>2012-12-10T09:58:35.000Z</time>
      </trkpt>
      <trkpt lat="46.07302" lon="6.11253">
        <ele>1159.8000488281</ele>
        <time>2012-12-10T09:58:39.000Z</time>
      </trkpt>
      <trkpt lat="46.07301" lon="6.11255">
        <ele>1160.8000488281</ele>
        <time>2012-12-10T09:58:41.000Z</time>
      </trkpt>
      <trkpt lat="46.07302" lon="6.11257">
        <ele>1160.8000488281</ele>
        <time>2012-12-10T09:58:45.000Z</time>
      </trkpt>
      <trkpt lat="46.07304" lon="6.11261">
        <ele>1162</ele>
        <time>2012-12-10T09:58:51.000Z</time>
      </trkpt>
      <trkpt lat="46.07306" lon="6.11266">
        <ele>1162</ele>
        <time>2012-12-10T09:58:58.000Z</time>
      </trkpt>
      <trkpt lat="46.07306" lon="6.11269">
        <ele>1163</ele>
        <time>2012-12-10T09:59:01.000Z</time>
      </trkpt>
      <trkpt lat="46.07307" lon="6.11272">
        <ele>1163</ele>
        <time>2012-12-10T09:59:04.000Z</time>
      </trkpt>
      <trkpt lat="46.07309" lon="6.11274">
        <ele>1164</ele>
        <time>2012-12-10T09:59:08.000Z</time>
      </trkpt>
      <trkpt lat="46.07309" lon="6.11275">
        <ele>1164</ele>
        <time>2012-12-10T09:59:10.000Z</time>
      </trkpt>
      <trkpt lat="46.07307" lon="6.11276">
        <ele>1165</ele>
        <time>2012-12-10T09:59:13.000Z</time>
      </trkpt>
      <trkpt lat="46.0731" lon="6.11279">
        <ele>1165</ele>
        <time>2012-12-10T09:59:16.000Z</time>
      </trkpt>
      <trkpt lat="46.07311" lon="6.11282">
        <ele>1165</ele>
        <time>2012-12-10T09:59:21.000Z</time>
      </trkpt>
      <trkpt lat="46.07312" lon="6.11285">
        <ele>1165</ele>
        <time>2012-12-10T09:59:25.000Z</time>
      </trkpt>
      <trkpt lat="46.07313" lon="6.11288">
        <ele>1166</ele>
        <time>2012-12-10T09:59:29.000Z</time>
      </trkpt>
      <trkpt lat="46.07314" lon="6.11291">
        <ele>1166</ele>
        <time>2012-12-10T09:59:32.000Z</time>
      </trkpt>
      <trkpt lat="46.07316" lon="6.11296">
        <ele>1166</ele>
        <time>2012-12-10T09:59:38.000Z</time>
      </trkpt>
      <trkpt lat="46.07317" lon="6.11299">
        <ele>1167</ele>
        <time>2012-12-10T09:59:41.000Z</time>
      </trkpt>
      <trkpt lat="46.07317" lon="6.11301">
        <ele>1167</ele>
        <time>2012-12-10T09:59:44.000Z</time>
      </trkpt>
      <trkpt lat="46.07318" lon="6.11302">
        <ele>1168</ele>
        <time>2012-12-10T09:59:46.000Z</time>
      </trkpt>
      <trkpt lat="46.07319" lon="6.11303">
        <ele>1168</ele>
        <time>2012-12-10T09:59:49.000Z</time>
      </trkpt>
      <trkpt lat="46.07321" lon="6.11308">
        <ele>1168</ele>
        <time>2012-12-10T09:59:54.000Z</time>
      </trkpt>
      <trkpt lat="46.07321" lon="6.1131">
        <ele>1169</ele>
        <time>2012-12-10T09:59:57.000Z</time>
      </trkpt>
      <trkpt lat="46.07321" lon="6.11311">
        <ele>1169</ele>
        <time>2012-12-10T09:59:59.000Z</time>
      </trkpt>
      <trkpt lat="46.07321" lon="6.11315">
        <ele>1169</ele>
        <time>2012-12-10T10:00:04.000Z</time>
      </trkpt>
      <trkpt lat="46.07323" lon="6.11319">
        <ele>1170</ele>
        <time>2012-12-10T10:00:07.000Z</time>
      </trkpt>
      <trkpt lat="46.07322" lon="6.11323">
        <ele>1170</ele>
        <time>2012-12-10T10:00:10.000Z</time>
      </trkpt>
      <trkpt lat="46.07322" lon="6.11326">
        <ele>1170</ele>
        <time>2012-12-10T10:00:13.000Z</time>
      </trkpt>
      <trkpt lat="46.07323" lon="6.11328">
        <ele>1171.4000244141</ele>
        <time>2012-12-10T10:00:15.000Z</time>
      </trkpt>
      <trkpt lat="46.07324" lon="6.1133">
        <ele>1171.4000244141</ele>
        <time>2012-12-10T10:00:17.000Z</time>
      </trkpt>
      <trkpt lat="46.07325" lon="6.11332">
        <ele>1171.4000244141</ele>
        <time>2012-12-10T10:00:20.000Z</time>
      </trkpt>
      <trkpt lat="46.07327" lon="6.11335">
        <ele>1172.4000244141</ele>
        <time>2012-12-10T10:00:24.000Z</time>
      </trkpt>
      <trkpt lat="46.07328" lon="6.11338">
        <ele>1172.4000244141</ele>
        <time>2012-12-10T10:00:26.000Z</time>
      </trkpt>
      <trkpt lat="46.07329" lon="6.11341">
        <ele>1173.4000244141</ele>
        <time>2012-12-10T10:00:30.000Z</time>
      </trkpt>
      <trkpt lat="46.07329" lon="6.11342">
        <ele>1173.4000244141</ele>
        <time>2012-12-10T10:00:31.000Z</time>
      </trkpt>
      <trkpt lat="46.0733" lon="6.11347">
        <ele>1174.4000244141</ele>
        <time>2012-12-10T10:00:37.000Z</time>
      </trkpt>
      <trkpt lat="46.07329" lon="6.11347">
        <ele>1174.4000244141</ele>
        <time>2012-12-10T10:00:43.000Z</time>
      </trkpt>
      <trkpt lat="46.07328" lon="6.11349">
        <ele>1175.8000488281</ele>
        <time>2012-12-10T10:00:46.000Z</time>
      </trkpt>
      <trkpt lat="46.07327" lon="6.11352">
        <ele>1175.8000488281</ele>
        <time>2012-12-10T10:00:51.000Z</time>
      </trkpt>
      <trkpt lat="46.07328" lon="6.11355">
        <ele>1176.8000488281</ele>
        <time>2012-12-10T10:00:58.000Z</time>
      </trkpt>
      <trkpt lat="46.07328" lon="6.11355">
        <ele>1176.8000488281</ele>
        <time>2012-12-10T10:00:59.000Z</time>
      </trkpt>
      <trkpt lat="46.07329" lon="6.11358">
        <ele>1176.8000488281</ele>
        <time>2012-12-10T10:01:06.000Z</time>
      </trkpt>
      <trkpt lat="46.0733" lon="6.11359">
        <ele>1177.8000488281</ele>
        <time>2012-12-10T10:01:10.000Z</time>
      </trkpt>
      <trkpt lat="46.07329" lon="6.1136">
        <ele>1177.8000488281</ele>
        <time>2012-12-10T10:01:12.000Z</time>
      </trkpt>
      <trkpt lat="46.07331" lon="6.1136">
        <ele>1177.8000488281</ele>
        <time>2012-12-10T10:01:19.000Z</time>
      </trkpt>
      <trkpt lat="46.07335" lon="6.11362">
        <ele>1177.8000488281</ele>
        <time>2012-12-10T10:01:26.000Z</time>
      </trkpt>
      <trkpt lat="46.07337" lon="6.11363">
        <ele>1177.8000488281</ele>
        <time>2012-12-10T10:01:32.000Z</time>
      </trkpt>
      <trkpt lat="46.07339" lon="6.11364">
        <ele>1177.8000488281</ele>
        <time>2012-12-10T10:01:38.000Z</time>
      </trkpt>
      <trkpt lat="46.07341" lon="6.11364">
        <ele>1177.8000488281</ele>
        <time>2012-12-10T10:01:44.000Z</time>
      </trkpt>
      <trkpt lat="46.07344" lon="6.11367">
        <ele>1177.8000488281</ele>
        <time>2012-12-10T10:01:49.000Z</time>
      </trkpt>
      <trkpt lat="46.07347" lon="6.11369">
        <ele>1177.8000488281</ele>
        <time>2012-12-10T10:01:54.000Z</time>
      </trkpt>
      <trkpt lat="46.07348" lon="6.1137">
        <ele>1177.8000488281</ele>
        <time>2012-12-10T10:02:00.000Z</time>
      </trkpt>
      <trkpt lat="46.07349" lon="6.11374">
        <ele>1177.8000488281</ele>
        <time>2012-12-10T10:02:06.000Z</time>
      </trkpt>
      <trkpt lat="46.0735" lon="6.11377">
        <ele>1177.8000488281</ele>
        <time>2012-12-10T10:02:13.000Z</time>
      </trkpt>
      <trkpt lat="46.07351" lon="6.11378">
        <ele>1178.8000488281</ele>
        <time>2012-12-10T10:02:15.000Z</time>
      </trkpt>
      <trkpt lat="46.07352" lon="6.11379">
        <ele>1178.8000488281</ele>
        <time>2012-12-10T10:02:17.000Z</time>
      </trkpt>
      <trkpt lat="46.07353" lon="6.11382">
        <ele>1179.8000488281</ele>
        <time>2012-12-10T10:02:22.000Z</time>
      </trkpt>
      <trkpt lat="46.07353" lon="6.11382">
        <ele>1179.8000488281</ele>
        <time>2012-12-10T10:02:24.000Z</time>
      </trkpt>
      <trkpt lat="46.07355" lon="6.11382">
        <ele>1179.8000488281</ele>
        <time>2012-12-10T10:02:31.000Z</time>
      </trkpt>
      <trkpt lat="46.07358" lon="6.11385">
        <ele>1179.8000488281</ele>
        <time>2012-12-10T10:02:37.000Z</time>
      </trkpt>
      <trkpt lat="46.07358" lon="6.11387">
        <ele>1180.8000488281</ele>
        <time>2012-12-10T10:02:40.000Z</time>
      </trkpt>
      <trkpt lat="46.0736" lon="6.1139">
        <ele>1180.8000488281</ele>
        <time>2012-12-10T10:02:43.000Z</time>
      </trkpt>
      <trkpt lat="46.07361" lon="6.11393">
        <ele>1180.8000488281</ele>
        <time>2012-12-10T10:02:49.000Z</time>
      </trkpt>
      <trkpt lat="46.07361" lon="6.11393">
        <ele>1182</ele>
        <time>2012-12-10T10:02:50.000Z</time>
      </trkpt>
      <trkpt lat="46.07362" lon="6.11396">
        <ele>1182</ele>
        <time>2012-12-10T10:02:54.000Z</time>
      </trkpt>
      <trkpt lat="46.07364" lon="6.11401">
        <ele>1182</ele>
        <time>2012-12-10T10:03:00.000Z</time>
      </trkpt>
      <trkpt lat="46.07364" lon="6.11402">
        <ele>1183</ele>
        <time>2012-12-10T10:03:02.000Z</time>
      </trkpt>
      <trkpt lat="46.07365" lon="6.11405">
        <ele>1183</ele>
        <time>2012-12-10T10:03:06.000Z</time>
      </trkpt>
      <trkpt lat="46.07366" lon="6.11409">
        <ele>1183</ele>
        <time>2012-12-10T10:03:11.000Z</time>
      </trkpt>
      <trkpt lat="46.07367" lon="6.1141">
        <ele>1184</ele>
        <time>2012-12-10T10:03:12.000Z</time>
      </trkpt>
      <trkpt lat="46.07368" lon="6.11415">
        <ele>1184</ele>
        <time>2012-12-10T10:03:18.000Z</time>
      </trkpt>
      <trkpt lat="46.07369" lon="6.11417">
        <ele>1185</ele>
        <time>2012-12-10T10:03:22.000Z</time>
      </trkpt>
      <trkpt lat="46.0737" lon="6.11419">
        <ele>1185</ele>
        <time>2012-12-10T10:03:24.000Z</time>
      </trkpt>
      <trkpt lat="46.0737" lon="6.11419">
        <ele>1185</ele>
        <time>2012-12-10T10:03:25.000Z</time>
      </trkpt>
      <trkpt lat="46.07372" lon="6.11422">
        <ele>1185</ele>
        <time>2012-12-10T10:03:30.000Z</time>
      </trkpt>
      <trkpt lat="46.07373" lon="6.11425">
        <ele>1186</ele>
        <time>2012-12-10T10:03:33.000Z</time>
      </trkpt>
      <trkpt lat="46.07374" lon="6.11426">
        <ele>1186</ele>
        <time>2012-12-10T10:03:35.000Z</time>
      </trkpt>
      <trkpt lat="46.07376" lon="6.1143">
        <ele>1186</ele>
        <time>2012-12-10T10:03:41.000Z</time>
      </trkpt>
      <trkpt lat="46.07377" lon="6.11432">
        <ele>1187</ele>
        <time>2012-12-10T10:03:45.000Z</time>
      </trkpt>
      <trkpt lat="46.07378" lon="6.11434">
        <ele>1187</ele>
        <time>2012-12-10T10:03:47.000Z</time>
      </trkpt>
      <trkpt lat="46.0738" lon="6.11436">
        <ele>1187</ele>
        <time>2012-12-10T10:03:53.000Z</time>
      </trkpt>
      <trkpt lat="46.07381" lon="6.11437">
        <ele>1187</ele>
        <time>2012-12-10T10:04:01.000Z</time>
      </trkpt>
      <trkpt lat="46.07382" lon="6.11438">
        <ele>1187</ele>
        <time>2012-12-10T10:04:09.000Z</time>
      </trkpt>
      <trkpt lat="46.07382" lon="6.11444">
        <ele>1187</ele>
        <time>2012-12-10T10:04:17.000Z</time>
      </trkpt>
      <trkpt lat="46.07383" lon="6.11444">
        <ele>1188</ele>
        <time>2012-12-10T10:04:18.000Z</time>
      </trkpt>
      <trkpt lat="46.07384" lon="6.11448">
        <ele>1188</ele>
        <time>2012-12-10T10:04:23.000Z</time>
      </trkpt>
      <trkpt lat="46.07385" lon="6.11454">
        <ele>1188</ele>
        <time>2012-12-10T10:04:31.000Z</time>
      </trkpt>
      <trkpt lat="46.07385" lon="6.11458">
        <ele>1189</ele>
        <time>2012-12-10T10:04:36.000Z</time>
      </trkpt>
      <trkpt lat="46.07386" lon="6.1146">
        <ele>1189</ele>
        <time>2012-12-10T10:04:41.000Z</time>
      </trkpt>
      <trkpt lat="46.07388" lon="6.11464">
        <ele>1189</ele>
        <time>2012-12-10T10:04:45.000Z</time>
      </trkpt>
      <trkpt lat="46.07389" lon="6.11468">
        <ele>1189</ele>
        <time>2012-12-10T10:04:50.000Z</time>
      </trkpt>
      <trkpt lat="46.0739" lon="6.1147">
        <ele>1190</ele>
        <time>2012-12-10T10:04:52.000Z</time>
      </trkpt>
      <trkpt lat="46.0739" lon="6.11473">
        <ele>1190</ele>
        <time>2012-12-10T10:04:55.000Z</time>
      </trkpt>
      <trkpt lat="46.07391" lon="6.11477">
        <ele>1190</ele>
        <time>2012-12-10T10:05:00.000Z</time>
      </trkpt>
      <trkpt lat="46.07391" lon="6.1148">
        <ele>1191</ele>
        <time>2012-12-10T10:05:05.000Z</time>
      </trkpt>
      <trkpt lat="46.07391" lon="6.11481">
        <ele>1191</ele>
        <time>2012-12-10T10:05:06.000Z</time>
      </trkpt>
      <trkpt lat="46.07394" lon="6.11486">
        <ele>1191</ele>
        <time>2012-12-10T10:05:12.000Z</time>
      </trkpt>
      <trkpt lat="46.07394" lon="6.1149">
        <ele>1192.4000244141</ele>
        <time>2012-12-10T10:05:15.000Z</time>
      </trkpt>
      <trkpt lat="46.07394" lon="6.1149">
        <ele>1192.4000244141</ele>
        <time>2012-12-10T10:05:16.000Z</time>
      </trkpt>
      <trkpt lat="46.07397" lon="6.11495">
        <ele>1192.4000244141</ele>
        <time>2012-12-10T10:05:23.000Z</time>
      </trkpt>
      <trkpt lat="46.07398" lon="6.11497">
        <ele>1193.4000244141</ele>
        <time>2012-12-10T10:05:26.000Z</time>
      </trkpt>
      <trkpt lat="46.074" lon="6.115">
        <ele>1193.4000244141</ele>
        <time>2012-12-10T10:05:29.000Z</time>
      </trkpt>
      <trkpt lat="46.074" lon="6.11503">
        <ele>1193.4000244141</ele>
        <time>2012-12-10T10:05:34.000Z</time>
      </trkpt>
      <trkpt lat="46.07402" lon="6.11507">
        <ele>1194.4000244141</ele>
        <time>2012-12-10T10:05:39.000Z</time>
      </trkpt>
      <trkpt lat="46.07402" lon="6.11509">
        <ele>1194.4000244141</ele>
        <time>2012-12-10T10:05:41.000Z</time>
      </trkpt>
      <trkpt lat="46.07404" lon="6.11512">
        <ele>1194.4000244141</ele>
        <time>2012-12-10T10:05:45.000Z</time>
      </trkpt>
      <trkpt lat="46.07406" lon="6.11515">
        <ele>1195.4000244141</ele>
        <time>2012-12-10T10:05:50.000Z</time>
      </trkpt>
      <trkpt lat="46.07408" lon="6.11517">
        <ele>1195.4000244141</ele>
        <time>2012-12-10T10:05:55.000Z</time>
      </trkpt>
      <trkpt lat="46.0741" lon="6.11521">
        <ele>1195.4000244141</ele>
        <time>2012-12-10T10:06:01.000Z</time>
      </trkpt>
      <trkpt lat="46.07411" lon="6.11522">
        <ele>1196.4000244141</ele>
        <time>2012-12-10T10:06:02.000Z</time>
      </trkpt>
      <trkpt lat="46.07413" lon="6.11526">
        <ele>1197.4000244141</ele>
        <time>2012-12-10T10:06:07.000Z</time>
      </trkpt>
      <trkpt lat="46.07415" lon="6.1153">
        <ele>1197.4000244141</ele>
        <time>2012-12-10T10:06:11.000Z</time>
      </trkpt>
      <trkpt lat="46.07416" lon="6.11531">
        <ele>1197.4000244141</ele>
        <time>2012-12-10T10:06:14.000Z</time>
      </trkpt>
      <trkpt lat="46.07417" lon="6.11532">
        <ele>1197.4000244141</ele>
        <time>2012-12-10T10:06:16.000Z</time>
      </trkpt>
      <trkpt lat="46.07417" lon="6.11532">
        <ele>1198.4000244141</ele>
        <time>2012-12-10T10:06:18.000Z</time>
      </trkpt>
      <trkpt lat="46.0742" lon="6.11534">
        <ele>1198.4000244141</ele>
        <time>2012-12-10T10:06:22.000Z</time>
      </trkpt>
      <trkpt lat="46.0742" lon="6.11535">
        <ele>1199.4000244141</ele>
        <time>2012-12-10T10:06:23.000Z</time>
      </trkpt>
      <trkpt lat="46.07422" lon="6.11538">
        <ele>1199.4000244141</ele>
        <time>2012-12-10T10:06:29.000Z</time>
      </trkpt>
      <trkpt lat="46.07423" lon="6.11539">
        <ele>1200.8000488281</ele>
        <time>2012-12-10T10:06:30.000Z</time>
      </trkpt>
      <trkpt lat="46.07424" lon="6.1154">
        <ele>1200.8000488281</ele>
        <time>2012-12-10T10:06:34.000Z</time>
      </trkpt>
      <trkpt lat="46.07427" lon="6.11544">
        <ele>1201.8000488281</ele>
        <time>2012-12-10T10:06:40.000Z</time>
      </trkpt>
      <trkpt lat="46.07431" lon="6.11547">
        <ele>1201.8000488281</ele>
        <time>2012-12-10T10:06:47.000Z</time>
      </trkpt>
      <trkpt lat="46.07432" lon="6.11548">
        <ele>1202.8000488281</ele>
        <time>2012-12-10T10:06:48.000Z</time>
      </trkpt>
      <trkpt lat="46.07433" lon="6.11549">
        <ele>1202.8000488281</ele>
        <time>2012-12-10T10:06:53.000Z</time>
      </trkpt>
      <trkpt lat="46.07439" lon="6.11551">
        <ele>1202.8000488281</ele>
        <time>2012-12-10T10:06:59.000Z</time>
      </trkpt>
      <trkpt lat="46.07442" lon="6.11555">
        <ele>1203.8000488281</ele>
        <time>2012-12-10T10:07:04.000Z</time>
      </trkpt>
      <trkpt lat="46.07447" lon="6.11557">
        <ele>1203.8000488281</ele>
        <time>2012-12-10T10:07:11.000Z</time>
      </trkpt>
      <trkpt lat="46.0745" lon="6.11559">
        <ele>1204.8000488281</ele>
        <time>2012-12-10T10:07:14.000Z</time>
      </trkpt>
      <trkpt lat="46.07451" lon="6.11559">
        <ele>1204.8000488281</ele>
        <time>2012-12-10T10:07:16.000Z</time>
      </trkpt>
      <trkpt lat="46.07453" lon="6.11561">
        <ele>1204.8000488281</ele>
        <time>2012-12-10T10:07:20.000Z</time>
      </trkpt>
      <trkpt lat="46.07455" lon="6.11563">
        <ele>1205.8000488281</ele>
        <time>2012-12-10T10:07:22.000Z</time>
      </trkpt>
      <trkpt lat="46.07458" lon="6.11566">
        <ele>1205.8000488281</ele>
        <time>2012-12-10T10:07:28.000Z</time>
      </trkpt>
      <trkpt lat="46.07461" lon="6.11568">
        <ele>1207</ele>
        <time>2012-12-10T10:07:32.000Z</time>
      </trkpt>
      <trkpt lat="46.07461" lon="6.11569">
        <ele>1207</ele>
        <time>2012-12-10T10:07:33.000Z</time>
      </trkpt>
      <trkpt lat="46.07464" lon="6.11571">
        <ele>1207</ele>
        <time>2012-12-10T10:07:39.000Z</time>
      </trkpt>
      <trkpt lat="46.07467" lon="6.11572">
        <ele>1208</ele>
        <time>2012-12-10T10:07:41.000Z</time>
      </trkpt>
      <trkpt lat="46.07468" lon="6.11574">
        <ele>1208</ele>
        <time>2012-12-10T10:07:45.000Z</time>
      </trkpt>
      <trkpt lat="46.0747" lon="6.11575">
        <ele>1209</ele>
        <time>2012-12-10T10:07:47.000Z</time>
      </trkpt>
      <trkpt lat="46.07472" lon="6.11578">
        <ele>1209</ele>
        <time>2012-12-10T10:07:52.000Z</time>
      </trkpt>
      <trkpt lat="46.07474" lon="6.11581">
        <ele>1209</ele>
        <time>2012-12-10T10:07:56.000Z</time>
      </trkpt>
      <trkpt lat="46.07474" lon="6.11582">
        <ele>1210</ele>
        <time>2012-12-10T10:07:57.000Z</time>
      </trkpt>
      <trkpt lat="46.07475" lon="6.11583">
        <ele>1210</ele>
        <time>2012-12-10T10:08:01.000Z</time>
      </trkpt>
      <trkpt lat="46.07475" lon="6.11588">
        <ele>1211</ele>
        <time>2012-12-10T10:08:06.000Z</time>
      </trkpt>
      <trkpt lat="46.07475" lon="6.11591">
        <ele>1211</ele>
        <time>2012-12-10T10:08:10.000Z</time>
      </trkpt>
      <trkpt lat="46.07475" lon="6.11592">
        <ele>1212</ele>
        <time>2012-12-10T10:08:12.000Z</time>
      </trkpt>
      <trkpt lat="46.07477" lon="6.11595">
        <ele>1212</ele>
        <time>2012-12-10T10:08:16.000Z</time>
      </trkpt>
      <trkpt lat="46.07479" lon="6.11601">
        <ele>1212</ele>
        <time>2012-12-10T10:08:23.000Z</time>
      </trkpt>
      <trkpt lat="46.0748" lon="6.11603">
        <ele>1213</ele>
        <time>2012-12-10T10:08:24.000Z</time>
      </trkpt>
      <trkpt lat="46.07481" lon="6.11606">
        <ele>1213</ele>
        <time>2012-12-10T10:08:28.000Z</time>
      </trkpt>
      <trkpt lat="46.07481" lon="6.11609">
        <ele>1214</ele>
        <time>2012-12-10T10:08:31.000Z</time>
      </trkpt>
      <trkpt lat="46.07482" lon="6.11611">
        <ele>1214</ele>
        <time>2012-12-10T10:08:33.000Z</time>
      </trkpt>
      <trkpt lat="46.07482" lon="6.11615">
        <ele>1214</ele>
        <time>2012-12-10T10:08:39.000Z</time>
      </trkpt>
      <trkpt lat="46.07482" lon="6.11616">
        <ele>1215</ele>
        <time>2012-12-10T10:08:41.000Z</time>
      </trkpt>
      <trkpt lat="46.07483" lon="6.11617">
        <ele>1215</ele>
        <time>2012-12-10T10:08:45.000Z</time>
      </trkpt>
      <trkpt lat="46.07484" lon="6.11618">
        <ele>1215</ele>
        <time>2012-12-10T10:08:53.000Z</time>
      </trkpt>
      <trkpt lat="46.07486" lon="6.11619">
        <ele>1215</ele>
        <time>2012-12-10T10:09:01.000Z</time>
      </trkpt>
      <trkpt lat="46.07485" lon="6.11619">
        <ele>1215</ele>
        <time>2012-12-10T10:09:10.000Z</time>
      </trkpt>
      <trkpt lat="46.07482" lon="6.11619">
        <ele>1215</ele>
        <time>2012-12-10T10:09:22.000Z</time>
      </trkpt>
      <trkpt lat="46.0748" lon="6.11621">
        <ele>1215</ele>
        <time>2012-12-10T10:09:33.000Z</time>
      </trkpt>
      <trkpt lat="46.07481" lon="6.11623">
        <ele>1215</ele>
        <time>2012-12-10T10:09:39.000Z</time>
      </trkpt>
      <trkpt lat="46.07479" lon="6.11624">
        <ele>1215</ele>
        <time>2012-12-10T10:09:50.000Z</time>
      </trkpt>
      <trkpt lat="46.07481" lon="6.11626">
        <ele>1215</ele>
        <time>2012-12-10T10:10:02.000Z</time>
      </trkpt>
      <trkpt lat="46.0748" lon="6.11626">
        <ele>1215</ele>
        <time>2012-12-10T10:10:08.000Z</time>
      </trkpt>
      <trkpt lat="46.0748" lon="6.11626">
        <ele>1215</ele>
        <time>2012-12-10T10:10:16.000Z</time>
      </trkpt>
      <trkpt lat="46.07481" lon="6.11626">
        <ele>1215</ele>
        <time>2012-12-10T10:10:26.000Z</time>
      </trkpt>
      <trkpt lat="46.07482" lon="6.11629">
        <ele>1215</ele>
        <time>2012-12-10T10:10:30.000Z</time>
      </trkpt>
      <trkpt lat="46.07482" lon="6.11631">
        <ele>1216</ele>
        <time>2012-12-10T10:10:34.000Z</time>
      </trkpt>
      <trkpt lat="46.07483" lon="6.11633">
        <ele>1216</ele>
        <time>2012-12-10T10:10:37.000Z</time>
      </trkpt>
      <trkpt lat="46.07483" lon="6.11635">
        <ele>1217</ele>
        <time>2012-12-10T10:10:41.000Z</time>
      </trkpt>
      <trkpt lat="46.07484" lon="6.11635">
        <ele>1217</ele>
        <time>2012-12-10T10:10:42.000Z</time>
      </trkpt>
      <trkpt lat="46.07485" lon="6.11639">
        <ele>1217</ele>
        <time>2012-12-10T10:10:48.000Z</time>
      </trkpt>
      <trkpt lat="46.07485" lon="6.11639">
        <ele>1218.4000244141</ele>
        <time>2012-12-10T10:10:49.000Z</time>
      </trkpt>
      <trkpt lat="46.07485" lon="6.11643">
        <ele>1218.4000244141</ele>
        <time>2012-12-10T10:10:55.000Z</time>
      </trkpt>
      <trkpt lat="46.07485" lon="6.11644">
        <ele>1219.4000244141</ele>
        <time>2012-12-10T10:10:58.000Z</time>
      </trkpt>
      <trkpt lat="46.07485" lon="6.11645">
        <ele>1219.4000244141</ele>
        <time>2012-12-10T10:10:59.000Z</time>
      </trkpt>
      <trkpt lat="46.07485" lon="6.11648">
        <ele>1219.4000244141</ele>
        <time>2012-12-10T10:11:07.000Z</time>
      </trkpt>
      <trkpt lat="46.07487" lon="6.1165">
        <ele>1220.4000244141</ele>
        <time>2012-12-10T10:11:12.000Z</time>
      </trkpt>
      <trkpt lat="46.07487" lon="6.11651">
        <ele>1220.4000244141</ele>
        <time>2012-12-10T10:11:13.000Z</time>
      </trkpt>
      <trkpt lat="46.07487" lon="6.11657">
        <ele>1220.4000244141</ele>
        <time>2012-12-10T10:11:20.000Z</time>
      </trkpt>
      <trkpt lat="46.07488" lon="6.11659">
        <ele>1221.4000244141</ele>
        <time>2012-12-10T10:11:22.000Z</time>
      </trkpt>
      <trkpt lat="46.07488" lon="6.11661">
        <ele>1221.4000244141</ele>
        <time>2012-12-10T10:11:25.000Z</time>
      </trkpt>
      <trkpt lat="46.07489" lon="6.11665">
        <ele>1222.4000244141</ele>
        <time>2012-12-10T10:11:30.000Z</time>
      </trkpt>
      <trkpt lat="46.0749" lon="6.11671">
        <ele>1222.4000244141</ele>
        <time>2012-12-10T10:11:37.000Z</time>
      </trkpt>
      <trkpt lat="46.0749" lon="6.11674">
        <ele>1223.4000244141</ele>
        <time>2012-12-10T10:11:40.000Z</time>
      </trkpt>
      <trkpt lat="46.07491" lon="6.11677">
        <ele>1223.4000244141</ele>
        <time>2012-12-10T10:11:45.000Z</time>
      </trkpt>
      <trkpt lat="46.07491" lon="6.11678">
        <ele>1224.4000244141</ele>
        <time>2012-12-10T10:11:46.000Z</time>
      </trkpt>
      <trkpt lat="46.07492" lon="6.11682">
        <ele>1224.4000244141</ele>
        <time>2012-12-10T10:11:51.000Z</time>
      </trkpt>
      <trkpt lat="46.07493" lon="6.11685">
        <ele>1225.8000488281</ele>
        <time>2012-12-10T10:11:55.000Z</time>
      </trkpt>
      <trkpt lat="46.07493" lon="6.11689">
        <ele>1225.8000488281</ele>
        <time>2012-12-10T10:11:58.000Z</time>
      </trkpt>
      <trkpt lat="46.07492" lon="6.11689">
        <ele>1226.8000488281</ele>
        <time>2012-12-10T10:11:59.000Z</time>
      </trkpt>
      <trkpt lat="46.07492" lon="6.11692">
        <ele>1226.8000488281</ele>
        <time>2012-12-10T10:12:04.000Z</time>
      </trkpt>
      <trkpt lat="46.0749" lon="6.11695">
        <ele>1228</ele>
        <time>2012-12-10T10:12:09.000Z</time>
      </trkpt>
      <trkpt lat="46.07489" lon="6.11699">
        <ele>1228</ele>
        <time>2012-12-10T10:12:15.000Z</time>
      </trkpt>
      <trkpt lat="46.07489" lon="6.117">
        <ele>1229</ele>
        <time>2012-12-10T10:12:17.000Z</time>
      </trkpt>
      <trkpt lat="46.07488" lon="6.11701">
        <ele>1229</ele>
        <time>2012-12-10T10:12:20.000Z</time>
      </trkpt>
      <trkpt lat="46.07488" lon="6.11702">
        <ele>1230</ele>
        <time>2012-12-10T10:12:21.000Z</time>
      </trkpt>
      <trkpt lat="46.07487" lon="6.11704">
        <ele>1230</ele>
        <time>2012-12-10T10:12:25.000Z</time>
      </trkpt>
      <trkpt lat="46.07485" lon="6.11705">
        <ele>1231</ele>
        <time>2012-12-10T10:12:29.000Z</time>
      </trkpt>
      <trkpt lat="46.07485" lon="6.11706">
        <ele>1231</ele>
        <time>2012-12-10T10:12:31.000Z</time>
      </trkpt>
      <trkpt lat="46.07485" lon="6.11707">
        <ele>1231</ele>
        <time>2012-12-10T10:12:37.000Z</time>
      </trkpt>
      <trkpt lat="46.07486" lon="6.11711">
        <ele>1231</ele>
        <time>2012-12-10T10:12:44.000Z</time>
      </trkpt>
      <trkpt lat="46.07487" lon="6.11712">
        <ele>1232</ele>
        <time>2012-12-10T10:12:45.000Z</time>
      </trkpt>
      <trkpt lat="46.07489" lon="6.11718">
        <ele>1232</ele>
        <time>2012-12-10T10:12:52.000Z</time>
      </trkpt>
      <trkpt lat="46.07492" lon="6.11721">
        <ele>1232</ele>
        <time>2012-12-10T10:12:57.000Z</time>
      </trkpt>
      <trkpt lat="46.07497" lon="6.11725">
        <ele>1232</ele>
        <time>2012-12-10T10:13:03.000Z</time>
      </trkpt>
      <trkpt lat="46.075" lon="6.11728">
        <ele>1232</ele>
        <time>2012-12-10T10:13:08.000Z</time>
      </trkpt>
      <trkpt lat="46.075" lon="6.11728">
        <ele>1232</ele>
        <time>2012-12-10T10:13:09.000Z</time>
      </trkpt>
      <trkpt lat="46.075" lon="6.11729">
        <ele>1232</ele>
        <time>2012-12-10T10:13:17.000Z</time>
      </trkpt>
      <trkpt lat="46.07504" lon="6.11733">
        <ele>1232</ele>
        <time>2012-12-10T10:13:24.000Z</time>
      </trkpt>
      <trkpt lat="46.07507" lon="6.11736">
        <ele>1232</ele>
        <time>2012-12-10T10:13:29.000Z</time>
      </trkpt>
      <trkpt lat="46.07509" lon="6.1174">
        <ele>1233</ele>
        <time>2012-12-10T10:13:35.000Z</time>
      </trkpt>
      <trkpt lat="46.07513" lon="6.11744">
        <ele>1233</ele>
        <time>2012-12-10T10:13:40.000Z</time>
      </trkpt>
      <trkpt lat="46.07514" lon="6.11746">
        <ele>1234.4000244141</ele>
        <time>2012-12-10T10:13:42.000Z</time>
      </trkpt>
      <trkpt lat="46.07517" lon="6.11747">
        <ele>1234.4000244141</ele>
        <time>2012-12-10T10:13:45.000Z</time>
      </trkpt>
      <trkpt lat="46.07518" lon="6.11749">
        <ele>1234.4000244141</ele>
        <time>2012-12-10T10:13:47.000Z</time>
      </trkpt>
      <trkpt lat="46.07519" lon="6.11749">
        <ele>1234.4000244141</ele>
        <time>2012-12-10T10:13:51.000Z</time>
      </trkpt>
      <trkpt lat="46.07524" lon="6.11751">
        <ele>1234.4000244141</ele>
        <time>2012-12-10T10:13:59.000Z</time>
      </trkpt>
      <trkpt lat="46.07532" lon="6.11755">
        <ele>1234.4000244141</ele>
        <time>2012-12-10T10:14:07.000Z</time>
      </trkpt>
      <trkpt lat="46.07537" lon="6.11756">
        <ele>1234.4000244141</ele>
        <time>2012-12-10T10:14:14.000Z</time>
      </trkpt>
      <trkpt lat="46.07538" lon="6.11757">
        <ele>1234.4000244141</ele>
        <time>2012-12-10T10:14:15.000Z</time>
      </trkpt>
      <trkpt lat="46.0754" lon="6.11759">
        <ele>1231.4000244141</ele>
        <time>2012-12-10T10:14:18.000Z</time>
      </trkpt>
      <trkpt lat="46.07542" lon="6.11762">
        <ele>1231.4000244141</ele>
        <time>2012-12-10T10:14:22.000Z</time>
      </trkpt>
      <trkpt lat="46.07545" lon="6.11763">
        <ele>1231.4000244141</ele>
        <time>2012-12-10T10:14:28.000Z</time>
      </trkpt>
      <trkpt lat="46.07545" lon="6.11766">
        <ele>1231.4000244141</ele>
        <time>2012-12-10T10:14:32.000Z</time>
      </trkpt>
      <trkpt lat="46.07548" lon="6.11771">
        <ele>1231.4000244141</ele>
        <time>2012-12-10T10:14:38.000Z</time>
      </trkpt>
      <trkpt lat="46.07553" lon="6.11776">
        <ele>1231.4000244141</ele>
        <time>2012-12-10T10:14:44.000Z</time>
      </trkpt>
      <trkpt lat="46.07556" lon="6.11778">
        <ele>1231.4000244141</ele>
        <time>2012-12-10T10:14:47.000Z</time>
      </trkpt>
      <trkpt lat="46.07558" lon="6.1178">
        <ele>1231.4000244141</ele>
        <time>2012-12-10T10:14:49.000Z</time>
      </trkpt>
      <trkpt lat="46.07562" lon="6.11783">
        <ele>1231.4000244141</ele>
        <time>2012-12-10T10:14:52.000Z</time>
      </trkpt>
      <trkpt lat="46.07564" lon="6.11787">
        <ele>1231.4000244141</ele>
        <time>2012-12-10T10:14:55.000Z</time>
      </trkpt>
      <trkpt lat="46.07569" lon="6.11794">
        <ele>1231.4000244141</ele>
        <time>2012-12-10T10:15:01.000Z</time>
      </trkpt>
      <trkpt lat="46.07573" lon="6.11802">
        <ele>1231.4000244141</ele>
        <time>2012-12-10T10:15:08.000Z</time>
      </trkpt>
      <trkpt lat="46.07577" lon="6.11808">
        <ele>1231.4000244141</ele>
        <time>2012-12-10T10:15:15.000Z</time>
      </trkpt>
      <trkpt lat="46.07579" lon="6.11813">
        <ele>1231.4000244141</ele>
        <time>2012-12-10T10:15:19.000Z</time>
      </trkpt>
      <trkpt lat="46.07579" lon="6.11816">
        <ele>1231.4000244141</ele>
        <time>2012-12-10T10:15:21.000Z</time>
      </trkpt>
      <trkpt lat="46.07582" lon="6.11819">
        <ele>1231.4000244141</ele>
        <time>2012-12-10T10:15:24.000Z</time>
      </trkpt>
      <trkpt lat="46.07583" lon="6.11821">
        <ele>1231.4000244141</ele>
        <time>2012-12-10T10:15:26.000Z</time>
      </trkpt>
      <trkpt lat="46.07584" lon="6.11824">
        <ele>1231.4000244141</ele>
        <time>2012-12-10T10:15:30.000Z</time>
      </trkpt>
      <trkpt lat="46.07585" lon="6.11825">
        <ele>1231.4000244141</ele>
        <time>2012-12-10T10:15:32.000Z</time>
      </trkpt>
      <trkpt lat="46.07587" lon="6.1183">
        <ele>1231.4000244141</ele>
        <time>2012-12-10T10:15:38.000Z</time>
      </trkpt>
      <trkpt lat="46.0759" lon="6.11834">
        <ele>1231.4000244141</ele>
        <time>2012-12-10T10:15:44.000Z</time>
      </trkpt>
      <trkpt lat="46.07593" lon="6.11837">
        <ele>1234.4000244141</ele>
        <time>2012-12-10T10:15:49.000Z</time>
      </trkpt>
      <trkpt lat="46.07596" lon="6.1184">
        <ele>1234.4000244141</ele>
        <time>2012-12-10T10:15:54.000Z</time>
      </trkpt>
      <trkpt lat="46.07601" lon="6.11843">
        <ele>1234.4000244141</ele>
        <time>2012-12-10T10:16:00.000Z</time>
      </trkpt>
      <trkpt lat="46.07602" lon="6.11844">
        <ele>1235.4000244141</ele>
        <time>2012-12-10T10:16:01.000Z</time>
      </trkpt>
      <trkpt lat="46.07604" lon="6.11845">
        <ele>1235.4000244141</ele>
        <time>2012-12-10T10:16:04.000Z</time>
      </trkpt>
      <trkpt lat="46.07605" lon="6.11846">
        <ele>1235.4000244141</ele>
        <time>2012-12-10T10:16:05.000Z</time>
      </trkpt>
      <trkpt lat="46.07609" lon="6.11848">
        <ele>1235.4000244141</ele>
        <time>2012-12-10T10:16:10.000Z</time>
      </trkpt>
      <trkpt lat="46.07609" lon="6.11849">
        <ele>1235.4000244141</ele>
        <time>2012-12-10T10:16:11.000Z</time>
      </trkpt>
      <trkpt lat="46.07613" lon="6.11852">
        <ele>1235.4000244141</ele>
        <time>2012-12-10T10:16:15.000Z</time>
      </trkpt>
      <trkpt lat="46.07614" lon="6.11853">
        <ele>1235.4000244141</ele>
        <time>2012-12-10T10:16:16.000Z</time>
      </trkpt>
      <trkpt lat="46.07614" lon="6.11853">
        <ele>1236.4000244141</ele>
        <time>2012-12-10T10:16:17.000Z</time>
      </trkpt>
      <trkpt lat="46.07618" lon="6.11857">
        <ele>1236.4000244141</ele>
        <time>2012-12-10T10:16:22.000Z</time>
      </trkpt>
      <trkpt lat="46.07622" lon="6.11859">
        <ele>1237.4000244141</ele>
        <time>2012-12-10T10:16:27.000Z</time>
      </trkpt>
      <trkpt lat="46.07623" lon="6.1186">
        <ele>1237.4000244141</ele>
        <time>2012-12-10T10:16:29.000Z</time>
      </trkpt>
      <trkpt lat="46.07627" lon="6.11866">
        <ele>1237.4000244141</ele>
        <time>2012-12-10T10:16:36.000Z</time>
      </trkpt>
      <trkpt lat="46.07628" lon="6.11866">
        <ele>1238.4000244141</ele>
        <time>2012-12-10T10:16:37.000Z</time>
      </trkpt>
      <trkpt lat="46.0763" lon="6.11868">
        <ele>1238.4000244141</ele>
        <time>2012-12-10T10:16:41.000Z</time>
      </trkpt>
      <trkpt lat="46.07631" lon="6.11869">
        <ele>1239.4000244141</ele>
        <time>2012-12-10T10:16:43.000Z</time>
      </trkpt>
      <trkpt lat="46.07633" lon="6.11871">
        <ele>1239.4000244141</ele>
        <time>2012-12-10T10:16:47.000Z</time>
      </trkpt>
      <trkpt lat="46.07636" lon="6.11874">
        <ele>1240.4000244141</ele>
        <time>2012-12-10T10:16:51.000Z</time>
      </trkpt>
      <trkpt lat="46.07639" lon="6.11876">
        <ele>1240.4000244141</ele>
        <time>2012-12-10T10:16:54.000Z</time>
      </trkpt>
      <trkpt lat="46.07643" lon="6.11881">
        <ele>1241.4000244141</ele>
        <time>2012-12-10T10:17:00.000Z</time>
      </trkpt>
      <trkpt lat="46.07644" lon="6.11882">
        <ele>1241.4000244141</ele>
        <time>2012-12-10T10:17:01.000Z</time>
      </trkpt>
      <trkpt lat="46.07646" lon="6.11885">
        <ele>1241.4000244141</ele>
        <time>2012-12-10T10:17:04.000Z</time>
      </trkpt>
      <trkpt lat="46.07648" lon="6.11888">
        <ele>1241.4000244141</ele>
        <time>2012-12-10T10:17:07.000Z</time>
      </trkpt>
      <trkpt lat="46.07651" lon="6.11891">
        <ele>1242.4000244141</ele>
        <time>2012-12-10T10:17:11.000Z</time>
      </trkpt>
      <trkpt lat="46.07651" lon="6.11892">
        <ele>1242.4000244141</ele>
        <time>2012-12-10T10:17:12.000Z</time>
      </trkpt>
      <trkpt lat="46.07654" lon="6.11897">
        <ele>1242.4000244141</ele>
        <time>2012-12-10T10:17:19.000Z</time>
      </trkpt>
      <trkpt lat="46.07654" lon="6.11898">
        <ele>1243.8000488281</ele>
        <time>2012-12-10T10:17:20.000Z</time>
      </trkpt>
      <trkpt lat="46.07657" lon="6.11903">
        <ele>1243.8000488281</ele>
        <time>2012-12-10T10:17:26.000Z</time>
      </trkpt>
      <trkpt lat="46.07657" lon="6.11904">
        <ele>1245</ele>
        <time>2012-12-10T10:17:28.000Z</time>
      </trkpt>
      <trkpt lat="46.07659" lon="6.11908">
        <ele>1245</ele>
        <time>2012-12-10T10:17:32.000Z</time>
      </trkpt>
      <trkpt lat="46.07661" lon="6.11912">
        <ele>1246</ele>
        <time>2012-12-10T10:17:36.000Z</time>
      </trkpt>
      <trkpt lat="46.07661" lon="6.11913">
        <ele>1246</ele>
        <time>2012-12-10T10:17:38.000Z</time>
      </trkpt>
      <trkpt lat="46.07663" lon="6.11918">
        <ele>1246</ele>
        <time>2012-12-10T10:17:43.000Z</time>
      </trkpt>
      <trkpt lat="46.07667" lon="6.11923">
        <ele>1246</ele>
        <time>2012-12-10T10:17:50.000Z</time>
      </trkpt>
      <trkpt lat="46.07668" lon="6.11924">
        <ele>1246</ele>
        <time>2012-12-10T10:17:56.000Z</time>
      </trkpt>
      <trkpt lat="46.07669" lon="6.11926">
        <ele>1247</ele>
        <time>2012-12-10T10:18:01.000Z</time>
      </trkpt>
      <trkpt lat="46.07668" lon="6.11928">
        <ele>1247</ele>
        <time>2012-12-10T10:18:04.000Z</time>
      </trkpt>
      <trkpt lat="46.07667" lon="6.11929">
        <ele>1248</ele>
        <time>2012-12-10T10:18:06.000Z</time>
      </trkpt>
      <trkpt lat="46.07666" lon="6.11931">
        <ele>1248</ele>
        <time>2012-12-10T10:18:12.000Z</time>
      </trkpt>
      <trkpt lat="46.07665" lon="6.11933">
        <ele>1249.4000244141</ele>
        <time>2012-12-10T10:18:14.000Z</time>
      </trkpt>
      <trkpt lat="46.07664" lon="6.11934">
        <ele>1249.4000244141</ele>
        <time>2012-12-10T10:18:18.000Z</time>
      </trkpt>
      <trkpt lat="46.07663" lon="6.11937">
        <ele>1249.4000244141</ele>
        <time>2012-12-10T10:18:23.000Z</time>
      </trkpt>
      <trkpt lat="46.07663" lon="6.11936">
        <ele>1250.4000244141</ele>
        <time>2012-12-10T10:18:24.000Z</time>
      </trkpt>
      <trkpt lat="46.07661" lon="6.11938">
        <ele>1250.4000244141</ele>
        <time>2012-12-10T10:18:29.000Z</time>
      </trkpt>
      <trkpt lat="46.0766" lon="6.1194">
        <ele>1251.4000244141</ele>
        <time>2012-12-10T10:18:34.000Z</time>
      </trkpt>
      <trkpt lat="46.0766" lon="6.1194">
        <ele>1251.4000244141</ele>
        <time>2012-12-10T10:18:35.000Z</time>
      </trkpt>
      <trkpt lat="46.07659" lon="6.11942">
        <ele>1251.4000244141</ele>
        <time>2012-12-10T10:18:41.000Z</time>
      </trkpt>
      <trkpt lat="46.07658" lon="6.11942">
        <ele>1252.4000244141</ele>
        <time>2012-12-10T10:18:42.000Z</time>
      </trkpt>
      <trkpt lat="46.07656" lon="6.11943">
        <ele>1252.4000244141</ele>
        <time>2012-12-10T10:18:48.000Z</time>
      </trkpt>
      <trkpt lat="46.07655" lon="6.11945">
        <ele>1253.4000244141</ele>
        <time>2012-12-10T10:18:53.000Z</time>
      </trkpt>
      <trkpt lat="46.07655" lon="6.11945">
        <ele>1253.4000244141</ele>
        <time>2012-12-10T10:18:56.000Z</time>
      </trkpt>
      <trkpt lat="46.07654" lon="6.11946">
        <ele>1254.4000244141</ele>
        <time>2012-12-10T10:19:01.000Z</time>
      </trkpt>
      <trkpt lat="46.07654" lon="6.11946">
        <ele>1254.4000244141</ele>
        <time>2012-12-10T10:19:02.000Z</time>
      </trkpt>
      <trkpt lat="46.07653" lon="6.11948">
        <ele>1255.4000244141</ele>
        <time>2012-12-10T10:19:08.000Z</time>
      </trkpt>
      <trkpt lat="46.07651" lon="6.11949">
        <ele>1255.4000244141</ele>
        <time>2012-12-10T10:19:14.000Z</time>
      </trkpt>
      <trkpt lat="46.07651" lon="6.11949">
        <ele>1256.4000244141</ele>
        <time>2012-12-10T10:19:16.000Z</time>
      </trkpt>
      <trkpt lat="46.07651" lon="6.11949">
        <ele>1256.4000244141</ele>
        <time>2012-12-10T10:19:19.000Z</time>
      </trkpt>
      <trkpt lat="46.0765" lon="6.1195">
        <ele>1256.4000244141</ele>
        <time>2012-12-10T10:19:29.000Z</time>
      </trkpt>
      <trkpt lat="46.07649" lon="6.11951">
        <ele>1257.4000244141</ele>
        <time>2012-12-10T10:19:33.000Z</time>
      </trkpt>
      <trkpt lat="46.07648" lon="6.11952">
        <ele>1257.4000244141</ele>
        <time>2012-12-10T10:19:36.000Z</time>
      </trkpt>
      <trkpt lat="46.07647" lon="6.11953">
        <ele>1258.4000244141</ele>
        <time>2012-12-10T10:19:40.000Z</time>
      </trkpt>
      <trkpt lat="46.07648" lon="6.11954">
        <ele>1258.4000244141</ele>
        <time>2012-12-10T10:19:41.000Z</time>
      </trkpt>
      <trkpt lat="46.07647" lon="6.11954">
        <ele>1258.4000244141</ele>
        <time>2012-12-10T10:19:47.000Z</time>
      </trkpt>
      <trkpt lat="46.07645" lon="6.11956">
        <ele>1258.4000244141</ele>
        <time>2012-12-10T10:19:54.000Z</time>
      </trkpt>
      <trkpt lat="46.07645" lon="6.11957">
        <ele>1259.8000488281</ele>
        <time>2012-12-10T10:19:55.000Z</time>
      </trkpt>
      <trkpt lat="46.07644" lon="6.11959">
        <ele>1259.8000488281</ele>
        <time>2012-12-10T10:20:00.000Z</time>
      </trkpt>
      <trkpt lat="46.07644" lon="6.11959">
        <ele>1260.8000488281</ele>
        <time>2012-12-10T10:20:02.000Z</time>
      </trkpt>
      <trkpt lat="46.07643" lon="6.11961">
        <ele>1260.8000488281</ele>
        <time>2012-12-10T10:20:06.000Z</time>
      </trkpt>
      <trkpt lat="46.07642" lon="6.11962">
        <ele>1261.8000488281</ele>
        <time>2012-12-10T10:20:09.000Z</time>
      </trkpt>
      <trkpt lat="46.07641" lon="6.11963">
        <ele>1261.8000488281</ele>
        <time>2012-12-10T10:20:12.000Z</time>
      </trkpt>
      <trkpt lat="46.0764" lon="6.11965">
        <ele>1262.8000488281</ele>
        <time>2012-12-10T10:20:18.000Z</time>
      </trkpt>
      <trkpt lat="46.07641" lon="6.11968">
        <ele>1262.8000488281</ele>
        <time>2012-12-10T10:20:25.000Z</time>
      </trkpt>
      <trkpt lat="46.07643" lon="6.11972">
        <ele>1262.8000488281</ele>
        <time>2012-12-10T10:20:30.000Z</time>
      </trkpt>
      <trkpt lat="46.07644" lon="6.11975">
        <ele>1262.8000488281</ele>
        <time>2012-12-10T10:20:35.000Z</time>
      </trkpt>
      <trkpt lat="46.07645" lon="6.11979">
        <ele>1262.8000488281</ele>
        <time>2012-12-10T10:20:41.000Z</time>
      </trkpt>
      <trkpt lat="46.07646" lon="6.11982">
        <ele>1264</ele>
        <time>2012-12-10T10:20:47.000Z</time>
      </trkpt>
      <trkpt lat="46.07649" lon="6.11984">
        <ele>1264</ele>
        <time>2012-12-10T10:20:53.000Z</time>
      </trkpt>
      <trkpt lat="46.0765" lon="6.11987">
        <ele>1264</ele>
        <time>2012-12-10T10:20:59.000Z</time>
      </trkpt>
      <trkpt lat="46.07652" lon="6.11989">
        <ele>1264</ele>
        <time>2012-12-10T10:21:05.000Z</time>
      </trkpt>
      <trkpt lat="46.07655" lon="6.11989">
        <ele>1264</ele>
        <time>2012-12-10T10:21:11.000Z</time>
      </trkpt>
      <trkpt lat="46.07658" lon="6.11987">
        <ele>1260.8000488281</ele>
        <time>2012-12-10T10:21:17.000Z</time>
      </trkpt>
      <trkpt lat="46.07659" lon="6.11987">
        <ele>1260.8000488281</ele>
        <time>2012-12-10T10:21:18.000Z</time>
      </trkpt>
      <trkpt lat="46.07661" lon="6.11985">
        <ele>1259.8000488281</ele>
        <time>2012-12-10T10:21:24.000Z</time>
      </trkpt>
      <trkpt lat="46.07665" lon="6.11983">
        <ele>1258.8000488281</ele>
        <time>2012-12-10T10:21:30.000Z</time>
      </trkpt>
      <trkpt lat="46.07667" lon="6.11982">
        <ele>1257.4000244141</ele>
        <time>2012-12-10T10:21:35.000Z</time>
      </trkpt>
      <trkpt lat="46.07667" lon="6.11981">
        <ele>1257.4000244141</ele>
        <time>2012-12-10T10:21:36.000Z</time>
      </trkpt>
      <trkpt lat="46.07669" lon="6.1198">
        <ele>1256.4000244141</ele>
        <time>2012-12-10T10:21:39.000Z</time>
      </trkpt>
      <trkpt lat="46.0767" lon="6.11979">
        <ele>1256.4000244141</ele>
        <time>2012-12-10T10:21:43.000Z</time>
      </trkpt>
      <trkpt lat="46.07671" lon="6.11978">
        <ele>1255.4000244141</ele>
        <time>2012-12-10T10:21:45.000Z</time>
      </trkpt>
      <trkpt lat="46.07672" lon="6.11979">
        <ele>1255.4000244141</ele>
        <time>2012-12-10T10:21:49.000Z</time>
      </trkpt>
      <trkpt lat="46.07674" lon="6.11975">
        <ele>1254.4000244141</ele>
        <time>2012-12-10T10:21:53.000Z</time>
      </trkpt>
      <trkpt lat="46.07675" lon="6.11974">
        <ele>1254.4000244141</ele>
        <time>2012-12-10T10:21:55.000Z</time>
      </trkpt>
      <trkpt lat="46.07676" lon="6.11973">
        <ele>1253.4000244141</ele>
        <time>2012-12-10T10:21:57.000Z</time>
      </trkpt>
      <trkpt lat="46.07677" lon="6.11971">
        <ele>1253.4000244141</ele>
        <time>2012-12-10T10:22:01.000Z</time>
      </trkpt>
      <trkpt lat="46.07678" lon="6.11971">
        <ele>1252.4000244141</ele>
        <time>2012-12-10T10:22:02.000Z</time>
      </trkpt>
      <trkpt lat="46.0768" lon="6.11968">
        <ele>1251.4000244141</ele>
        <time>2012-12-10T10:22:07.000Z</time>
      </trkpt>
      <trkpt lat="46.07682" lon="6.11964">
        <ele>1250.4000244141</ele>
        <time>2012-12-10T10:22:13.000Z</time>
      </trkpt>
      <trkpt lat="46.07683" lon="6.11964">
        <ele>1250.4000244141</ele>
        <time>2012-12-10T10:22:14.000Z</time>
      </trkpt>
      <trkpt lat="46.07685" lon="6.11961">
        <ele>1249</ele>
        <time>2012-12-10T10:22:19.000Z</time>
      </trkpt>
      <trkpt lat="46.07686" lon="6.1196">
        <ele>1249</ele>
        <time>2012-12-10T10:22:20.000Z</time>
      </trkpt>
      <trkpt lat="46.07687" lon="6.11959">
        <ele>1248</ele>
        <time>2012-12-10T10:22:23.000Z</time>
      </trkpt>
      <trkpt lat="46.07688" lon="6.11957">
        <ele>1247</ele>
        <time>2012-12-10T10:22:26.000Z</time>
      </trkpt>
      <trkpt lat="46.0769" lon="6.11956">
        <ele>1247</ele>
        <time>2012-12-10T10:22:28.000Z</time>
      </trkpt>
      <trkpt lat="46.07694" lon="6.11951">
        <ele>1246</ele>
        <time>2012-12-10T10:22:35.000Z</time>
      </trkpt>
      <trkpt lat="46.07698" lon="6.11947">
        <ele>1246</ele>
        <time>2012-12-10T10:22:41.000Z</time>
      </trkpt>
      <trkpt lat="46.07698" lon="6.11946">
        <ele>1245</ele>
        <time>2012-12-10T10:22:42.000Z</time>
      </trkpt>
      <trkpt lat="46.077" lon="6.11942">
        <ele>1243.8000488281</ele>
        <time>2012-12-10T10:22:46.000Z</time>
      </trkpt>
      <trkpt lat="46.077" lon="6.11941">
        <ele>1243.8000488281</ele>
        <time>2012-12-10T10:22:47.000Z</time>
      </trkpt>
      <trkpt lat="46.07702" lon="6.11937">
        <ele>1242.8000488281</ele>
        <time>2012-12-10T10:22:51.000Z</time>
      </trkpt>
      <trkpt lat="46.07703" lon="6.11935">
        <ele>1242.8000488281</ele>
        <time>2012-12-10T10:22:53.000Z</time>
      </trkpt>
      <trkpt lat="46.07704" lon="6.11933">
        <ele>1241.8000488281</ele>
        <time>2012-12-10T10:22:56.000Z</time>
      </trkpt>
      <trkpt lat="46.07705" lon="6.1193">
        <ele>1241.8000488281</ele>
        <time>2012-12-10T10:22:59.000Z</time>
      </trkpt>
      <trkpt lat="46.07706" lon="6.11928">
        <ele>1240.4000244141</ele>
        <time>2012-12-10T10:23:02.000Z</time>
      </trkpt>
      <trkpt lat="46.07707" lon="6.11925">
        <ele>1239.4000244141</ele>
        <time>2012-12-10T10:23:05.000Z</time>
      </trkpt>
      <trkpt lat="46.0771" lon="6.11921">
        <ele>1238.4000244141</ele>
        <time>2012-12-10T10:23:11.000Z</time>
      </trkpt>
      <trkpt lat="46.0771" lon="6.11918">
        <ele>1237.4000244141</ele>
        <time>2012-12-10T10:23:14.000Z</time>
      </trkpt>
      <trkpt lat="46.07712" lon="6.11915">
        <ele>1237.4000244141</ele>
        <time>2012-12-10T10:23:17.000Z</time>
      </trkpt>
      <trkpt lat="46.07713" lon="6.11912">
        <ele>1236.4000244141</ele>
        <time>2012-12-10T10:23:21.000Z</time>
      </trkpt>
      <trkpt lat="46.07714" lon="6.1191">
        <ele>1236.4000244141</ele>
        <time>2012-12-10T10:23:23.000Z</time>
      </trkpt>
      <trkpt lat="46.07715" lon="6.11909">
        <ele>1235.4000244141</ele>
        <time>2012-12-10T10:23:25.000Z</time>
      </trkpt>
      <trkpt lat="46.07716" lon="6.11905">
        <ele>1234</ele>
        <time>2012-12-10T10:23:29.000Z</time>
      </trkpt>
      <trkpt lat="46.07719" lon="6.11901">
        <ele>1233</ele>
        <time>2012-12-10T10:23:34.000Z</time>
      </trkpt>
      <trkpt lat="46.07719" lon="6.119">
        <ele>1233</ele>
        <time>2012-12-10T10:23:35.000Z</time>
      </trkpt>
      <trkpt lat="46.0772" lon="6.11899">
        <ele>1232</ele>
        <time>2012-12-10T10:23:37.000Z</time>
      </trkpt>
      <trkpt lat="46.07721" lon="6.11896">
        <ele>1232</ele>
        <time>2012-12-10T10:23:40.000Z</time>
      </trkpt>
      <trkpt lat="46.07721" lon="6.11895">
        <ele>1231</ele>
        <time>2012-12-10T10:23:41.000Z</time>
      </trkpt>
      <trkpt lat="46.07723" lon="6.11891">
        <ele>1230</ele>
        <time>2012-12-10T10:23:46.000Z</time>
      </trkpt>
      <trkpt lat="46.07725" lon="6.11887">
        <ele>1229</ele>
        <time>2012-12-10T10:23:51.000Z</time>
      </trkpt>
      <trkpt lat="46.07726" lon="6.11886">
        <ele>1229</ele>
        <time>2012-12-10T10:23:53.000Z</time>
      </trkpt>
      <trkpt lat="46.07727" lon="6.11884">
        <ele>1228</ele>
        <time>2012-12-10T10:23:55.000Z</time>
      </trkpt>
      <trkpt lat="46.07729" lon="6.11881">
        <ele>1227</ele>
        <time>2012-12-10T10:23:59.000Z</time>
      </trkpt>
      <trkpt lat="46.07731" lon="6.11878">
        <ele>1226</ele>
        <time>2012-12-10T10:24:03.000Z</time>
      </trkpt>
      <trkpt lat="46.07732" lon="6.11877">
        <ele>1226</ele>
        <time>2012-12-10T10:24:05.000Z</time>
      </trkpt>
      <trkpt lat="46.07733" lon="6.11875">
        <ele>1225</ele>
        <time>2012-12-10T10:24:07.000Z</time>
      </trkpt>
      <trkpt lat="46.07734" lon="6.11874">
        <ele>1225</ele>
        <time>2012-12-10T10:24:10.000Z</time>
      </trkpt>
      <trkpt lat="46.07735" lon="6.11873">
        <ele>1223.8000488281</ele>
        <time>2012-12-10T10:24:11.000Z</time>
      </trkpt>
      <trkpt lat="46.07736" lon="6.1187">
        <ele>1222.4000244141</ele>
        <time>2012-12-10T10:24:15.000Z</time>
      </trkpt>
      <trkpt lat="46.07738" lon="6.11869">
        <ele>1222.4000244141</ele>
        <time>2012-12-10T10:24:18.000Z</time>
      </trkpt>
      <trkpt lat="46.07738" lon="6.11868">
        <ele>1221.4000244141</ele>
        <time>2012-12-10T10:24:19.000Z</time>
      </trkpt>
      <trkpt lat="46.0774" lon="6.11866">
        <ele>1220.4000244141</ele>
        <time>2012-12-10T10:24:24.000Z</time>
      </trkpt>
      <trkpt lat="46.07741" lon="6.11864">
        <ele>1219.4000244141</ele>
        <time>2012-12-10T10:24:27.000Z</time>
      </trkpt>
      <trkpt lat="46.07743" lon="6.11862">
        <ele>1218.4000244141</ele>
        <time>2012-12-10T10:24:31.000Z</time>
      </trkpt>
      <trkpt lat="46.07743" lon="6.11861">
        <ele>1218.4000244141</ele>
        <time>2012-12-10T10:24:32.000Z</time>
      </trkpt>
      <trkpt lat="46.07744" lon="6.1186">
        <ele>1217.4000244141</ele>
        <time>2012-12-10T10:24:34.000Z</time>
      </trkpt>
      <trkpt lat="46.07745" lon="6.11857">
        <ele>1216.4000244141</ele>
        <time>2012-12-10T10:24:38.000Z</time>
      </trkpt>
      <trkpt lat="46.07746" lon="6.1185">
        <ele>1215</ele>
        <time>2012-12-10T10:24:44.000Z</time>
      </trkpt>
      <trkpt lat="46.07747" lon="6.11844">
        <ele>1214</ele>
        <time>2012-12-10T10:24:49.000Z</time>
      </trkpt>
      <trkpt lat="46.07748" lon="6.11839">
        <ele>1213</ele>
        <time>2012-12-10T10:24:53.000Z</time>
      </trkpt>
      <trkpt lat="46.07748" lon="6.11838">
        <ele>1213</ele>
        <time>2012-12-10T10:24:54.000Z</time>
      </trkpt>
      <trkpt lat="46.07748" lon="6.11832">
        <ele>1212</ele>
        <time>2012-12-10T10:24:59.000Z</time>
      </trkpt>
      <trkpt lat="46.07748" lon="6.11831">
        <ele>1212</ele>
        <time>2012-12-10T10:25:00.000Z</time>
      </trkpt>
      <trkpt lat="46.07748" lon="6.11829">
        <ele>1212</ele>
        <time>2012-12-10T10:25:02.000Z</time>
      </trkpt>
      <trkpt lat="46.07749" lon="6.11826">
        <ele>1212</ele>
        <time>2012-12-10T10:25:05.000Z</time>
      </trkpt>
      <trkpt lat="46.07749" lon="6.11825">
        <ele>1211</ele>
        <time>2012-12-10T10:25:06.000Z</time>
      </trkpt>
      <trkpt lat="46.07751" lon="6.11821">
        <ele>1211</ele>
        <time>2012-12-10T10:25:11.000Z</time>
      </trkpt>
      <trkpt lat="46.0775" lon="6.11812">
        <ele>1210</ele>
        <time>2012-12-10T10:25:17.000Z</time>
      </trkpt>
      <trkpt lat="46.0775" lon="6.11811">
        <ele>1210</ele>
        <time>2012-12-10T10:25:18.000Z</time>
      </trkpt>
      <trkpt lat="46.0775" lon="6.11806">
        <ele>1210</ele>
        <time>2012-12-10T10:25:23.000Z</time>
      </trkpt>
      <trkpt lat="46.0775" lon="6.11804">
        <ele>1210</ele>
        <time>2012-12-10T10:25:25.000Z</time>
      </trkpt>
      <trkpt lat="46.07751" lon="6.11801">
        <ele>1209</ele>
        <time>2012-12-10T10:25:30.000Z</time>
      </trkpt>
      <trkpt lat="46.07752" lon="6.11799">
        <ele>1209</ele>
        <time>2012-12-10T10:25:32.000Z</time>
      </trkpt>
      <trkpt lat="46.07752" lon="6.11798">
        <ele>1207.8000488281</ele>
        <time>2012-12-10T10:25:33.000Z</time>
      </trkpt>
      <trkpt lat="46.07754" lon="6.11794">
        <ele>1207.8000488281</ele>
        <time>2012-12-10T10:25:37.000Z</time>
      </trkpt>
      <trkpt lat="46.07755" lon="6.11791">
        <ele>1206.8000488281</ele>
        <time>2012-12-10T10:25:39.000Z</time>
      </trkpt>
      <trkpt lat="46.07757" lon="6.11786">
        <ele>1205.8000488281</ele>
        <time>2012-12-10T10:25:43.000Z</time>
      </trkpt>
      <trkpt lat="46.07758" lon="6.1178">
        <ele>1205.8000488281</ele>
        <time>2012-12-10T10:25:48.000Z</time>
      </trkpt>
      <trkpt lat="46.07759" lon="6.11777">
        <ele>1204.8000488281</ele>
        <time>2012-12-10T10:25:51.000Z</time>
      </trkpt>
      <trkpt lat="46.0776" lon="6.11774">
        <ele>1204.8000488281</ele>
        <time>2012-12-10T10:25:53.000Z</time>
      </trkpt>
      <trkpt lat="46.07761" lon="6.11768">
        <ele>1203.8000488281</ele>
        <time>2012-12-10T10:25:58.000Z</time>
      </trkpt>
      <trkpt lat="46.07762" lon="6.11766">
        <ele>1203.8000488281</ele>
        <time>2012-12-10T10:25:59.000Z</time>
      </trkpt>
      <trkpt lat="46.07764" lon="6.11759">
        <ele>1202.4000244141</ele>
        <time>2012-12-10T10:26:06.000Z</time>
      </trkpt>
      <trkpt lat="46.07766" lon="6.11754">
        <ele>1202.4000244141</ele>
        <time>2012-12-10T10:26:10.000Z</time>
      </trkpt>
      <trkpt lat="46.07766" lon="6.11752">
        <ele>1201.4000244141</ele>
        <time>2012-12-10T10:26:12.000Z</time>
      </trkpt>
      <trkpt lat="46.07768" lon="6.11746">
        <ele>1200.4000244141</ele>
        <time>2012-12-10T10:26:17.000Z</time>
      </trkpt>
      <trkpt lat="46.07768" lon="6.11744">
        <ele>1200.4000244141</ele>
        <time>2012-12-10T10:26:19.000Z</time>
      </trkpt>
      <trkpt lat="46.0777" lon="6.11739">
        <ele>1199.4000244141</ele>
        <time>2012-12-10T10:26:23.000Z</time>
      </trkpt>
      <trkpt lat="46.0777" lon="6.11738">
        <ele>1199.4000244141</ele>
        <time>2012-12-10T10:26:24.000Z</time>
      </trkpt>
      <trkpt lat="46.0777" lon="6.11739">
        <ele>1198.4000244141</ele>
        <time>2012-12-10T10:26:26.000Z</time>
      </trkpt>
      <trkpt lat="46.0777" lon="6.11738">
        <ele>1198.4000244141</ele>
        <time>2012-12-10T10:26:30.000Z</time>
      </trkpt>
      <trkpt lat="46.0777" lon="6.11738">
        <ele>1198.4000244141</ele>
        <time>2012-12-10T10:26:38.000Z</time>
      </trkpt>
      <trkpt lat="46.07772" lon="6.11731">
        <ele>1198.4000244141</ele>
        <time>2012-12-10T10:26:45.000Z</time>
      </trkpt>
      <trkpt lat="46.07774" lon="6.11724">
        <ele>1198.4000244141</ele>
        <time>2012-12-10T10:26:51.000Z</time>
      </trkpt>
      <trkpt lat="46.07774" lon="6.11723">
        <ele>1197.4000244141</ele>
        <time>2012-12-10T10:26:52.000Z</time>
      </trkpt>
      <trkpt lat="46.07776" lon="6.11717">
        <ele>1197.4000244141</ele>
        <time>2012-12-10T10:26:57.000Z</time>
      </trkpt>
      <trkpt lat="46.07777" lon="6.11716">
        <ele>1196.4000244141</ele>
        <time>2012-12-10T10:26:58.000Z</time>
      </trkpt>
      <trkpt lat="46.07778" lon="6.11711">
        <ele>1196.4000244141</ele>
        <time>2012-12-10T10:27:02.000Z</time>
      </trkpt>
      <trkpt lat="46.07779" lon="6.1171">
        <ele>1195.4000244141</ele>
        <time>2012-12-10T10:27:03.000Z</time>
      </trkpt>
      <trkpt lat="46.07781" lon="6.11705">
        <ele>1195.4000244141</ele>
        <time>2012-12-10T10:27:08.000Z</time>
      </trkpt>
      <trkpt lat="46.07782" lon="6.11703">
        <ele>1194</ele>
        <time>2012-12-10T10:27:10.000Z</time>
      </trkpt>
      <trkpt lat="46.07784" lon="6.11697">
        <ele>1194</ele>
        <time>2012-12-10T10:27:15.000Z</time>
      </trkpt>
      <trkpt lat="46.07785" lon="6.11695">
        <ele>1193</ele>
        <time>2012-12-10T10:27:17.000Z</time>
      </trkpt>
      <trkpt lat="46.07786" lon="6.11692">
        <ele>1193</ele>
        <time>2012-12-10T10:27:20.000Z</time>
      </trkpt>
      <trkpt lat="46.07787" lon="6.1169">
        <ele>1192</ele>
        <time>2012-12-10T10:27:22.000Z</time>
      </trkpt>
      <trkpt lat="46.0779" lon="6.11686">
        <ele>1192</ele>
        <time>2012-12-10T10:27:27.000Z</time>
      </trkpt>
      <trkpt lat="46.0779" lon="6.11684">
        <ele>1192</ele>
        <time>2012-12-10T10:27:29.000Z</time>
      </trkpt>
      <trkpt lat="46.07791" lon="6.11683">
        <ele>1191</ele>
        <time>2012-12-10T10:27:30.000Z</time>
      </trkpt>
      <trkpt lat="46.07791" lon="6.11682">
        <ele>1190</ele>
        <time>2012-12-10T10:27:32.000Z</time>
      </trkpt>
      <trkpt lat="46.07792" lon="6.11681">
        <ele>1190</ele>
        <time>2012-12-10T10:27:34.000Z</time>
      </trkpt>
      <trkpt lat="46.07793" lon="6.11676">
        <ele>1190</ele>
        <time>2012-12-10T10:27:39.000Z</time>
      </trkpt>
      <trkpt lat="46.07794" lon="6.1167">
        <ele>1189</ele>
        <time>2012-12-10T10:27:45.000Z</time>
      </trkpt>
      <trkpt lat="46.07795" lon="6.11669">
        <ele>1189</ele>
        <time>2012-12-10T10:27:46.000Z</time>
      </trkpt>
      <trkpt lat="46.07796" lon="6.11664">
        <ele>1188</ele>
        <time>2012-12-10T10:27:50.000Z</time>
      </trkpt>
      <trkpt lat="46.07797" lon="6.11662">
        <ele>1188</ele>
        <time>2012-12-10T10:27:52.000Z</time>
      </trkpt>
      <trkpt lat="46.07797" lon="6.1166">
        <ele>1188</ele>
        <time>2012-12-10T10:27:54.000Z</time>
      </trkpt>
      <trkpt lat="46.07798" lon="6.11658">
        <ele>1187</ele>
        <time>2012-12-10T10:27:56.000Z</time>
      </trkpt>
      <trkpt lat="46.07799" lon="6.11656">
        <ele>1187</ele>
        <time>2012-12-10T10:27:58.000Z</time>
      </trkpt>
      <trkpt lat="46.078" lon="6.11652">
        <ele>1186</ele>
        <time>2012-12-10T10:28:02.000Z</time>
      </trkpt>
      <trkpt lat="46.07801" lon="6.11651">
        <ele>1186</ele>
        <time>2012-12-10T10:28:03.000Z</time>
      </trkpt>
      <trkpt lat="46.07803" lon="6.11646">
        <ele>1185</ele>
        <time>2012-12-10T10:28:09.000Z</time>
      </trkpt>
      <trkpt lat="46.07805" lon="6.11643">
        <ele>1185</ele>
        <time>2012-12-10T10:28:15.000Z</time>
      </trkpt>
      <trkpt lat="46.07807" lon="6.11639">
        <ele>1185</ele>
        <time>2012-12-10T10:28:22.000Z</time>
      </trkpt>
      <trkpt lat="46.07808" lon="6.11634">
        <ele>1183.8000488281</ele>
        <time>2012-12-10T10:28:26.000Z</time>
      </trkpt>
      <trkpt lat="46.07809" lon="6.11632">
        <ele>1183.8000488281</ele>
        <time>2012-12-10T10:28:28.000Z</time>
      </trkpt>
      <trkpt lat="46.07811" lon="6.11629">
        <ele>1183.8000488281</ele>
        <time>2012-12-10T10:28:31.000Z</time>
      </trkpt>
      <trkpt lat="46.07811" lon="6.11627">
        <ele>1183.8000488281</ele>
        <time>2012-12-10T10:28:33.000Z</time>
      </trkpt>
      <trkpt lat="46.07812" lon="6.11625">
        <ele>1182.8000488281</ele>
        <time>2012-12-10T10:28:35.000Z</time>
      </trkpt>
      <trkpt lat="46.07813" lon="6.11623">
        <ele>1182.8000488281</ele>
        <time>2012-12-10T10:28:37.000Z</time>
      </trkpt>
      <trkpt lat="46.07814" lon="6.11622">
        <ele>1182.8000488281</ele>
        <time>2012-12-10T10:28:38.000Z</time>
      </trkpt>
      <trkpt lat="46.07815" lon="6.1162">
        <ele>1181.8000488281</ele>
        <time>2012-12-10T10:28:40.000Z</time>
      </trkpt>
      <trkpt lat="46.07816" lon="6.11618">
        <ele>1181.8000488281</ele>
        <time>2012-12-10T10:28:42.000Z</time>
      </trkpt>
      <trkpt lat="46.07817" lon="6.11615">
        <ele>1180.8000488281</ele>
        <time>2012-12-10T10:28:45.000Z</time>
      </trkpt>
      <trkpt lat="46.07819" lon="6.11612">
        <ele>1180.8000488281</ele>
        <time>2012-12-10T10:28:48.000Z</time>
      </trkpt>
      <trkpt lat="46.0782" lon="6.11609">
        <ele>1180.8000488281</ele>
        <time>2012-12-10T10:28:51.000Z</time>
      </trkpt>
      <trkpt lat="46.07821" lon="6.11607">
        <ele>1179.4000244141</ele>
        <time>2012-12-10T10:28:53.000Z</time>
      </trkpt>
      <trkpt lat="46.07823" lon="6.11602">
        <ele>1179.4000244141</ele>
        <time>2012-12-10T10:28:59.000Z</time>
      </trkpt>
      <trkpt lat="46.07825" lon="6.11597">
        <ele>1178.4000244141</ele>
        <time>2012-12-10T10:29:04.000Z</time>
      </trkpt>
      <trkpt lat="46.07825" lon="6.11598">
        <ele>1178.4000244141</ele>
        <time>2012-12-10T10:29:05.000Z</time>
      </trkpt>
      <trkpt lat="46.07825" lon="6.11593">
        <ele>1178.4000244141</ele>
        <time>2012-12-10T10:29:12.000Z</time>
      </trkpt>
      <trkpt lat="46.07827" lon="6.11588">
        <ele>1178.4000244141</ele>
        <time>2012-12-10T10:29:17.000Z</time>
      </trkpt>
      <trkpt lat="46.07829" lon="6.11583">
        <ele>1178.4000244141</ele>
        <time>2012-12-10T10:29:22.000Z</time>
      </trkpt>
      <trkpt lat="46.0783" lon="6.11581">
        <ele>1177.4000244141</ele>
        <time>2012-12-10T10:29:24.000Z</time>
      </trkpt>
      <trkpt lat="46.07831" lon="6.11577">
        <ele>1177.4000244141</ele>
        <time>2012-12-10T10:29:28.000Z</time>
      </trkpt>
      <trkpt lat="46.07832" lon="6.11571">
        <ele>1176.4000244141</ele>
        <time>2012-12-10T10:29:34.000Z</time>
      </trkpt>
      <trkpt lat="46.07831" lon="6.11566">
        <ele>1176.4000244141</ele>
        <time>2012-12-10T10:29:39.000Z</time>
      </trkpt>
      <trkpt lat="46.07831" lon="6.11564">
        <ele>1175.4000244141</ele>
        <time>2012-12-10T10:29:40.000Z</time>
      </trkpt>
      <trkpt lat="46.07831" lon="6.1156">
        <ele>1174.4000244141</ele>
        <time>2012-12-10T10:29:45.000Z</time>
      </trkpt>
      <trkpt lat="46.07832" lon="6.11556">
        <ele>1173.4000244141</ele>
        <time>2012-12-10T10:29:51.000Z</time>
      </trkpt>
      <trkpt lat="46.07834" lon="6.11551">
        <ele>1172</ele>
        <time>2012-12-10T10:29:56.000Z</time>
      </trkpt>
      <trkpt lat="46.07834" lon="6.11548">
        <ele>1172</ele>
        <time>2012-12-10T10:30:01.000Z</time>
      </trkpt>
      <trkpt lat="46.07834" lon="6.11546">
        <ele>1171</ele>
        <time>2012-12-10T10:30:03.000Z</time>
      </trkpt>
      <trkpt lat="46.07834" lon="6.11543">
        <ele>1171</ele>
        <time>2012-12-10T10:30:08.000Z</time>
      </trkpt>
      <trkpt lat="46.07834" lon="6.11543">
        <ele>1170</ele>
        <time>2012-12-10T10:30:14.000Z</time>
      </trkpt>
      <trkpt lat="46.07833" lon="6.11541">
        <ele>1170</ele>
        <time>2012-12-10T10:30:15.000Z</time>
      </trkpt>
      <trkpt lat="46.07835" lon="6.11537">
        <ele>1169</ele>
        <time>2012-12-10T10:30:21.000Z</time>
      </trkpt>
      <trkpt lat="46.07837" lon="6.11536">
        <ele>1167.8000488281</ele>
        <time>2012-12-10T10:30:26.000Z</time>
      </trkpt>
      <trkpt lat="46.07836" lon="6.11536">
        <ele>1166.4000244141</ele>
        <time>2012-12-10T10:30:28.000Z</time>
      </trkpt>
      <trkpt lat="46.07837" lon="6.11536">
        <ele>1166.4000244141</ele>
        <time>2012-12-10T10:30:32.000Z</time>
      </trkpt>
      <trkpt lat="46.07838" lon="6.11535">
        <ele>1166.4000244141</ele>
        <time>2012-12-10T10:30:41.000Z</time>
      </trkpt>
      <trkpt lat="46.07838" lon="6.11535">
        <ele>1166.4000244141</ele>
        <time>2012-12-10T10:30:50.000Z</time>
      </trkpt>
      <trkpt lat="46.07839" lon="6.11531">
        <ele>1166.4000244141</ele>
        <time>2012-12-10T10:31:02.000Z</time>
      </trkpt>
      <trkpt lat="46.0784" lon="6.11532">
        <ele>1166.4000244141</ele>
        <time>2012-12-10T10:31:10.000Z</time>
      </trkpt>
      <trkpt lat="46.07839" lon="6.11531">
        <ele>1166.4000244141</ele>
        <time>2012-12-10T10:31:18.000Z</time>
      </trkpt>
      <trkpt lat="46.07839" lon="6.11529">
        <ele>1166.4000244141</ele>
        <time>2012-12-10T10:31:28.000Z</time>
      </trkpt>
      <trkpt lat="46.07839" lon="6.11529">
        <ele>1166.4000244141</ele>
        <time>2012-12-10T10:31:36.000Z</time>
      </trkpt>
      <trkpt lat="46.07839" lon="6.11532">
        <ele>1166.4000244141</ele>
        <time>2012-12-10T10:31:46.000Z</time>
      </trkpt>
      <trkpt lat="46.0784" lon="6.11526">
        <ele>1166.4000244141</ele>
        <time>2012-12-10T10:31:56.000Z</time>
      </trkpt>
      <trkpt lat="46.07839" lon="6.11525">
        <ele>1166.4000244141</ele>
        <time>2012-12-10T10:32:04.000Z</time>
      </trkpt>
      <trkpt lat="46.07839" lon="6.11525">
        <ele>1166.4000244141</ele>
        <time>2012-12-10T10:32:13.000Z</time>
      </trkpt>
      <trkpt lat="46.07838" lon="6.11525">
        <ele>1166.4000244141</ele>
        <time>2012-12-10T10:32:23.000Z</time>
      </trkpt>
      <trkpt lat="46.07837" lon="6.11525">
        <ele>1166.4000244141</ele>
        <time>2012-12-10T10:32:33.000Z</time>
      </trkpt>
      <trkpt lat="46.07839" lon="6.11527">
        <ele>1166.4000244141</ele>
        <time>2012-12-10T10:32:45.000Z</time>
      </trkpt>
      <trkpt lat="46.0784" lon="6.11525">
        <ele>1166.4000244141</ele>
        <time>2012-12-10T10:32:51.000Z</time>
      </trkpt>
      <trkpt lat="46.07842" lon="6.11522">
        <ele>1166.4000244141</ele>
        <time>2012-12-10T10:32:56.000Z</time>
      </trkpt>
      <trkpt lat="46.07843" lon="6.11518">
        <ele>1165.4000244141</ele>
        <time>2012-12-10T10:33:00.000Z</time>
      </trkpt>
      <trkpt lat="46.07844" lon="6.11516">
        <ele>1165.4000244141</ele>
        <time>2012-12-10T10:33:02.000Z</time>
      </trkpt>
      <trkpt lat="46.07844" lon="6.11515">
        <ele>1164.4000244141</ele>
        <time>2012-12-10T10:33:04.000Z</time>
      </trkpt>
      <trkpt lat="46.07847" lon="6.11512">
        <ele>1163.4000244141</ele>
        <time>2012-12-10T10:33:08.000Z</time>
      </trkpt>
      <trkpt lat="46.0785" lon="6.11507">
        <ele>1162.4000244141</ele>
        <time>2012-12-10T10:33:15.000Z</time>
      </trkpt>
      <trkpt lat="46.07849" lon="6.11507">
        <ele>1161.4000244141</ele>
        <time>2012-12-10T10:33:16.000Z</time>
      </trkpt>
      <trkpt lat="46.0785" lon="6.11508">
        <ele>1161.4000244141</ele>
        <time>2012-12-10T10:33:19.000Z</time>
      </trkpt>
      <trkpt lat="46.0785" lon="6.11506">
        <ele>1161.4000244141</ele>
        <time>2012-12-10T10:33:25.000Z</time>
      </trkpt>
      <trkpt lat="46.0785" lon="6.11507">
        <ele>1161.4000244141</ele>
        <time>2012-12-10T10:33:33.000Z</time>
      </trkpt>
      <trkpt lat="46.07851" lon="6.11507">
        <ele>1161.4000244141</ele>
        <time>2012-12-10T10:33:39.000Z</time>
      </trkpt>
      <trkpt lat="46.07852" lon="6.11508">
        <ele>1161.4000244141</ele>
        <time>2012-12-10T10:33:45.000Z</time>
      </trkpt>
      <trkpt lat="46.07853" lon="6.1151">
        <ele>1161.4000244141</ele>
        <time>2012-12-10T10:33:55.000Z</time>
      </trkpt>
      <trkpt lat="46.07854" lon="6.11508">
        <ele>1161.4000244141</ele>
        <time>2012-12-10T10:34:05.000Z</time>
      </trkpt>
      <trkpt lat="46.07854" lon="6.11507">
        <ele>1161.4000244141</ele>
        <time>2012-12-10T10:34:13.000Z</time>
      </trkpt>
      <trkpt lat="46.07856" lon="6.11507">
        <ele>1161.4000244141</ele>
        <time>2012-12-10T10:34:25.000Z</time>
      </trkpt>
      <trkpt lat="46.07855" lon="6.11507">
        <ele>1161.4000244141</ele>
        <time>2012-12-10T10:34:34.000Z</time>
      </trkpt>
      <trkpt lat="46.07856" lon="6.11507">
        <ele>1161.4000244141</ele>
        <time>2012-12-10T10:34:41.000Z</time>
      </trkpt>
      <trkpt lat="46.07857" lon="6.11504">
        <ele>1160</ele>
        <time>2012-12-10T10:34:47.000Z</time>
      </trkpt>
      <trkpt lat="46.07857" lon="6.11499">
        <ele>1160</ele>
        <time>2012-12-10T10:34:54.000Z</time>
      </trkpt>
      <trkpt lat="46.07858" lon="6.11497">
        <ele>1160</ele>
        <time>2012-12-10T10:34:58.000Z</time>
      </trkpt>
      <trkpt lat="46.07862" lon="6.11496">
        <ele>1160</ele>
        <time>2012-12-10T10:35:04.000Z</time>
      </trkpt>
      <trkpt lat="46.07865" lon="6.11496">
        <ele>1160</ele>
        <time>2012-12-10T10:35:08.000Z</time>
      </trkpt>
      <trkpt lat="46.07867" lon="6.11495">
        <ele>1160</ele>
        <time>2012-12-10T10:35:13.000Z</time>
      </trkpt>
      <trkpt lat="46.07872" lon="6.11494">
        <ele>1160</ele>
        <time>2012-12-10T10:35:19.000Z</time>
      </trkpt>
      <trkpt lat="46.07875" lon="6.11494">
        <ele>1160</ele>
        <time>2012-12-10T10:35:26.000Z</time>
      </trkpt>
      <trkpt lat="46.07876" lon="6.11488">
        <ele>1160</ele>
        <time>2012-12-10T10:35:32.000Z</time>
      </trkpt>
      <trkpt lat="46.07876" lon="6.11488">
        <ele>1160</ele>
        <time>2012-12-10T10:35:38.000Z</time>
      </trkpt>
      <trkpt lat="46.07876" lon="6.11486">
        <ele>1159</ele>
        <time>2012-12-10T10:35:39.000Z</time>
      </trkpt>
      <trkpt lat="46.07876" lon="6.11487">
        <ele>1159</ele>
        <time>2012-12-10T10:35:45.000Z</time>
      </trkpt>
      <trkpt lat="46.07878" lon="6.11487">
        <ele>1159</ele>
        <time>2012-12-10T10:35:55.000Z</time>
      </trkpt>
      <trkpt lat="46.07879" lon="6.11487">
        <ele>1159</ele>
        <time>2012-12-10T10:36:08.000Z</time>
      </trkpt>
      <trkpt lat="46.07879" lon="6.11486">
        <ele>1159</ele>
        <time>2012-12-10T10:36:17.000Z</time>
      </trkpt>
      <trkpt lat="46.0788" lon="6.11486">
        <ele>1159</ele>
        <time>2012-12-10T10:36:27.000Z</time>
      </trkpt>
      <trkpt lat="46.07881" lon="6.11481">
        <ele>1159</ele>
        <time>2012-12-10T10:36:34.000Z</time>
      </trkpt>
      <trkpt lat="46.07884" lon="6.11475">
        <ele>1159</ele>
        <time>2012-12-10T10:36:41.000Z</time>
      </trkpt>
      <trkpt lat="46.07885" lon="6.11471">
        <ele>1158</ele>
        <time>2012-12-10T10:36:45.000Z</time>
      </trkpt>
      <trkpt lat="46.07885" lon="6.1147">
        <ele>1158</ele>
        <time>2012-12-10T10:36:46.000Z</time>
      </trkpt>
      <trkpt lat="46.07886" lon="6.11467">
        <ele>1157</ele>
        <time>2012-12-10T10:36:49.000Z</time>
      </trkpt>
      <trkpt lat="46.07887" lon="6.11464">
        <ele>1157</ele>
        <time>2012-12-10T10:36:52.000Z</time>
      </trkpt>
      <trkpt lat="46.0789" lon="6.11459">
        <ele>1156</ele>
        <time>2012-12-10T10:36:57.000Z</time>
      </trkpt>
      <trkpt lat="46.07891" lon="6.11459">
        <ele>1156</ele>
        <time>2012-12-10T10:36:58.000Z</time>
      </trkpt>
      <trkpt lat="46.07893" lon="6.11456">
        <ele>1154.8000488281</ele>
        <time>2012-12-10T10:37:02.000Z</time>
      </trkpt>
      <trkpt lat="46.07893" lon="6.11456">
        <ele>1154.8000488281</ele>
        <time>2012-12-10T10:37:04.000Z</time>
      </trkpt>
      <trkpt lat="46.07895" lon="6.11451">
        <ele>1153.8000488281</ele>
        <time>2012-12-10T10:37:09.000Z</time>
      </trkpt>
      <trkpt lat="46.07896" lon="6.11446">
        <ele>1153.8000488281</ele>
        <time>2012-12-10T10:37:14.000Z</time>
      </trkpt>
      <trkpt lat="46.07898" lon="6.11442">
        <ele>1152.8000488281</ele>
        <time>2012-12-10T10:37:20.000Z</time>
      </trkpt>
      <trkpt lat="46.07898" lon="6.11438">
        <ele>1152.8000488281</ele>
        <time>2012-12-10T10:37:24.000Z</time>
      </trkpt>
      <trkpt lat="46.07899" lon="6.11437">
        <ele>1151.8000488281</ele>
        <time>2012-12-10T10:37:25.000Z</time>
      </trkpt>
      <trkpt lat="46.07901" lon="6.11436">
        <ele>1151.8000488281</ele>
        <time>2012-12-10T10:37:29.000Z</time>
      </trkpt>
      <trkpt lat="46.07901" lon="6.11435">
        <ele>1150.4000244141</ele>
        <time>2012-12-10T10:37:31.000Z</time>
      </trkpt>
      <trkpt lat="46.07903" lon="6.11435">
        <ele>1149.4000244141</ele>
        <time>2012-12-10T10:37:33.000Z</time>
      </trkpt>
      <trkpt lat="46.07903" lon="6.11434">
        <ele>1149.4000244141</ele>
        <time>2012-12-10T10:37:34.000Z</time>
      </trkpt>
      <trkpt lat="46.07906" lon="6.11434">
        <ele>1149.4000244141</ele>
        <time>2012-12-10T10:37:39.000Z</time>
      </trkpt>
      <trkpt lat="46.07907" lon="6.11435">
        <ele>1148.4000244141</ele>
        <time>2012-12-10T10:37:40.000Z</time>
      </trkpt>
      <trkpt lat="46.07908" lon="6.11435">
        <ele>1147.4000244141</ele>
        <time>2012-12-10T10:37:43.000Z</time>
      </trkpt>
      <trkpt lat="46.07908" lon="6.11434">
        <ele>1147.4000244141</ele>
        <time>2012-12-10T10:37:47.000Z</time>
      </trkpt>
      <trkpt lat="46.07908" lon="6.11433">
        <ele>1146</ele>
        <time>2012-12-10T10:37:49.000Z</time>
      </trkpt>
      <trkpt lat="46.07908" lon="6.11431">
        <ele>1146</ele>
        <time>2012-12-10T10:37:52.000Z</time>
      </trkpt>
      <trkpt lat="46.07908" lon="6.11431">
        <ele>1145</ele>
        <time>2012-12-10T10:37:53.000Z</time>
      </trkpt>
      <trkpt lat="46.07907" lon="6.1143">
        <ele>1145</ele>
        <time>2012-12-10T10:37:58.000Z</time>
      </trkpt>
      <trkpt lat="46.07906" lon="6.11429">
        <ele>1144</ele>
        <time>2012-12-10T10:38:01.000Z</time>
      </trkpt>
      <trkpt lat="46.07905" lon="6.11427">
        <ele>1143</ele>
        <time>2012-12-10T10:38:03.000Z</time>
      </trkpt>
      <trkpt lat="46.07904" lon="6.11426">
        <ele>1143</ele>
        <time>2012-12-10T10:38:05.000Z</time>
      </trkpt>
      <trkpt lat="46.07904" lon="6.11424">
        <ele>1142</ele>
        <time>2012-12-10T10:38:07.000Z</time>
      </trkpt>
      <trkpt lat="46.07902" lon="6.11422">
        <ele>1141</ele>
        <time>2012-12-10T10:38:11.000Z</time>
      </trkpt>
      <trkpt lat="46.07902" lon="6.11422">
        <ele>1141</ele>
        <time>2012-12-10T10:38:12.000Z</time>
      </trkpt>
      <trkpt lat="46.079" lon="6.11421">
        <ele>1140</ele>
        <time>2012-12-10T10:38:18.000Z</time>
      </trkpt>
      <trkpt lat="46.07899" lon="6.11421">
        <ele>1140</ele>
        <time>2012-12-10T10:38:20.000Z</time>
      </trkpt>
      <trkpt lat="46.07898" lon="6.1142">
        <ele>1138.8000488281</ele>
        <time>2012-12-10T10:38:25.000Z</time>
      </trkpt>
      <trkpt lat="46.07898" lon="6.1142">
        <ele>1138.8000488281</ele>
        <time>2012-12-10T10:38:26.000Z</time>
      </trkpt>
      <trkpt lat="46.07897" lon="6.11419">
        <ele>1137.8000488281</ele>
        <time>2012-12-10T10:38:28.000Z</time>
      </trkpt>
      <trkpt lat="46.07896" lon="6.11416">
        <ele>1136.8000488281</ele>
        <time>2012-12-10T10:38:33.000Z</time>
      </trkpt>
      <trkpt lat="46.07896" lon="6.11414">
        <ele>1135.8000488281</ele>
        <time>2012-12-10T10:38:37.000Z</time>
      </trkpt>
      <trkpt lat="46.07895" lon="6.11412">
        <ele>1135.8000488281</ele>
        <time>2012-12-10T10:38:40.000Z</time>
      </trkpt>
      <trkpt lat="46.07893" lon="6.11411">
        <ele>1134.4000244141</ele>
        <time>2012-12-10T10:38:43.000Z</time>
      </trkpt>
      <trkpt lat="46.07891" lon="6.11409">
        <ele>1133.4000244141</ele>
        <time>2012-12-10T10:38:47.000Z</time>
      </trkpt>
      <trkpt lat="46.0789" lon="6.11409">
        <ele>1132.4000244141</ele>
        <time>2012-12-10T10:38:51.000Z</time>
      </trkpt>
      <trkpt lat="46.07889" lon="6.11406">
        <ele>1131.4000244141</ele>
        <time>2012-12-10T10:38:54.000Z</time>
      </trkpt>
      <trkpt lat="46.07888" lon="6.11404">
        <ele>1130.4000244141</ele>
        <time>2012-12-10T10:38:57.000Z</time>
      </trkpt>
      <trkpt lat="46.07887" lon="6.11403">
        <ele>1130.4000244141</ele>
        <time>2012-12-10T10:38:59.000Z</time>
      </trkpt>
      <trkpt lat="46.07884" lon="6.11403">
        <ele>1129.4000244141</ele>
        <time>2012-12-10T10:39:03.000Z</time>
      </trkpt>
      <trkpt lat="46.07883" lon="6.11403">
        <ele>1129.4000244141</ele>
        <time>2012-12-10T10:39:05.000Z</time>
      </trkpt>
      <trkpt lat="46.0788" lon="6.11404">
        <ele>1128.4000244141</ele>
        <time>2012-12-10T10:39:09.000Z</time>
      </trkpt>
      <trkpt lat="46.07879" lon="6.11405">
        <ele>1128.4000244141</ele>
        <time>2012-12-10T10:39:12.000Z</time>
      </trkpt>
      <trkpt lat="46.07877" lon="6.11406">
        <ele>1127</ele>
        <time>2012-12-10T10:39:14.000Z</time>
      </trkpt>
      <trkpt lat="46.07875" lon="6.11405">
        <ele>1127</ele>
        <time>2012-12-10T10:39:18.000Z</time>
      </trkpt>
      <trkpt lat="46.07874" lon="6.11405">
        <ele>1126</ele>
        <time>2012-12-10T10:39:20.000Z</time>
      </trkpt>
      <trkpt lat="46.07872" lon="6.11402">
        <ele>1125</ele>
        <time>2012-12-10T10:39:25.000Z</time>
      </trkpt>
      <trkpt lat="46.0787" lon="6.11401">
        <ele>1124</ele>
        <time>2012-12-10T10:39:28.000Z</time>
      </trkpt>
      <trkpt lat="46.07871" lon="6.11399">
        <ele>1124</ele>
        <time>2012-12-10T10:39:32.000Z</time>
      </trkpt>
      <trkpt lat="46.0787" lon="6.11399">
        <ele>1123</ele>
        <time>2012-12-10T10:39:34.000Z</time>
      </trkpt>
      <trkpt lat="46.07871" lon="6.11396">
        <ele>1122</ele>
        <time>2012-12-10T10:39:39.000Z</time>
      </trkpt>
      <trkpt lat="46.07873" lon="6.11393">
        <ele>1122</ele>
        <time>2012-12-10T10:39:44.000Z</time>
      </trkpt>
      <trkpt lat="46.07874" lon="6.11392">
        <ele>1121</ele>
        <time>2012-12-10T10:39:46.000Z</time>
      </trkpt>
      <trkpt lat="46.07874" lon="6.11389">
        <ele>1119.8000488281</ele>
        <time>2012-12-10T10:39:51.000Z</time>
      </trkpt>
      <trkpt lat="46.07873" lon="6.11386">
        <ele>1118.8000488281</ele>
        <time>2012-12-10T10:39:56.000Z</time>
      </trkpt>
      <trkpt lat="46.07873" lon="6.11385">
        <ele>1118.8000488281</ele>
        <time>2012-12-10T10:39:57.000Z</time>
      </trkpt>
      <trkpt lat="46.07872" lon="6.11383">
        <ele>1117.8000488281</ele>
        <time>2012-12-10T10:40:00.000Z</time>
      </trkpt>
      <trkpt lat="46.07869" lon="6.11383">
        <ele>1117.8000488281</ele>
        <time>2012-12-10T10:40:04.000Z</time>
      </trkpt>
      <trkpt lat="46.07868" lon="6.11383">
        <ele>1116.8000488281</ele>
        <time>2012-12-10T10:40:06.000Z</time>
      </trkpt>
      <trkpt lat="46.07865" lon="6.11384">
        <ele>1116.8000488281</ele>
        <time>2012-12-10T10:40:11.000Z</time>
      </trkpt>
      <trkpt lat="46.07864" lon="6.11385">
        <ele>1115.4000244141</ele>
        <time>2012-12-10T10:40:12.000Z</time>
      </trkpt>
      <trkpt lat="46.07861" lon="6.11386">
        <ele>1114.4000244141</ele>
        <time>2012-12-10T10:40:17.000Z</time>
      </trkpt>
      <trkpt lat="46.0786" lon="6.11387">
        <ele>1114.4000244141</ele>
        <time>2012-12-10T10:40:18.000Z</time>
      </trkpt>
      <trkpt lat="46.07857" lon="6.11388">
        <ele>1113.4000244141</ele>
        <time>2012-12-10T10:40:23.000Z</time>
      </trkpt>
      <trkpt lat="46.07856" lon="6.11389">
        <ele>1113.4000244141</ele>
        <time>2012-12-10T10:40:26.000Z</time>
      </trkpt>
      <trkpt lat="46.07855" lon="6.1139">
        <ele>1112.4000244141</ele>
        <time>2012-12-10T10:40:28.000Z</time>
      </trkpt>
      <trkpt lat="46.07853" lon="6.11394">
        <ele>1112.4000244141</ele>
        <time>2012-12-10T10:40:33.000Z</time>
      </trkpt>
      <trkpt lat="46.07851" lon="6.11397">
        <ele>1112.4000244141</ele>
        <time>2012-12-10T10:40:39.000Z</time>
      </trkpt>
      <trkpt lat="46.07845" lon="6.114">
        <ele>1111</ele>
        <time>2012-12-10T10:40:46.000Z</time>
      </trkpt>
      <trkpt lat="46.07842" lon="6.114">
        <ele>1111</ele>
        <time>2012-12-10T10:40:51.000Z</time>
      </trkpt>
      <trkpt lat="46.07841" lon="6.11399">
        <ele>1110</ele>
        <time>2012-12-10T10:40:52.000Z</time>
      </trkpt>
      <trkpt lat="46.07837" lon="6.11399">
        <ele>1110</ele>
        <time>2012-12-10T10:40:57.000Z</time>
      </trkpt>
      <trkpt lat="46.07837" lon="6.114">
        <ele>1109</ele>
        <time>2012-12-10T10:40:58.000Z</time>
      </trkpt>
      <trkpt lat="46.07835" lon="6.11396">
        <ele>1108</ele>
        <time>2012-12-10T10:41:02.000Z</time>
      </trkpt>
      <trkpt lat="46.07836" lon="6.11395">
        <ele>1108</ele>
        <time>2012-12-10T10:41:03.000Z</time>
      </trkpt>
      <trkpt lat="46.07837" lon="6.11394">
        <ele>1107</ele>
        <time>2012-12-10T10:41:07.000Z</time>
      </trkpt>
      <trkpt lat="46.07837" lon="6.11393">
        <ele>1107</ele>
        <time>2012-12-10T10:41:08.000Z</time>
      </trkpt>
      <trkpt lat="46.07838" lon="6.11392">
        <ele>1106</ele>
        <time>2012-12-10T10:41:12.000Z</time>
      </trkpt>
      <trkpt lat="46.07838" lon="6.11392">
        <ele>1106</ele>
        <time>2012-12-10T10:41:14.000Z</time>
      </trkpt>
      <trkpt lat="46.07837" lon="6.11388">
        <ele>1105</ele>
        <time>2012-12-10T10:41:19.000Z</time>
      </trkpt>
      <trkpt lat="46.07836" lon="6.11388">
        <ele>1105</ele>
        <time>2012-12-10T10:41:21.000Z</time>
      </trkpt>
      <trkpt lat="46.07835" lon="6.11388">
        <ele>1104</ele>
        <time>2012-12-10T10:41:23.000Z</time>
      </trkpt>
      <trkpt lat="46.07833" lon="6.11388">
        <ele>1104</ele>
        <time>2012-12-10T10:41:26.000Z</time>
      </trkpt>
      <trkpt lat="46.07832" lon="6.11387">
        <ele>1102.8000488281</ele>
        <time>2012-12-10T10:41:27.000Z</time>
      </trkpt>
      <trkpt lat="46.0783" lon="6.11385">
        <ele>1101.8000488281</ele>
        <time>2012-12-10T10:41:31.000Z</time>
      </trkpt>
      <trkpt lat="46.07829" lon="6.11385">
        <ele>1101.8000488281</ele>
        <time>2012-12-10T10:41:32.000Z</time>
      </trkpt>
      <trkpt lat="46.07827" lon="6.11385">
        <ele>1100.4000244141</ele>
        <time>2012-12-10T10:41:36.000Z</time>
      </trkpt>
      <trkpt lat="46.07826" lon="6.11385">
        <ele>1100.4000244141</ele>
        <time>2012-12-10T10:41:38.000Z</time>
      </trkpt>
      <trkpt lat="46.07825" lon="6.11385">
        <ele>1099.4000244141</ele>
        <time>2012-12-10T10:41:39.000Z</time>
      </trkpt>
      <trkpt lat="46.07823" lon="6.11386">
        <ele>1099.4000244141</ele>
        <time>2012-12-10T10:41:44.000Z</time>
      </trkpt>
      <trkpt lat="46.07822" lon="6.11387">
        <ele>1099.4000244141</ele>
        <time>2012-12-10T10:41:53.000Z</time>
      </trkpt>
      <trkpt lat="46.07821" lon="6.11387">
        <ele>1098.4000244141</ele>
        <time>2012-12-10T10:41:55.000Z</time>
      </trkpt>
      <trkpt lat="46.07817" lon="6.11388">
        <ele>1097.4000244141</ele>
        <time>2012-12-10T10:41:59.000Z</time>
      </trkpt>
      <trkpt lat="46.07816" lon="6.11388">
        <ele>1097.4000244141</ele>
        <time>2012-12-10T10:42:00.000Z</time>
      </trkpt>
      <trkpt lat="46.07815" lon="6.1139">
        <ele>1096.4000244141</ele>
        <time>2012-12-10T10:42:04.000Z</time>
      </trkpt>
      <trkpt lat="46.07814" lon="6.1139">
        <ele>1096.4000244141</ele>
        <time>2012-12-10T10:42:06.000Z</time>
      </trkpt>
      <trkpt lat="46.07812" lon="6.1139">
        <ele>1095.4000244141</ele>
        <time>2012-12-10T10:42:09.000Z</time>
      </trkpt>
      <trkpt lat="46.07813" lon="6.11391">
        <ele>1095.4000244141</ele>
        <time>2012-12-10T10:42:11.000Z</time>
      </trkpt>
      <trkpt lat="46.0781" lon="6.11392">
        <ele>1095.4000244141</ele>
        <time>2012-12-10T10:42:17.000Z</time>
      </trkpt>
      <trkpt lat="46.07807" lon="6.11393">
        <ele>1095.4000244141</ele>
        <time>2012-12-10T10:42:24.000Z</time>
      </trkpt>
      <trkpt lat="46.07805" lon="6.11393">
        <ele>1094</ele>
        <time>2012-12-10T10:42:28.000Z</time>
      </trkpt>
      <trkpt lat="46.07805" lon="6.11391">
        <ele>1094</ele>
        <time>2012-12-10T10:42:31.000Z</time>
      </trkpt>
      <trkpt lat="46.07806" lon="6.1139">
        <ele>1093</ele>
        <time>2012-12-10T10:42:33.000Z</time>
      </trkpt>
      <trkpt lat="46.07807" lon="6.11386">
        <ele>1091.8000488281</ele>
        <time>2012-12-10T10:42:39.000Z</time>
      </trkpt>
      <trkpt lat="46.07808" lon="6.11386">
        <ele>1091.8000488281</ele>
        <time>2012-12-10T10:42:40.000Z</time>
      </trkpt>
      <trkpt lat="46.07808" lon="6.11384">
        <ele>1090.8000488281</ele>
        <time>2012-12-10T10:42:43.000Z</time>
      </trkpt>
      <trkpt lat="46.07809" lon="6.11381">
        <ele>1089.8000488281</ele>
        <time>2012-12-10T10:42:48.000Z</time>
      </trkpt>
      <trkpt lat="46.07812" lon="6.11379">
        <ele>1089.8000488281</ele>
        <time>2012-12-10T10:42:55.000Z</time>
      </trkpt>
      <trkpt lat="46.07814" lon="6.11375">
        <ele>1089.8000488281</ele>
        <time>2012-12-10T10:43:01.000Z</time>
      </trkpt>
      <trkpt lat="46.07815" lon="6.11372">
        <ele>1088.8000488281</ele>
        <time>2012-12-10T10:43:05.000Z</time>
      </trkpt>
      <trkpt lat="46.07817" lon="6.1137">
        <ele>1088.8000488281</ele>
        <time>2012-12-10T10:43:09.000Z</time>
      </trkpt>
      <trkpt lat="46.07817" lon="6.11369">
        <ele>1087.8000488281</ele>
        <time>2012-12-10T10:43:10.000Z</time>
      </trkpt>
      <trkpt lat="46.07817" lon="6.11366">
        <ele>1086.4000244141</ele>
        <time>2012-12-10T10:43:13.000Z</time>
      </trkpt>
      <trkpt lat="46.07819" lon="6.11365">
        <ele>1086.4000244141</ele>
        <time>2012-12-10T10:43:15.000Z</time>
      </trkpt>
      <trkpt lat="46.07822" lon="6.11364">
        <ele>1086.4000244141</ele>
        <time>2012-12-10T10:43:21.000Z</time>
      </trkpt>
      <trkpt lat="46.07825" lon="6.11362">
        <ele>1086.4000244141</ele>
        <time>2012-12-10T10:43:26.000Z</time>
      </trkpt>
      <trkpt lat="46.0783" lon="6.11359">
        <ele>1085.4000244141</ele>
        <time>2012-12-10T10:43:34.000Z</time>
      </trkpt>
      <trkpt lat="46.07831" lon="6.11355">
        <ele>1084.4000244141</ele>
        <time>2012-12-10T10:43:38.000Z</time>
      </trkpt>
      <trkpt lat="46.07831" lon="6.11354">
        <ele>1083.4000244141</ele>
        <time>2012-12-10T10:43:40.000Z</time>
      </trkpt>
      <trkpt lat="46.07834" lon="6.1135">
        <ele>1082.4000244141</ele>
        <time>2012-12-10T10:43:45.000Z</time>
      </trkpt>
      <trkpt lat="46.07834" lon="6.11349">
        <ele>1082.4000244141</ele>
        <time>2012-12-10T10:43:47.000Z</time>
      </trkpt>
      <trkpt lat="46.07836" lon="6.11348">
        <ele>1081.4000244141</ele>
        <time>2012-12-10T10:43:50.000Z</time>
      </trkpt>
      <trkpt lat="46.07838" lon="6.11346">
        <ele>1081.4000244141</ele>
        <time>2012-12-10T10:43:53.000Z</time>
      </trkpt>
      <trkpt lat="46.07839" lon="6.11344">
        <ele>1080</ele>
        <time>2012-12-10T10:43:56.000Z</time>
      </trkpt>
      <trkpt lat="46.0784" lon="6.11342">
        <ele>1079</ele>
        <time>2012-12-10T10:43:59.000Z</time>
      </trkpt>
      <trkpt lat="46.07844" lon="6.11339">
        <ele>1079</ele>
        <time>2012-12-10T10:44:06.000Z</time>
      </trkpt>
      <trkpt lat="46.07844" lon="6.11339">
        <ele>1078</ele>
        <time>2012-12-10T10:44:07.000Z</time>
      </trkpt>
      <trkpt lat="46.07847" lon="6.11337">
        <ele>1078</ele>
        <time>2012-12-10T10:44:12.000Z</time>
      </trkpt>
      <trkpt lat="46.07848" lon="6.11337">
        <ele>1077</ele>
        <time>2012-12-10T10:44:13.000Z</time>
      </trkpt>
      <trkpt lat="46.07851" lon="6.11334">
        <ele>1077</ele>
        <time>2012-12-10T10:44:19.000Z</time>
      </trkpt>
      <trkpt lat="46.07855" lon="6.11333">
        <ele>1077</ele>
        <time>2012-12-10T10:44:25.000Z</time>
      </trkpt>
      <trkpt lat="46.07858" lon="6.11332">
        <ele>1077</ele>
        <time>2012-12-10T10:44:31.000Z</time>
      </trkpt>
      <trkpt lat="46.0786" lon="6.1133">
        <ele>1077</ele>
        <time>2012-12-10T10:44:37.000Z</time>
      </trkpt>
      <trkpt lat="46.07865" lon="6.11326">
        <ele>1077</ele>
        <time>2012-12-10T10:44:43.000Z</time>
      </trkpt>
      <trkpt lat="46.07872" lon="6.11323">
        <ele>1077</ele>
        <time>2012-12-10T10:44:51.000Z</time>
      </trkpt>
      <trkpt lat="46.07873" lon="6.11322">
        <ele>1077</ele>
        <time>2012-12-10T10:44:53.000Z</time>
      </trkpt>
      <trkpt lat="46.07875" lon="6.11319">
        <ele>1076</ele>
        <time>2012-12-10T10:44:57.000Z</time>
      </trkpt>
      <trkpt lat="46.07878" lon="6.11316">
        <ele>1076</ele>
        <time>2012-12-10T10:45:01.000Z</time>
      </trkpt>
      <trkpt lat="46.0788" lon="6.11315">
        <ele>1075</ele>
        <time>2012-12-10T10:45:04.000Z</time>
      </trkpt>
      <trkpt lat="46.0788" lon="6.11314">
        <ele>1075</ele>
        <time>2012-12-10T10:45:05.000Z</time>
      </trkpt>
      <trkpt lat="46.07884" lon="6.11312">
        <ele>1075</ele>
        <time>2012-12-10T10:45:09.000Z</time>
      </trkpt>
      <trkpt lat="46.07885" lon="6.11312">
        <ele>1073.8000488281</ele>
        <time>2012-12-10T10:45:10.000Z</time>
      </trkpt>
      <trkpt lat="46.07885" lon="6.11311">
        <ele>1073.8000488281</ele>
        <time>2012-12-10T10:45:11.000Z</time>
      </trkpt>
      <trkpt lat="46.07886" lon="6.11311">
        <ele>1073.8000488281</ele>
        <time>2012-12-10T10:45:13.000Z</time>
      </trkpt>
      <trkpt lat="46.07887" lon="6.11309">
        <ele>1072.8000488281</ele>
        <time>2012-12-10T10:45:15.000Z</time>
      </trkpt>
      <trkpt lat="46.07889" lon="6.11306">
        <ele>1071.8000488281</ele>
        <time>2012-12-10T10:45:20.000Z</time>
      </trkpt>
      <trkpt lat="46.07891" lon="6.11305">
        <ele>1071.8000488281</ele>
        <time>2012-12-10T10:45:23.000Z</time>
      </trkpt>
      <trkpt lat="46.07893" lon="6.11303">
        <ele>1070.8000488281</ele>
        <time>2012-12-10T10:45:26.000Z</time>
      </trkpt>
      <trkpt lat="46.07896" lon="6.11301">
        <ele>1069.8000488281</ele>
        <time>2012-12-10T10:45:31.000Z</time>
      </trkpt>
      <trkpt lat="46.079" lon="6.11299">
        <ele>1068.8000488281</ele>
        <time>2012-12-10T10:45:36.000Z</time>
      </trkpt>
      <trkpt lat="46.07902" lon="6.11297">
        <ele>1068.8000488281</ele>
        <time>2012-12-10T10:45:39.000Z</time>
      </trkpt>
      <trkpt lat="46.07903" lon="6.11296">
        <ele>1067.8000488281</ele>
        <time>2012-12-10T10:45:40.000Z</time>
      </trkpt>
      <trkpt lat="46.07907" lon="6.11296">
        <ele>1067.8000488281</ele>
        <time>2012-12-10T10:45:45.000Z</time>
      </trkpt>
      <trkpt lat="46.07907" lon="6.11295">
        <ele>1066.4000244141</ele>
        <time>2012-12-10T10:45:47.000Z</time>
      </trkpt>
      <trkpt lat="46.07908" lon="6.11294">
        <ele>1066.4000244141</ele>
        <time>2012-12-10T10:45:50.000Z</time>
      </trkpt>
      <trkpt lat="46.07909" lon="6.11292">
        <ele>1065.4000244141</ele>
        <time>2012-12-10T10:45:52.000Z</time>
      </trkpt>
      <trkpt lat="46.07908" lon="6.11291">
        <ele>1065.4000244141</ele>
        <time>2012-12-10T10:45:55.000Z</time>
      </trkpt>
      <trkpt lat="46.07907" lon="6.1129">
        <ele>1064.4000244141</ele>
        <time>2012-12-10T10:45:57.000Z</time>
      </trkpt>
      <trkpt lat="46.07902" lon="6.11288">
        <ele>1064.4000244141</ele>
        <time>2012-12-10T10:46:03.000Z</time>
      </trkpt>
      <trkpt lat="46.07901" lon="6.11288">
        <ele>1063.4000244141</ele>
        <time>2012-12-10T10:46:04.000Z</time>
      </trkpt>
      <trkpt lat="46.07899" lon="6.11287">
        <ele>1063.4000244141</ele>
        <time>2012-12-10T10:46:07.000Z</time>
      </trkpt>
      <trkpt lat="46.07899" lon="6.11287">
        <ele>1062.4000244141</ele>
        <time>2012-12-10T10:46:08.000Z</time>
      </trkpt>
      <trkpt lat="46.07896" lon="6.11285">
        <ele>1061</ele>
        <time>2012-12-10T10:46:13.000Z</time>
      </trkpt>
      <trkpt lat="46.07895" lon="6.11283">
        <ele>1061</ele>
        <time>2012-12-10T10:46:15.000Z</time>
      </trkpt>
      <trkpt lat="46.07894" lon="6.11283">
        <ele>1060</ele>
        <time>2012-12-10T10:46:16.000Z</time>
      </trkpt>
      <trkpt lat="46.07891" lon="6.11282">
        <ele>1059</ele>
        <time>2012-12-10T10:46:21.000Z</time>
      </trkpt>
      <trkpt lat="46.07891" lon="6.11283">
        <ele>1059</ele>
        <time>2012-12-10T10:46:26.000Z</time>
      </trkpt>
      <trkpt lat="46.07886" lon="6.11282">
        <ele>1059</ele>
        <time>2012-12-10T10:46:31.000Z</time>
      </trkpt>
      <trkpt lat="46.07885" lon="6.11281">
        <ele>1058</ele>
        <time>2012-12-10T10:46:32.000Z</time>
      </trkpt>
      <trkpt lat="46.07882" lon="6.11281">
        <ele>1057</ele>
        <time>2012-12-10T10:46:36.000Z</time>
      </trkpt>
      <trkpt lat="46.07881" lon="6.11281">
        <ele>1057</ele>
        <time>2012-12-10T10:46:38.000Z</time>
      </trkpt>
      <trkpt lat="46.07879" lon="6.11281">
        <ele>1057</ele>
        <time>2012-12-10T10:46:40.000Z</time>
      </trkpt>
      <trkpt lat="46.07878" lon="6.11281">
        <ele>1056</ele>
        <time>2012-12-10T10:46:41.000Z</time>
      </trkpt>
      <trkpt lat="46.07876" lon="6.1128">
        <ele>1056</ele>
        <time>2012-12-10T10:46:44.000Z</time>
      </trkpt>
      <trkpt lat="46.07875" lon="6.1128">
        <ele>1055</ele>
        <time>2012-12-10T10:46:46.000Z</time>
      </trkpt>
      <trkpt lat="46.07873" lon="6.11279">
        <ele>1053.8000488281</ele>
        <time>2012-12-10T10:46:48.000Z</time>
      </trkpt>
      <trkpt lat="46.07871" lon="6.11278">
        <ele>1053.8000488281</ele>
        <time>2012-12-10T10:46:50.000Z</time>
      </trkpt>
      <trkpt lat="46.07869" lon="6.11278">
        <ele>1052.8000488281</ele>
        <time>2012-12-10T10:46:53.000Z</time>
      </trkpt>
      <trkpt lat="46.07866" lon="6.11278">
        <ele>1052.8000488281</ele>
        <time>2012-12-10T10:46:56.000Z</time>
      </trkpt>
      <trkpt lat="46.07863" lon="6.11279">
        <ele>1052.8000488281</ele>
        <time>2012-12-10T10:47:00.000Z</time>
      </trkpt>
      <trkpt lat="46.07862" lon="6.11279">
        <ele>1052.8000488281</ele>
        <time>2012-12-10T10:47:01.000Z</time>
      </trkpt>
      <trkpt lat="46.0786" lon="6.1128">
        <ele>1052.8000488281</ele>
        <time>2012-12-10T10:47:05.000Z</time>
      </trkpt>
      <trkpt lat="46.07859" lon="6.1128">
        <ele>1051.4000244141</ele>
        <time>2012-12-10T10:47:06.000Z</time>
      </trkpt>
      <trkpt lat="46.07857" lon="6.11279">
        <ele>1051.4000244141</ele>
        <time>2012-12-10T10:47:08.000Z</time>
      </trkpt>
      <trkpt lat="46.07854" lon="6.11279">
        <ele>1050.4000244141</ele>
        <time>2012-12-10T10:47:11.000Z</time>
      </trkpt>
      <trkpt lat="46.07852" lon="6.11279">
        <ele>1050.4000244141</ele>
        <time>2012-12-10T10:47:13.000Z</time>
      </trkpt>
      <trkpt lat="46.07849" lon="6.11281">
        <ele>1050.4000244141</ele>
        <time>2012-12-10T10:47:17.000Z</time>
      </trkpt>
      <trkpt lat="46.07847" lon="6.11282">
        <ele>1050.4000244141</ele>
        <time>2012-12-10T10:47:20.000Z</time>
      </trkpt>
      <trkpt lat="46.07846" lon="6.11282">
        <ele>1049.4000244141</ele>
        <time>2012-12-10T10:47:21.000Z</time>
      </trkpt>
      <trkpt lat="46.07842" lon="6.11282">
        <ele>1049.4000244141</ele>
        <time>2012-12-10T10:47:26.000Z</time>
      </trkpt>
      <trkpt lat="46.07841" lon="6.11282">
        <ele>1048.4000244141</ele>
        <time>2012-12-10T10:47:27.000Z</time>
      </trkpt>
      <trkpt lat="46.07839" lon="6.11282">
        <ele>1048.4000244141</ele>
        <time>2012-12-10T10:47:29.000Z</time>
      </trkpt>
      <trkpt lat="46.07837" lon="6.11284">
        <ele>1048.4000244141</ele>
        <time>2012-12-10T10:47:32.000Z</time>
      </trkpt>
      <trkpt lat="46.07836" lon="6.11284">
        <ele>1047</ele>
        <time>2012-12-10T10:47:33.000Z</time>
      </trkpt>
      <trkpt lat="46.07832" lon="6.11285">
        <ele>1047</ele>
        <time>2012-12-10T10:47:37.000Z</time>
      </trkpt>
      <trkpt lat="46.07831" lon="6.11285">
        <ele>1046</ele>
        <time>2012-12-10T10:47:39.000Z</time>
      </trkpt>
      <trkpt lat="46.0783" lon="6.11285">
        <ele>1046</ele>
        <time>2012-12-10T10:47:40.000Z</time>
      </trkpt>
      <trkpt lat="46.07826" lon="6.11287">
        <ele>1045</ele>
        <time>2012-12-10T10:47:44.000Z</time>
      </trkpt>
      <trkpt lat="46.07821" lon="6.11288">
        <ele>1044</ele>
        <time>2012-12-10T10:47:50.000Z</time>
      </trkpt>
      <trkpt lat="46.07821" lon="6.11288">
        <ele>1044</ele>
        <time>2012-12-10T10:47:51.000Z</time>
      </trkpt>
      <trkpt lat="46.07817" lon="6.11288">
        <ele>1043</ele>
        <time>2012-12-10T10:47:55.000Z</time>
      </trkpt>
      <trkpt lat="46.07815" lon="6.1129">
        <ele>1042</ele>
        <time>2012-12-10T10:47:59.000Z</time>
      </trkpt>
      <trkpt lat="46.07815" lon="6.1129">
        <ele>1042</ele>
        <time>2012-12-10T10:48:00.000Z</time>
      </trkpt>
      <trkpt lat="46.07811" lon="6.1129">
        <ele>1042</ele>
        <time>2012-12-10T10:48:05.000Z</time>
      </trkpt>
      <trkpt lat="46.07806" lon="6.11295">
        <ele>1040.8000488281</ele>
        <time>2012-12-10T10:48:12.000Z</time>
      </trkpt>
      <trkpt lat="46.07804" lon="6.11295">
        <ele>1039.8000488281</ele>
        <time>2012-12-10T10:48:17.000Z</time>
      </trkpt>
      <trkpt lat="46.07803" lon="6.11295">
        <ele>1039.8000488281</ele>
        <time>2012-12-10T10:48:18.000Z</time>
      </trkpt>
      <trkpt lat="46.07798" lon="6.11297">
        <ele>1038.8000488281</ele>
        <time>2012-12-10T10:48:26.000Z</time>
      </trkpt>
      <trkpt lat="46.07794" lon="6.11298">
        <ele>1038.8000488281</ele>
        <time>2012-12-10T10:48:32.000Z</time>
      </trkpt>
      <trkpt lat="46.07793" lon="6.11298">
        <ele>1037.8000488281</ele>
        <time>2012-12-10T10:48:33.000Z</time>
      </trkpt>
      <trkpt lat="46.0779" lon="6.113">
        <ele>1037.8000488281</ele>
        <time>2012-12-10T10:48:38.000Z</time>
      </trkpt>
      <trkpt lat="46.0779" lon="6.11301">
        <ele>1036.8000488281</ele>
        <time>2012-12-10T10:48:39.000Z</time>
      </trkpt>
      <trkpt lat="46.07788" lon="6.11301">
        <ele>1035.8000488281</ele>
        <time>2012-12-10T10:48:42.000Z</time>
      </trkpt>
      <trkpt lat="46.07785" lon="6.11301">
        <ele>1035.8000488281</ele>
        <time>2012-12-10T10:48:46.000Z</time>
      </trkpt>
      <trkpt lat="46.07781" lon="6.11302">
        <ele>1034.4000244141</ele>
        <time>2012-12-10T10:48:52.000Z</time>
      </trkpt>
      <trkpt lat="46.07775" lon="6.11304">
        <ele>1034.4000244141</ele>
        <time>2012-12-10T10:48:59.000Z</time>
      </trkpt>
      <trkpt lat="46.07774" lon="6.11305">
        <ele>1033.4000244141</ele>
        <time>2012-12-10T10:49:01.000Z</time>
      </trkpt>
      <trkpt lat="46.07772" lon="6.11307">
        <ele>1033.4000244141</ele>
        <time>2012-12-10T10:49:04.000Z</time>
      </trkpt>
      <trkpt lat="46.0777" lon="6.11308">
        <ele>1032.4000244141</ele>
        <time>2012-12-10T10:49:06.000Z</time>
      </trkpt>
      <trkpt lat="46.07769" lon="6.11308">
        <ele>1032.4000244141</ele>
        <time>2012-12-10T10:49:07.000Z</time>
      </trkpt>
      <trkpt lat="46.07767" lon="6.11307">
        <ele>1032.4000244141</ele>
        <time>2012-12-10T10:49:09.000Z</time>
      </trkpt>
      <trkpt lat="46.07766" lon="6.11307">
        <ele>1031.4000244141</ele>
        <time>2012-12-10T10:49:10.000Z</time>
      </trkpt>
      <trkpt lat="46.07762" lon="6.11308">
        <ele>1031.4000244141</ele>
        <time>2012-12-10T10:49:15.000Z</time>
      </trkpt>
      <trkpt lat="46.07761" lon="6.11309">
        <ele>1031.4000244141</ele>
        <time>2012-12-10T10:49:17.000Z</time>
      </trkpt>
      <trkpt lat="46.0776" lon="6.11309">
        <ele>1030</ele>
        <time>2012-12-10T10:49:18.000Z</time>
      </trkpt>
      <trkpt lat="46.07758" lon="6.1131">
        <ele>1029</ele>
        <time>2012-12-10T10:49:21.000Z</time>
      </trkpt>
      <trkpt lat="46.07758" lon="6.11311">
        <ele>1029</ele>
        <time>2012-12-10T10:49:22.000Z</time>
      </trkpt>
      <trkpt lat="46.07754" lon="6.11314">
        <ele>1028</ele>
        <time>2012-12-10T10:49:27.000Z</time>
      </trkpt>
      <trkpt lat="46.07752" lon="6.11315">
        <ele>1028</ele>
        <time>2012-12-10T10:49:30.000Z</time>
      </trkpt>
      <trkpt lat="46.0775" lon="6.11316">
        <ele>1027</ele>
        <time>2012-12-10T10:49:33.000Z</time>
      </trkpt>
      <trkpt lat="46.07748" lon="6.11319">
        <ele>1027</ele>
        <time>2012-12-10T10:49:37.000Z</time>
      </trkpt>
      <trkpt lat="46.07744" lon="6.1132">
        <ele>1026</ele>
        <time>2012-12-10T10:49:42.000Z</time>
      </trkpt>
      <trkpt lat="46.07742" lon="6.11321">
        <ele>1026</ele>
        <time>2012-12-10T10:49:49.000Z</time>
      </trkpt>
      <trkpt lat="46.07739" lon="6.11321">
        <ele>1025</ele>
        <time>2012-12-10T10:49:57.000Z</time>
      </trkpt>
      <trkpt lat="46.07735" lon="6.11323">
        <ele>1025</ele>
        <time>2012-12-10T10:50:02.000Z</time>
      </trkpt>
      <trkpt lat="46.07734" lon="6.11324">
        <ele>1024</ele>
        <time>2012-12-10T10:50:06.000Z</time>
      </trkpt>
      <trkpt lat="46.07734" lon="6.11323">
        <ele>1024</ele>
        <time>2012-12-10T10:50:08.000Z</time>
      </trkpt>
      <trkpt lat="46.07733" lon="6.11322">
        <ele>1022.5999755859</ele>
        <time>2012-12-10T10:50:09.000Z</time>
      </trkpt>
      <trkpt lat="46.07733" lon="6.11318">
        <ele>1021.4000244141</ele>
        <time>2012-12-10T10:50:13.000Z</time>
      </trkpt>
      <trkpt lat="46.07734" lon="6.11315">
        <ele>1021.4000244141</ele>
        <time>2012-12-10T10:50:16.000Z</time>
      </trkpt>
      <trkpt lat="46.07735" lon="6.11313">
        <ele>1020.4000244141</ele>
        <time>2012-12-10T10:50:20.000Z</time>
      </trkpt>
      <trkpt lat="46.07734" lon="6.11313">
        <ele>1020.4000244141</ele>
        <time>2012-12-10T10:50:21.000Z</time>
      </trkpt>
      <trkpt lat="46.07735" lon="6.11309">
        <ele>1020.4000244141</ele>
        <time>2012-12-10T10:50:26.000Z</time>
      </trkpt>
      <trkpt lat="46.07735" lon="6.11309">
        <ele>1019.4000244141</ele>
        <time>2012-12-10T10:50:27.000Z</time>
      </trkpt>
      <trkpt lat="46.07735" lon="6.11305">
        <ele>1018.4000244141</ele>
        <time>2012-12-10T10:50:32.000Z</time>
      </trkpt>
      <trkpt lat="46.07735" lon="6.11304">
        <ele>1018.4000244141</ele>
        <time>2012-12-10T10:50:33.000Z</time>
      </trkpt>
      <trkpt lat="46.07736" lon="6.11303">
        <ele>1017.4000244141</ele>
        <time>2012-12-10T10:50:35.000Z</time>
      </trkpt>
      <trkpt lat="46.07737" lon="6.11301">
        <ele>1016.200012207</ele>
        <time>2012-12-10T10:50:39.000Z</time>
      </trkpt>
      <trkpt lat="46.07737" lon="6.113">
        <ele>1016.200012207</ele>
        <time>2012-12-10T10:50:40.000Z</time>
      </trkpt>
      <trkpt lat="46.07738" lon="6.113">
        <ele>1016.200012207</ele>
        <time>2012-12-10T10:50:41.000Z</time>
      </trkpt>
      <trkpt lat="46.07739" lon="6.11298">
        <ele>1015.200012207</ele>
        <time>2012-12-10T10:50:45.000Z</time>
      </trkpt>
      <trkpt lat="46.07739" lon="6.11297">
        <ele>1015.200012207</ele>
        <time>2012-12-10T10:50:46.000Z</time>
      </trkpt>
      <trkpt lat="46.07741" lon="6.11294">
        <ele>1014.200012207</ele>
        <time>2012-12-10T10:50:51.000Z</time>
      </trkpt>
      <trkpt lat="46.07742" lon="6.11293">
        <ele>1014.200012207</ele>
        <time>2012-12-10T10:50:53.000Z</time>
      </trkpt>
      <trkpt lat="46.07743" lon="6.11292">
        <ele>1013.200012207</ele>
        <time>2012-12-10T10:50:55.000Z</time>
      </trkpt>
      <trkpt lat="46.07744" lon="6.11292">
        <ele>1013.200012207</ele>
        <time>2012-12-10T10:50:58.000Z</time>
      </trkpt>
      <trkpt lat="46.07744" lon="6.11292">
        <ele>1012</ele>
        <time>2012-12-10T10:51:01.000Z</time>
      </trkpt>
      <trkpt lat="46.07744" lon="6.11292">
        <ele>1012</ele>
        <time>2012-12-10T10:51:04.000Z</time>
      </trkpt>
      <trkpt lat="46.07743" lon="6.1129">
        <ele>1011</ele>
        <time>2012-12-10T10:51:06.000Z</time>
      </trkpt>
      <trkpt lat="46.07742" lon="6.11289">
        <ele>1010</ele>
        <time>2012-12-10T10:51:10.000Z</time>
      </trkpt>
      <trkpt lat="46.07741" lon="6.11287">
        <ele>1009</ele>
        <time>2012-12-10T10:51:14.000Z</time>
      </trkpt>
      <trkpt lat="46.07741" lon="6.11287">
        <ele>1009</ele>
        <time>2012-12-10T10:51:15.000Z</time>
      </trkpt>
      <trkpt lat="46.07742" lon="6.11285">
        <ele>1007.5999755859</ele>
        <time>2012-12-10T10:51:18.000Z</time>
      </trkpt>
      <trkpt lat="46.07742" lon="6.11286">
        <ele>1007.5999755859</ele>
        <time>2012-12-10T10:51:20.000Z</time>
      </trkpt>
      <trkpt lat="46.07743" lon="6.11283">
        <ele>1006.5999755859</ele>
        <time>2012-12-10T10:51:23.000Z</time>
      </trkpt>
      <trkpt lat="46.07744" lon="6.11282">
        <ele>1006.5999755859</ele>
        <time>2012-12-10T10:51:25.000Z</time>
      </trkpt>
      <trkpt lat="46.07745" lon="6.11282">
        <ele>1005.5999755859</ele>
        <time>2012-12-10T10:51:27.000Z</time>
      </trkpt>
      <trkpt lat="46.07746" lon="6.11281">
        <ele>1004.5999755859</ele>
        <time>2012-12-10T10:51:30.000Z</time>
      </trkpt>
      <trkpt lat="46.07747" lon="6.11281">
        <ele>1004.5999755859</ele>
        <time>2012-12-10T10:51:31.000Z</time>
      </trkpt>
      <trkpt lat="46.07749" lon="6.11279">
        <ele>1003.4000244141</ele>
        <time>2012-12-10T10:51:35.000Z</time>
      </trkpt>
      <trkpt lat="46.0775" lon="6.11278">
        <ele>1003.4000244141</ele>
        <time>2012-12-10T10:51:37.000Z</time>
      </trkpt>
      <trkpt lat="46.0775" lon="6.11277">
        <ele>1002.4000244141</ele>
        <time>2012-12-10T10:51:39.000Z</time>
      </trkpt>
      <trkpt lat="46.0775" lon="6.11276">
        <ele>1001.4000244141</ele>
        <time>2012-12-10T10:51:43.000Z</time>
      </trkpt>
      <trkpt lat="46.0775" lon="6.11277">
        <ele>1001.4000244141</ele>
        <time>2012-12-10T10:51:44.000Z</time>
      </trkpt>
      <trkpt lat="46.07749" lon="6.11274">
        <ele>1000.4000244141</ele>
        <time>2012-12-10T10:51:48.000Z</time>
      </trkpt>
      <trkpt lat="46.07748" lon="6.11273">
        <ele>1000.4000244141</ele>
        <time>2012-12-10T10:51:51.000Z</time>
      </trkpt>
      <trkpt lat="46.07748" lon="6.11275">
        <ele>999.40002441406</ele>
        <time>2012-12-10T10:51:52.000Z</time>
      </trkpt>
      <trkpt lat="46.07746" lon="6.11274">
        <ele>998.40002441406</ele>
        <time>2012-12-10T10:51:57.000Z</time>
      </trkpt>
      <trkpt lat="46.07744" lon="6.11276">
        <ele>997.20001220703</ele>
        <time>2012-12-10T10:52:01.000Z</time>
      </trkpt>
      <trkpt lat="46.07743" lon="6.11276">
        <ele>997.20001220703</ele>
        <time>2012-12-10T10:52:03.000Z</time>
      </trkpt>
      <trkpt lat="46.0774" lon="6.11275">
        <ele>996.20001220703</ele>
        <time>2012-12-10T10:52:06.000Z</time>
      </trkpt>
      <trkpt lat="46.07738" lon="6.11276">
        <ele>996.20001220703</ele>
        <time>2012-12-10T10:52:08.000Z</time>
      </trkpt>
      <trkpt lat="46.07737" lon="6.11275">
        <ele>995.20001220703</ele>
        <time>2012-12-10T10:52:10.000Z</time>
      </trkpt>
      <trkpt lat="46.07735" lon="6.11274">
        <ele>995.20001220703</ele>
        <time>2012-12-10T10:52:13.000Z</time>
      </trkpt>
      <trkpt lat="46.07734" lon="6.11273">
        <ele>994.20001220703</ele>
        <time>2012-12-10T10:52:14.000Z</time>
      </trkpt>
      <trkpt lat="46.07733" lon="6.11271">
        <ele>993</ele>
        <time>2012-12-10T10:52:17.000Z</time>
      </trkpt>
      <trkpt lat="46.07733" lon="6.11267">
        <ele>993</ele>
        <time>2012-12-10T10:52:20.000Z</time>
      </trkpt>
      <trkpt lat="46.07734" lon="6.11266">
        <ele>992</ele>
        <time>2012-12-10T10:52:21.000Z</time>
      </trkpt>
      <trkpt lat="46.07735" lon="6.11263">
        <ele>991</ele>
        <time>2012-12-10T10:52:25.000Z</time>
      </trkpt>
      <trkpt lat="46.07735" lon="6.11263">
        <ele>991</ele>
        <time>2012-12-10T10:52:26.000Z</time>
      </trkpt>
      <trkpt lat="46.07736" lon="6.11261">
        <ele>990</ele>
        <time>2012-12-10T10:52:29.000Z</time>
      </trkpt>
      <trkpt lat="46.07736" lon="6.11259">
        <ele>988.59997558594</ele>
        <time>2012-12-10T10:52:32.000Z</time>
      </trkpt>
      <trkpt lat="46.07737" lon="6.11256">
        <ele>987.59997558594</ele>
        <time>2012-12-10T10:52:36.000Z</time>
      </trkpt>
      <trkpt lat="46.07739" lon="6.11256">
        <ele>987.59997558594</ele>
        <time>2012-12-10T10:52:38.000Z</time>
      </trkpt>
      <trkpt lat="46.0774" lon="6.11255">
        <ele>986.59997558594</ele>
        <time>2012-12-10T10:52:41.000Z</time>
      </trkpt>
      <trkpt lat="46.07742" lon="6.11254">
        <ele>986.59997558594</ele>
        <time>2012-12-10T10:52:44.000Z</time>
      </trkpt>
      <trkpt lat="46.07743" lon="6.11254">
        <ele>985.59997558594</ele>
        <time>2012-12-10T10:52:45.000Z</time>
      </trkpt>
      <trkpt lat="46.07745" lon="6.11253">
        <ele>984.40002441406</ele>
        <time>2012-12-10T10:52:50.000Z</time>
      </trkpt>
      <trkpt lat="46.07745" lon="6.11253">
        <ele>984.40002441406</ele>
        <time>2012-12-10T10:52:51.000Z</time>
      </trkpt>
      <trkpt lat="46.07745" lon="6.11251">
        <ele>983.40002441406</ele>
        <time>2012-12-10T10:52:55.000Z</time>
      </trkpt>
      <trkpt lat="46.07745" lon="6.11249">
        <ele>983.40002441406</ele>
        <time>2012-12-10T10:52:57.000Z</time>
      </trkpt>
      <trkpt lat="46.07744" lon="6.11248">
        <ele>982.40002441406</ele>
        <time>2012-12-10T10:52:59.000Z</time>
      </trkpt>
      <trkpt lat="46.07743" lon="6.11247">
        <ele>981.40002441406</ele>
        <time>2012-12-10T10:53:02.000Z</time>
      </trkpt>
      <trkpt lat="46.07743" lon="6.11247">
        <ele>981.40002441406</ele>
        <time>2012-12-10T10:53:04.000Z</time>
      </trkpt>
      <trkpt lat="46.07743" lon="6.11245">
        <ele>980.40002441406</ele>
        <time>2012-12-10T10:53:06.000Z</time>
      </trkpt>
      <trkpt lat="46.07742" lon="6.11244">
        <ele>980.40002441406</ele>
        <time>2012-12-10T10:53:09.000Z</time>
      </trkpt>
      <trkpt lat="46.07742" lon="6.11244">
        <ele>979.40002441406</ele>
        <time>2012-12-10T10:53:10.000Z</time>
      </trkpt>
      <trkpt lat="46.0774" lon="6.11241">
        <ele>978.20001220703</ele>
        <time>2012-12-10T10:53:13.000Z</time>
      </trkpt>
      <trkpt lat="46.07739" lon="6.1124">
        <ele>978.20001220703</ele>
        <time>2012-12-10T10:53:15.000Z</time>
      </trkpt>
      <trkpt lat="46.07737" lon="6.11238">
        <ele>977</ele>
        <time>2012-12-10T10:53:18.000Z</time>
      </trkpt>
      <trkpt lat="46.07735" lon="6.11234">
        <ele>975.59997558594</ele>
        <time>2012-12-10T10:53:22.000Z</time>
      </trkpt>
      <trkpt lat="46.07735" lon="6.11234">
        <ele>975.59997558594</ele>
        <time>2012-12-10T10:53:23.000Z</time>
      </trkpt>
      <trkpt lat="46.07734" lon="6.11232">
        <ele>974.59997558594</ele>
        <time>2012-12-10T10:53:25.000Z</time>
      </trkpt>
      <trkpt lat="46.07732" lon="6.11229">
        <ele>973.59997558594</ele>
        <time>2012-12-10T10:53:29.000Z</time>
      </trkpt>
      <trkpt lat="46.07731" lon="6.11225">
        <ele>972.40002441406</ele>
        <time>2012-12-10T10:53:33.000Z</time>
      </trkpt>
      <trkpt lat="46.07731" lon="6.11222">
        <ele>972.40002441406</ele>
        <time>2012-12-10T10:53:35.000Z</time>
      </trkpt>
      <trkpt lat="46.07731" lon="6.11221">
        <ele>971.40002441406</ele>
        <time>2012-12-10T10:53:36.000Z</time>
      </trkpt>
      <trkpt lat="46.07731" lon="6.11218">
        <ele>970.40002441406</ele>
        <time>2012-12-10T10:53:39.000Z</time>
      </trkpt>
      <trkpt lat="46.0773" lon="6.11215">
        <ele>969.40002441406</ele>
        <time>2012-12-10T10:53:43.000Z</time>
      </trkpt>
      <trkpt lat="46.0773" lon="6.1121">
        <ele>968.40002441406</ele>
        <time>2012-12-10T10:53:47.000Z</time>
      </trkpt>
      <trkpt lat="46.0773" lon="6.1121">
        <ele>968.40002441406</ele>
        <time>2012-12-10T10:53:48.000Z</time>
      </trkpt>
      <trkpt lat="46.07732" lon="6.1121">
        <ele>967.40002441406</ele>
        <time>2012-12-10T10:53:52.000Z</time>
      </trkpt>
      <trkpt lat="46.07733" lon="6.1121">
        <ele>967.40002441406</ele>
        <time>2012-12-10T10:53:54.000Z</time>
      </trkpt>
      <trkpt lat="46.07734" lon="6.1121">
        <ele>966.40002441406</ele>
        <time>2012-12-10T10:53:56.000Z</time>
      </trkpt>
      <trkpt lat="46.07736" lon="6.1121">
        <ele>965.40002441406</ele>
        <time>2012-12-10T10:54:00.000Z</time>
      </trkpt>
      <trkpt lat="46.07738" lon="6.1121">
        <ele>964.40002441406</ele>
        <time>2012-12-10T10:54:03.000Z</time>
      </trkpt>
      <trkpt lat="46.0774" lon="6.1121">
        <ele>964.40002441406</ele>
        <time>2012-12-10T10:54:06.000Z</time>
      </trkpt>
      <trkpt lat="46.0774" lon="6.1121">
        <ele>963.20001220703</ele>
        <time>2012-12-10T10:54:07.000Z</time>
      </trkpt>
      <trkpt lat="46.07742" lon="6.11208">
        <ele>962.20001220703</ele>
        <time>2012-12-10T10:54:11.000Z</time>
      </trkpt>
      <trkpt lat="46.07745" lon="6.11208">
        <ele>961.20001220703</ele>
        <time>2012-12-10T10:54:14.000Z</time>
      </trkpt>
      <trkpt lat="46.07747" lon="6.11207">
        <ele>960</ele>
        <time>2012-12-10T10:54:18.000Z</time>
      </trkpt>
      <trkpt lat="46.07749" lon="6.11206">
        <ele>960</ele>
        <time>2012-12-10T10:54:22.000Z</time>
      </trkpt>
      <trkpt lat="46.0775" lon="6.11206">
        <ele>959</ele>
        <time>2012-12-10T10:54:23.000Z</time>
      </trkpt>
      <trkpt lat="46.07751" lon="6.11206">
        <ele>959</ele>
        <time>2012-12-10T10:54:27.000Z</time>
      </trkpt>
      <trkpt lat="46.0775" lon="6.11208">
        <ele>958</ele>
        <time>2012-12-10T10:54:28.000Z</time>
      </trkpt>
      <trkpt lat="46.07753" lon="6.11204">
        <ele>957</ele>
        <time>2012-12-10T10:54:33.000Z</time>
      </trkpt>
      <trkpt lat="46.07753" lon="6.11201">
        <ele>956</ele>
        <time>2012-12-10T10:54:38.000Z</time>
      </trkpt>
      <trkpt lat="46.07752" lon="6.11199">
        <ele>954.59997558594</ele>
        <time>2012-12-10T10:54:40.000Z</time>
      </trkpt>
      <trkpt lat="46.07751" lon="6.11195">
        <ele>953.59997558594</ele>
        <time>2012-12-10T10:54:45.000Z</time>
      </trkpt>
      <trkpt lat="46.07749" lon="6.11191">
        <ele>952.40002441406</ele>
        <time>2012-12-10T10:54:49.000Z</time>
      </trkpt>
      <trkpt lat="46.07749" lon="6.11191">
        <ele>952.40002441406</ele>
        <time>2012-12-10T10:54:50.000Z</time>
      </trkpt>
      <trkpt lat="46.07747" lon="6.1119">
        <ele>951.40002441406</ele>
        <time>2012-12-10T10:54:54.000Z</time>
      </trkpt>
      <trkpt lat="46.07746" lon="6.1119">
        <ele>951.40002441406</ele>
        <time>2012-12-10T10:54:57.000Z</time>
      </trkpt>
      <trkpt lat="46.07745" lon="6.1119">
        <ele>950.40002441406</ele>
        <time>2012-12-10T10:54:59.000Z</time>
      </trkpt>
      <trkpt lat="46.07744" lon="6.11189">
        <ele>949.40002441406</ele>
        <time>2012-12-10T10:55:03.000Z</time>
      </trkpt>
      <trkpt lat="46.07743" lon="6.11187">
        <ele>949.40002441406</ele>
        <time>2012-12-10T10:55:04.000Z</time>
      </trkpt>
      <trkpt lat="46.07742" lon="6.11186">
        <ele>948.40002441406</ele>
        <time>2012-12-10T10:55:07.000Z</time>
      </trkpt>
      <trkpt lat="46.0774" lon="6.11184">
        <ele>948.40002441406</ele>
        <time>2012-12-10T10:55:10.000Z</time>
      </trkpt>
      <trkpt lat="46.0774" lon="6.11184">
        <ele>947.40002441406</ele>
        <time>2012-12-10T10:55:11.000Z</time>
      </trkpt>
      <trkpt lat="46.07738" lon="6.11181">
        <ele>946</ele>
        <time>2012-12-10T10:55:15.000Z</time>
      </trkpt>
      <trkpt lat="46.07738" lon="6.1118">
        <ele>946</ele>
        <time>2012-12-10T10:55:16.000Z</time>
      </trkpt>
      <trkpt lat="46.07737" lon="6.11177">
        <ele>946</ele>
        <time>2012-12-10T10:55:21.000Z</time>
      </trkpt>
      <trkpt lat="46.07737" lon="6.11177">
        <ele>945</ele>
        <time>2012-12-10T10:55:22.000Z</time>
      </trkpt>
      <trkpt lat="46.07736" lon="6.11176">
        <ele>943.59997558594</ele>
        <time>2012-12-10T10:55:25.000Z</time>
      </trkpt>
      <trkpt lat="46.07735" lon="6.11172">
        <ele>942.59997558594</ele>
        <time>2012-12-10T10:55:29.000Z</time>
      </trkpt>
      <trkpt lat="46.07732" lon="6.1117">
        <ele>941.59997558594</ele>
        <time>2012-12-10T10:55:33.000Z</time>
      </trkpt>
      <trkpt lat="46.07731" lon="6.11169">
        <ele>941.59997558594</ele>
        <time>2012-12-10T10:55:35.000Z</time>
      </trkpt>
      <trkpt lat="46.0773" lon="6.11169">
        <ele>940.40002441406</ele>
        <time>2012-12-10T10:55:36.000Z</time>
      </trkpt>
      <trkpt lat="46.07729" lon="6.11167">
        <ele>939.40002441406</ele>
        <time>2012-12-10T10:55:39.000Z</time>
      </trkpt>
      <trkpt lat="46.07728" lon="6.11167">
        <ele>939.40002441406</ele>
        <time>2012-12-10T10:55:41.000Z</time>
      </trkpt>
      <trkpt lat="46.07727" lon="6.11166">
        <ele>938.40002441406</ele>
        <time>2012-12-10T10:55:43.000Z</time>
      </trkpt>
      <trkpt lat="46.07724" lon="6.11164">
        <ele>937.40002441406</ele>
        <time>2012-12-10T10:55:47.000Z</time>
      </trkpt>
      <trkpt lat="46.07723" lon="6.11163">
        <ele>937.40002441406</ele>
        <time>2012-12-10T10:55:50.000Z</time>
      </trkpt>
      <trkpt lat="46.07724" lon="6.11163">
        <ele>936.20001220703</ele>
        <time>2012-12-10T10:55:51.000Z</time>
      </trkpt>
      <trkpt lat="46.07721" lon="6.11159">
        <ele>935.20001220703</ele>
        <time>2012-12-10T10:55:55.000Z</time>
      </trkpt>
      <trkpt lat="46.07722" lon="6.11158">
        <ele>935.20001220703</ele>
        <time>2012-12-10T10:55:56.000Z</time>
      </trkpt>
      <trkpt lat="46.07721" lon="6.11155">
        <ele>934.20001220703</ele>
        <time>2012-12-10T10:55:59.000Z</time>
      </trkpt>
      <trkpt lat="46.07722" lon="6.11154">
        <ele>934.20001220703</ele>
        <time>2012-12-10T10:56:01.000Z</time>
      </trkpt>
      <trkpt lat="46.07723" lon="6.11154">
        <ele>933.20001220703</ele>
        <time>2012-12-10T10:56:03.000Z</time>
      </trkpt>
      <trkpt lat="46.07725" lon="6.11151">
        <ele>932.20001220703</ele>
        <time>2012-12-10T10:56:09.000Z</time>
      </trkpt>
      <trkpt lat="46.07726" lon="6.11148">
        <ele>931.20001220703</ele>
        <time>2012-12-10T10:56:12.000Z</time>
      </trkpt>
      <trkpt lat="46.07727" lon="6.11145">
        <ele>930.20001220703</ele>
        <time>2012-12-10T10:56:16.000Z</time>
      </trkpt>
      <trkpt lat="46.07729" lon="6.11142">
        <ele>929</ele>
        <time>2012-12-10T10:56:20.000Z</time>
      </trkpt>
      <trkpt lat="46.07731" lon="6.11141">
        <ele>929</ele>
        <time>2012-12-10T10:56:23.000Z</time>
      </trkpt>
      <trkpt lat="46.07732" lon="6.1114">
        <ele>928</ele>
        <time>2012-12-10T10:56:25.000Z</time>
      </trkpt>
      <trkpt lat="46.07734" lon="6.11138">
        <ele>927</ele>
        <time>2012-12-10T10:56:29.000Z</time>
      </trkpt>
      <trkpt lat="46.07734" lon="6.11138">
        <ele>927</ele>
        <time>2012-12-10T10:56:30.000Z</time>
      </trkpt>
      <trkpt lat="46.07735" lon="6.11137">
        <ele>926</ele>
        <time>2012-12-10T10:56:32.000Z</time>
      </trkpt>
      <trkpt lat="46.07738" lon="6.11137">
        <ele>926</ele>
        <time>2012-12-10T10:56:36.000Z</time>
      </trkpt>
      <trkpt lat="46.07741" lon="6.11135">
        <ele>924.59997558594</ele>
        <time>2012-12-10T10:56:39.000Z</time>
      </trkpt>
      <trkpt lat="46.07744" lon="6.11132">
        <ele>923.59997558594</ele>
        <time>2012-12-10T10:56:43.000Z</time>
      </trkpt>
      <trkpt lat="46.07747" lon="6.11131">
        <ele>922.59997558594</ele>
        <time>2012-12-10T10:56:47.000Z</time>
      </trkpt>
      <trkpt lat="46.07748" lon="6.11131">
        <ele>922.59997558594</ele>
        <time>2012-12-10T10:56:49.000Z</time>
      </trkpt>
      <trkpt lat="46.07749" lon="6.1113">
        <ele>922.59997558594</ele>
        <time>2012-12-10T10:56:50.000Z</time>
      </trkpt>
      <trkpt lat="46.07748" lon="6.11129">
        <ele>921.59997558594</ele>
        <time>2012-12-10T10:56:51.000Z</time>
      </trkpt>
      <trkpt lat="46.07748" lon="6.11127">
        <ele>920.59997558594</ele>
        <time>2012-12-10T10:56:54.000Z</time>
      </trkpt>
      <trkpt lat="46.07747" lon="6.11126">
        <ele>920.59997558594</ele>
        <time>2012-12-10T10:56:55.000Z</time>
      </trkpt>
      <trkpt lat="46.07746" lon="6.11124">
        <ele>919.59997558594</ele>
        <time>2012-12-10T10:56:59.000Z</time>
      </trkpt>
      <trkpt lat="46.07746" lon="6.11122">
        <ele>919.59997558594</ele>
        <time>2012-12-10T10:57:01.000Z</time>
      </trkpt>
      <trkpt lat="46.07745" lon="6.1112">
        <ele>918.40002441406</ele>
        <time>2012-12-10T10:57:03.000Z</time>
      </trkpt>
      <trkpt lat="46.07745" lon="6.11119">
        <ele>917.40002441406</ele>
        <time>2012-12-10T10:57:04.000Z</time>
      </trkpt>
      <trkpt lat="46.07746" lon="6.11117">
        <ele>917.40002441406</ele>
        <time>2012-12-10T10:57:06.000Z</time>
      </trkpt>
      <trkpt lat="46.07748" lon="6.11114">
        <ele>916.40002441406</ele>
        <time>2012-12-10T10:57:10.000Z</time>
      </trkpt>
      <trkpt lat="46.07749" lon="6.11114">
        <ele>916.40002441406</ele>
        <time>2012-12-10T10:57:13.000Z</time>
      </trkpt>
      <trkpt lat="46.0775" lon="6.11114">
        <ele>915.40002441406</ele>
        <time>2012-12-10T10:57:15.000Z</time>
      </trkpt>
      <trkpt lat="46.07752" lon="6.11114">
        <ele>915.40002441406</ele>
        <time>2012-12-10T10:57:18.000Z</time>
      </trkpt>
      <trkpt lat="46.07753" lon="6.11112">
        <ele>914.40002441406</ele>
        <time>2012-12-10T10:57:22.000Z</time>
      </trkpt>
      <trkpt lat="46.07753" lon="6.11109">
        <ele>914.40002441406</ele>
        <time>2012-12-10T10:57:25.000Z</time>
      </trkpt>
      <trkpt lat="46.07753" lon="6.11109">
        <ele>913.40002441406</ele>
        <time>2012-12-10T10:57:26.000Z</time>
      </trkpt>
      <trkpt lat="46.07751" lon="6.11107">
        <ele>912.40002441406</ele>
        <time>2012-12-10T10:57:28.000Z</time>
      </trkpt>
      <trkpt lat="46.07747" lon="6.11104">
        <ele>911.20001220703</ele>
        <time>2012-12-10T10:57:35.000Z</time>
      </trkpt>
      <trkpt lat="46.07745" lon="6.11101">
        <ele>911.20001220703</ele>
        <time>2012-12-10T10:57:39.000Z</time>
      </trkpt>
      <trkpt lat="46.07745" lon="6.11101">
        <ele>910.20001220703</ele>
        <time>2012-12-10T10:57:40.000Z</time>
      </trkpt>
      <trkpt lat="46.07746" lon="6.11098">
        <ele>909.20001220703</ele>
        <time>2012-12-10T10:57:44.000Z</time>
      </trkpt>
      <trkpt lat="46.07746" lon="6.11098">
        <ele>909.20001220703</ele>
        <time>2012-12-10T10:57:45.000Z</time>
      </trkpt>
      <trkpt lat="46.07748" lon="6.11097">
        <ele>908</ele>
        <time>2012-12-10T10:57:49.000Z</time>
      </trkpt>
      <trkpt lat="46.07748" lon="6.11095">
        <ele>908</ele>
        <time>2012-12-10T10:57:50.000Z</time>
      </trkpt>
      <trkpt lat="46.07749" lon="6.11092">
        <ele>907</ele>
        <time>2012-12-10T10:57:53.000Z</time>
      </trkpt>
      <trkpt lat="46.07749" lon="6.11088">
        <ele>907</ele>
        <time>2012-12-10T10:57:56.000Z</time>
      </trkpt>
      <trkpt lat="46.0775" lon="6.11088">
        <ele>905.59997558594</ele>
        <time>2012-12-10T10:57:57.000Z</time>
      </trkpt>
      <trkpt lat="46.07753" lon="6.11086">
        <ele>905.59997558594</ele>
        <time>2012-12-10T10:58:01.000Z</time>
      </trkpt>
      <trkpt lat="46.07753" lon="6.11085">
        <ele>904.59997558594</ele>
        <time>2012-12-10T10:58:02.000Z</time>
      </trkpt>
      <trkpt lat="46.07756" lon="6.11084">
        <ele>904.59997558594</ele>
        <time>2012-12-10T10:58:07.000Z</time>
      </trkpt>
      <trkpt lat="46.07757" lon="6.11083">
        <ele>903.59997558594</ele>
        <time>2012-12-10T10:58:09.000Z</time>
      </trkpt>
      <trkpt lat="46.0776" lon="6.11082">
        <ele>903.59997558594</ele>
        <time>2012-12-10T10:58:12.000Z</time>
      </trkpt>
      <trkpt lat="46.07762" lon="6.11081">
        <ele>902.40002441406</ele>
        <time>2012-12-10T10:58:15.000Z</time>
      </trkpt>
      <trkpt lat="46.07762" lon="6.1108">
        <ele>902.40002441406</ele>
        <time>2012-12-10T10:58:18.000Z</time>
      </trkpt>
      <trkpt lat="46.07761" lon="6.11079">
        <ele>901.40002441406</ele>
        <time>2012-12-10T10:58:20.000Z</time>
      </trkpt>
      <trkpt lat="46.07759" lon="6.11075">
        <ele>900.40002441406</ele>
        <time>2012-12-10T10:58:24.000Z</time>
      </trkpt>
      <trkpt lat="46.07758" lon="6.11074">
        <ele>900.40002441406</ele>
        <time>2012-12-10T10:58:25.000Z</time>
      </trkpt>
      <trkpt lat="46.07758" lon="6.11072">
        <ele>899.20001220703</ele>
        <time>2012-12-10T10:58:28.000Z</time>
      </trkpt>
      <trkpt lat="46.07757" lon="6.1107">
        <ele>899.20001220703</ele>
        <time>2012-12-10T10:58:31.000Z</time>
      </trkpt>
      <trkpt lat="46.07756" lon="6.11067">
        <ele>899.20001220703</ele>
        <time>2012-12-10T10:58:36.000Z</time>
      </trkpt>
      <trkpt lat="46.07755" lon="6.11063">
        <ele>898.20001220703</ele>
        <time>2012-12-10T10:58:41.000Z</time>
      </trkpt>
      <trkpt lat="46.07755" lon="6.11062">
        <ele>898.20001220703</ele>
        <time>2012-12-10T10:58:42.000Z</time>
      </trkpt>
      <trkpt lat="46.07755" lon="6.11058">
        <ele>897</ele>
        <time>2012-12-10T10:58:45.000Z</time>
      </trkpt>
      <trkpt lat="46.07755" lon="6.11057">
        <ele>897</ele>
        <time>2012-12-10T10:58:46.000Z</time>
      </trkpt>
      <trkpt lat="46.07755" lon="6.11056">
        <ele>896</ele>
        <time>2012-12-10T10:58:47.000Z</time>
      </trkpt>
      <trkpt lat="46.07757" lon="6.11053">
        <ele>895</ele>
        <time>2012-12-10T10:58:51.000Z</time>
      </trkpt>
      <trkpt lat="46.07758" lon="6.1105">
        <ele>894</ele>
        <time>2012-12-10T10:58:54.000Z</time>
      </trkpt>
      <trkpt lat="46.07758" lon="6.11049">
        <ele>894</ele>
        <time>2012-12-10T10:58:55.000Z</time>
      </trkpt>
      <trkpt lat="46.07759" lon="6.11047">
        <ele>892.59997558594</ele>
        <time>2012-12-10T10:58:57.000Z</time>
      </trkpt>
      <trkpt lat="46.0776" lon="6.11043">
        <ele>891.59997558594</ele>
        <time>2012-12-10T10:59:00.000Z</time>
      </trkpt>
      <trkpt lat="46.0776" lon="6.11042">
        <ele>891.59997558594</ele>
        <time>2012-12-10T10:59:01.000Z</time>
      </trkpt>
      <trkpt lat="46.0776" lon="6.1104">
        <ele>891.59997558594</ele>
        <time>2012-12-10T10:59:03.000Z</time>
      </trkpt>
      <trkpt lat="46.0776" lon="6.11039">
        <ele>890.59997558594</ele>
        <time>2012-12-10T10:59:04.000Z</time>
      </trkpt>
      <trkpt lat="46.07761" lon="6.11034">
        <ele>889.59997558594</ele>
        <time>2012-12-10T10:59:08.000Z</time>
      </trkpt>
      <trkpt lat="46.07761" lon="6.11033">
        <ele>889.59997558594</ele>
        <time>2012-12-10T10:59:09.000Z</time>
      </trkpt>
      <trkpt lat="46.07762" lon="6.11029">
        <ele>888.40002441406</ele>
        <time>2012-12-10T10:59:12.000Z</time>
      </trkpt>
      <trkpt lat="46.07762" lon="6.11028">
        <ele>888.40002441406</ele>
        <time>2012-12-10T10:59:13.000Z</time>
      </trkpt>
      <trkpt lat="46.07765" lon="6.11024">
        <ele>887.40002441406</ele>
        <time>2012-12-10T10:59:17.000Z</time>
      </trkpt>
      <trkpt lat="46.07767" lon="6.11022">
        <ele>887.40002441406</ele>
        <time>2012-12-10T10:59:19.000Z</time>
      </trkpt>
      <trkpt lat="46.07769" lon="6.1102">
        <ele>886.40002441406</ele>
        <time>2012-12-10T10:59:22.000Z</time>
      </trkpt>
      <trkpt lat="46.07771" lon="6.11019">
        <ele>886.40002441406</ele>
        <time>2012-12-10T10:59:24.000Z</time>
      </trkpt>
      <trkpt lat="46.07771" lon="6.11018">
        <ele>886.40002441406</ele>
        <time>2012-12-10T10:59:25.000Z</time>
      </trkpt>
      <trkpt lat="46.07773" lon="6.11017">
        <ele>885.40002441406</ele>
        <time>2012-12-10T10:59:30.000Z</time>
      </trkpt>
      <trkpt lat="46.07773" lon="6.11015">
        <ele>885.40002441406</ele>
        <time>2012-12-10T10:59:31.000Z</time>
      </trkpt>
      <trkpt lat="46.07773" lon="6.11014">
        <ele>885.40002441406</ele>
        <time>2012-12-10T10:59:32.000Z</time>
      </trkpt>
      <trkpt lat="46.07772" lon="6.11012">
        <ele>884.40002441406</ele>
        <time>2012-12-10T10:59:35.000Z</time>
      </trkpt>
      <trkpt lat="46.07771" lon="6.11011">
        <ele>884.40002441406</ele>
        <time>2012-12-10T10:59:37.000Z</time>
      </trkpt>
      <trkpt lat="46.07771" lon="6.11009">
        <ele>883.40002441406</ele>
        <time>2012-12-10T10:59:39.000Z</time>
      </trkpt>
      <trkpt lat="46.0777" lon="6.11006">
        <ele>882.40002441406</ele>
        <time>2012-12-10T10:59:42.000Z</time>
      </trkpt>
      <trkpt lat="46.0777" lon="6.11004">
        <ele>882.40002441406</ele>
        <time>2012-12-10T10:59:44.000Z</time>
      </trkpt>
      <trkpt lat="46.0777" lon="6.11003">
        <ele>881.40002441406</ele>
        <time>2012-12-10T10:59:45.000Z</time>
      </trkpt>
      <trkpt lat="46.07771" lon="6.10999">
        <ele>880.40002441406</ele>
        <time>2012-12-10T10:59:49.000Z</time>
      </trkpt>
      <trkpt lat="46.07771" lon="6.10997">
        <ele>880.40002441406</ele>
        <time>2012-12-10T10:59:50.000Z</time>
      </trkpt>
      <trkpt lat="46.07771" lon="6.10996">
        <ele>880.40002441406</ele>
        <time>2012-12-10T10:59:51.000Z</time>
      </trkpt>
      <trkpt lat="46.07771" lon="6.10995">
        <ele>879.20001220703</ele>
        <time>2012-12-10T10:59:52.000Z</time>
      </trkpt>
      <trkpt lat="46.07772" lon="6.1099">
        <ele>878</ele>
        <time>2012-12-10T10:59:56.000Z</time>
      </trkpt>
      <trkpt lat="46.07773" lon="6.10989">
        <ele>878</ele>
        <time>2012-12-10T10:59:57.000Z</time>
      </trkpt>
      <trkpt lat="46.07774" lon="6.10985">
        <ele>877</ele>
        <time>2012-12-10T11:00:00.000Z</time>
      </trkpt>
      <trkpt lat="46.07775" lon="6.10981">
        <ele>876</ele>
        <time>2012-12-10T11:00:03.000Z</time>
      </trkpt>
      <trkpt lat="46.07776" lon="6.1098">
        <ele>876</ele>
        <time>2012-12-10T11:00:04.000Z</time>
      </trkpt>
      <trkpt lat="46.07776" lon="6.10979">
        <ele>876</ele>
        <time>2012-12-10T11:00:05.000Z</time>
      </trkpt>
      <trkpt lat="46.07777" lon="6.10975">
        <ele>874.59997558594</ele>
        <time>2012-12-10T11:00:08.000Z</time>
      </trkpt>
      <trkpt lat="46.07779" lon="6.10973">
        <ele>874.59997558594</ele>
        <time>2012-12-10T11:00:10.000Z</time>
      </trkpt>
      <trkpt lat="46.0778" lon="6.10972">
        <ele>873.40002441406</ele>
        <time>2012-12-10T11:00:12.000Z</time>
      </trkpt>
      <trkpt lat="46.0778" lon="6.10971">
        <ele>873.40002441406</ele>
        <time>2012-12-10T11:00:13.000Z</time>
      </trkpt>
      <trkpt lat="46.07782" lon="6.10968">
        <ele>873.40002441406</ele>
        <time>2012-12-10T11:00:16.000Z</time>
      </trkpt>
      <trkpt lat="46.07782" lon="6.10967">
        <ele>872.40002441406</ele>
        <time>2012-12-10T11:00:17.000Z</time>
      </trkpt>
      <trkpt lat="46.07783" lon="6.10962">
        <ele>872.40002441406</ele>
        <time>2012-12-10T11:00:21.000Z</time>
      </trkpt>
      <trkpt lat="46.07784" lon="6.1096">
        <ele>871.40002441406</ele>
        <time>2012-12-10T11:00:23.000Z</time>
      </trkpt>
      <trkpt lat="46.07784" lon="6.10955">
        <ele>871.40002441406</ele>
        <time>2012-12-10T11:00:27.000Z</time>
      </trkpt>
      <trkpt lat="46.07785" lon="6.10953">
        <ele>870.20001220703</ele>
        <time>2012-12-10T11:00:29.000Z</time>
      </trkpt>
      <trkpt lat="46.07785" lon="6.1095">
        <ele>870.20001220703</ele>
        <time>2012-12-10T11:00:31.000Z</time>
      </trkpt>
      <trkpt lat="46.07785" lon="6.10948">
        <ele>869</ele>
        <time>2012-12-10T11:00:33.000Z</time>
      </trkpt>
      <trkpt lat="46.07785" lon="6.10946">
        <ele>869</ele>
        <time>2012-12-10T11:00:34.000Z</time>
      </trkpt>
      <trkpt lat="46.07786" lon="6.1094">
        <ele>869</ele>
        <time>2012-12-10T11:00:39.000Z</time>
      </trkpt>
      <trkpt lat="46.07786" lon="6.10939">
        <ele>868</ele>
        <time>2012-12-10T11:00:40.000Z</time>
      </trkpt>
      <trkpt lat="46.07786" lon="6.10932">
        <ele>868</ele>
        <time>2012-12-10T11:00:45.000Z</time>
      </trkpt>
      <trkpt lat="46.07787" lon="6.1093">
        <ele>867</ele>
        <time>2012-12-10T11:00:46.000Z</time>
      </trkpt>
      <trkpt lat="46.07788" lon="6.10924">
        <ele>867</ele>
        <time>2012-12-10T11:00:50.000Z</time>
      </trkpt>
      <trkpt lat="46.07788" lon="6.10922">
        <ele>867</ele>
        <time>2012-12-10T11:00:51.000Z</time>
      </trkpt>
      <trkpt lat="46.07788" lon="6.10918">
        <ele>867</ele>
        <time>2012-12-10T11:00:54.000Z</time>
      </trkpt>
      <trkpt lat="46.07789" lon="6.10916">
        <ele>866</ele>
        <time>2012-12-10T11:00:56.000Z</time>
      </trkpt>
      <trkpt lat="46.07789" lon="6.10913">
        <ele>866</ele>
        <time>2012-12-10T11:00:58.000Z</time>
      </trkpt>
      <trkpt lat="46.07789" lon="6.10912">
        <ele>866</ele>
        <time>2012-12-10T11:00:59.000Z</time>
      </trkpt>
      <trkpt lat="46.0779" lon="6.1091">
        <ele>865</ele>
        <time>2012-12-10T11:01:00.000Z</time>
      </trkpt>
      <trkpt lat="46.0779" lon="6.10907">
        <ele>865</ele>
        <time>2012-12-10T11:01:03.000Z</time>
      </trkpt>
      <trkpt lat="46.07791" lon="6.10905">
        <ele>863.59997558594</ele>
        <time>2012-12-10T11:01:04.000Z</time>
      </trkpt>
      <trkpt lat="46.0779" lon="6.10901">
        <ele>863.59997558594</ele>
        <time>2012-12-10T11:01:07.000Z</time>
      </trkpt>
      <trkpt lat="46.07791" lon="6.10898">
        <ele>863.59997558594</ele>
        <time>2012-12-10T11:01:09.000Z</time>
      </trkpt>
      <trkpt lat="46.07791" lon="6.10896">
        <ele>862.59997558594</ele>
        <time>2012-12-10T11:01:10.000Z</time>
      </trkpt>
      <trkpt lat="46.07792" lon="6.10891">
        <ele>861.59997558594</ele>
        <time>2012-12-10T11:01:14.000Z</time>
      </trkpt>
      <trkpt lat="46.07794" lon="6.10889">
        <ele>861.59997558594</ele>
        <time>2012-12-10T11:01:16.000Z</time>
      </trkpt>
      <trkpt lat="46.07794" lon="6.10888">
        <ele>860.59997558594</ele>
        <time>2012-12-10T11:01:17.000Z</time>
      </trkpt>
      <trkpt lat="46.07796" lon="6.10887">
        <ele>860.59997558594</ele>
        <time>2012-12-10T11:01:18.000Z</time>
      </trkpt>
      <trkpt lat="46.07797" lon="6.10886">
        <ele>860.59997558594</ele>
        <time>2012-12-10T11:01:20.000Z</time>
      </trkpt>
      <trkpt lat="46.07797" lon="6.10885">
        <ele>859.59997558594</ele>
        <time>2012-12-10T11:01:21.000Z</time>
      </trkpt>
      <trkpt lat="46.07798" lon="6.10884">
        <ele>859.59997558594</ele>
        <time>2012-12-10T11:01:23.000Z</time>
      </trkpt>
      <trkpt lat="46.078" lon="6.10882">
        <ele>858.40002441406</ele>
        <time>2012-12-10T11:01:26.000Z</time>
      </trkpt>
      <trkpt lat="46.07801" lon="6.10881">
        <ele>858.40002441406</ele>
        <time>2012-12-10T11:01:27.000Z</time>
      </trkpt>
      <trkpt lat="46.07802" lon="6.10881">
        <ele>858.40002441406</ele>
        <time>2012-12-10T11:01:28.000Z</time>
      </trkpt>
      <trkpt lat="46.07803" lon="6.1088">
        <ele>857.40002441406</ele>
        <time>2012-12-10T11:01:30.000Z</time>
      </trkpt>
      <trkpt lat="46.07806" lon="6.1088">
        <ele>857.40002441406</ele>
        <time>2012-12-10T11:01:33.000Z</time>
      </trkpt>
      <trkpt lat="46.07806" lon="6.10879">
        <ele>856.40002441406</ele>
        <time>2012-12-10T11:01:35.000Z</time>
      </trkpt>
      <trkpt lat="46.07808" lon="6.10877">
        <ele>856.40002441406</ele>
        <time>2012-12-10T11:01:37.000Z</time>
      </trkpt>
      <trkpt lat="46.0781" lon="6.10877">
        <ele>856.40002441406</ele>
        <time>2012-12-10T11:01:39.000Z</time>
      </trkpt>
      <trkpt lat="46.07812" lon="6.10875">
        <ele>855.40002441406</ele>
        <time>2012-12-10T11:01:42.000Z</time>
      </trkpt>
      <trkpt lat="46.07813" lon="6.10875">
        <ele>855.40002441406</ele>
        <time>2012-12-10T11:01:43.000Z</time>
      </trkpt>
      <trkpt lat="46.07814" lon="6.10874">
        <ele>855.40002441406</ele>
        <time>2012-12-10T11:01:44.000Z</time>
      </trkpt>
      <trkpt lat="46.07818" lon="6.1087">
        <ele>855.40002441406</ele>
        <time>2012-12-10T11:01:50.000Z</time>
      </trkpt>
      <trkpt lat="46.0782" lon="6.10869">
        <ele>854.20001220703</ele>
        <time>2012-12-10T11:01:51.000Z</time>
      </trkpt>
      <trkpt lat="46.07822" lon="6.10869">
        <ele>854.20001220703</ele>
        <time>2012-12-10T11:01:54.000Z</time>
      </trkpt>
      <trkpt lat="46.07823" lon="6.10868">
        <ele>854.20001220703</ele>
        <time>2012-12-10T11:01:55.000Z</time>
      </trkpt>
      <trkpt lat="46.07824" lon="6.10868">
        <ele>854.20001220703</ele>
        <time>2012-12-10T11:01:56.000Z</time>
      </trkpt>
      <trkpt lat="46.07825" lon="6.10867">
        <ele>853.20001220703</ele>
        <time>2012-12-10T11:01:57.000Z</time>
      </trkpt>
      <trkpt lat="46.07826" lon="6.10865">
        <ele>853.20001220703</ele>
        <time>2012-12-10T11:01:59.000Z</time>
      </trkpt>
      <trkpt lat="46.07828" lon="6.10863">
        <ele>852.20001220703</ele>
        <time>2012-12-10T11:02:01.000Z</time>
      </trkpt>
      <trkpt lat="46.07829" lon="6.10862">
        <ele>852.20001220703</ele>
        <time>2012-12-10T11:02:02.000Z</time>
      </trkpt>
      <trkpt lat="46.0783" lon="6.10859">
        <ele>851.20001220703</ele>
        <time>2012-12-10T11:02:04.000Z</time>
      </trkpt>
      <trkpt lat="46.07832" lon="6.10855">
        <ele>850.20001220703</ele>
        <time>2012-12-10T11:02:08.000Z</time>
      </trkpt>
      <trkpt lat="46.07833" lon="6.10853">
        <ele>850.20001220703</ele>
        <time>2012-12-10T11:02:10.000Z</time>
      </trkpt>
      <trkpt lat="46.07834" lon="6.10852">
        <ele>850.20001220703</ele>
        <time>2012-12-10T11:02:11.000Z</time>
      </trkpt>
      <trkpt lat="46.07834" lon="6.10851">
        <ele>849</ele>
        <time>2012-12-10T11:02:12.000Z</time>
      </trkpt>
      <trkpt lat="46.07836" lon="6.10847">
        <ele>848</ele>
        <time>2012-12-10T11:02:15.000Z</time>
      </trkpt>
      <trkpt lat="46.07837" lon="6.10846">
        <ele>848</ele>
        <time>2012-12-10T11:02:16.000Z</time>
      </trkpt>
      <trkpt lat="46.07837" lon="6.10845">
        <ele>848</ele>
        <time>2012-12-10T11:02:17.000Z</time>
      </trkpt>
      <trkpt lat="46.07838" lon="6.10842">
        <ele>846.59997558594</ele>
        <time>2012-12-10T11:02:19.000Z</time>
      </trkpt>
      <trkpt lat="46.0784" lon="6.10837">
        <ele>846.59997558594</ele>
        <time>2012-12-10T11:02:22.000Z</time>
      </trkpt>
      <trkpt lat="46.0784" lon="6.10836">
        <ele>845.59997558594</ele>
        <time>2012-12-10T11:02:23.000Z</time>
      </trkpt>
      <trkpt lat="46.07841" lon="6.10828">
        <ele>844.59997558594</ele>
        <time>2012-12-10T11:02:28.000Z</time>
      </trkpt>
      <trkpt lat="46.07842" lon="6.10825">
        <ele>844.59997558594</ele>
        <time>2012-12-10T11:02:30.000Z</time>
      </trkpt>
      <trkpt lat="46.07843" lon="6.10823">
        <ele>843.59997558594</ele>
        <time>2012-12-10T11:02:31.000Z</time>
      </trkpt>
      <trkpt lat="46.07845" lon="6.10819">
        <ele>842.40002441406</ele>
        <time>2012-12-10T11:02:34.000Z</time>
      </trkpt>
      <trkpt lat="46.07845" lon="6.10817">
        <ele>842.40002441406</ele>
        <time>2012-12-10T11:02:35.000Z</time>
      </trkpt>
      <trkpt lat="46.07849" lon="6.1081">
        <ele>841.40002441406</ele>
        <time>2012-12-10T11:02:40.000Z</time>
      </trkpt>
      <trkpt lat="46.07853" lon="6.10802">
        <ele>841.40002441406</ele>
        <time>2012-12-10T11:02:45.000Z</time>
      </trkpt>
      <trkpt lat="46.07857" lon="6.10796">
        <ele>840.40002441406</ele>
        <time>2012-12-10T11:02:49.000Z</time>
      </trkpt>
      <trkpt lat="46.07859" lon="6.10795">
        <ele>840.40002441406</ele>
        <time>2012-12-10T11:02:50.000Z</time>
      </trkpt>
      <trkpt lat="46.0786" lon="6.10793">
        <ele>840.40002441406</ele>
        <time>2012-12-10T11:02:52.000Z</time>
      </trkpt>
      <trkpt lat="46.07862" lon="6.1079">
        <ele>840.40002441406</ele>
        <time>2012-12-10T11:02:55.000Z</time>
      </trkpt>
      <trkpt lat="46.07863" lon="6.10789">
        <ele>839.40002441406</ele>
        <time>2012-12-10T11:02:56.000Z</time>
      </trkpt>
      <trkpt lat="46.07865" lon="6.10783">
        <ele>839.40002441406</ele>
        <time>2012-12-10T11:03:00.000Z</time>
      </trkpt>
      <trkpt lat="46.07865" lon="6.10782">
        <ele>838.40002441406</ele>
        <time>2012-12-10T11:03:01.000Z</time>
      </trkpt>
      <trkpt lat="46.07866" lon="6.10775">
        <ele>837.40002441406</ele>
        <time>2012-12-10T11:03:06.000Z</time>
      </trkpt>
      <trkpt lat="46.07867" lon="6.10774">
        <ele>837.40002441406</ele>
        <time>2012-12-10T11:03:07.000Z</time>
      </trkpt>
      <trkpt lat="46.07868" lon="6.10769">
        <ele>836.20001220703</ele>
        <time>2012-12-10T11:03:10.000Z</time>
      </trkpt>
      <trkpt lat="46.07868" lon="6.10768">
        <ele>836.20001220703</ele>
        <time>2012-12-10T11:03:11.000Z</time>
      </trkpt>
      <trkpt lat="46.0787" lon="6.10764">
        <ele>835.20001220703</ele>
        <time>2012-12-10T11:03:14.000Z</time>
      </trkpt>
      <trkpt lat="46.07872" lon="6.10763">
        <ele>835.20001220703</ele>
        <time>2012-12-10T11:03:16.000Z</time>
      </trkpt>
      <trkpt lat="46.07877" lon="6.10759">
        <ele>834</ele>
        <time>2012-12-10T11:03:20.000Z</time>
      </trkpt>
      <trkpt lat="46.0788" lon="6.10757">
        <ele>834</ele>
        <time>2012-12-10T11:03:23.000Z</time>
      </trkpt>
      <trkpt lat="46.07883" lon="6.10755">
        <ele>832.59997558594</ele>
        <time>2012-12-10T11:03:26.000Z</time>
      </trkpt>
      <trkpt lat="46.07885" lon="6.10754">
        <ele>832.59997558594</ele>
        <time>2012-12-10T11:03:27.000Z</time>
      </trkpt>
      <trkpt lat="46.07887" lon="6.10754">
        <ele>831.59997558594</ele>
        <time>2012-12-10T11:03:29.000Z</time>
      </trkpt>
      <trkpt lat="46.07888" lon="6.10753">
        <ele>831.59997558594</ele>
        <time>2012-12-10T11:03:30.000Z</time>
      </trkpt>
      <trkpt lat="46.0789" lon="6.10752">
        <ele>831.59997558594</ele>
        <time>2012-12-10T11:03:32.000Z</time>
      </trkpt>
      <trkpt lat="46.07892" lon="6.10751">
        <ele>830.40002441406</ele>
        <time>2012-12-10T11:03:34.000Z</time>
      </trkpt>
      <trkpt lat="46.07894" lon="6.1075">
        <ele>830.40002441406</ele>
        <time>2012-12-10T11:03:36.000Z</time>
      </trkpt>
      <trkpt lat="46.07897" lon="6.10751">
        <ele>829.40002441406</ele>
        <time>2012-12-10T11:03:38.000Z</time>
      </trkpt>
      <trkpt lat="46.07898" lon="6.10751">
        <ele>829.40002441406</ele>
        <time>2012-12-10T11:03:39.000Z</time>
      </trkpt>
      <trkpt lat="46.07902" lon="6.10753">
        <ele>828.40002441406</ele>
        <time>2012-12-10T11:03:43.000Z</time>
      </trkpt>
      <trkpt lat="46.0791" lon="6.10759">
        <ele>827.40002441406</ele>
        <time>2012-12-10T11:03:52.000Z</time>
      </trkpt>
      <trkpt lat="46.07911" lon="6.10759">
        <ele>827.40002441406</ele>
        <time>2012-12-10T11:03:53.000Z</time>
      </trkpt>
      <trkpt lat="46.07914" lon="6.1076">
        <ele>827.40002441406</ele>
        <time>2012-12-10T11:03:56.000Z</time>
      </trkpt>
      <trkpt lat="46.07922" lon="6.10761">
        <ele>827.40002441406</ele>
        <time>2012-12-10T11:04:03.000Z</time>
      </trkpt>
      <trkpt lat="46.07927" lon="6.10757">
        <ele>827.40002441406</ele>
        <time>2012-12-10T11:04:07.000Z</time>
      </trkpt>
      <trkpt lat="46.07929" lon="6.10755">
        <ele>827.40002441406</ele>
        <time>2012-12-10T11:04:09.000Z</time>
      </trkpt>
      <trkpt lat="46.07932" lon="6.10752">
        <ele>827.40002441406</ele>
        <time>2012-12-10T11:04:12.000Z</time>
      </trkpt>
      <trkpt lat="46.07934" lon="6.1075">
        <ele>827.40002441406</ele>
        <time>2012-12-10T11:04:15.000Z</time>
      </trkpt>
      <trkpt lat="46.07937" lon="6.10742">
        <ele>826.40002441406</ele>
        <time>2012-12-10T11:04:20.000Z</time>
      </trkpt>
      <trkpt lat="46.07938" lon="6.1074">
        <ele>826.40002441406</ele>
        <time>2012-12-10T11:04:21.000Z</time>
      </trkpt>
      <trkpt lat="46.07943" lon="6.10734">
        <ele>826.40002441406</ele>
        <time>2012-12-10T11:04:27.000Z</time>
      </trkpt>
      <trkpt lat="46.07951" lon="6.10728">
        <ele>826.40002441406</ele>
        <time>2012-12-10T11:04:34.000Z</time>
      </trkpt>
      <trkpt lat="46.07955" lon="6.10724">
        <ele>826.40002441406</ele>
        <time>2012-12-10T11:04:38.000Z</time>
      </trkpt>
      <trkpt lat="46.07957" lon="6.10722">
        <ele>826.40002441406</ele>
        <time>2012-12-10T11:04:40.000Z</time>
      </trkpt>
      <trkpt lat="46.07963" lon="6.10721">
        <ele>825.40002441406</ele>
        <time>2012-12-10T11:04:45.000Z</time>
      </trkpt>
      <trkpt lat="46.07964" lon="6.10721">
        <ele>825.40002441406</ele>
        <time>2012-12-10T11:04:46.000Z</time>
      </trkpt>
      <trkpt lat="46.07969" lon="6.10722">
        <ele>825.40002441406</ele>
        <time>2012-12-10T11:04:52.000Z</time>
      </trkpt>
      <trkpt lat="46.07974" lon="6.10726">
        <ele>825.40002441406</ele>
        <time>2012-12-10T11:04:58.000Z</time>
      </trkpt>
      <trkpt lat="46.07976" lon="6.10728">
        <ele>824.40002441406</ele>
        <time>2012-12-10T11:05:00.000Z</time>
      </trkpt>
      <trkpt lat="46.07981" lon="6.10732">
        <ele>824.40002441406</ele>
        <time>2012-12-10T11:05:05.000Z</time>
      </trkpt>
      <trkpt lat="46.07983" lon="6.10734">
        <ele>824.40002441406</ele>
        <time>2012-12-10T11:05:07.000Z</time>
      </trkpt>
      <trkpt lat="46.07986" lon="6.10737">
        <ele>824.40002441406</ele>
        <time>2012-12-10T11:05:10.000Z</time>
      </trkpt>
      <trkpt lat="46.07988" lon="6.10739">
        <ele>824.40002441406</ele>
        <time>2012-12-10T11:05:12.000Z</time>
      </trkpt>
      <trkpt lat="46.07989" lon="6.10741">
        <ele>824.40002441406</ele>
        <time>2012-12-10T11:05:14.000Z</time>
      </trkpt>
      <trkpt lat="46.0799" lon="6.10741">
        <ele>824.40002441406</ele>
        <time>2012-12-10T11:05:15.000Z</time>
      </trkpt>
      <trkpt lat="46.07994" lon="6.10745">
        <ele>824.40002441406</ele>
        <time>2012-12-10T11:05:19.000Z</time>
      </trkpt>
      <trkpt lat="46.07996" lon="6.10747">
        <ele>824.40002441406</ele>
        <time>2012-12-10T11:05:21.000Z</time>
      </trkpt>
      <trkpt lat="46.07997" lon="6.10748">
        <ele>823.40002441406</ele>
        <time>2012-12-10T11:05:22.000Z</time>
      </trkpt>
      <trkpt lat="46.08001" lon="6.10748">
        <ele>823.40002441406</ele>
        <time>2012-12-10T11:05:25.000Z</time>
      </trkpt>
      <trkpt lat="46.08004" lon="6.10747">
        <ele>823.40002441406</ele>
        <time>2012-12-10T11:05:27.000Z</time>
      </trkpt>
      <trkpt lat="46.08011" lon="6.10744">
        <ele>823.40002441406</ele>
        <time>2012-12-10T11:05:32.000Z</time>
      </trkpt>
      <trkpt lat="46.08012" lon="6.10743">
        <ele>822.40002441406</ele>
        <time>2012-12-10T11:05:33.000Z</time>
      </trkpt>
      <trkpt lat="46.08014" lon="6.10741">
        <ele>822.40002441406</ele>
        <time>2012-12-10T11:05:35.000Z</time>
      </trkpt>
      <trkpt lat="46.0802" lon="6.10733">
        <ele>822.40002441406</ele>
        <time>2012-12-10T11:05:42.000Z</time>
      </trkpt>
      <trkpt lat="46.08022" lon="6.1073">
        <ele>821.20001220703</ele>
        <time>2012-12-10T11:05:44.000Z</time>
      </trkpt>
      <trkpt lat="46.08026" lon="6.10722">
        <ele>821.20001220703</ele>
        <time>2012-12-10T11:05:50.000Z</time>
      </trkpt>
      <trkpt lat="46.08027" lon="6.10721">
        <ele>820</ele>
        <time>2012-12-10T11:05:51.000Z</time>
      </trkpt>
      <trkpt lat="46.08031" lon="6.10713">
        <ele>820</ele>
        <time>2012-12-10T11:05:57.000Z</time>
      </trkpt>
      <trkpt lat="46.08032" lon="6.10712">
        <ele>819</ele>
        <time>2012-12-10T11:05:58.000Z</time>
      </trkpt>
      <trkpt lat="46.08035" lon="6.10703">
        <ele>817.59997558594</ele>
        <time>2012-12-10T11:06:03.000Z</time>
      </trkpt>
      <trkpt lat="46.08035" lon="6.10701">
        <ele>817.59997558594</ele>
        <time>2012-12-10T11:06:04.000Z</time>
      </trkpt>
      <trkpt lat="46.08037" lon="6.10689">
        <ele>816.59997558594</ele>
        <time>2012-12-10T11:06:11.000Z</time>
      </trkpt>
      <trkpt lat="46.08037" lon="6.10686">
        <ele>816.59997558594</ele>
        <time>2012-12-10T11:06:13.000Z</time>
      </trkpt>
      <trkpt lat="46.08038" lon="6.1068">
        <ele>815.59997558594</ele>
        <time>2012-12-10T11:06:16.000Z</time>
      </trkpt>
      <trkpt lat="46.08039" lon="6.10673">
        <ele>815.59997558594</ele>
        <time>2012-12-10T11:06:20.000Z</time>
      </trkpt>
      <trkpt lat="46.0804" lon="6.1067">
        <ele>814.59997558594</ele>
        <time>2012-12-10T11:06:22.000Z</time>
      </trkpt>
      <trkpt lat="46.08041" lon="6.10661">
        <ele>813.59997558594</ele>
        <time>2012-12-10T11:06:27.000Z</time>
      </trkpt>
      <trkpt lat="46.08041" lon="6.10657">
        <ele>813.59997558594</ele>
        <time>2012-12-10T11:06:29.000Z</time>
      </trkpt>
      <trkpt lat="46.08042" lon="6.10651">
        <ele>812.40002441406</ele>
        <time>2012-12-10T11:06:32.000Z</time>
      </trkpt>
      <trkpt lat="46.08043" lon="6.1064">
        <ele>811.40002441406</ele>
        <time>2012-12-10T11:06:38.000Z</time>
      </trkpt>
      <trkpt lat="46.08043" lon="6.10629">
        <ele>810.40002441406</ele>
        <time>2012-12-10T11:06:45.000Z</time>
      </trkpt>
      <trkpt lat="46.08042" lon="6.10628">
        <ele>810.40002441406</ele>
        <time>2012-12-10T11:06:46.000Z</time>
      </trkpt>
      <trkpt lat="46.08039" lon="6.1063">
        <ele>810.40002441406</ele>
        <time>2012-12-10T11:06:53.000Z</time>
      </trkpt>
      <trkpt lat="46.08033" lon="6.1063">
        <ele>810.40002441406</ele>
        <time>2012-12-10T11:06:59.000Z</time>
      </trkpt>
      <trkpt lat="46.08025" lon="6.10632">
        <ele>810.40002441406</ele>
        <time>2012-12-10T11:07:06.000Z</time>
      </trkpt>
      <trkpt lat="46.08019" lon="6.10634">
        <ele>810.40002441406</ele>
        <time>2012-12-10T11:07:12.000Z</time>
      </trkpt>
      <trkpt lat="46.08018" lon="6.10635">
        <ele>810.40002441406</ele>
        <time>2012-12-10T11:07:13.000Z</time>
      </trkpt>
      <trkpt lat="46.08012" lon="6.10636">
        <ele>810.40002441406</ele>
        <time>2012-12-10T11:07:17.000Z</time>
      </trkpt>
      <trkpt lat="46.08011" lon="6.10636">
        <ele>810.40002441406</ele>
        <time>2012-12-10T11:07:18.000Z</time>
      </trkpt>
      <trkpt lat="46.08003" lon="6.10633">
        <ele>810.40002441406</ele>
        <time>2012-12-10T11:07:25.000Z</time>
      </trkpt>
      <trkpt lat="46.07997" lon="6.10632">
        <ele>810.40002441406</ele>
        <time>2012-12-10T11:07:30.000Z</time>
      </trkpt>
      <trkpt lat="46.07989" lon="6.1063">
        <ele>810.40002441406</ele>
        <time>2012-12-10T11:07:37.000Z</time>
      </trkpt>
      <trkpt lat="46.07986" lon="6.1063">
        <ele>813.40002441406</ele>
        <time>2012-12-10T11:07:41.000Z</time>
      </trkpt>
      <trkpt lat="46.07984" lon="6.10629">
        <ele>813.40002441406</ele>
        <time>2012-12-10T11:07:43.000Z</time>
      </trkpt>
      <trkpt lat="46.07979" lon="6.10629">
        <ele>813.40002441406</ele>
        <time>2012-12-10T11:07:48.000Z</time>
      </trkpt>
      <trkpt lat="46.07978" lon="6.10629">
        <ele>813.40002441406</ele>
        <time>2012-12-10T11:07:49.000Z</time>
      </trkpt>
      <trkpt lat="46.07976" lon="6.10628">
        <ele>815</ele>
        <time>2012-12-10T11:07:51.000Z</time>
      </trkpt>
      <trkpt lat="46.07972" lon="6.10626">
        <ele>815</ele>
        <time>2012-12-10T11:07:55.000Z</time>
      </trkpt>
      <trkpt lat="46.07967" lon="6.10623">
        <ele>815</ele>
        <time>2012-12-10T11:08:00.000Z</time>
      </trkpt>
      <trkpt lat="46.07965" lon="6.10623">
        <ele>815</ele>
        <time>2012-12-10T11:08:01.000Z</time>
      </trkpt>
      <trkpt lat="46.07955" lon="6.10621">
        <ele>815</ele>
        <time>2012-12-10T11:08:10.000Z</time>
      </trkpt>
      <trkpt lat="46.0795" lon="6.10621">
        <ele>815</ele>
        <time>2012-12-10T11:08:15.000Z</time>
      </trkpt>
      <trkpt lat="46.07948" lon="6.10621">
        <ele>815</ele>
        <time>2012-12-10T11:08:17.000Z</time>
      </trkpt>
      <trkpt lat="46.07941" lon="6.10619">
        <ele>815</ele>
        <time>2012-12-10T11:08:23.000Z</time>
      </trkpt>
      <trkpt lat="46.07935" lon="6.10618">
        <ele>815</ele>
        <time>2012-12-10T11:08:29.000Z</time>
      </trkpt>
      <trkpt lat="46.07929" lon="6.10615">
        <ele>815</ele>
        <time>2012-12-10T11:08:36.000Z</time>
      </trkpt>
      <trkpt lat="46.07928" lon="6.10614">
        <ele>815</ele>
        <time>2012-12-10T11:08:37.000Z</time>
      </trkpt>
      <trkpt lat="46.07926" lon="6.10612">
        <ele>815</ele>
        <time>2012-12-10T11:08:41.000Z</time>
      </trkpt>
      <trkpt lat="46.0792" lon="6.10607">
        <ele>815</ele>
        <time>2012-12-10T11:08:47.000Z</time>
      </trkpt>
      <trkpt lat="46.07915" lon="6.10603">
        <ele>816</ele>
        <time>2012-12-10T11:08:52.000Z</time>
      </trkpt>
      <trkpt lat="46.07913" lon="6.10601">
        <ele>816</ele>
        <time>2012-12-10T11:08:54.000Z</time>
      </trkpt>
      <trkpt lat="46.07909" lon="6.10598">
        <ele>816</ele>
        <time>2012-12-10T11:09:00.000Z</time>
      </trkpt>
      <trkpt lat="46.07904" lon="6.10593">
        <ele>816</ele>
        <time>2012-12-10T11:09:05.000Z</time>
      </trkpt>
      <trkpt lat="46.07896" lon="6.10587">
        <ele>816</ele>
        <time>2012-12-10T11:09:13.000Z</time>
      </trkpt>
      <trkpt lat="46.0789" lon="6.10579">
        <ele>816</ele>
        <time>2012-12-10T11:09:20.000Z</time>
      </trkpt>
      <trkpt lat="46.07884" lon="6.10572">
        <ele>816</ele>
        <time>2012-12-10T11:09:26.000Z</time>
      </trkpt>
      <trkpt lat="46.07879" lon="6.10565">
        <ele>816</ele>
        <time>2012-12-10T11:09:32.000Z</time>
      </trkpt>
      <trkpt lat="46.07875" lon="6.1056">
        <ele>817</ele>
        <time>2012-12-10T11:09:38.000Z</time>
      </trkpt>
      <trkpt lat="46.07874" lon="6.10559">
        <ele>817</ele>
        <time>2012-12-10T11:09:39.000Z</time>
      </trkpt>
      <trkpt lat="46.07868" lon="6.10551">
        <ele>817</ele>
        <time>2012-12-10T11:09:46.000Z</time>
      </trkpt>
      <trkpt lat="46.0786" lon="6.10542">
        <ele>817</ele>
        <time>2012-12-10T11:09:54.000Z</time>
      </trkpt>
      <trkpt lat="46.07854" lon="6.10536">
        <ele>817</ele>
        <time>2012-12-10T11:10:00.000Z</time>
      </trkpt>
      <trkpt lat="46.07847" lon="6.10527">
        <ele>817</ele>
        <time>2012-12-10T11:10:08.000Z</time>
      </trkpt>
      <trkpt lat="46.07845" lon="6.10526">
        <ele>817</ele>
        <time>2012-12-10T11:10:10.000Z</time>
      </trkpt>
      <trkpt lat="46.07841" lon="6.10523">
        <ele>817</ele>
        <time>2012-12-10T11:10:14.000Z</time>
      </trkpt>
      <trkpt lat="46.07834" lon="6.10517">
        <ele>817</ele>
        <time>2012-12-10T11:10:21.000Z</time>
      </trkpt>
      <trkpt lat="46.07827" lon="6.10512">
        <ele>817</ele>
        <time>2012-12-10T11:10:28.000Z</time>
      </trkpt>
      <trkpt lat="46.07822" lon="6.10508">
        <ele>817</ele>
        <time>2012-12-10T11:10:34.000Z</time>
      </trkpt>
      <trkpt lat="46.07816" lon="6.10503">
        <ele>817</ele>
        <time>2012-12-10T11:10:40.000Z</time>
      </trkpt>
      <trkpt lat="46.07812" lon="6.105">
        <ele>817</ele>
        <time>2012-12-10T11:10:45.000Z</time>
      </trkpt>
      <trkpt lat="46.07811" lon="6.10499">
        <ele>818</ele>
        <time>2012-12-10T11:10:46.000Z</time>
      </trkpt>
      <trkpt lat="46.07806" lon="6.10495">
        <ele>818</ele>
        <time>2012-12-10T11:10:52.000Z</time>
      </trkpt>
      <trkpt lat="46.07804" lon="6.10493">
        <ele>818</ele>
        <time>2012-12-10T11:10:54.000Z</time>
      </trkpt>
      <trkpt lat="46.078" lon="6.10489">
        <ele>818</ele>
        <time>2012-12-10T11:10:58.000Z</time>
      </trkpt>
      <trkpt lat="46.07792" lon="6.10483">
        <ele>818</ele>
        <time>2012-12-10T11:11:06.000Z</time>
      </trkpt>
      <trkpt lat="46.07785" lon="6.10478">
        <ele>818</ele>
        <time>2012-12-10T11:11:12.000Z</time>
      </trkpt>
      <trkpt lat="46.07777" lon="6.10473">
        <ele>818</ele>
        <time>2012-12-10T11:11:20.000Z</time>
      </trkpt>
      <trkpt lat="46.07771" lon="6.1047">
        <ele>818</ele>
        <time>2012-12-10T11:11:26.000Z</time>
      </trkpt>
      <trkpt lat="46.07764" lon="6.10466">
        <ele>818</ele>
        <time>2012-12-10T11:11:33.000Z</time>
      </trkpt>
      <trkpt lat="46.07758" lon="6.10463">
        <ele>818</ele>
        <time>2012-12-10T11:11:38.000Z</time>
      </trkpt>
      <trkpt lat="46.0775" lon="6.10459">
        <ele>818</ele>
        <time>2012-12-10T11:11:46.000Z</time>
      </trkpt>
      <trkpt lat="46.07743" lon="6.10456">
        <ele>818</ele>
        <time>2012-12-10T11:11:53.000Z</time>
      </trkpt>
      <trkpt lat="46.07737" lon="6.10453">
        <ele>818</ele>
        <time>2012-12-10T11:11:59.000Z</time>
      </trkpt>
      <trkpt lat="46.07731" lon="6.1045">
        <ele>818</ele>
        <time>2012-12-10T11:12:05.000Z</time>
      </trkpt>
      <trkpt lat="46.07722" lon="6.10445">
        <ele>818</ele>
        <time>2012-12-10T11:12:14.000Z</time>
      </trkpt>
      <trkpt lat="46.07715" lon="6.1044">
        <ele>818</ele>
        <time>2012-12-10T11:12:21.000Z</time>
      </trkpt>
      <trkpt lat="46.07708" lon="6.10435">
        <ele>818</ele>
        <time>2012-12-10T11:12:28.000Z</time>
      </trkpt>
      <trkpt lat="46.07704" lon="6.10431">
        <ele>818</ele>
        <time>2012-12-10T11:12:33.000Z</time>
      </trkpt>
      <trkpt lat="46.07702" lon="6.10429">
        <ele>819</ele>
        <time>2012-12-10T11:12:36.000Z</time>
      </trkpt>
      <trkpt lat="46.07699" lon="6.10428">
        <ele>819</ele>
        <time>2012-12-10T11:12:39.000Z</time>
      </trkpt>
      <trkpt lat="46.07693" lon="6.10426">
        <ele>819</ele>
        <time>2012-12-10T11:12:46.000Z</time>
      </trkpt>
      <trkpt lat="46.07692" lon="6.10425">
        <ele>820.20001220703</ele>
        <time>2012-12-10T11:12:47.000Z</time>
      </trkpt>
      <trkpt lat="46.07687" lon="6.10424">
        <ele>820.20001220703</ele>
        <time>2012-12-10T11:12:52.000Z</time>
      </trkpt>
      <trkpt lat="46.07684" lon="6.10424">
        <ele>821.20001220703</ele>
        <time>2012-12-10T11:12:55.000Z</time>
      </trkpt>
      <trkpt lat="46.07682" lon="6.10424">
        <ele>821.20001220703</ele>
        <time>2012-12-10T11:12:58.000Z</time>
      </trkpt>
      <trkpt lat="46.07678" lon="6.10423">
        <ele>822.20001220703</ele>
        <time>2012-12-10T11:13:03.000Z</time>
      </trkpt>
      <trkpt lat="46.07676" lon="6.10423">
        <ele>822.20001220703</ele>
        <time>2012-12-10T11:13:06.000Z</time>
      </trkpt>
      <trkpt lat="46.07669" lon="6.10423">
        <ele>822.20001220703</ele>
        <time>2012-12-10T11:13:13.000Z</time>
      </trkpt>
      <trkpt lat="46.07662" lon="6.10423">
        <ele>822.20001220703</ele>
        <time>2012-12-10T11:13:21.000Z</time>
      </trkpt>
      <trkpt lat="46.07657" lon="6.10423">
        <ele>822.20001220703</ele>
        <time>2012-12-10T11:13:27.000Z</time>
      </trkpt>
      <trkpt lat="46.07655" lon="6.10422">
        <ele>822.20001220703</ele>
        <time>2012-12-10T11:13:30.000Z</time>
      </trkpt>
      <trkpt lat="46.07652" lon="6.10421">
        <ele>822.20001220703</ele>
        <time>2012-12-10T11:13:33.000Z</time>
      </trkpt>
      <trkpt lat="46.07651" lon="6.10421">
        <ele>822.20001220703</ele>
        <time>2012-12-10T11:13:34.000Z</time>
      </trkpt>
      <trkpt lat="46.07647" lon="6.1042">
        <ele>823.20001220703</ele>
        <time>2012-12-10T11:13:38.000Z</time>
      </trkpt>
      <trkpt lat="46.07646" lon="6.1042">
        <ele>823.20001220703</ele>
        <time>2012-12-10T11:13:39.000Z</time>
      </trkpt>
      <trkpt lat="46.0764" lon="6.10419">
        <ele>823.20001220703</ele>
        <time>2012-12-10T11:13:45.000Z</time>
      </trkpt>
      <trkpt lat="46.07634" lon="6.10418">
        <ele>823.20001220703</ele>
        <time>2012-12-10T11:13:51.000Z</time>
      </trkpt>
      <trkpt lat="46.07633" lon="6.10418">
        <ele>824.20001220703</ele>
        <time>2012-12-10T11:13:53.000Z</time>
      </trkpt>
      <trkpt lat="46.0763" lon="6.10417">
        <ele>824.20001220703</ele>
        <time>2012-12-10T11:13:56.000Z</time>
      </trkpt>
      <trkpt lat="46.07629" lon="6.10416">
        <ele>824.20001220703</ele>
        <time>2012-12-10T11:13:58.000Z</time>
      </trkpt>
      <trkpt lat="46.07623" lon="6.10414">
        <ele>824.20001220703</ele>
        <time>2012-12-10T11:14:04.000Z</time>
      </trkpt>
      <trkpt lat="46.07621" lon="6.10414">
        <ele>825.20001220703</ele>
        <time>2012-12-10T11:14:07.000Z</time>
      </trkpt>
      <trkpt lat="46.07618" lon="6.10414">
        <ele>825.20001220703</ele>
        <time>2012-12-10T11:14:11.000Z</time>
      </trkpt>
      <trkpt lat="46.07617" lon="6.10413">
        <ele>825.20001220703</ele>
        <time>2012-12-10T11:14:12.000Z</time>
      </trkpt>
      <trkpt lat="46.07613" lon="6.10413">
        <ele>825.20001220703</ele>
        <time>2012-12-10T11:14:16.000Z</time>
      </trkpt>
      <trkpt lat="46.07611" lon="6.10413">
        <ele>826.40002441406</ele>
        <time>2012-12-10T11:14:19.000Z</time>
      </trkpt>
      <trkpt lat="46.07609" lon="6.10414">
        <ele>826.40002441406</ele>
        <time>2012-12-10T11:14:21.000Z</time>
      </trkpt>
      <trkpt lat="46.07603" lon="6.10413">
        <ele>826.40002441406</ele>
        <time>2012-12-10T11:14:28.000Z</time>
      </trkpt>
      <trkpt lat="46.07599" lon="6.10414">
        <ele>827.40002441406</ele>
        <time>2012-12-10T11:14:33.000Z</time>
      </trkpt>
      <trkpt lat="46.07597" lon="6.10413">
        <ele>827.40002441406</ele>
        <time>2012-12-10T11:14:35.000Z</time>
      </trkpt>
      <trkpt lat="46.07592" lon="6.10413">
        <ele>827.40002441406</ele>
        <time>2012-12-10T11:14:41.000Z</time>
      </trkpt>
      <trkpt lat="46.07591" lon="6.10414">
        <ele>827.40002441406</ele>
        <time>2012-12-10T11:14:42.000Z</time>
      </trkpt>
      <trkpt lat="46.07583" lon="6.10414">
        <ele>828.40002441406</ele>
        <time>2012-12-10T11:14:50.000Z</time>
      </trkpt>
      <trkpt lat="46.07577" lon="6.10414">
        <ele>828.40002441406</ele>
        <time>2012-12-10T11:14:56.000Z</time>
      </trkpt>
      <trkpt lat="46.07569" lon="6.10415">
        <ele>828.40002441406</ele>
        <time>2012-12-10T11:15:04.000Z</time>
      </trkpt>
      <trkpt lat="46.07561" lon="6.10416">
        <ele>828.40002441406</ele>
        <time>2012-12-10T11:15:12.000Z</time>
      </trkpt>
      <trkpt lat="46.07555" lon="6.10418">
        <ele>828.40002441406</ele>
        <time>2012-12-10T11:15:18.000Z</time>
      </trkpt>
      <trkpt lat="46.07551" lon="6.10418">
        <ele>829.40002441406</ele>
        <time>2012-12-10T11:15:22.000Z</time>
      </trkpt>
      <trkpt lat="46.07547" lon="6.10419">
        <ele>829.40002441406</ele>
        <time>2012-12-10T11:15:26.000Z</time>
      </trkpt>
      <trkpt lat="46.07539" lon="6.10419">
        <ele>829.40002441406</ele>
        <time>2012-12-10T11:15:33.000Z</time>
      </trkpt>
      <trkpt lat="46.07536" lon="6.10418">
        <ele>830.40002441406</ele>
        <time>2012-12-10T11:15:36.000Z</time>
      </trkpt>
      <trkpt lat="46.07531" lon="6.10415">
        <ele>830.40002441406</ele>
        <time>2012-12-10T11:15:41.000Z</time>
      </trkpt>
      <trkpt lat="46.07524" lon="6.10408">
        <ele>831.59997558594</ele>
        <time>2012-12-10T11:15:49.000Z</time>
      </trkpt>
      <trkpt lat="46.07519" lon="6.10402">
        <ele>831.59997558594</ele>
        <time>2012-12-10T11:15:56.000Z</time>
      </trkpt>
      <trkpt lat="46.07517" lon="6.10401">
        <ele>831.59997558594</ele>
        <time>2012-12-10T11:15:58.000Z</time>
      </trkpt>
      <trkpt lat="46.07516" lon="6.10399">
        <ele>832.59997558594</ele>
        <time>2012-12-10T11:16:00.000Z</time>
      </trkpt>
      <trkpt lat="46.07515" lon="6.10399">
        <ele>832.59997558594</ele>
        <time>2012-12-10T11:16:01.000Z</time>
      </trkpt>
      <trkpt lat="46.07514" lon="6.10398">
        <ele>832.59997558594</ele>
        <time>2012-12-10T11:16:02.000Z</time>
      </trkpt>
      <trkpt lat="46.0751" lon="6.10394">
        <ele>832.59997558594</ele>
        <time>2012-12-10T11:16:07.000Z</time>
      </trkpt>
      <trkpt lat="46.07508" lon="6.10392">
        <ele>833.59997558594</ele>
        <time>2012-12-10T11:16:10.000Z</time>
      </trkpt>
      <trkpt lat="46.07504" lon="6.10388">
        <ele>833.59997558594</ele>
        <time>2012-12-10T11:16:15.000Z</time>
      </trkpt>
      <trkpt lat="46.07498" lon="6.10382">
        <ele>835</ele>
        <time>2012-12-10T11:16:22.000Z</time>
      </trkpt>
      <trkpt lat="46.07494" lon="6.10376">
        <ele>835</ele>
        <time>2012-12-10T11:16:28.000Z</time>
      </trkpt>
      <trkpt lat="46.07493" lon="6.10375">
        <ele>836</ele>
        <time>2012-12-10T11:16:29.000Z</time>
      </trkpt>
      <trkpt lat="46.07489" lon="6.1037">
        <ele>836</ele>
        <time>2012-12-10T11:16:35.000Z</time>
      </trkpt>
      <trkpt lat="46.07488" lon="6.10368">
        <ele>837</ele>
        <time>2012-12-10T11:16:37.000Z</time>
      </trkpt>
      <trkpt lat="46.07485" lon="6.10365">
        <ele>837</ele>
        <time>2012-12-10T11:16:41.000Z</time>
      </trkpt>
      <trkpt lat="46.07482" lon="6.10362">
        <ele>838.20001220703</ele>
        <time>2012-12-10T11:16:45.000Z</time>
      </trkpt>
      <trkpt lat="46.07482" lon="6.10361">
        <ele>838.20001220703</ele>
        <time>2012-12-10T11:16:46.000Z</time>
      </trkpt>
      <trkpt lat="46.07478" lon="6.10355">
        <ele>838.20001220703</ele>
        <time>2012-12-10T11:16:52.000Z</time>
      </trkpt>
      <trkpt lat="46.07474" lon="6.10348">
        <ele>838.20001220703</ele>
        <time>2012-12-10T11:16:58.000Z</time>
      </trkpt>
      <trkpt lat="46.0747" lon="6.10343">
        <ele>838.20001220703</ele>
        <time>2012-12-10T11:17:04.000Z</time>
      </trkpt>
      <trkpt lat="46.07464" lon="6.10335">
        <ele>838.20001220703</ele>
        <time>2012-12-10T11:17:11.000Z</time>
      </trkpt>
      <trkpt lat="46.07461" lon="6.1033">
        <ele>838.20001220703</ele>
        <time>2012-12-10T11:17:16.000Z</time>
      </trkpt>
      <trkpt lat="46.0746" lon="6.10327">
        <ele>838.20001220703</ele>
        <time>2012-12-10T11:17:18.000Z</time>
      </trkpt>
      <trkpt lat="46.07456" lon="6.10321">
        <ele>838.20001220703</ele>
        <time>2012-12-10T11:17:23.000Z</time>
      </trkpt>
      <trkpt lat="46.07455" lon="6.10319">
        <ele>838.20001220703</ele>
        <time>2012-12-10T11:17:24.000Z</time>
      </trkpt>
      <trkpt lat="46.0745" lon="6.1031">
        <ele>838.20001220703</ele>
        <time>2012-12-10T11:17:31.000Z</time>
      </trkpt>
      <trkpt lat="46.07445" lon="6.10302">
        <ele>838.20001220703</ele>
        <time>2012-12-10T11:17:38.000Z</time>
      </trkpt>
      <trkpt lat="46.0744" lon="6.10294">
        <ele>838.20001220703</ele>
        <time>2012-12-10T11:17:45.000Z</time>
      </trkpt>
      <trkpt lat="46.07434" lon="6.10285">
        <ele>838.20001220703</ele>
        <time>2012-12-10T11:17:53.000Z</time>
      </trkpt>
      <trkpt lat="46.0743" lon="6.10279">
        <ele>838.20001220703</ele>
        <time>2012-12-10T11:17:59.000Z</time>
      </trkpt>
      <trkpt lat="46.07428" lon="6.10274">
        <ele>838.20001220703</ele>
        <time>2012-12-10T11:18:03.000Z</time>
      </trkpt>
      <trkpt lat="46.07426" lon="6.1027">
        <ele>838.20001220703</ele>
        <time>2012-12-10T11:18:07.000Z</time>
      </trkpt>
      <trkpt lat="46.07423" lon="6.10265">
        <ele>838.20001220703</ele>
        <time>2012-12-10T11:18:11.000Z</time>
      </trkpt>
      <trkpt lat="46.07422" lon="6.10263">
        <ele>838.20001220703</ele>
        <time>2012-12-10T11:18:13.000Z</time>
      </trkpt>
      <trkpt lat="46.07421" lon="6.1026">
        <ele>838.20001220703</ele>
        <time>2012-12-10T11:18:16.000Z</time>
      </trkpt>
      <trkpt lat="46.07419" lon="6.10256">
        <ele>838.20001220703</ele>
        <time>2012-12-10T11:18:19.000Z</time>
      </trkpt>
      <trkpt lat="46.07417" lon="6.10253">
        <ele>838.20001220703</ele>
        <time>2012-12-10T11:18:22.000Z</time>
      </trkpt>
      <trkpt lat="46.07415" lon="6.10249">
        <ele>838.20001220703</ele>
        <time>2012-12-10T11:18:26.000Z</time>
      </trkpt>
      <trkpt lat="46.07412" lon="6.10243">
        <ele>838.20001220703</ele>
        <time>2012-12-10T11:18:31.000Z</time>
      </trkpt>
      <trkpt lat="46.07411" lon="6.10242">
        <ele>838.20001220703</ele>
        <time>2012-12-10T11:18:32.000Z</time>
      </trkpt>
      <trkpt lat="46.07406" lon="6.10236">
        <ele>838.20001220703</ele>
        <time>2012-12-10T11:18:38.000Z</time>
      </trkpt>
      <trkpt lat="46.07397" lon="6.10227">
        <ele>838.20001220703</ele>
        <time>2012-12-10T11:18:48.000Z</time>
      </trkpt>
      <trkpt lat="46.0739" lon="6.10218">
        <ele>838.20001220703</ele>
        <time>2012-12-10T11:18:56.000Z</time>
      </trkpt>
      <trkpt lat="46.07388" lon="6.10215">
        <ele>835.20001220703</ele>
        <time>2012-12-10T11:18:59.000Z</time>
      </trkpt>
      <trkpt lat="46.07387" lon="6.10213">
        <ele>835.20001220703</ele>
        <time>2012-12-10T11:19:00.000Z</time>
      </trkpt>
      <trkpt lat="46.07385" lon="6.10211">
        <ele>835.20001220703</ele>
        <time>2012-12-10T11:19:02.000Z</time>
      </trkpt>
      <trkpt lat="46.07383" lon="6.10208">
        <ele>835.20001220703</ele>
        <time>2012-12-10T11:19:05.000Z</time>
      </trkpt>
      <trkpt lat="46.07379" lon="6.10204">
        <ele>835.20001220703</ele>
        <time>2012-12-10T11:19:09.000Z</time>
      </trkpt>
      <trkpt lat="46.07374" lon="6.102">
        <ele>835.20001220703</ele>
        <time>2012-12-10T11:19:15.000Z</time>
      </trkpt>
      <trkpt lat="46.0737" lon="6.10197">
        <ele>835.20001220703</ele>
        <time>2012-12-10T11:19:19.000Z</time>
      </trkpt>
      <trkpt lat="46.07369" lon="6.10197">
        <ele>835.20001220703</ele>
        <time>2012-12-10T11:19:20.000Z</time>
      </trkpt>
      <trkpt lat="46.07364" lon="6.10192">
        <ele>835.20001220703</ele>
        <time>2012-12-10T11:19:26.000Z</time>
      </trkpt>
      <trkpt lat="46.07359" lon="6.10186">
        <ele>835.20001220703</ele>
        <time>2012-12-10T11:19:33.000Z</time>
      </trkpt>
      <trkpt lat="46.07355" lon="6.10184">
        <ele>835.20001220703</ele>
        <time>2012-12-10T11:19:37.000Z</time>
      </trkpt>
      <trkpt lat="46.07354" lon="6.10183">
        <ele>835.20001220703</ele>
        <time>2012-12-10T11:19:39.000Z</time>
      </trkpt>
      <trkpt lat="46.0735" lon="6.1018">
        <ele>835.20001220703</ele>
        <time>2012-12-10T11:19:44.000Z</time>
      </trkpt>
      <trkpt lat="46.0735" lon="6.10179">
        <ele>838.20001220703</ele>
        <time>2012-12-10T11:19:45.000Z</time>
      </trkpt>
      <trkpt lat="46.07346" lon="6.10176">
        <ele>838.20001220703</ele>
        <time>2012-12-10T11:19:50.000Z</time>
      </trkpt>
      <trkpt lat="46.07345" lon="6.10175">
        <ele>839.20001220703</ele>
        <time>2012-12-10T11:19:51.000Z</time>
      </trkpt>
      <trkpt lat="46.07341" lon="6.10172">
        <ele>840.20001220703</ele>
        <time>2012-12-10T11:19:57.000Z</time>
      </trkpt>
      <trkpt lat="46.07339" lon="6.10169">
        <ele>840.20001220703</ele>
        <time>2012-12-10T11:20:00.000Z</time>
      </trkpt>
      <trkpt lat="46.07338" lon="6.10168">
        <ele>840.20001220703</ele>
        <time>2012-12-10T11:20:03.000Z</time>
      </trkpt>
      <trkpt lat="46.07334" lon="6.10164">
        <ele>841.20001220703</ele>
        <time>2012-12-10T11:20:08.000Z</time>
      </trkpt>
      <trkpt lat="46.07332" lon="6.10162">
        <ele>841.20001220703</ele>
        <time>2012-12-10T11:20:10.000Z</time>
      </trkpt>
      <trkpt lat="46.07327" lon="6.10157">
        <ele>841.20001220703</ele>
        <time>2012-12-10T11:20:17.000Z</time>
      </trkpt>
      <trkpt lat="46.07321" lon="6.10151">
        <ele>841.20001220703</ele>
        <time>2012-12-10T11:20:24.000Z</time>
      </trkpt>
      <trkpt lat="46.07317" lon="6.10148">
        <ele>841.20001220703</ele>
        <time>2012-12-10T11:20:29.000Z</time>
      </trkpt>
      <trkpt lat="46.07311" lon="6.10143">
        <ele>841.20001220703</ele>
        <time>2012-12-10T11:20:36.000Z</time>
      </trkpt>
      <trkpt lat="46.07308" lon="6.1014">
        <ele>841.20001220703</ele>
        <time>2012-12-10T11:20:39.000Z</time>
      </trkpt>
      <trkpt lat="46.07305" lon="6.10137">
        <ele>841.20001220703</ele>
        <time>2012-12-10T11:20:42.000Z</time>
      </trkpt>
      <trkpt lat="46.07301" lon="6.10132">
        <ele>841.20001220703</ele>
        <time>2012-12-10T11:20:48.000Z</time>
      </trkpt>
      <trkpt lat="46.07298" lon="6.1013">
        <ele>841.20001220703</ele>
        <time>2012-12-10T11:20:52.000Z</time>
      </trkpt>
      <trkpt lat="46.07297" lon="6.10128">
        <ele>841.20001220703</ele>
        <time>2012-12-10T11:20:54.000Z</time>
      </trkpt>
      <trkpt lat="46.07296" lon="6.10128">
        <ele>842.20001220703</ele>
        <time>2012-12-10T11:20:56.000Z</time>
      </trkpt>
      <trkpt lat="46.07294" lon="6.10127">
        <ele>842.20001220703</ele>
        <time>2012-12-10T11:20:59.000Z</time>
      </trkpt>
      <trkpt lat="46.07291" lon="6.10123">
        <ele>842.20001220703</ele>
        <time>2012-12-10T11:21:05.000Z</time>
      </trkpt>
      <trkpt lat="46.0729" lon="6.10122">
        <ele>843.40002441406</ele>
        <time>2012-12-10T11:21:06.000Z</time>
      </trkpt>
      <trkpt lat="46.07287" lon="6.10119">
        <ele>843.40002441406</ele>
        <time>2012-12-10T11:21:10.000Z</time>
      </trkpt>
      <trkpt lat="46.07283" lon="6.10116">
        <ele>843.40002441406</ele>
        <time>2012-12-10T11:21:17.000Z</time>
      </trkpt>
      <trkpt lat="46.07279" lon="6.10112">
        <ele>843.40002441406</ele>
        <time>2012-12-10T11:21:24.000Z</time>
      </trkpt>
      <trkpt lat="46.07275" lon="6.10108">
        <ele>844.40002441406</ele>
        <time>2012-12-10T11:21:29.000Z</time>
      </trkpt>
      <trkpt lat="46.0727" lon="6.10105">
        <ele>845.40002441406</ele>
        <time>2012-12-10T11:21:35.000Z</time>
      </trkpt>
      <trkpt lat="46.07269" lon="6.10104">
        <ele>845.40002441406</ele>
        <time>2012-12-10T11:21:36.000Z</time>
      </trkpt>
      <trkpt lat="46.07267" lon="6.10104">
        <ele>845.40002441406</ele>
        <time>2012-12-10T11:21:37.000Z</time>
      </trkpt>
      <trkpt lat="46.07266" lon="6.10103">
        <ele>845.40002441406</ele>
        <time>2012-12-10T11:21:39.000Z</time>
      </trkpt>
      <trkpt lat="46.07265" lon="6.10102">
        <ele>845.40002441406</ele>
        <time>2012-12-10T11:21:40.000Z</time>
      </trkpt>
      <trkpt lat="46.07264" lon="6.10101">
        <ele>845.40002441406</ele>
        <time>2012-12-10T11:21:42.000Z</time>
      </trkpt>
      <trkpt lat="46.07262" lon="6.10099">
        <ele>846.40002441406</ele>
        <time>2012-12-10T11:21:44.000Z</time>
      </trkpt>
      <trkpt lat="46.0726" lon="6.10097">
        <ele>846.40002441406</ele>
        <time>2012-12-10T11:21:45.000Z</time>
      </trkpt>
      <trkpt lat="46.07259" lon="6.10097">
        <ele>846.40002441406</ele>
        <time>2012-12-10T11:21:46.000Z</time>
      </trkpt>
      <trkpt lat="46.07255" lon="6.10092">
        <ele>846.40002441406</ele>
        <time>2012-12-10T11:21:50.000Z</time>
      </trkpt>
      <trkpt lat="46.07251" lon="6.1009">
        <ele>846.40002441406</ele>
        <time>2012-12-10T11:21:55.000Z</time>
      </trkpt>
      <trkpt lat="46.07249" lon="6.10089">
        <ele>847.40002441406</ele>
        <time>2012-12-10T11:21:57.000Z</time>
      </trkpt>
      <trkpt lat="46.07245" lon="6.10087">
        <ele>847.40002441406</ele>
        <time>2012-12-10T11:22:02.000Z</time>
      </trkpt>
      <trkpt lat="46.07243" lon="6.10085">
        <ele>847.40002441406</ele>
        <time>2012-12-10T11:22:04.000Z</time>
      </trkpt>
      <trkpt lat="46.07237" lon="6.10083">
        <ele>847.40002441406</ele>
        <time>2012-12-10T11:22:10.000Z</time>
      </trkpt>
      <trkpt lat="46.07235" lon="6.10081">
        <ele>847.40002441406</ele>
        <time>2012-12-10T11:22:12.000Z</time>
      </trkpt>
      <trkpt lat="46.07231" lon="6.10077">
        <ele>847.40002441406</ele>
        <time>2012-12-10T11:22:16.000Z</time>
      </trkpt>
      <trkpt lat="46.07228" lon="6.10076">
        <ele>847.40002441406</ele>
        <time>2012-12-10T11:22:19.000Z</time>
      </trkpt>
      <trkpt lat="46.07225" lon="6.10076">
        <ele>847.40002441406</ele>
        <time>2012-12-10T11:22:22.000Z</time>
      </trkpt>
      <trkpt lat="46.0722" lon="6.10073">
        <ele>847.40002441406</ele>
        <time>2012-12-10T11:22:28.000Z</time>
      </trkpt>
      <trkpt lat="46.07215" lon="6.10068">
        <ele>847.40002441406</ele>
        <time>2012-12-10T11:22:34.000Z</time>
      </trkpt>
      <trkpt lat="46.07215" lon="6.10067">
        <ele>847.40002441406</ele>
        <time>2012-12-10T11:22:35.000Z</time>
      </trkpt>
      <trkpt lat="46.07214" lon="6.10064">
        <ele>847.40002441406</ele>
        <time>2012-12-10T11:22:38.000Z</time>
      </trkpt>
      <trkpt lat="46.07213" lon="6.1006">
        <ele>847.40002441406</ele>
        <time>2012-12-10T11:22:41.000Z</time>
      </trkpt>
      <trkpt lat="46.07213" lon="6.10059">
        <ele>847.40002441406</ele>
        <time>2012-12-10T11:22:42.000Z</time>
      </trkpt>
      <trkpt lat="46.07211" lon="6.10053">
        <ele>847.40002441406</ele>
        <time>2012-12-10T11:22:46.000Z</time>
      </trkpt>
      <trkpt lat="46.0721" lon="6.10049">
        <ele>847.40002441406</ele>
        <time>2012-12-10T11:22:49.000Z</time>
      </trkpt>
      <trkpt lat="46.0721" lon="6.10046">
        <ele>847.40002441406</ele>
        <time>2012-12-10T11:22:51.000Z</time>
      </trkpt>
      <trkpt lat="46.07209" lon="6.10041">
        <ele>847.40002441406</ele>
        <time>2012-12-10T11:22:56.000Z</time>
      </trkpt>
      <trkpt lat="46.07207" lon="6.10038">
        <ele>847.40002441406</ele>
        <time>2012-12-10T11:22:57.000Z</time>
      </trkpt>
      <trkpt lat="46.07205" lon="6.10033">
        <ele>847.40002441406</ele>
        <time>2012-12-10T11:23:01.000Z</time>
      </trkpt>
      <trkpt lat="46.07203" lon="6.10025">
        <ele>847.40002441406</ele>
        <time>2012-12-10T11:23:06.000Z</time>
      </trkpt>
      <trkpt lat="46.07199" lon="6.10018">
        <ele>847.40002441406</ele>
        <time>2012-12-10T11:23:11.000Z</time>
      </trkpt>
      <trkpt lat="46.07198" lon="6.10015">
        <ele>847.40002441406</ele>
        <time>2012-12-10T11:23:13.000Z</time>
      </trkpt>
      <trkpt lat="46.07196" lon="6.10008">
        <ele>847.40002441406</ele>
        <time>2012-12-10T11:23:18.000Z</time>
      </trkpt>
      <trkpt lat="46.07194" lon="6.10001">
        <ele>847.40002441406</ele>
        <time>2012-12-10T11:23:24.000Z</time>
      </trkpt>
      <trkpt lat="46.07193" lon="6.1">
        <ele>847.40002441406</ele>
        <time>2012-12-10T11:23:25.000Z</time>
      </trkpt>
      <trkpt lat="46.07192" lon="6.09997">
        <ele>847.40002441406</ele>
        <time>2012-12-10T11:23:27.000Z</time>
      </trkpt>
      <trkpt lat="46.07191" lon="6.09992">
        <ele>847.40002441406</ele>
        <time>2012-12-10T11:23:30.000Z</time>
      </trkpt>
      <trkpt lat="46.07188" lon="6.09983">
        <ele>847.40002441406</ele>
        <time>2012-12-10T11:23:37.000Z</time>
      </trkpt>
      <trkpt lat="46.07184" lon="6.09972">
        <ele>847.40002441406</ele>
        <time>2012-12-10T11:23:44.000Z</time>
      </trkpt>
      <trkpt lat="46.0718" lon="6.09963">
        <ele>847.40002441406</ele>
        <time>2012-12-10T11:23:50.000Z</time>
      </trkpt>
      <trkpt lat="46.07179" lon="6.09956">
        <ele>847.40002441406</ele>
        <time>2012-12-10T11:23:55.000Z</time>
      </trkpt>
      <trkpt lat="46.07179" lon="6.09955">
        <ele>847.40002441406</ele>
        <time>2012-12-10T11:23:56.000Z</time>
      </trkpt>
      <trkpt lat="46.07179" lon="6.09954">
        <ele>847.40002441406</ele>
        <time>2012-12-10T11:24:02.000Z</time>
      </trkpt>
      <trkpt lat="46.0718" lon="6.09957">
        <ele>847.40002441406</ele>
        <time>2012-12-10T11:24:22.000Z</time>
      </trkpt>
      <trkpt lat="46.07173" lon="6.09936">
        <ele>847.40002441406</ele>
        <time>2012-12-10T11:24:40.000Z</time>
      </trkpt>
      <trkpt lat="46.07172" lon="6.0993">
        <ele>847.40002441406</ele>
        <time>2012-12-10T11:24:47.000Z</time>
      </trkpt>
      <trkpt lat="46.07172" lon="6.09929">
        <ele>848.40002441406</ele>
        <time>2012-12-10T11:24:48.000Z</time>
      </trkpt>
      <trkpt lat="46.07171" lon="6.09922">
        <ele>848.40002441406</ele>
        <time>2012-12-10T11:24:53.000Z</time>
      </trkpt>
      <trkpt lat="46.07171" lon="6.09919">
        <ele>849.40002441406</ele>
        <time>2012-12-10T11:24:56.000Z</time>
      </trkpt>
      <trkpt lat="46.07171" lon="6.09915">
        <ele>849.40002441406</ele>
        <time>2012-12-10T11:25:00.000Z</time>
      </trkpt>
      <trkpt lat="46.0717" lon="6.09911">
        <ele>849.40002441406</ele>
        <time>2012-12-10T11:25:03.000Z</time>
      </trkpt>
      <trkpt lat="46.07169" lon="6.09908">
        <ele>849.40002441406</ele>
        <time>2012-12-10T11:25:06.000Z</time>
      </trkpt>
      <trkpt lat="46.07166" lon="6.09904">
        <ele>849.40002441406</ele>
        <time>2012-12-10T11:25:09.000Z</time>
      </trkpt>
      <trkpt lat="46.07166" lon="6.09903">
        <ele>849.40002441406</ele>
        <time>2012-12-10T11:25:10.000Z</time>
      </trkpt>
      <trkpt lat="46.07163" lon="6.09898">
        <ele>849.40002441406</ele>
        <time>2012-12-10T11:25:15.000Z</time>
      </trkpt>
      <trkpt lat="46.0716" lon="6.09894">
        <ele>849.40002441406</ele>
        <time>2012-12-10T11:25:19.000Z</time>
      </trkpt>
      <trkpt lat="46.0716" lon="6.09892">
        <ele>849.40002441406</ele>
        <time>2012-12-10T11:25:20.000Z</time>
      </trkpt>
      <trkpt lat="46.07158" lon="6.09886">
        <ele>849.40002441406</ele>
        <time>2012-12-10T11:25:26.000Z</time>
      </trkpt>
      <trkpt lat="46.07155" lon="6.09877">
        <ele>849.40002441406</ele>
        <time>2012-12-10T11:25:33.000Z</time>
      </trkpt>
      <trkpt lat="46.07154" lon="6.09874">
        <ele>849.40002441406</ele>
        <time>2012-12-10T11:25:35.000Z</time>
      </trkpt>
      <trkpt lat="46.07153" lon="6.09872">
        <ele>849.40002441406</ele>
        <time>2012-12-10T11:25:37.000Z</time>
      </trkpt>
      <trkpt lat="46.07151" lon="6.0987">
        <ele>849.40002441406</ele>
        <time>2012-12-10T11:25:39.000Z</time>
      </trkpt>
      <trkpt lat="46.07148" lon="6.09867">
        <ele>850.59997558594</ele>
        <time>2012-12-10T11:25:43.000Z</time>
      </trkpt>
      <trkpt lat="46.07147" lon="6.09865">
        <ele>850.59997558594</ele>
        <time>2012-12-10T11:25:45.000Z</time>
      </trkpt>
      <trkpt lat="46.07146" lon="6.09865">
        <ele>850.59997558594</ele>
        <time>2012-12-10T11:25:46.000Z</time>
      </trkpt>
      <trkpt lat="46.07145" lon="6.09864">
        <ele>851.59997558594</ele>
        <time>2012-12-10T11:25:48.000Z</time>
      </trkpt>
      <trkpt lat="46.07141" lon="6.0986">
        <ele>851.59997558594</ele>
        <time>2012-12-10T11:25:53.000Z</time>
      </trkpt>
      <trkpt lat="46.07139" lon="6.09857">
        <ele>852.59997558594</ele>
        <time>2012-12-10T11:25:57.000Z</time>
      </trkpt>
      <trkpt lat="46.07137" lon="6.09855">
        <ele>852.59997558594</ele>
        <time>2012-12-10T11:26:01.000Z</time>
      </trkpt>
      <trkpt lat="46.07133" lon="6.0985">
        <ele>854</ele>
        <time>2012-12-10T11:26:07.000Z</time>
      </trkpt>
      <trkpt lat="46.07129" lon="6.09848">
        <ele>855</ele>
        <time>2012-12-10T11:26:12.000Z</time>
      </trkpt>
      <trkpt lat="46.07124" lon="6.09844">
        <ele>855</ele>
        <time>2012-12-10T11:26:19.000Z</time>
      </trkpt>
      <trkpt lat="46.07121" lon="6.09842">
        <ele>856</ele>
        <time>2012-12-10T11:26:22.000Z</time>
      </trkpt>
      <trkpt lat="46.0712" lon="6.09841">
        <ele>856</ele>
        <time>2012-12-10T11:26:24.000Z</time>
      </trkpt>
      <trkpt lat="46.0712" lon="6.0984">
        <ele>856</ele>
        <time>2012-12-10T11:26:25.000Z</time>
      </trkpt>
      <trkpt lat="46.07119" lon="6.09839">
        <ele>856</ele>
        <time>2012-12-10T11:26:26.000Z</time>
      </trkpt>
      <trkpt lat="46.07115" lon="6.09836">
        <ele>856</ele>
        <time>2012-12-10T11:26:30.000Z</time>
      </trkpt>
      <trkpt lat="46.07115" lon="6.09836">
        <ele>856</ele>
        <time>2012-12-10T11:26:36.000Z</time>
      </trkpt>
      <trkpt lat="46.07115" lon="6.09835">
        <ele>856</ele>
        <time>2012-12-10T11:26:42.000Z</time>
      </trkpt>
      <trkpt lat="46.07115" lon="6.09836">
        <ele>856</ele>
        <time>2012-12-10T11:26:54.000Z</time>
      </trkpt>
      <trkpt lat="46.07113" lon="6.09833">
        <ele>856</ele>
        <time>2012-12-10T11:27:05.000Z</time>
      </trkpt>
      <trkpt lat="46.07111" lon="6.09833">
        <ele>856</ele>
        <time>2012-12-10T11:27:17.000Z</time>
      </trkpt>
      <trkpt lat="46.07111" lon="6.09832">
        <ele>856</ele>
        <time>2012-12-10T11:27:26.000Z</time>
      </trkpt>
      <trkpt lat="46.0711" lon="6.09832">
        <ele>856</ele>
        <time>2012-12-10T11:27:33.000Z</time>
      </trkpt>
      <trkpt lat="46.07105" lon="6.09826">
        <ele>856</ele>
        <time>2012-12-10T11:27:40.000Z</time>
      </trkpt>
      <trkpt lat="46.071" lon="6.0982">
        <ele>856</ele>
        <time>2012-12-10T11:27:47.000Z</time>
      </trkpt>
      <trkpt lat="46.07094" lon="6.09815">
        <ele>856</ele>
        <time>2012-12-10T11:27:54.000Z</time>
      </trkpt>
      <trkpt lat="46.07092" lon="6.09812">
        <ele>857.20001220703</ele>
        <time>2012-12-10T11:27:56.000Z</time>
      </trkpt>
      <trkpt lat="46.07092" lon="6.09812">
        <ele>857.20001220703</ele>
        <time>2012-12-10T11:27:57.000Z</time>
      </trkpt>
      <trkpt lat="46.0709" lon="6.0981">
        <ele>857.20001220703</ele>
        <time>2012-12-10T11:27:59.000Z</time>
      </trkpt>
      <trkpt lat="46.07087" lon="6.09808">
        <ele>857.20001220703</ele>
        <time>2012-12-10T11:28:03.000Z</time>
      </trkpt>
      <trkpt lat="46.07086" lon="6.09807">
        <ele>857.20001220703</ele>
        <time>2012-12-10T11:28:05.000Z</time>
      </trkpt>
      <trkpt lat="46.07085" lon="6.09806">
        <ele>858.40002441406</ele>
        <time>2012-12-10T11:28:06.000Z</time>
      </trkpt>
      <trkpt lat="46.07081" lon="6.09804">
        <ele>858.40002441406</ele>
        <time>2012-12-10T11:28:11.000Z</time>
      </trkpt>
      <trkpt lat="46.07075" lon="6.09799">
        <ele>859.40002441406</ele>
        <time>2012-12-10T11:28:17.000Z</time>
      </trkpt>
      <trkpt lat="46.07075" lon="6.09798">
        <ele>859.40002441406</ele>
        <time>2012-12-10T11:28:18.000Z</time>
      </trkpt>
      <trkpt lat="46.07074" lon="6.09798">
        <ele>859.40002441406</ele>
        <time>2012-12-10T11:28:19.000Z</time>
      </trkpt>
      <trkpt lat="46.0707" lon="6.09796">
        <ele>859.40002441406</ele>
        <time>2012-12-10T11:28:24.000Z</time>
      </trkpt>
      <trkpt lat="46.07065" lon="6.0979">
        <ele>860.40002441406</ele>
        <time>2012-12-10T11:28:30.000Z</time>
      </trkpt>
      <trkpt lat="46.07061" lon="6.09785">
        <ele>860.40002441406</ele>
        <time>2012-12-10T11:28:36.000Z</time>
      </trkpt>
      <trkpt lat="46.0706" lon="6.09785">
        <ele>860.40002441406</ele>
        <time>2012-12-10T11:28:37.000Z</time>
      </trkpt>
      <trkpt lat="46.07058" lon="6.09783">
        <ele>861.40002441406</ele>
        <time>2012-12-10T11:28:40.000Z</time>
      </trkpt>
      <trkpt lat="46.07055" lon="6.09779">
        <ele>861.40002441406</ele>
        <time>2012-12-10T11:28:43.000Z</time>
      </trkpt>
      <trkpt lat="46.07055" lon="6.09779">
        <ele>861.40002441406</ele>
        <time>2012-12-10T11:28:44.000Z</time>
      </trkpt>
      <trkpt lat="46.0705" lon="6.09772">
        <ele>861.40002441406</ele>
        <time>2012-12-10T11:28:50.000Z</time>
      </trkpt>
      <trkpt lat="46.07046" lon="6.09766">
        <ele>861.40002441406</ele>
        <time>2012-12-10T11:28:56.000Z</time>
      </trkpt>
      <trkpt lat="46.07043" lon="6.0976">
        <ele>861.40002441406</ele>
        <time>2012-12-10T11:29:01.000Z</time>
      </trkpt>
      <trkpt lat="46.07041" lon="6.09754">
        <ele>861.40002441406</ele>
        <time>2012-12-10T11:29:07.000Z</time>
      </trkpt>
      <trkpt lat="46.07038" lon="6.09747">
        <ele>862.40002441406</ele>
        <time>2012-12-10T11:29:12.000Z</time>
      </trkpt>
      <trkpt lat="46.07037" lon="6.09747">
        <ele>862.40002441406</ele>
        <time>2012-12-10T11:29:13.000Z</time>
      </trkpt>
      <trkpt lat="46.07034" lon="6.09738">
        <ele>862.40002441406</ele>
        <time>2012-12-10T11:29:19.000Z</time>
      </trkpt>
      <trkpt lat="46.07029" lon="6.09729">
        <ele>862.40002441406</ele>
        <time>2012-12-10T11:29:26.000Z</time>
      </trkpt>
      <trkpt lat="46.07028" lon="6.09727">
        <ele>863.40002441406</ele>
        <time>2012-12-10T11:29:27.000Z</time>
      </trkpt>
      <trkpt lat="46.07025" lon="6.0972">
        <ele>863.40002441406</ele>
        <time>2012-12-10T11:29:33.000Z</time>
      </trkpt>
      <trkpt lat="46.07021" lon="6.09713">
        <ele>864.59997558594</ele>
        <time>2012-12-10T11:29:39.000Z</time>
      </trkpt>
      <trkpt lat="46.07018" lon="6.0971">
        <ele>864.59997558594</ele>
        <time>2012-12-10T11:29:42.000Z</time>
      </trkpt>
      <trkpt lat="46.07017" lon="6.09709">
        <ele>864.59997558594</ele>
        <time>2012-12-10T11:29:43.000Z</time>
      </trkpt>
      <trkpt lat="46.07015" lon="6.09706">
        <ele>864.59997558594</ele>
        <time>2012-12-10T11:29:45.000Z</time>
      </trkpt>
      <trkpt lat="46.07014" lon="6.09704">
        <ele>864.59997558594</ele>
        <time>2012-12-10T11:29:47.000Z</time>
      </trkpt>
      <trkpt lat="46.07013" lon="6.09703">
        <ele>865.59997558594</ele>
        <time>2012-12-10T11:29:49.000Z</time>
      </trkpt>
      <trkpt lat="46.07012" lon="6.09701">
        <ele>865.59997558594</ele>
        <time>2012-12-10T11:29:50.000Z</time>
      </trkpt>
      <trkpt lat="46.0701" lon="6.09698">
        <ele>865.59997558594</ele>
        <time>2012-12-10T11:29:53.000Z</time>
      </trkpt>
      <trkpt lat="46.07009" lon="6.09695">
        <ele>865.59997558594</ele>
        <time>2012-12-10T11:29:56.000Z</time>
      </trkpt>
      <trkpt lat="46.07008" lon="6.0969">
        <ele>865.59997558594</ele>
        <time>2012-12-10T11:30:01.000Z</time>
      </trkpt>
      <trkpt lat="46.07008" lon="6.09689">
        <ele>865.59997558594</ele>
        <time>2012-12-10T11:30:02.000Z</time>
      </trkpt>
      <trkpt lat="46.07006" lon="6.09684">
        <ele>866.59997558594</ele>
        <time>2012-12-10T11:30:06.000Z</time>
      </trkpt>
      <trkpt lat="46.07005" lon="6.09683">
        <ele>866.59997558594</ele>
        <time>2012-12-10T11:30:07.000Z</time>
      </trkpt>
      <trkpt lat="46.07003" lon="6.09677">
        <ele>866.59997558594</ele>
        <time>2012-12-10T11:30:13.000Z</time>
      </trkpt>
      <trkpt lat="46.07003" lon="6.09676">
        <ele>866.59997558594</ele>
        <time>2012-12-10T11:30:14.000Z</time>
      </trkpt>
      <trkpt lat="46.07001" lon="6.09675">
        <ele>867.59997558594</ele>
        <time>2012-12-10T11:30:16.000Z</time>
      </trkpt>
      <trkpt lat="46.06997" lon="6.09672">
        <ele>868.59997558594</ele>
        <time>2012-12-10T11:30:21.000Z</time>
      </trkpt>
      <trkpt lat="46.06996" lon="6.09671">
        <ele>868.59997558594</ele>
        <time>2012-12-10T11:30:22.000Z</time>
      </trkpt>
      <trkpt lat="46.06995" lon="6.0967">
        <ele>868.59997558594</ele>
        <time>2012-12-10T11:30:24.000Z</time>
      </trkpt>
      <trkpt lat="46.06993" lon="6.09668">
        <ele>870</ele>
        <time>2012-12-10T11:30:27.000Z</time>
      </trkpt>
      <trkpt lat="46.06992" lon="6.09667">
        <ele>870</ele>
        <time>2012-12-10T11:30:28.000Z</time>
      </trkpt>
      <trkpt lat="46.06988" lon="6.09664">
        <ele>871</ele>
        <time>2012-12-10T11:30:34.000Z</time>
      </trkpt>
      <trkpt lat="46.06986" lon="6.09663">
        <ele>871</ele>
        <time>2012-12-10T11:30:36.000Z</time>
      </trkpt>
      <trkpt lat="46.06983" lon="6.09661">
        <ele>872</ele>
        <time>2012-12-10T11:30:40.000Z</time>
      </trkpt>
      <trkpt lat="46.06981" lon="6.0966">
        <ele>872</ele>
        <time>2012-12-10T11:30:42.000Z</time>
      </trkpt>
      <trkpt lat="46.06979" lon="6.09657">
        <ele>872</ele>
        <time>2012-12-10T11:30:45.000Z</time>
      </trkpt>
      <trkpt lat="46.06978" lon="6.09657">
        <ele>873</ele>
        <time>2012-12-10T11:30:46.000Z</time>
      </trkpt>
      <trkpt lat="46.06976" lon="6.09655">
        <ele>873</ele>
        <time>2012-12-10T11:30:48.000Z</time>
      </trkpt>
      <trkpt lat="46.06975" lon="6.09654">
        <ele>874.40002441406</ele>
        <time>2012-12-10T11:30:50.000Z</time>
      </trkpt>
      <trkpt lat="46.06972" lon="6.09651">
        <ele>874.40002441406</ele>
        <time>2012-12-10T11:30:54.000Z</time>
      </trkpt>
      <trkpt lat="46.06968" lon="6.09646">
        <ele>874.40002441406</ele>
        <time>2012-12-10T11:30:59.000Z</time>
      </trkpt>
      <trkpt lat="46.06963" lon="6.09638">
        <ele>874.40002441406</ele>
        <time>2012-12-10T11:31:06.000Z</time>
      </trkpt>
      <trkpt lat="46.06959" lon="6.09632">
        <ele>874.40002441406</ele>
        <time>2012-12-10T11:31:12.000Z</time>
      </trkpt>
      <trkpt lat="46.06956" lon="6.09625">
        <ele>874.40002441406</ele>
        <time>2012-12-10T11:31:18.000Z</time>
      </trkpt>
      <trkpt lat="46.06956" lon="6.0962">
        <ele>875.40002441406</ele>
        <time>2012-12-10T11:31:21.000Z</time>
      </trkpt>
      <trkpt lat="46.06955" lon="6.09619">
        <ele>875.40002441406</ele>
        <time>2012-12-10T11:31:22.000Z</time>
      </trkpt>
      <trkpt lat="46.06956" lon="6.09618">
        <ele>875.40002441406</ele>
        <time>2012-12-10T11:31:23.000Z</time>
      </trkpt>
      <trkpt lat="46.06955" lon="6.09617">
        <ele>875.40002441406</ele>
        <time>2012-12-10T11:31:24.000Z</time>
      </trkpt>
      <trkpt lat="46.06954" lon="6.09612">
        <ele>875.40002441406</ele>
        <time>2012-12-10T11:31:28.000Z</time>
      </trkpt>
      <trkpt lat="46.06953" lon="6.09606">
        <ele>876.40002441406</ele>
        <time>2012-12-10T11:31:33.000Z</time>
      </trkpt>
      <trkpt lat="46.06952" lon="6.09604">
        <ele>876.40002441406</ele>
        <time>2012-12-10T11:31:34.000Z</time>
      </trkpt>
      <trkpt lat="46.06952" lon="6.09602">
        <ele>876.40002441406</ele>
        <time>2012-12-10T11:31:35.000Z</time>
      </trkpt>
      <trkpt lat="46.06951" lon="6.09597">
        <ele>876.40002441406</ele>
        <time>2012-12-10T11:31:39.000Z</time>
      </trkpt>
      <trkpt lat="46.06951" lon="6.09595">
        <ele>877.40002441406</ele>
        <time>2012-12-10T11:31:41.000Z</time>
      </trkpt>
      <trkpt lat="46.0695" lon="6.09594">
        <ele>877.40002441406</ele>
        <time>2012-12-10T11:31:42.000Z</time>
      </trkpt>
      <trkpt lat="46.06949" lon="6.0959">
        <ele>877.40002441406</ele>
        <time>2012-12-10T11:31:46.000Z</time>
      </trkpt>
      <trkpt lat="46.06949" lon="6.09589">
        <ele>878.40002441406</ele>
        <time>2012-12-10T11:31:47.000Z</time>
      </trkpt>
      <trkpt lat="46.06949" lon="6.09583">
        <ele>878.40002441406</ele>
        <time>2012-12-10T11:31:52.000Z</time>
      </trkpt>
      <trkpt lat="46.06949" lon="6.0958">
        <ele>879.40002441406</ele>
        <time>2012-12-10T11:31:55.000Z</time>
      </trkpt>
      <trkpt lat="46.06949" lon="6.09578">
        <ele>879.40002441406</ele>
        <time>2012-12-10T11:31:58.000Z</time>
      </trkpt>
      <trkpt lat="46.06946" lon="6.09569">
        <ele>879.40002441406</ele>
        <time>2012-12-10T11:32:04.000Z</time>
      </trkpt>
      <trkpt lat="46.06945" lon="6.09567">
        <ele>879.40002441406</ele>
        <time>2012-12-10T11:32:06.000Z</time>
      </trkpt>
      <trkpt lat="46.06943" lon="6.09561">
        <ele>879.40002441406</ele>
        <time>2012-12-10T11:32:10.000Z</time>
      </trkpt>
      <trkpt lat="46.06941" lon="6.09558">
        <ele>879.40002441406</ele>
        <time>2012-12-10T11:32:14.000Z</time>
      </trkpt>
      <trkpt lat="46.0694" lon="6.09554">
        <ele>879.40002441406</ele>
        <time>2012-12-10T11:32:16.000Z</time>
      </trkpt>
      <trkpt lat="46.06936" lon="6.09545">
        <ele>879.40002441406</ele>
        <time>2012-12-10T11:32:23.000Z</time>
      </trkpt>
      <trkpt lat="46.06929" lon="6.09529">
        <ele>879.40002441406</ele>
        <time>2012-12-10T11:32:33.000Z</time>
      </trkpt>
      <trkpt lat="46.06927" lon="6.0952">
        <ele>880.40002441406</ele>
        <time>2012-12-10T11:32:38.000Z</time>
      </trkpt>
      <trkpt lat="46.06926" lon="6.09519">
        <ele>880.40002441406</ele>
        <time>2012-12-10T11:32:39.000Z</time>
      </trkpt>
      <trkpt lat="46.06924" lon="6.09509">
        <ele>880.40002441406</ele>
        <time>2012-12-10T11:32:45.000Z</time>
      </trkpt>
      <trkpt lat="46.06922" lon="6.09501">
        <ele>880.40002441406</ele>
        <time>2012-12-10T11:32:50.000Z</time>
      </trkpt>
      <trkpt lat="46.06921" lon="6.09494">
        <ele>880.40002441406</ele>
        <time>2012-12-10T11:32:55.000Z</time>
      </trkpt>
      <trkpt lat="46.0692" lon="6.09491">
        <ele>880.40002441406</ele>
        <time>2012-12-10T11:32:57.000Z</time>
      </trkpt>
      <trkpt lat="46.06918" lon="6.09486">
        <ele>880.40002441406</ele>
        <time>2012-12-10T11:33:01.000Z</time>
      </trkpt>
      <trkpt lat="46.06918" lon="6.09485">
        <ele>880.40002441406</ele>
        <time>2012-12-10T11:33:02.000Z</time>
      </trkpt>
      <trkpt lat="46.06917" lon="6.09482">
        <ele>880.40002441406</ele>
        <time>2012-12-10T11:33:04.000Z</time>
      </trkpt>
      <trkpt lat="46.06916" lon="6.09481">
        <ele>881.40002441406</ele>
        <time>2012-12-10T11:33:05.000Z</time>
      </trkpt>
      <trkpt lat="46.06914" lon="6.09475">
        <ele>881.40002441406</ele>
        <time>2012-12-10T11:33:10.000Z</time>
      </trkpt>
      <trkpt lat="46.06912" lon="6.09472">
        <ele>881.40002441406</ele>
        <time>2012-12-10T11:33:13.000Z</time>
      </trkpt>
      <trkpt lat="46.06911" lon="6.09468">
        <ele>881.40002441406</ele>
        <time>2012-12-10T11:33:16.000Z</time>
      </trkpt>
      <trkpt lat="46.0691" lon="6.09466">
        <ele>881.40002441406</ele>
        <time>2012-12-10T11:33:18.000Z</time>
      </trkpt>
      <trkpt lat="46.06908" lon="6.09461">
        <ele>881.40002441406</ele>
        <time>2012-12-10T11:33:22.000Z</time>
      </trkpt>
      <trkpt lat="46.06908" lon="6.0946">
        <ele>881.40002441406</ele>
        <time>2012-12-10T11:33:23.000Z</time>
      </trkpt>
      <trkpt lat="46.06907" lon="6.09457">
        <ele>883</ele>
        <time>2012-12-10T11:33:25.000Z</time>
      </trkpt>
      <trkpt lat="46.06906" lon="6.09455">
        <ele>883</ele>
        <time>2012-12-10T11:33:26.000Z</time>
      </trkpt>
      <trkpt lat="46.06906" lon="6.09453">
        <ele>883</ele>
        <time>2012-12-10T11:33:28.000Z</time>
      </trkpt>
      <trkpt lat="46.06906" lon="6.09452">
        <ele>883</ele>
        <time>2012-12-10T11:33:29.000Z</time>
      </trkpt>
      <trkpt lat="46.06905" lon="6.09449">
        <ele>883</ele>
        <time>2012-12-10T11:33:32.000Z</time>
      </trkpt>
      <trkpt lat="46.06903" lon="6.09447">
        <ele>883</ele>
        <time>2012-12-10T11:33:34.000Z</time>
      </trkpt>
      <trkpt lat="46.06902" lon="6.0944">
        <ele>884</ele>
        <time>2012-12-10T11:33:39.000Z</time>
      </trkpt>
      <trkpt lat="46.06902" lon="6.09435">
        <ele>884</ele>
        <time>2012-12-10T11:33:44.000Z</time>
      </trkpt>
      <trkpt lat="46.06901" lon="6.09432">
        <ele>885</ele>
        <time>2012-12-10T11:33:46.000Z</time>
      </trkpt>
      <trkpt lat="46.069" lon="6.09424">
        <ele>885</ele>
        <time>2012-12-10T11:33:51.000Z</time>
      </trkpt>
      <trkpt lat="46.069" lon="6.09423">
        <ele>886</ele>
        <time>2012-12-10T11:33:52.000Z</time>
      </trkpt>
      <trkpt lat="46.06897" lon="6.09415">
        <ele>887</ele>
        <time>2012-12-10T11:33:57.000Z</time>
      </trkpt>
      <trkpt lat="46.06898" lon="6.09416">
        <ele>887</ele>
        <time>2012-12-10T11:33:58.000Z</time>
      </trkpt>
      <trkpt lat="46.06897" lon="6.09413">
        <ele>887</ele>
        <time>2012-12-10T11:34:00.000Z</time>
      </trkpt>
      <trkpt lat="46.06897" lon="6.0941">
        <ele>888.20001220703</ele>
        <time>2012-12-10T11:34:03.000Z</time>
      </trkpt>
      <trkpt lat="46.06897" lon="6.09409">
        <ele>888.20001220703</ele>
        <time>2012-12-10T11:34:04.000Z</time>
      </trkpt>
      <trkpt lat="46.06897" lon="6.09403">
        <ele>889.40002441406</ele>
        <time>2012-12-10T11:34:09.000Z</time>
      </trkpt>
      <trkpt lat="46.06896" lon="6.09402">
        <ele>889.40002441406</ele>
        <time>2012-12-10T11:34:10.000Z</time>
      </trkpt>
      <trkpt lat="46.06896" lon="6.09397">
        <ele>889.40002441406</ele>
        <time>2012-12-10T11:34:14.000Z</time>
      </trkpt>
      <trkpt lat="46.06896" lon="6.09395">
        <ele>889.40002441406</ele>
        <time>2012-12-10T11:34:16.000Z</time>
      </trkpt>
      <trkpt lat="46.06894" lon="6.09388">
        <ele>891.40002441406</ele>
        <time>2012-12-10T11:34:21.000Z</time>
      </trkpt>
      <trkpt lat="46.06894" lon="6.09385">
        <ele>891.40002441406</ele>
        <time>2012-12-10T11:34:23.000Z</time>
      </trkpt>
      <trkpt lat="46.06893" lon="6.09381">
        <ele>892.40002441406</ele>
        <time>2012-12-10T11:34:26.000Z</time>
      </trkpt>
      <trkpt lat="46.06892" lon="6.09377">
        <ele>893.40002441406</ele>
        <time>2012-12-10T11:34:29.000Z</time>
      </trkpt>
      <trkpt lat="46.06891" lon="6.09373">
        <ele>893.40002441406</ele>
        <time>2012-12-10T11:34:32.000Z</time>
      </trkpt>
      <trkpt lat="46.0689" lon="6.09365">
        <ele>894.40002441406</ele>
        <time>2012-12-10T11:34:37.000Z</time>
      </trkpt>
      <trkpt lat="46.06887" lon="6.09355">
        <ele>894.40002441406</ele>
        <time>2012-12-10T11:34:43.000Z</time>
      </trkpt>
      <trkpt lat="46.06886" lon="6.09349">
        <ele>895.40002441406</ele>
        <time>2012-12-10T11:34:47.000Z</time>
      </trkpt>
      <trkpt lat="46.06885" lon="6.09345">
        <ele>895.40002441406</ele>
        <time>2012-12-10T11:34:50.000Z</time>
      </trkpt>
      <trkpt lat="46.06884" lon="6.09344">
        <ele>896.40002441406</ele>
        <time>2012-12-10T11:34:51.000Z</time>
      </trkpt>
      <trkpt lat="46.06884" lon="6.09336">
        <ele>896.40002441406</ele>
        <time>2012-12-10T11:34:57.000Z</time>
      </trkpt>
      <trkpt lat="46.06883" lon="6.09328">
        <ele>896.40002441406</ele>
        <time>2012-12-10T11:35:03.000Z</time>
      </trkpt>
      <trkpt lat="46.06882" lon="6.09322">
        <ele>896.40002441406</ele>
        <time>2012-12-10T11:35:09.000Z</time>
      </trkpt>
      <trkpt lat="46.06882" lon="6.0932">
        <ele>896.40002441406</ele>
        <time>2012-12-10T11:35:10.000Z</time>
      </trkpt>
      <trkpt lat="46.06883" lon="6.09312">
        <ele>896.40002441406</ele>
        <time>2012-12-10T11:35:16.000Z</time>
      </trkpt>
      <trkpt lat="46.06884" lon="6.09311">
        <ele>896.40002441406</ele>
        <time>2012-12-10T11:35:17.000Z</time>
      </trkpt>
      <trkpt lat="46.06888" lon="6.09304">
        <ele>896.40002441406</ele>
        <time>2012-12-10T11:35:24.000Z</time>
      </trkpt>
      <trkpt lat="46.06889" lon="6.09304">
        <ele>896.40002441406</ele>
        <time>2012-12-10T11:35:25.000Z</time>
      </trkpt>
      <trkpt lat="46.06892" lon="6.093">
        <ele>896.40002441406</ele>
        <time>2012-12-10T11:35:29.000Z</time>
      </trkpt>
      <trkpt lat="46.06896" lon="6.09292">
        <ele>896.40002441406</ele>
        <time>2012-12-10T11:35:36.000Z</time>
      </trkpt>
      <trkpt lat="46.06899" lon="6.09281">
        <ele>896.40002441406</ele>
        <time>2012-12-10T11:35:44.000Z</time>
      </trkpt>
      <trkpt lat="46.06902" lon="6.0927">
        <ele>896.40002441406</ele>
        <time>2012-12-10T11:35:51.000Z</time>
      </trkpt>
      <trkpt lat="46.06905" lon="6.09262">
        <ele>896.40002441406</ele>
        <time>2012-12-10T11:35:57.000Z</time>
      </trkpt>
      <trkpt lat="46.06906" lon="6.09254">
        <ele>896.40002441406</ele>
        <time>2012-12-10T11:36:02.000Z</time>
      </trkpt>
      <trkpt lat="46.06909" lon="6.09248">
        <ele>896.40002441406</ele>
        <time>2012-12-10T11:36:07.000Z</time>
      </trkpt>
      <trkpt lat="46.0691" lon="6.09246">
        <ele>896.40002441406</ele>
        <time>2012-12-10T11:36:08.000Z</time>
      </trkpt>
      <trkpt lat="46.06912" lon="6.09236">
        <ele>896.40002441406</ele>
        <time>2012-12-10T11:36:15.000Z</time>
      </trkpt>
      <trkpt lat="46.06914" lon="6.09228">
        <ele>896.40002441406</ele>
        <time>2012-12-10T11:36:21.000Z</time>
      </trkpt>
      <trkpt lat="46.06916" lon="6.09219">
        <ele>896.40002441406</ele>
        <time>2012-12-10T11:36:28.000Z</time>
      </trkpt>
      <trkpt lat="46.06918" lon="6.09208">
        <ele>896.40002441406</ele>
        <time>2012-12-10T11:36:35.000Z</time>
      </trkpt>
      <trkpt lat="46.06921" lon="6.09197">
        <ele>896.40002441406</ele>
        <time>2012-12-10T11:36:43.000Z</time>
      </trkpt>
      <trkpt lat="46.06923" lon="6.09188">
        <ele>896.40002441406</ele>
        <time>2012-12-10T11:36:49.000Z</time>
      </trkpt>
      <trkpt lat="46.06925" lon="6.09176">
        <ele>896.40002441406</ele>
        <time>2012-12-10T11:36:56.000Z</time>
      </trkpt>
      <trkpt lat="46.06928" lon="6.09166">
        <ele>896.40002441406</ele>
        <time>2012-12-10T11:37:03.000Z</time>
      </trkpt>
      <trkpt lat="46.06929" lon="6.09157">
        <ele>896.40002441406</ele>
        <time>2012-12-10T11:37:09.000Z</time>
      </trkpt>
      <trkpt lat="46.06932" lon="6.09145">
        <ele>896.40002441406</ele>
        <time>2012-12-10T11:37:16.000Z</time>
      </trkpt>
      <trkpt lat="46.06933" lon="6.09135">
        <ele>896.40002441406</ele>
        <time>2012-12-10T11:37:22.000Z</time>
      </trkpt>
      <trkpt lat="46.06935" lon="6.09124">
        <ele>896.40002441406</ele>
        <time>2012-12-10T11:37:28.000Z</time>
      </trkpt>
      <trkpt lat="46.06936" lon="6.09118">
        <ele>896.40002441406</ele>
        <time>2012-12-10T11:37:34.000Z</time>
      </trkpt>
      <trkpt lat="46.06936" lon="6.09117">
        <ele>896.40002441406</ele>
        <time>2012-12-10T11:37:40.000Z</time>
      </trkpt>
      <trkpt lat="46.06936" lon="6.09115">
        <ele>896.40002441406</ele>
        <time>2012-12-10T11:37:52.000Z</time>
      </trkpt>
      <trkpt lat="46.06936" lon="6.09106">
        <ele>896.40002441406</ele>
        <time>2012-12-10T11:37:59.000Z</time>
      </trkpt>
      <trkpt lat="46.06935" lon="6.09095">
        <ele>896.40002441406</ele>
        <time>2012-12-10T11:38:06.000Z</time>
      </trkpt>
      <trkpt lat="46.06934" lon="6.09085">
        <ele>896.40002441406</ele>
        <time>2012-12-10T11:38:12.000Z</time>
      </trkpt>
      <trkpt lat="46.0693" lon="6.09074">
        <ele>896.40002441406</ele>
        <time>2012-12-10T11:38:19.000Z</time>
      </trkpt>
      <trkpt lat="46.06925" lon="6.09064">
        <ele>896.40002441406</ele>
        <time>2012-12-10T11:38:26.000Z</time>
      </trkpt>
      <trkpt lat="46.06921" lon="6.09054">
        <ele>896.40002441406</ele>
        <time>2012-12-10T11:38:33.000Z</time>
      </trkpt>
      <trkpt lat="46.06916" lon="6.09045">
        <ele>896.40002441406</ele>
        <time>2012-12-10T11:38:40.000Z</time>
      </trkpt>
      <trkpt lat="46.06913" lon="6.09039">
        <ele>896.40002441406</ele>
        <time>2012-12-10T11:38:45.000Z</time>
      </trkpt>
      <trkpt lat="46.06908" lon="6.0903">
        <ele>896.40002441406</ele>
        <time>2012-12-10T11:38:52.000Z</time>
      </trkpt>
      <trkpt lat="46.06903" lon="6.09021">
        <ele>896.40002441406</ele>
        <time>2012-12-10T11:38:59.000Z</time>
      </trkpt>
      <trkpt lat="46.06899" lon="6.09013">
        <ele>896.40002441406</ele>
        <time>2012-12-10T11:39:05.000Z</time>
      </trkpt>
      <trkpt lat="46.06896" lon="6.09006">
        <ele>896.40002441406</ele>
        <time>2012-12-10T11:39:10.000Z</time>
      </trkpt>
      <trkpt lat="46.06892" lon="6.08997">
        <ele>896.40002441406</ele>
        <time>2012-12-10T11:39:16.000Z</time>
      </trkpt>
      <trkpt lat="46.06887" lon="6.08988">
        <ele>896.40002441406</ele>
        <time>2012-12-10T11:39:23.000Z</time>
      </trkpt>
      <trkpt lat="46.06883" lon="6.08981">
        <ele>896.40002441406</ele>
        <time>2012-12-10T11:39:29.000Z</time>
      </trkpt>
      <trkpt lat="46.06879" lon="6.08973">
        <ele>896.40002441406</ele>
        <time>2012-12-10T11:39:35.000Z</time>
      </trkpt>
      <trkpt lat="46.06876" lon="6.08968">
        <ele>894.40002441406</ele>
        <time>2012-12-10T11:39:39.000Z</time>
      </trkpt>
      <trkpt lat="46.06875" lon="6.08965">
        <ele>894.40002441406</ele>
        <time>2012-12-10T11:39:41.000Z</time>
      </trkpt>
      <trkpt lat="46.06871" lon="6.08958">
        <ele>894.40002441406</ele>
        <time>2012-12-10T11:39:47.000Z</time>
      </trkpt>
      <trkpt lat="46.06867" lon="6.0895">
        <ele>894.40002441406</ele>
        <time>2012-12-10T11:39:53.000Z</time>
      </trkpt>
      <trkpt lat="46.06862" lon="6.08943">
        <ele>894.40002441406</ele>
        <time>2012-12-10T11:39:59.000Z</time>
      </trkpt>
      <trkpt lat="46.06856" lon="6.08935">
        <ele>894.40002441406</ele>
        <time>2012-12-10T11:40:06.000Z</time>
      </trkpt>
      <trkpt lat="46.06856" lon="6.08934">
        <ele>893.20001220703</ele>
        <time>2012-12-10T11:40:07.000Z</time>
      </trkpt>
      <trkpt lat="46.06853" lon="6.08929">
        <ele>893.20001220703</ele>
        <time>2012-12-10T11:40:11.000Z</time>
      </trkpt>
      <trkpt lat="46.06848" lon="6.08921">
        <ele>893.20001220703</ele>
        <time>2012-12-10T11:40:17.000Z</time>
      </trkpt>
      <trkpt lat="46.06843" lon="6.08915">
        <ele>893.20001220703</ele>
        <time>2012-12-10T11:40:23.000Z</time>
      </trkpt>
      <trkpt lat="46.06839" lon="6.08906">
        <ele>893.20001220703</ele>
        <time>2012-12-10T11:40:29.000Z</time>
      </trkpt>
      <trkpt lat="46.06837" lon="6.08904">
        <ele>892.20001220703</ele>
        <time>2012-12-10T11:40:31.000Z</time>
      </trkpt>
      <trkpt lat="46.06835" lon="6.089">
        <ele>892.20001220703</ele>
        <time>2012-12-10T11:40:35.000Z</time>
      </trkpt>
      <trkpt lat="46.06831" lon="6.08893">
        <ele>892.20001220703</ele>
        <time>2012-12-10T11:40:40.000Z</time>
      </trkpt>
      <trkpt lat="46.06827" lon="6.08886">
        <ele>892.20001220703</ele>
        <time>2012-12-10T11:40:46.000Z</time>
      </trkpt>
      <trkpt lat="46.06823" lon="6.08881">
        <ele>892.20001220703</ele>
        <time>2012-12-10T11:40:51.000Z</time>
      </trkpt>
      <trkpt lat="46.06819" lon="6.08875">
        <ele>891</ele>
        <time>2012-12-10T11:40:56.000Z</time>
      </trkpt>
      <trkpt lat="46.06818" lon="6.08873">
        <ele>891</ele>
        <time>2012-12-10T11:40:57.000Z</time>
      </trkpt>
      <trkpt lat="46.06814" lon="6.08868">
        <ele>891</ele>
        <time>2012-12-10T11:41:02.000Z</time>
      </trkpt>
      <trkpt lat="46.06809" lon="6.0886">
        <ele>891</ele>
        <time>2012-12-10T11:41:09.000Z</time>
      </trkpt>
      <trkpt lat="46.06804" lon="6.08851">
        <ele>891</ele>
        <time>2012-12-10T11:41:16.000Z</time>
      </trkpt>
      <trkpt lat="46.06803" lon="6.0885">
        <ele>889.59997558594</ele>
        <time>2012-12-10T11:41:17.000Z</time>
      </trkpt>
      <trkpt lat="46.068" lon="6.08844">
        <ele>889.59997558594</ele>
        <time>2012-12-10T11:41:22.000Z</time>
      </trkpt>
      <trkpt lat="46.06794" lon="6.08836">
        <ele>889.59997558594</ele>
        <time>2012-12-10T11:41:29.000Z</time>
      </trkpt>
      <trkpt lat="46.06789" lon="6.08828">
        <ele>889.59997558594</ele>
        <time>2012-12-10T11:41:36.000Z</time>
      </trkpt>
      <trkpt lat="46.06785" lon="6.08819">
        <ele>889.59997558594</ele>
        <time>2012-12-10T11:41:43.000Z</time>
      </trkpt>
      <trkpt lat="46.0678" lon="6.08811">
        <ele>888.59997558594</ele>
        <time>2012-12-10T11:41:50.000Z</time>
      </trkpt>
      <trkpt lat="46.06774" lon="6.08802">
        <ele>888.59997558594</ele>
        <time>2012-12-10T11:41:57.000Z</time>
      </trkpt>
      <trkpt lat="46.06768" lon="6.08791">
        <ele>888.59997558594</ele>
        <time>2012-12-10T11:42:05.000Z</time>
      </trkpt>
      <trkpt lat="46.06767" lon="6.0879">
        <ele>887.59997558594</ele>
        <time>2012-12-10T11:42:06.000Z</time>
      </trkpt>
      <trkpt lat="46.0676" lon="6.08778">
        <ele>887.59997558594</ele>
        <time>2012-12-10T11:42:15.000Z</time>
      </trkpt>
      <trkpt lat="46.06758" lon="6.08773">
        <ele>886.59997558594</ele>
        <time>2012-12-10T11:42:19.000Z</time>
      </trkpt>
      <trkpt lat="46.06755" lon="6.08769">
        <ele>886.59997558594</ele>
        <time>2012-12-10T11:42:22.000Z</time>
      </trkpt>
      <trkpt lat="46.06749" lon="6.08763">
        <ele>886.59997558594</ele>
        <time>2012-12-10T11:42:28.000Z</time>
      </trkpt>
      <trkpt lat="46.06747" lon="6.08761">
        <ele>885.40002441406</ele>
        <time>2012-12-10T11:42:30.000Z</time>
      </trkpt>
      <trkpt lat="46.06743" lon="6.08756">
        <ele>885.40002441406</ele>
        <time>2012-12-10T11:42:35.000Z</time>
      </trkpt>
      <trkpt lat="46.06739" lon="6.08751">
        <ele>885.40002441406</ele>
        <time>2012-12-10T11:42:40.000Z</time>
      </trkpt>
      <trkpt lat="46.06735" lon="6.08746">
        <ele>884.40002441406</ele>
        <time>2012-12-10T11:42:44.000Z</time>
      </trkpt>
      <trkpt lat="46.06733" lon="6.08743">
        <ele>884.40002441406</ele>
        <time>2012-12-10T11:42:46.000Z</time>
      </trkpt>
      <trkpt lat="46.06729" lon="6.08734">
        <ele>883.40002441406</ele>
        <time>2012-12-10T11:42:53.000Z</time>
      </trkpt>
      <trkpt lat="46.06728" lon="6.08733">
        <ele>883.40002441406</ele>
        <time>2012-12-10T11:42:54.000Z</time>
      </trkpt>
      <trkpt lat="46.06724" lon="6.08726">
        <ele>883.40002441406</ele>
        <time>2012-12-10T11:43:01.000Z</time>
      </trkpt>
      <trkpt lat="46.06722" lon="6.08726">
        <ele>883.40002441406</ele>
        <time>2012-12-10T11:43:08.000Z</time>
      </trkpt>
      <trkpt lat="46.06722" lon="6.08725">
        <ele>882.40002441406</ele>
        <time>2012-12-10T11:43:10.000Z</time>
      </trkpt>
      <trkpt lat="46.06722" lon="6.08725">
        <ele>882.40002441406</ele>
        <time>2012-12-10T11:43:13.000Z</time>
      </trkpt>
    </trkseg>
  </trk>
</gpx>